<?xml version='1.0' encoding='UTF-8'?><gpx version="1.1" creator="JPX - https://github.com/jenetics/jpx" xmlns="http://www.topografix.com/GPX/1/1"><trk><trkseg><trkpt lat="45.613174918999746" lon="10.96374823992912"><ele>687.0</ele><time>2026-04-04T10:54:24.002Z</time></trkpt><trkpt lat="45.61333270151002" lon="10.963759104521149"><ele>687.0</ele><time>2026-04-04T10:54:27.002Z</time></trkpt><trkpt lat="45.613455145253525" lon="10.963726190961342"><ele>687.0</ele><time>2026-04-04T10:54:29.002Z</time></trkpt><trkpt lat="45.613541907004816" lon="10.963706869798282"><ele>687.0</ele><time>2026-04-04T10:54:31.002Z</time></trkpt><trkpt lat="45.61366812267104" lon="10.963718481651215"><ele>687.0</ele><time>2026-04-04T10:54:35.002Z</time></trkpt><trkpt lat="45.61365317664917" lon="10.963616131844146"><ele>687.0</ele><time>2026-04-04T10:54:38.002Z</time></trkpt><trkpt lat="45.61357686471641" lon="10.963545764108149"><ele>687.0</ele><time>2026-04-04T10:54:40.002Z</time></trkpt><trkpt lat="45.613520843569304" lon="10.963464453553884"><ele>687.0</ele><time>2026-04-04T10:54:42.002Z</time></trkpt><trkpt lat="45.6134667397506" lon="10.963364805795113"><ele>687.0</ele><time>2026-04-04T10:54:45.002Z</time></trkpt><trkpt lat="45.61343021583192" lon="10.96328943835156"><ele>687.0</ele><time>2026-04-04T10:54:47.002Z</time></trkpt><trkpt lat="45.61339910580907" lon="10.963210950044674"><ele>683.3333333333334</ele><time>2026-04-04T10:54:49.002Z</time></trkpt><trkpt lat="45.61334076206249" lon="10.96313820802261"><ele>679.6666666666666</ele><time>2026-04-04T10:54:53.002Z</time></trkpt><trkpt lat="45.61328516090964" lon="10.96305548413683"><ele>676.0</ele><time>2026-04-04T10:54:56.002Z</time></trkpt><trkpt lat="45.613210813463674" lon="10.962959234601136"><ele>672.3333333333333</ele><time>2026-04-04T10:54:58.002Z</time></trkpt><trkpt lat="45.61314490697388" lon="10.962881557600635"><ele>668.6666666666666</ele><time>2026-04-04T10:55:00.002Z</time></trkpt><trkpt lat="45.613074273806674" lon="10.96282077065151"><ele>665.0</ele><time>2026-04-04T10:55:02.002Z</time></trkpt><trkpt lat="45.612992593062884" lon="10.962705056406776"><ele>665.0</ele><time>2026-04-04T10:55:04.002Z</time></trkpt><trkpt lat="45.612944149793755" lon="10.96264637541548"><ele>665.0</ele><time>2026-04-04T10:55:05.003Z</time></trkpt><trkpt lat="45.612869176540656" lon="10.96253578287587"><ele>665.0</ele><time>2026-04-04T10:55:07.003Z</time></trkpt><trkpt lat="45.61278809451999" lon="10.962417146025402"><ele>665.0</ele><time>2026-04-04T10:55:09.003Z</time></trkpt><trkpt lat="45.612685379718876" lon="10.962307240363671"><ele>665.0</ele><time>2026-04-04T10:55:11.003Z</time></trkpt><trkpt lat="45.61261872957825" lon="10.962243636450147"><ele>663.8333333333333</ele><time>2026-04-04T10:55:12.003Z</time></trkpt><trkpt lat="45.61256746329092" lon="10.962181276849432"><ele>662.6666666666666</ele><time>2026-04-04T10:55:13.003Z</time></trkpt><trkpt lat="45.61252242768424" lon="10.962115919215424"><ele>661.5</ele><time>2026-04-04T10:55:14.003Z</time></trkpt><trkpt lat="45.61246875391046" lon="10.962015470002836"><ele>660.3333333333334</ele><time>2026-04-04T10:55:16.003Z</time></trkpt><trkpt lat="45.61238735841284" lon="10.961956366616674"><ele>659.1666666666667</ele><time>2026-04-04T10:55:18Z</time></trkpt><trkpt lat="45.612305103350934" lon="10.961921907135057"><ele>658.0</ele><time>2026-04-04T10:55:21Z</time></trkpt><trkpt lat="45.61222974548628" lon="10.961929045480344"><ele>658.0</ele><time>2026-04-04T10:55:24Z</time></trkpt><trkpt lat="45.61210998789649" lon="10.961965677277835"><ele>658.0</ele><time>2026-04-04T10:55:26Z</time></trkpt><trkpt lat="45.61198474689542" lon="10.962001392494523"><ele>658.0</ele><time>2026-04-04T10:55:28Z</time></trkpt><trkpt lat="45.61190042279894" lon="10.961997306181567"><ele>658.0</ele><time>2026-04-04T10:55:31Z</time></trkpt><trkpt lat="45.61185469378196" lon="10.961882475292327"><ele>658.0</ele><time>2026-04-04T10:55:35Z</time></trkpt><trkpt lat="45.6118538088355" lon="10.961765985722158"><ele>656.6666666666667</ele><time>2026-04-04T10:55:37Z</time></trkpt><trkpt lat="45.61183241260808" lon="10.961607733248506"><ele>655.3333333333334</ele><time>2026-04-04T10:55:39Z</time></trkpt><trkpt lat="45.61180871805425" lon="10.961517697033432"><ele>654.0</ele><time>2026-04-04T10:55:40Z</time></trkpt><trkpt lat="45.61179628874552" lon="10.96142474507711"><ele>652.6666666666666</ele><time>2026-04-04T10:55:42Z</time></trkpt><trkpt lat="45.61185128812762" lon="10.961369995382112"><ele>651.3333333333333</ele><time>2026-04-04T10:56:08.001Z</time></trkpt><trkpt lat="45.6119106112222" lon="10.9613348908606"><ele>650.0</ele><time>2026-04-04T10:56:10.001Z</time></trkpt><trkpt lat="45.61210885011151" lon="10.961348176455665"><ele>648.0</ele><time>2026-04-04T10:56:17.001Z</time></trkpt><trkpt lat="45.612182335369646" lon="10.961362065814868"><ele>646.0</ele><time>2026-04-04T10:56:26.001Z</time></trkpt><trkpt lat="45.612187111758445" lon="10.961265589585977"><ele>644.0</ele><time>2026-04-04T10:56:31.002Z</time></trkpt><trkpt lat="45.61216548065236" lon="10.96117965896894"><ele>642.0</ele><time>2026-04-04T10:56:43.002Z</time></trkpt><trkpt lat="45.61213297479951" lon="10.96104515985481"><ele>640.0</ele><time>2026-04-04T10:56:50.002Z</time></trkpt><trkpt lat="45.612077795238015" lon="10.960945028659511"><ele>638.0</ele><time>2026-04-04T10:56:52.002Z</time></trkpt><trkpt lat="45.612029963326705" lon="10.9608649716736"><ele>638.4285714285714</ele><time>2026-04-04T10:56:58.002Z</time></trkpt><trkpt lat="45.61199031070906" lon="10.96077708180612"><ele>638.8571428571428</ele><time>2026-04-04T10:57:03.002Z</time></trkpt><trkpt lat="45.61193488831361" lon="10.960725288725587"><ele>639.2857142857142</ele><time>2026-04-04T10:57:07.002Z</time></trkpt><trkpt lat="45.611869110701456" lon="10.960682716990688"><ele>639.7142857142858</ele><time>2026-04-04T10:57:11.002Z</time></trkpt><trkpt lat="45.61185997997198" lon="10.960582382551715"><ele>640.1428571428571</ele><time>2026-04-04T10:57:15.003Z</time></trkpt><trkpt lat="45.611822591250274" lon="10.960504276322832"><ele>640.5714285714286</ele><time>2026-04-04T10:57:18.003Z</time></trkpt><trkpt lat="45.61178085024367" lon="10.960427929184291"><ele>641.0</ele><time>2026-04-04T10:57:22.003Z</time></trkpt><trkpt lat="45.61171808403516" lon="10.960346101814595"><ele>641.0</ele><time>2026-04-04T10:57:51Z</time></trkpt><trkpt lat="45.6116297555916" lon="10.960254853107221"><ele>641.0</ele><time>2026-04-04T10:57:56.001Z</time></trkpt><trkpt lat="45.61158198857106" lon="10.960195134806877"><ele>641.0</ele><time>2026-04-04T10:58:01.001Z</time></trkpt><trkpt lat="45.61153341216215" lon="10.960133818073084"><ele>641.0</ele><time>2026-04-04T10:58:07.001Z</time></trkpt><trkpt lat="45.61166354766082" lon="10.960060733976565"><ele>641.0</ele><time>2026-04-04T10:59:17.002Z</time></trkpt><trkpt lat="45.611862681378874" lon="10.960110815237563"><ele>641.0</ele><time>2026-04-04T10:59:27.003Z</time></trkpt><trkpt lat="45.61178998867502" lon="10.960102675222695"><ele>641.0</ele><time>2026-04-04T11:00:32.001Z</time></trkpt><trkpt lat="45.61172533367699" lon="10.96006638983548"><ele>641.0</ele><time>2026-04-04T11:00:36.001Z</time></trkpt><trkpt lat="45.61165410476675" lon="10.960038674957019"><ele>641.0</ele><time>2026-04-04T11:00:39.001Z</time></trkpt><trkpt lat="45.61157811326362" lon="10.960014761599115"><ele>641.0</ele><time>2026-04-04T11:00:42.002Z</time></trkpt><trkpt lat="45.61149998629478" lon="10.95999465208779"><ele>641.0</ele><time>2026-04-04T11:00:45.002Z</time></trkpt><trkpt lat="45.61144900930636" lon="10.95993201993363"><ele>641.0</ele><time>2026-04-04T11:00:48.002Z</time></trkpt><trkpt lat="45.6113865093271" lon="10.959862068107096"><ele>641.0</ele><time>2026-04-04T11:00:55.002Z</time></trkpt><trkpt lat="45.61135921449869" lon="10.959771304503892"><ele>641.0</ele><time>2026-04-04T11:00:58.002Z</time></trkpt><trkpt lat="45.61142087551573" lon="10.959813955673605"><ele>641.0</ele><time>2026-04-04T11:03:51.001Z</time></trkpt><trkpt lat="45.61145982410586" lon="10.959887059680558"><ele>641.0</ele><time>2026-04-04T11:03:56.001Z</time></trkpt><trkpt lat="45.61151111383696" lon="10.959941512934298"><ele>641.0</ele><time>2026-04-04T11:04:00.001Z</time></trkpt><trkpt lat="45.61153252702114" lon="10.960035017842765"><ele>641.0</ele><time>2026-04-04T11:04:21.001Z</time></trkpt><trkpt lat="45.61159447745713" lon="10.960094227829707"><ele>641.0</ele><time>2026-04-04T11:04:43.001Z</time></trkpt><trkpt lat="45.61163686634513" lon="10.960175337702136"><ele>641.0</ele><time>2026-04-04T11:04:46.001Z</time></trkpt><trkpt lat="45.611699178208376" lon="10.960251661110611"><ele>641.0</ele><time>2026-04-04T11:04:51.001Z</time></trkpt><trkpt lat="45.61172696090926" lon="10.96033373608821"><ele>641.0</ele><time>2026-04-04T11:04:55.001Z</time></trkpt><trkpt lat="45.611786167422316" lon="10.960378011844186"><ele>641.0</ele><time>2026-04-04T11:05:08.002Z</time></trkpt><trkpt lat="45.61182710980996" lon="10.960474103212974"><ele>641.0</ele><time>2026-04-04T11:05:10.002Z</time></trkpt><trkpt lat="45.61182189373125" lon="10.9606082778586"><ele>641.0</ele><time>2026-04-04T11:05:14.002Z</time></trkpt><trkpt lat="45.61190808484097" lon="10.960670513724947"><ele>641.0</ele><time>2026-04-04T11:05:19.002Z</time></trkpt><trkpt lat="45.61197241115523" lon="10.960722862222578"><ele>641.0</ele><time>2026-04-04T11:05:23.002Z</time></trkpt><trkpt lat="45.61207269308021" lon="10.960855611717136"><ele>641.0</ele><time>2026-04-04T11:05:31.002Z</time></trkpt><trkpt lat="45.61211930186862" lon="10.9609598078059"><ele>641.0</ele><time>2026-04-04T11:05:33.002Z</time></trkpt><trkpt lat="45.61217469487279" lon="10.961032721531074"><ele>641.0</ele><time>2026-04-04T11:05:36.002Z</time></trkpt><trkpt lat="45.61219680486094" lon="10.96111967306632"><ele>641.0</ele><time>2026-04-04T11:05:38.002Z</time></trkpt><trkpt lat="45.61220066216216" lon="10.96121351572251"><ele>640.5</ele><time>2026-04-04T11:05:40.002Z</time></trkpt><trkpt lat="45.612206464082746" lon="10.961306511041276"><ele>640.0</ele><time>2026-04-04T11:05:43.002Z</time></trkpt><trkpt lat="45.61222042310336" lon="10.96142085618058"><ele>639.5</ele><time>2026-04-04T11:05:46.002Z</time></trkpt><trkpt lat="45.61228625786862" lon="10.961427351236601"><ele>639.0</ele><time>2026-04-04T11:05:49Z</time></trkpt><trkpt lat="45.61236245687286" lon="10.961388003009962"><ele>638.5</ele><time>2026-04-04T11:05:51Z</time></trkpt><trkpt lat="45.61242614409578" lon="10.961370387941338"><ele>638.0</ele><time>2026-04-04T11:05:52Z</time></trkpt><trkpt lat="45.61250525705626" lon="10.96144343394384"><ele>638.0</ele><time>2026-04-04T11:05:55Z</time></trkpt><trkpt lat="45.61257115569465" lon="10.961502288159402"><ele>638.0</ele><time>2026-04-04T11:05:59Z</time></trkpt><trkpt lat="45.61261772917732" lon="10.96156928743093"><ele>638.0</ele><time>2026-04-04T11:06:02Z</time></trkpt><trkpt lat="45.61267290088023" lon="10.961624298640546"><ele>638.0</ele><time>2026-04-04T11:06:09Z</time></trkpt><trkpt lat="45.61276157333886" lon="10.961665328940185"><ele>638.0</ele><time>2026-04-04T11:06:13Z</time></trkpt><trkpt lat="45.61283061540925" lon="10.961679859624663"><ele>638.0</ele><time>2026-04-04T11:06:16Z</time></trkpt><trkpt lat="45.612907671710445" lon="10.961674555890598"><ele>638.5999999999999</ele><time>2026-04-04T11:06:19Z</time></trkpt><trkpt lat="45.61297776778409" lon="10.961716670747862"><ele>639.1999999999999</ele><time>2026-04-04T11:06:22Z</time></trkpt><trkpt lat="45.61306351549803" lon="10.961771896044018"><ele>639.8</ele><time>2026-04-04T11:06:25Z</time></trkpt><trkpt lat="45.61313712563347" lon="10.961835910565435"><ele>640.4</ele><time>2026-04-04T11:06:28Z</time></trkpt><trkpt lat="45.613224670808435" lon="10.961942250060254"><ele>641.0</ele><time>2026-04-04T11:06:30Z</time></trkpt><trkpt lat="45.61330648286585" lon="10.961996228005631"><ele>641.0</ele><time>2026-04-04T11:06:32Z</time></trkpt><trkpt lat="45.61337239302569" lon="10.96207058043716"><ele>641.0</ele><time>2026-04-04T11:06:35Z</time></trkpt><trkpt lat="45.613442540438875" lon="10.962174890243924"><ele>641.0</ele><time>2026-04-04T11:06:38Z</time></trkpt><trkpt lat="45.61351278808575" lon="10.962268401550991"><ele>641.0</ele><time>2026-04-04T11:06:41.001Z</time></trkpt><trkpt lat="45.6135908053082" lon="10.96236790504185"><ele>641.0</ele><time>2026-04-04T11:06:44.001Z</time></trkpt><trkpt lat="45.613650548755295" lon="10.96243330373767"><ele>640.5</ele><time>2026-04-04T11:06:46.001Z</time></trkpt><trkpt lat="45.61371838990056" lon="10.962490244407231"><ele>640.0</ele><time>2026-04-04T11:06:48.001Z</time></trkpt><trkpt lat="45.61380776771582" lon="10.962538071710162"><ele>639.5</ele><time>2026-04-04T11:06:50.001Z</time></trkpt><trkpt lat="45.613872722061224" lon="10.96257915184439"><ele>639.0</ele><time>2026-04-04T11:06:55.001Z</time></trkpt><trkpt lat="45.61394135348031" lon="10.962624609388582"><ele>638.5</ele><time>2026-04-04T11:07:01.001Z</time></trkpt><trkpt lat="45.61398836882571" lon="10.962684565378114"><ele>638.0</ele><time>2026-04-04T11:07:06.001Z</time></trkpt><trkpt lat="45.61407623074998" lon="10.962693005811483"><ele>638.0</ele><time>2026-04-04T11:07:09.001Z</time></trkpt><trkpt lat="45.61414651619938" lon="10.96272437861072"><ele>638.0</ele><time>2026-04-04T11:07:47.002Z</time></trkpt><trkpt lat="45.6141927012495" lon="10.962793228410803"><ele>638.0</ele><time>2026-04-04T11:07:50.002Z</time></trkpt><trkpt lat="45.614258700295956" lon="10.962800528017443"><ele>638.0</ele><time>2026-04-04T11:07:52.999Z</time></trkpt><trkpt lat="45.61430404092879" lon="10.962881449109434"><ele>638.0</ele><time>2026-04-04T11:07:54.999Z</time></trkpt><trkpt lat="45.614369983501184" lon="10.962886145132616"><ele>638.0</ele><time>2026-04-04T11:07:57.999Z</time></trkpt><trkpt lat="45.61443918431189" lon="10.96288649002719"><ele>638.0</ele><time>2026-04-04T11:07:59.999Z</time></trkpt><trkpt lat="45.61452593776171" lon="10.96290023809967"><ele>633.8571428571429</ele><time>2026-04-04T11:08:03.999Z</time></trkpt><trkpt lat="45.614604383270354" lon="10.96293496825651"><ele>629.7142857142857</ele><time>2026-04-04T11:08:06.999Z</time></trkpt><trkpt lat="45.61467154617821" lon="10.962947087392532"><ele>625.5714285714286</ele><time>2026-04-04T11:08:10Z</time></trkpt><trkpt lat="45.614733872100565" lon="10.962973140415397"><ele>621.4285714285714</ele><time>2026-04-04T11:08:16Z</time></trkpt><trkpt lat="45.61481375175253" lon="10.962994446900113"><ele>617.2857142857142</ele><time>2026-04-04T11:08:20Z</time></trkpt><trkpt lat="45.61486200338361" lon="10.963064493807924"><ele>613.1428571428571</ele><time>2026-04-04T11:08:23Z</time></trkpt><trkpt lat="45.61493530118485" lon="10.963101278493156"><ele>609.0</ele><time>2026-04-04T11:08:25Z</time></trkpt><trkpt lat="45.61500997780794" lon="10.963133122912666"><ele>609.0</ele><time>2026-04-04T11:08:27Z</time></trkpt><trkpt lat="45.61505414806038" lon="10.963213619496148"><ele>609.0</ele><time>2026-04-04T11:08:29Z</time></trkpt><trkpt lat="45.61514912035901" lon="10.963266765031554"><ele>609.0</ele><time>2026-04-04T11:08:31Z</time></trkpt><trkpt lat="45.615211810003096" lon="10.96336462275796"><ele>609.0</ele><time>2026-04-04T11:08:34Z</time></trkpt><trkpt lat="45.61526219373453" lon="10.96341948072138"><ele>609.0</ele><time>2026-04-04T11:08:35Z</time></trkpt><trkpt lat="45.61533184442835" lon="10.963429773290885"><ele>609.0</ele><time>2026-04-04T11:08:36Z</time></trkpt><trkpt lat="45.615391117204055" lon="10.963504175220738"><ele>607.8</ele><time>2026-04-04T11:08:40Z</time></trkpt><trkpt lat="45.61546051641236" lon="10.963546514966014"><ele>606.5999999999999</ele><time>2026-04-04T11:09:00.001Z</time></trkpt><trkpt lat="45.61555558691761" lon="10.963590487008817"><ele>605.4</ele><time>2026-04-04T11:09:03.001Z</time></trkpt><trkpt lat="45.61561163555133" lon="10.963663607660942"><ele>604.1999999999999</ele><time>2026-04-04T11:09:07.001Z</time></trkpt><trkpt lat="45.61569500409387" lon="10.963732845074711"><ele>603.0</ele><time>2026-04-04T11:09:09.001Z</time></trkpt><trkpt lat="45.615797119444316" lon="10.963790928878192"><ele>603.0</ele><time>2026-04-04T11:09:13.001Z</time></trkpt><trkpt lat="45.61588810811832" lon="10.963827685371113"><ele>603.0</ele><time>2026-04-04T11:10:23Z</time></trkpt><trkpt lat="45.61596246420013" lon="10.963843026779534"><ele>603.0</ele><time>2026-04-04T11:10:56.001Z</time></trkpt><trkpt lat="45.61602300003347" lon="10.963906303867757"><ele>603.0</ele><time>2026-04-04T11:10:59.001Z</time></trkpt><trkpt lat="45.6161019453394" lon="10.963981479581966"><ele>603.0</ele><time>2026-04-04T11:11:02.001Z</time></trkpt><trkpt lat="45.61616696483511" lon="10.96404015374691"><ele>603.0</ele><time>2026-04-04T11:11:04.001Z</time></trkpt><trkpt lat="45.61623058730382" lon="10.964121943385107"><ele>601.0</ele><time>2026-04-04T11:11:07.001Z</time></trkpt><trkpt lat="45.6162750459471" lon="10.964210616515407"><ele>599.0</ele><time>2026-04-04T11:11:11.001Z</time></trkpt><trkpt lat="45.616300961791886" lon="10.964295199066527"><ele>597.0</ele><time>2026-04-04T11:11:14.001Z</time></trkpt><trkpt lat="45.61636025154659" lon="10.964364097323474"><ele>595.0</ele><time>2026-04-04T11:11:16.001Z</time></trkpt><trkpt lat="45.61640418529322" lon="10.96444596189297"><ele>593.0</ele><time>2026-04-04T11:11:18.001Z</time></trkpt><trkpt lat="45.61643120060992" lon="10.964553902600946"><ele>591.0</ele><time>2026-04-04T11:11:20.001Z</time></trkpt><trkpt lat="45.61642205114751" lon="10.964651552809546"><ele>589.0</ele><time>2026-04-04T11:11:22.001Z</time></trkpt><trkpt lat="45.616444018111004" lon="10.964759583123513"><ele>589.0</ele><time>2026-04-04T11:11:24.001Z</time></trkpt><trkpt lat="45.61643121713466" lon="10.964870425479761"><ele>589.0</ele><time>2026-04-04T11:11:26.001Z</time></trkpt><trkpt lat="45.616445622654" lon="10.96496841119108"><ele>589.0</ele><time>2026-04-04T11:11:28.001Z</time></trkpt><trkpt lat="45.61645014090587" lon="10.965073146279009"><ele>589.0</ele><time>2026-04-04T11:11:30.001Z</time></trkpt><trkpt lat="45.61648861993465" lon="10.9651501478479"><ele>589.0</ele><time>2026-04-04T11:11:33.002Z</time></trkpt><trkpt lat="45.61647486734067" lon="10.96523896808145"><ele>589.0</ele><time>2026-04-04T11:11:37.002Z</time></trkpt><trkpt lat="45.616498760905415" lon="10.965330163496345"><ele>589.0</ele><time>2026-04-04T11:11:48.002Z</time></trkpt><trkpt lat="45.61651694790562" lon="10.965443353218967"><ele>589.6666666666667</ele><time>2026-04-04T11:11:52.002Z</time></trkpt><trkpt lat="45.616522560389576" lon="10.96557448678442"><ele>590.3333333333334</ele><time>2026-04-04T11:11:56.002Z</time></trkpt><trkpt lat="45.61651002789301" lon="10.965676404851473"><ele>591.0</ele><time>2026-04-04T11:12:00.002Z</time></trkpt><trkpt lat="45.616495107497485" lon="10.965791015319029"><ele>591.6666666666666</ele><time>2026-04-04T11:12:03.002Z</time></trkpt><trkpt lat="45.61643431606227" lon="10.965867340429428"><ele>592.3333333333333</ele><time>2026-04-04T11:12:06Z</time></trkpt><trkpt lat="45.616386147278035" lon="10.965964119586705"><ele>593.0</ele><time>2026-04-04T11:12:09Z</time></trkpt><trkpt lat="45.616282600486876" lon="10.966085653602594"><ele>593.0</ele><time>2026-04-04T11:12:11Z</time></trkpt><trkpt lat="45.61623143156304" lon="10.966178405513848"><ele>593.0</ele><time>2026-04-04T11:12:14Z</time></trkpt><trkpt lat="45.61615231845241" lon="10.966258304410353"><ele>593.0</ele><time>2026-04-04T11:12:17Z</time></trkpt><trkpt lat="45.61608865927072" lon="10.966337505258782"><ele>593.0</ele><time>2026-04-04T11:12:20Z</time></trkpt><trkpt lat="45.61605591904523" lon="10.96642506350112"><ele>593.0</ele><time>2026-04-04T11:12:23Z</time></trkpt><trkpt lat="45.61597070106688" lon="10.966500765309885"><ele>593.0</ele><time>2026-04-04T11:12:26Z</time></trkpt><trkpt lat="45.615929191329364" lon="10.966576995236284"><ele>592.4285714285713</ele><time>2026-04-04T11:12:29Z</time></trkpt><trkpt lat="45.61585569015563" lon="10.96665216982129"><ele>591.8571428571429</ele><time>2026-04-04T11:12:32Z</time></trkpt><trkpt lat="45.615794231990755" lon="10.966700378914643"><ele>591.2857142857142</ele><time>2026-04-04T11:12:42.001Z</time></trkpt><trkpt lat="45.61574816635181" lon="10.966764640597196"><ele>590.7142857142857</ele><time>2026-04-04T11:12:54.001Z</time></trkpt><trkpt lat="45.615698627996984" lon="10.966830563579165"><ele>590.1428571428571</ele><time>2026-04-04T11:13:00.001Z</time></trkpt><trkpt lat="45.61564564658536" lon="10.966916037870261"><ele>589.5714285714286</ele><time>2026-04-04T11:13:03.001Z</time></trkpt><trkpt lat="45.61558468782476" lon="10.966982694146767"><ele>589.0</ele><time>2026-04-04T11:13:06.001Z</time></trkpt><trkpt lat="45.61551986910325" lon="10.967034281576298"><ele>589.0</ele><time>2026-04-04T11:13:08.001Z</time></trkpt><trkpt lat="45.615465009091515" lon="10.967114604135043"><ele>589.0</ele><time>2026-04-04T11:13:11.001Z</time></trkpt><trkpt lat="45.61540005155583" lon="10.967180177748505"><ele>589.0</ele><time>2026-04-04T11:13:13.001Z</time></trkpt><trkpt lat="45.61534901723927" lon="10.967234388912896"><ele>589.0</ele><time>2026-04-04T11:13:17.001Z</time></trkpt><trkpt lat="45.61529491231228" lon="10.967298897006573"><ele>589.0</ele><time>2026-04-04T11:13:20.001Z</time></trkpt><trkpt lat="45.61522973647327" lon="10.96734557296361"><ele>589.0</ele><time>2026-04-04T11:13:23.001Z</time></trkpt><trkpt lat="45.61516281055448" lon="10.967361311634182"><ele>589.0</ele><time>2026-04-04T11:13:26.001Z</time></trkpt><trkpt lat="45.615089388172265" lon="10.967352887237121"><ele>587.4285714285714</ele><time>2026-04-04T11:13:30.001Z</time></trkpt><trkpt lat="45.615062100646334" lon="10.967451087492954"><ele>585.8571428571428</ele><time>2026-04-04T11:13:35.002Z</time></trkpt><trkpt lat="45.615016043899914" lon="10.9675383078363"><ele>584.2857142857142</ele><time>2026-04-04T11:13:37.002Z</time></trkpt><trkpt lat="45.61495757038194" lon="10.967585045018604"><ele>582.7142857142857</ele><time>2026-04-04T11:13:44.002Z</time></trkpt><trkpt lat="45.614951842070916" lon="10.967687588499182"><ele>581.1428571428571</ele><time>2026-04-04T11:13:46.002Z</time></trkpt><trkpt lat="45.614923013658476" lon="10.967773888609889"><ele>579.5714285714286</ele><time>2026-04-04T11:13:48.002Z</time></trkpt><trkpt lat="45.614917469756904" lon="10.967882612469163"><ele>578.0</ele><time>2026-04-04T11:13:52.002Z</time></trkpt><trkpt lat="45.614934204871595" lon="10.968024759611154"><ele>578.0</ele><time>2026-04-04T11:13:55.002Z</time></trkpt><trkpt lat="45.61490929998167" lon="10.968117295376253"><ele>578.0</ele><time>2026-04-04T11:13:57.002Z</time></trkpt><trkpt lat="45.614850385232245" lon="10.968192173019364"><ele>578.0</ele><time>2026-04-04T11:14:00.002Z</time></trkpt><trkpt lat="45.614840850579924" lon="10.968281275878143"><ele>578.0</ele><time>2026-04-04T11:14:02.002Z</time></trkpt><trkpt lat="45.614826474061466" lon="10.968373647901785"><ele>578.0</ele><time>2026-04-04T11:14:04.002Z</time></trkpt><trkpt lat="45.614827110914085" lon="10.968485706935246"><ele>578.0</ele><time>2026-04-04T11:14:09.002Z</time></trkpt><trkpt lat="45.61480160855121" lon="10.968579023539096"><ele>578.0</ele><time>2026-04-04T11:14:12Z</time></trkpt><trkpt lat="45.61477855165973" lon="10.968699977442942"><ele>582.1666666666666</ele><time>2026-04-04T11:14:15Z</time></trkpt><trkpt lat="45.614719798305416" lon="10.968795784200395"><ele>586.3333333333333</ele><time>2026-04-04T11:14:17Z</time></trkpt><trkpt lat="45.61467349073788" lon="10.968901764713863"><ele>590.5</ele><time>2026-04-04T11:14:20Z</time></trkpt><trkpt lat="45.61464417982413" lon="10.968986458640597"><ele>594.6666666666666</ele><time>2026-04-04T11:14:22Z</time></trkpt><trkpt lat="45.61460610066052" lon="10.96905825870239"><ele>598.8333333333334</ele><time>2026-04-04T11:14:24Z</time></trkpt><trkpt lat="45.61459731206488" lon="10.969193657722009"><ele>603.0</ele><time>2026-04-04T11:14:26Z</time></trkpt><trkpt lat="45.61456921107778" lon="10.969291940723984"><ele>600.4</ele><time>2026-04-04T11:14:28Z</time></trkpt><trkpt lat="45.614522545518064" lon="10.96937779510109"><ele>597.8</ele><time>2026-04-04T11:14:30Z</time></trkpt><trkpt lat="45.61446847662216" lon="10.969471625357508"><ele>595.2</ele><time>2026-04-04T11:14:51.001Z</time></trkpt><trkpt lat="45.614404141357504" lon="10.969511409340141"><ele>592.6</ele><time>2026-04-04T11:14:53.001Z</time></trkpt><trkpt lat="45.614302244127465" lon="10.969606661865994"><ele>590.0</ele><time>2026-04-04T11:14:55.001Z</time></trkpt><trkpt lat="45.6141857802673" lon="10.969699338363169"><ele>590.0</ele><time>2026-04-04T11:14:57.001Z</time></trkpt><trkpt lat="45.61412190739377" lon="10.969765128235986"><ele>590.0</ele><time>2026-04-04T11:14:58.001Z</time></trkpt><trkpt lat="45.61403638828097" lon="10.969854870237832"><ele>590.0</ele><time>2026-04-04T11:14:59.001Z</time></trkpt><trkpt lat="45.61395985858256" lon="10.969941850070395"><ele>590.0</ele><time>2026-04-04T11:15:00.001Z</time></trkpt><trkpt lat="45.613864835397564" lon="10.970042741685248"><ele>590.0</ele><time>2026-04-04T11:15:01.001Z</time></trkpt><trkpt lat="45.613763594245235" lon="10.97013115082094"><ele>590.5</ele><time>2026-04-04T11:15:02.001Z</time></trkpt><trkpt lat="45.61365099822123" lon="10.970197823088066"><ele>591.0</ele><time>2026-04-04T11:15:03.001Z</time></trkpt><trkpt lat="45.613535275008395" lon="10.970250625194574"><ele>591.5</ele><time>2026-04-04T11:15:04.001Z</time></trkpt><trkpt lat="45.61342806489417" lon="10.970333029402989"><ele>592.0</ele><time>2026-04-04T11:15:05.001Z</time></trkpt><trkpt lat="45.61331745260215" lon="10.970416293326387"><ele>592.0</ele><time>2026-04-04T11:15:06.001Z</time></trkpt><trkpt lat="45.613212578829774" lon="10.97052369403084"><ele>592.0</ele><time>2026-04-04T11:15:07.001Z</time></trkpt><trkpt lat="45.613109501303754" lon="10.970625127720535"><ele>592.0</ele><time>2026-04-04T11:15:08.001Z</time></trkpt><trkpt lat="45.61299781600958" lon="10.970702786266928"><ele>592.0</ele><time>2026-04-04T11:15:09.001Z</time></trkpt><trkpt lat="45.61288489120405" lon="10.970756679692334"><ele>596.5</ele><time>2026-04-04T11:15:10.001Z</time></trkpt><trkpt lat="45.612769354068725" lon="10.970783542748661"><ele>601.0</ele><time>2026-04-04T11:15:11.001Z</time></trkpt><trkpt lat="45.61265649530959" lon="10.970805599507795"><ele>605.5</ele><time>2026-04-04T11:15:12.001Z</time></trkpt><trkpt lat="45.61254241833251" lon="10.970853032674055"><ele>610.0</ele><time>2026-04-04T11:15:13.001Z</time></trkpt><trkpt lat="45.61241874505687" lon="10.970898388523567"><ele>610.0</ele><time>2026-04-04T11:15:14.001Z</time></trkpt><trkpt lat="45.61229207716387" lon="10.970923316011202"><ele>610.0</ele><time>2026-04-04T11:15:15.001Z</time></trkpt><trkpt lat="45.612170533998004" lon="10.970961459391338"><ele>610.0</ele><time>2026-04-04T11:15:16.001Z</time></trkpt><trkpt lat="45.61204886205857" lon="10.97099614651203"><ele>610.0</ele><time>2026-04-04T11:15:17.001Z</time></trkpt><trkpt lat="45.611932442930154" lon="10.971034936291261"><ele>597.5</ele><time>2026-04-04T11:15:18.001Z</time></trkpt><trkpt lat="45.6118157139651" lon="10.971082252997864"><ele>585.0</ele><time>2026-04-04T11:15:19.001Z</time></trkpt><trkpt lat="45.61170735215657" lon="10.971143347838927"><ele>572.5</ele><time>2026-04-04T11:15:20.001Z</time></trkpt><trkpt lat="45.61160154216066" lon="10.97121818669231"><ele>560.0</ele><time>2026-04-04T11:15:21.001Z</time></trkpt><trkpt lat="45.611502826195014" lon="10.971304210767176"><ele>560.0</ele><time>2026-04-04T11:15:22.001Z</time></trkpt><trkpt lat="45.611407320596015" lon="10.971399477828088"><ele>560.0</ele><time>2026-04-04T11:15:23.001Z</time></trkpt><trkpt lat="45.611309541607824" lon="10.971500157650693"><ele>560.0</ele><time>2026-04-04T11:15:24.001Z</time></trkpt><trkpt lat="45.61121956481309" lon="10.971609721146653"><ele>560.0</ele><time>2026-04-04T11:15:25.001Z</time></trkpt><trkpt lat="45.61112007944656" lon="10.971709418424314"><ele>554.0</ele><time>2026-04-04T11:15:26.001Z</time></trkpt><trkpt lat="45.61101621735211" lon="10.971815435796026"><ele>548.0</ele><time>2026-04-04T11:15:27.001Z</time></trkpt><trkpt lat="45.61091760822879" lon="10.971928402949326"><ele>542.0</ele><time>2026-04-04T11:15:28.001Z</time></trkpt><trkpt lat="45.61082376567557" lon="10.972024895589806"><ele>536.0</ele><time>2026-04-04T11:15:29.001Z</time></trkpt><trkpt lat="45.61074730883949" lon="10.97208759519083"><ele>536.0</ele><time>2026-04-04T11:15:30.001Z</time></trkpt><trkpt lat="45.61067551207105" lon="10.972167204932916"><ele>536.0</ele><time>2026-04-04T11:15:32.001Z</time></trkpt><trkpt lat="45.610646484305974" lon="10.972250923314201"><ele>536.0</ele><time>2026-04-04T11:15:47.002Z</time></trkpt><trkpt lat="45.61057311568685" lon="10.97238703569956"><ele>536.0</ele><time>2026-04-04T11:15:49.002Z</time></trkpt><trkpt lat="45.61051876150301" lon="10.972497942804146"><ele>536.0</ele><time>2026-04-04T11:15:50.002Z</time></trkpt><trkpt lat="45.61046658619121" lon="10.972636547006916"><ele>532.75</ele><time>2026-04-04T11:15:51.002Z</time></trkpt><trkpt lat="45.61040869198449" lon="10.972779748649677"><ele>529.5</ele><time>2026-04-04T11:15:52.002Z</time></trkpt><trkpt lat="45.6103342202999" lon="10.972918429769198"><ele>526.25</ele><time>2026-04-04T11:15:53.002Z</time></trkpt><trkpt lat="45.61023670332881" lon="10.97303284410615"><ele>523.0</ele><time>2026-04-04T11:15:54.002Z</time></trkpt><trkpt lat="45.61013021141436" lon="10.973120620772022"><ele>523.0</ele><time>2026-04-04T11:15:55.002Z</time></trkpt><trkpt lat="45.61001785922919" lon="10.973193144644636"><ele>523.0</ele><time>2026-04-04T11:15:56.002Z</time></trkpt><trkpt lat="45.60992256938173" lon="10.97327081475975"><ele>523.0</ele><time>2026-04-04T11:15:57.002Z</time></trkpt><trkpt lat="45.60983859849612" lon="10.973381617461024"><ele>523.0</ele><time>2026-04-04T11:15:58.002Z</time></trkpt><trkpt lat="45.609763876224825" lon="10.973505674740897"><ele>528.4</ele><time>2026-04-04T11:15:59.002Z</time></trkpt><trkpt lat="45.60970040002098" lon="10.973637778153503"><ele>533.8</ele><time>2026-04-04T11:16:00.002Z</time></trkpt><trkpt lat="45.609649694702945" lon="10.973782175067448"><ele>539.2</ele><time>2026-04-04T11:16:01.002Z</time></trkpt><trkpt lat="45.60960963715919" lon="10.973932109530663"><ele>544.6</ele><time>2026-04-04T11:16:02.002Z</time></trkpt><trkpt lat="45.60959450604528" lon="10.974082671128468"><ele>550.0</ele><time>2026-04-04T11:16:03.002Z</time></trkpt><trkpt lat="45.60958621238797" lon="10.974231038816354"><ele>554.2</ele><time>2026-04-04T11:16:04.002Z</time></trkpt><trkpt lat="45.60956682159733" lon="10.974376864865995"><ele>558.4</ele><time>2026-04-04T11:16:05.002Z</time></trkpt><trkpt lat="45.609535837734065" lon="10.974510403784716"><ele>562.6</ele><time>2026-04-04T11:16:06.002Z</time></trkpt><trkpt lat="45.60950027369059" lon="10.974632844917373"><ele>566.8</ele><time>2026-04-04T11:16:07.002Z</time></trkpt><trkpt lat="45.60947526157265" lon="10.974748758607912"><ele>571.0</ele><time>2026-04-04T11:16:08.002Z</time></trkpt><trkpt lat="45.60943447024132" lon="10.97488427768802"><ele>556.0</ele><time>2026-04-04T11:16:09.002Z</time></trkpt><trkpt lat="45.6093715020779" lon="10.975037522428996"><ele>541.0</ele><time>2026-04-04T11:16:10.002Z</time></trkpt><trkpt lat="45.60930662878057" lon="10.975204501504312"><ele>526.0</ele><time>2026-04-04T11:16:11.002Z</time></trkpt><trkpt lat="45.609253645654064" lon="10.975388346535121"><ele>511.0</ele><time>2026-04-04T11:16:12.002Z</time></trkpt><trkpt lat="45.60921743978193" lon="10.975570618472075"><ele>511.0</ele><time>2026-04-04T11:16:13.002Z</time></trkpt><trkpt lat="45.609172209270476" lon="10.9757501773459"><ele>511.0</ele><time>2026-04-04T11:16:14.002Z</time></trkpt><trkpt lat="45.6091171087826" lon="10.975924841531214"><ele>511.0</ele><time>2026-04-04T11:16:15.002Z</time></trkpt><trkpt lat="45.60905878217867" lon="10.976079383925873"><ele>511.0</ele><time>2026-04-04T11:16:16.002Z</time></trkpt><trkpt lat="45.60899977410942" lon="10.97622392998674"><ele>511.75</ele><time>2026-04-04T11:16:16.999Z</time></trkpt><trkpt lat="45.60894930653353" lon="10.97637276423809"><ele>512.5</ele><time>2026-04-04T11:16:17.999Z</time></trkpt><trkpt lat="45.60891925356714" lon="10.97652846597323"><ele>513.25</ele><time>2026-04-04T11:16:18.999Z</time></trkpt><trkpt lat="45.60891686032038" lon="10.976704398544175"><ele>514.0</ele><time>2026-04-04T11:16:19.999Z</time></trkpt><trkpt lat="45.60893547661924" lon="10.976865853101351"><ele>510.6666666666667</ele><time>2026-04-04T11:16:20.999Z</time></trkpt><trkpt lat="45.60895275107483" lon="10.977004268824484"><ele>507.33333333333337</ele><time>2026-04-04T11:16:21.999Z</time></trkpt><trkpt lat="45.608974786175985" lon="10.977106694506702"><ele>504.0</ele><time>2026-04-04T11:16:22.999Z</time></trkpt><trkpt lat="45.60902127671093" lon="10.977186371311284"><ele>500.66666666666663</ele><time>2026-04-04T11:16:23.999Z</time></trkpt><trkpt lat="45.6090983705098" lon="10.977232885823208"><ele>497.3333333333333</ele><time>2026-04-04T11:16:24.999Z</time></trkpt><trkpt lat="45.60919862271364" lon="10.977276062734283"><ele>494.0</ele><time>2026-04-04T11:16:25.999Z</time></trkpt><trkpt lat="45.60928464683107" lon="10.977333350815144"><ele>493.99999999999994</ele><time>2026-04-04T11:16:26.999Z</time></trkpt><trkpt lat="45.609357964352995" lon="10.977416205054435"><ele>494.0</ele><time>2026-04-04T11:16:27.999Z</time></trkpt><trkpt lat="45.60942035376387" lon="10.977527353256546"><ele>494.0</ele><time>2026-04-04T11:16:28.999Z</time></trkpt><trkpt lat="45.60948081166714" lon="10.977623545274065"><ele>494.0</ele><time>2026-04-04T11:16:29.999Z</time></trkpt><trkpt lat="45.6095437451486" lon="10.977703650621978"><ele>493.99999999999994</ele><time>2026-04-04T11:16:30.999Z</time></trkpt><trkpt lat="45.60958923798326" lon="10.97778752796779"><ele>494.0</ele><time>2026-04-04T11:16:31.999Z</time></trkpt><trkpt lat="45.60965595072099" lon="10.97787816836434"><ele>496.66666666666663</ele><time>2026-04-04T11:16:33.999Z</time></trkpt><trkpt lat="45.609622135089616" lon="10.977966955936129"><ele>499.3333333333333</ele><time>2026-04-04T11:17:07Z</time></trkpt><trkpt lat="45.609580599030586" lon="10.978072009805611"><ele>502.0</ele><time>2026-04-04T11:17:13Z</time></trkpt><trkpt lat="45.609633758557194" lon="10.97814491642726"><ele>504.66666666666663</ele><time>2026-04-04T11:17:15Z</time></trkpt><trkpt lat="45.60972487293053" lon="10.978176499496"><ele>507.3333333333333</ele><time>2026-04-04T11:17:16.001Z</time></trkpt><trkpt lat="45.60977963099184" lon="10.978230120459257"><ele>510.0</ele><time>2026-04-04T11:17:17.001Z</time></trkpt><trkpt lat="45.609845689610836" lon="10.978309181072369"><ele>512.2857142857143</ele><time>2026-04-04T11:17:19.001Z</time></trkpt><trkpt lat="45.60986984256998" lon="10.978394981592501"><ele>514.5714285714287</ele><time>2026-04-04T11:17:21.001Z</time></trkpt><trkpt lat="45.60991624677942" lon="10.978462434155782"><ele>516.8571428571429</ele><time>2026-04-04T11:17:30.001Z</time></trkpt><trkpt lat="45.60995355096068" lon="10.978537546048246"><ele>519.1428571428571</ele><time>2026-04-04T11:17:39.001Z</time></trkpt><trkpt lat="45.610008170048154" lon="10.97859855456446"><ele>521.4285714285713</ele><time>2026-04-04T11:17:52.001Z</time></trkpt><trkpt lat="45.610028784342504" lon="10.978694736485183"><ele>523.7142857142857</ele><time>2026-04-04T11:17:55.001Z</time></trkpt><trkpt lat="45.61004488639266" lon="10.978791478412353"><ele>526.0</ele><time>2026-04-04T11:17:57.001Z</time></trkpt><trkpt lat="45.609965928671556" lon="10.97880872408353"><ele>526.0</ele><time>2026-04-04T11:18:13.002Z</time></trkpt><trkpt lat="45.60988484884521" lon="10.978809932702402"><ele>526.0</ele><time>2026-04-04T11:18:15.002Z</time></trkpt><trkpt lat="45.609812936159045" lon="10.978805103986819"><ele>526.0</ele><time>2026-04-04T11:18:17.002Z</time></trkpt><trkpt lat="45.60975020150703" lon="10.97883614385691"><ele>526.0</ele><time>2026-04-04T11:18:19.002Z</time></trkpt><trkpt lat="45.609674132333666" lon="10.97888623508133"><ele>526.0</ele><time>2026-04-04T11:18:21.002Z</time></trkpt><trkpt lat="45.60959579485702" lon="10.978850901618282"><ele>526.0</ele><time>2026-04-04T11:18:22.999Z</time></trkpt><trkpt lat="45.60952139324823" lon="10.978774276096402"><ele>527.8333333333334</ele><time>2026-04-04T11:18:26.999Z</time></trkpt><trkpt lat="45.60945824107116" lon="10.978758675332623"><ele>529.6666666666667</ele><time>2026-04-04T11:18:29.999Z</time></trkpt><trkpt lat="45.60939507946847" lon="10.97876012279671"><ele>531.5</ele><time>2026-04-04T11:18:33.999Z</time></trkpt><trkpt lat="45.60933191511245" lon="10.97880281354176"><ele>533.3333333333334</ele><time>2026-04-04T11:18:41Z</time></trkpt><trkpt lat="45.609263126635724" lon="10.978862865389146"><ele>535.1666666666666</ele><time>2026-04-04T11:18:43Z</time></trkpt><trkpt lat="45.609218522319814" lon="10.978980731597963"><ele>537.0</ele><time>2026-04-04T11:18:46Z</time></trkpt><trkpt lat="45.6092675747055" lon="10.979077992190117"><ele>543.0</ele><time>2026-04-04T11:18:49Z</time></trkpt><trkpt lat="45.60924520723556" lon="10.97920250584785"><ele>549.0</ele><time>2026-04-04T11:18:51Z</time></trkpt><trkpt lat="45.609164830685536" lon="10.979287655910172"><ele>555.0</ele><time>2026-04-04T11:18:53Z</time></trkpt><trkpt lat="45.60908035289273" lon="10.97935522680365"><ele>561.0</ele><time>2026-04-04T11:18:55Z</time></trkpt><trkpt lat="45.60905355137996" lon="10.979468413639628"><ele>567.0</ele><time>2026-04-04T11:18:57Z</time></trkpt><trkpt lat="45.6090168252161" lon="10.979610855634492"><ele>567.0</ele><time>2026-04-04T11:18:59Z</time></trkpt><trkpt lat="45.609034292388074" lon="10.979704086543535"><ele>567.0</ele><time>2026-04-04T11:19:01Z</time></trkpt><trkpt lat="45.609047012760456" lon="10.979823774032967"><ele>567.0</ele><time>2026-04-04T11:19:03Z</time></trkpt><trkpt lat="45.60897565617942" lon="10.979868396342203"><ele>567.0</ele><time>2026-04-04T11:19:05Z</time></trkpt><trkpt lat="45.608945040653886" lon="10.979953497066285"><ele>567.0</ele><time>2026-04-04T11:19:07Z</time></trkpt><trkpt lat="45.60890934331276" lon="10.98007188941425"><ele>567.0</ele><time>2026-04-04T11:19:09Z</time></trkpt><trkpt lat="45.608883925755386" lon="10.980164318812086"><ele>570.0</ele><time>2026-04-04T11:19:12Z</time></trkpt><trkpt lat="45.608868738404304" lon="10.980278666728724"><ele>573.0</ele><time>2026-04-04T11:19:14.001Z</time></trkpt><trkpt lat="45.60886623149148" lon="10.980371926309905"><ele>576.0</ele><time>2026-04-04T11:19:16.001Z</time></trkpt><trkpt lat="45.60887804631387" lon="10.980462017749476"><ele>579.0</ele><time>2026-04-04T11:19:18.001Z</time></trkpt><trkpt lat="45.60894713595741" lon="10.98045726544435"><ele>582.0</ele><time>2026-04-04T11:19:24.001Z</time></trkpt><trkpt lat="45.60900199492571" lon="10.980400760936584"><ele>585.0</ele><time>2026-04-04T11:19:29.001Z</time></trkpt><trkpt lat="45.60904872013664" lon="10.980322836441744"><ele>588.0</ele><time>2026-04-04T11:19:37.001Z</time></trkpt><trkpt lat="45.60910820674554" lon="10.980260145233865"><ele>588.0</ele><time>2026-04-04T11:19:46.001Z</time></trkpt><trkpt lat="45.60917223996952" lon="10.980201738399035"><ele>588.0</ele><time>2026-04-04T11:19:49.001Z</time></trkpt><trkpt lat="45.609243294201676" lon="10.980145696589934"><ele>588.0</ele><time>2026-04-04T11:19:53.001Z</time></trkpt><trkpt lat="45.60930210249504" lon="10.980101664155963"><ele>588.0</ele><time>2026-04-04T11:19:59.002Z</time></trkpt><trkpt lat="45.609372818123425" lon="10.980066939343335"><ele>588.0</ele><time>2026-04-04T11:20:23.002Z</time></trkpt><trkpt lat="45.609438017930785" lon="10.980032607450614"><ele>588.0</ele><time>2026-04-04T11:20:50Z</time></trkpt><trkpt lat="45.6095001466469" lon="10.98007127849036"><ele>588.0</ele><time>2026-04-04T11:20:53Z</time></trkpt><trkpt lat="45.60957379855353" lon="10.98010202271759"><ele>591.8333333333334</ele><time>2026-04-04T11:20:58Z</time></trkpt><trkpt lat="45.60963554113998" lon="10.980138574573907"><ele>595.6666666666666</ele><time>2026-04-04T11:22:07.002Z</time></trkpt><trkpt lat="45.60970133995292" lon="10.980177483599359"><ele>599.5</ele><time>2026-04-04T11:22:09.002Z</time></trkpt><trkpt lat="45.609761786873875" lon="10.980251442730955"><ele>603.3333333333333</ele><time>2026-04-04T11:22:11.002Z</time></trkpt><trkpt lat="45.6098395574097" lon="10.980275377262224"><ele>607.1666666666666</ele><time>2026-04-04T11:22:13.002Z</time></trkpt><trkpt lat="45.609935769509136" lon="10.980361950731291"><ele>611.0</ele><time>2026-04-04T11:22:15.002Z</time></trkpt><trkpt lat="45.609992482148506" lon="10.980411048734817"><ele>611.0</ele><time>2026-04-04T11:22:16.002Z</time></trkpt><trkpt lat="45.61004612548742" lon="10.98048018712611"><ele>611.0</ele><time>2026-04-04T11:22:17.002Z</time></trkpt><trkpt lat="45.61010313425925" lon="10.980522456562603"><ele>611.0</ele><time>2026-04-04T11:22:18.002Z</time></trkpt><trkpt lat="45.61016336341384" lon="10.980563772212413"><ele>611.0</ele><time>2026-04-04T11:22:19.002Z</time></trkpt><trkpt lat="45.6102727594212" lon="10.980629354521344"><ele>611.0</ele><time>2026-04-04T11:22:21.002Z</time></trkpt><trkpt lat="45.610328658477556" lon="10.98067379047049"><ele>611.0</ele><time>2026-04-04T11:22:22.002Z</time></trkpt><trkpt lat="45.610378543694985" lon="10.980741781789947"><ele>611.0</ele><time>2026-04-04T11:22:23.002Z</time></trkpt><trkpt lat="45.61043329736404" lon="10.980899869429145"><ele>611.0</ele><time>2026-04-04T11:22:25.002Z</time></trkpt><trkpt lat="45.61051131111613" lon="10.981020070072223"><ele>611.0</ele><time>2026-04-04T11:22:27.002Z</time></trkpt><trkpt lat="45.6105572296852" lon="10.98110547387732"><ele>611.0</ele><time>2026-04-04T11:22:28.002Z</time></trkpt><trkpt lat="45.61059114425517" lon="10.981209731621082"><ele>611.0</ele><time>2026-04-04T11:22:29.002Z</time></trkpt><trkpt lat="45.61064056122917" lon="10.981303799427259"><ele>611.0</ele><time>2026-04-04T11:22:30.002Z</time></trkpt><trkpt lat="45.61067197604047" lon="10.981441026472858"><ele>611.0</ele><time>2026-04-04T11:22:32.002Z</time></trkpt><trkpt lat="45.610654516223995" lon="10.981600529868043"><ele>611.0</ele><time>2026-04-04T11:22:35Z</time></trkpt><trkpt lat="45.61058897061065" lon="10.981713448690105"><ele>611.0</ele><time>2026-04-04T11:22:37Z</time></trkpt><trkpt lat="45.610630138781" lon="10.98182662303395"><ele>611.0</ele><time>2026-04-04T11:22:40Z</time></trkpt><trkpt lat="45.610654067395345" lon="10.981917657820517"><ele>612.8</ele><time>2026-04-04T11:22:41Z</time></trkpt><trkpt lat="45.6107140952958" lon="10.98208342946624"><ele>614.6</ele><time>2026-04-04T11:22:43Z</time></trkpt><trkpt lat="45.61074236901213" lon="10.98217750859433"><ele>616.4</ele><time>2026-04-04T11:22:44Z</time></trkpt><trkpt lat="45.61076488037575" lon="10.98232042396493"><ele>618.2</ele><time>2026-04-04T11:22:46Z</time></trkpt><trkpt lat="45.61078279878683" lon="10.98243944157673"><ele>620.0</ele><time>2026-04-04T11:22:47Z</time></trkpt><trkpt lat="45.61082583844072" lon="10.982523552509056"><ele>621.2</ele><time>2026-04-04T11:22:48Z</time></trkpt><trkpt lat="45.610858445575495" lon="10.982633383969755"><ele>622.4</ele><time>2026-04-04T11:22:49Z</time></trkpt><trkpt lat="45.61089092042583" lon="10.98271659697326"><ele>623.6</ele><time>2026-04-04T11:22:50Z</time></trkpt><trkpt lat="45.61092458124049" lon="10.982819244534248"><ele>624.8</ele><time>2026-04-04T11:22:52Z</time></trkpt><trkpt lat="45.61077909807566" lon="10.98295420802815"><ele>626.0</ele><time>2026-04-04T11:22:54Z</time></trkpt><trkpt lat="45.610696129280576" lon="10.98307660336018"><ele>626.0</ele><time>2026-04-04T11:22:55Z</time></trkpt><trkpt lat="45.610599371899745" lon="10.983198625658734"><ele>626.0</ele><time>2026-04-04T11:22:56Z</time></trkpt><trkpt lat="45.61048347503176" lon="10.983293899858898"><ele>626.0</ele><time>2026-04-04T11:22:57Z</time></trkpt><trkpt lat="45.61038165222205" lon="10.983384585781968"><ele>626.0</ele><time>2026-04-04T11:22:58Z</time></trkpt><trkpt lat="45.610286468308026" lon="10.983464754785418"><ele>626.8</ele><time>2026-04-04T11:22:59Z</time></trkpt><trkpt lat="45.61018820169554" lon="10.983539526700575"><ele>627.6</ele><time>2026-04-04T11:23:00Z</time></trkpt><trkpt lat="45.610096572907786" lon="10.983607300908872"><ele>628.4</ele><time>2026-04-04T11:23:01Z</time></trkpt><trkpt lat="45.61001250108076" lon="10.983689915373304"><ele>629.2</ele><time>2026-04-04T11:23:02Z</time></trkpt><trkpt lat="45.60991954744392" lon="10.98374970661168"><ele>630.0</ele><time>2026-04-04T11:23:03Z</time></trkpt><trkpt lat="45.60983359144198" lon="10.983821198486712"><ele>630.0</ele><time>2026-04-04T11:23:04Z</time></trkpt><trkpt lat="45.60974103890466" lon="10.983908167503378"><ele>630.0</ele><time>2026-04-04T11:23:05Z</time></trkpt><trkpt lat="45.60962995303377" lon="10.98401534773364"><ele>630.0</ele><time>2026-04-04T11:23:06.001Z</time></trkpt><trkpt lat="45.60950291618039" lon="10.984138679612691"><ele>630.0</ele><time>2026-04-04T11:23:07.001Z</time></trkpt><trkpt lat="45.60937101480833" lon="10.984251350745911"><ele>629.75</ele><time>2026-04-04T11:23:08.001Z</time></trkpt><trkpt lat="45.60925494341043" lon="10.984360124088312"><ele>629.5</ele><time>2026-04-04T11:23:09.001Z</time></trkpt><trkpt lat="45.60913966317307" lon="10.98445485550868"><ele>629.25</ele><time>2026-04-04T11:23:10.001Z</time></trkpt><trkpt lat="45.60903680210525" lon="10.984578130441225"><ele>629.0</ele><time>2026-04-04T11:23:11.001Z</time></trkpt><trkpt lat="45.608930786815414" lon="10.984671596106251"><ele>629.0</ele><time>2026-04-04T11:23:12.001Z</time></trkpt><trkpt lat="45.60882939439483" lon="10.984761910318253"><ele>629.0</ele><time>2026-04-04T11:23:13.001Z</time></trkpt><trkpt lat="45.608730846195044" lon="10.984849922337736"><ele>629.0</ele><time>2026-04-04T11:23:14.001Z</time></trkpt><trkpt lat="45.60862907392547" lon="10.984939607036788"><ele>629.0</ele><time>2026-04-04T11:23:15.001Z</time></trkpt><trkpt lat="45.608531330282396" lon="10.985032242753197"><ele>626.4</ele><time>2026-04-04T11:23:16.001Z</time></trkpt><trkpt lat="45.60844797288506" lon="10.985129292337318"><ele>623.8</ele><time>2026-04-04T11:23:17.001Z</time></trkpt><trkpt lat="45.60838517629144" lon="10.985240348522929"><ele>621.2</ele><time>2026-04-04T11:23:18.001Z</time></trkpt><trkpt lat="45.60833184807535" lon="10.985364886990284"><ele>618.6</ele><time>2026-04-04T11:23:19.001Z</time></trkpt><trkpt lat="45.608341520753775" lon="10.985521741503392"><ele>616.0</ele><time>2026-04-04T11:23:20.001Z</time></trkpt><trkpt lat="45.60835527967573" lon="10.985651400599222"><ele>616.0</ele><time>2026-04-04T11:23:21.001Z</time></trkpt><trkpt lat="45.608372374482386" lon="10.985752452143032"><ele>616.0</ele><time>2026-04-04T11:23:22.001Z</time></trkpt><trkpt lat="45.60836419087807" lon="10.985842231704572"><ele>616.0</ele><time>2026-04-04T11:23:23.001Z</time></trkpt><trkpt lat="45.60826003509582" lon="10.985931498464883"><ele>616.0</ele><time>2026-04-04T11:23:25.001Z</time></trkpt><trkpt lat="45.608190037573195" lon="10.985892540950664"><ele>616.0</ele><time>2026-04-04T11:23:26.001Z</time></trkpt><trkpt lat="45.608111957953575" lon="10.985823391837574"><ele>616.0</ele><time>2026-04-04T11:23:27.001Z</time></trkpt><trkpt lat="45.60801430904727" lon="10.985767535263404"><ele>616.0</ele><time>2026-04-04T11:23:28.001Z</time></trkpt><trkpt lat="45.60790335708787" lon="10.985744331408183"><ele>616.0</ele><time>2026-04-04T11:23:29.001Z</time></trkpt><trkpt lat="45.60779268379567" lon="10.985739133390487"><ele>616.0</ele><time>2026-04-04T11:23:30.001Z</time></trkpt><trkpt lat="45.60768328730286" lon="10.985803201768148"><ele>616.0</ele><time>2026-04-04T11:23:31.001Z</time></trkpt><trkpt lat="45.60758664544281" lon="10.985930432960972"><ele>617.5</ele><time>2026-04-04T11:23:32.001Z</time></trkpt><trkpt lat="45.6074885435576" lon="10.986071224899044"><ele>619.0</ele><time>2026-04-04T11:23:33.001Z</time></trkpt><trkpt lat="45.60739377572568" lon="10.986230011834206"><ele>620.5</ele><time>2026-04-04T11:23:34.001Z</time></trkpt><trkpt lat="45.60729048663641" lon="10.986360402408133"><ele>622.0</ele><time>2026-04-04T11:23:35.001Z</time></trkpt><trkpt lat="45.60720488963674" lon="10.986494515173314"><ele>622.0</ele><time>2026-04-04T11:23:36.001Z</time></trkpt><trkpt lat="45.60712654673382" lon="10.986617277540011"><ele>622.0</ele><time>2026-04-04T11:23:37.001Z</time></trkpt><trkpt lat="45.607052650310614" lon="10.986733172649425"><ele>622.0</ele><time>2026-04-04T11:23:38.001Z</time></trkpt><trkpt lat="45.60698152160828" lon="10.986844727010494"><ele>622.0</ele><time>2026-04-04T11:23:39.001Z</time></trkpt><trkpt lat="45.606917040401314" lon="10.986945855809173"><ele>622.0</ele><time>2026-04-04T11:23:40.001Z</time></trkpt><trkpt lat="45.606856105673025" lon="10.987037552344447"><ele>620.0</ele><time>2026-04-04T11:23:41.001Z</time></trkpt><trkpt lat="45.6068008490403" lon="10.987119076935656"><ele>618.0</ele><time>2026-04-04T11:23:42.001Z</time></trkpt><trkpt lat="45.60675234369919" lon="10.987181665177332"><ele>616.0</ele><time>2026-04-04T11:23:43.001Z</time></trkpt><trkpt lat="45.60667315376389" lon="10.987237625528627"><ele>614.0</ele><time>2026-04-04T11:23:46.001Z</time></trkpt><trkpt lat="45.606589788452446" lon="10.98722701465409"><ele>612.0</ele><time>2026-04-04T11:23:51.002Z</time></trkpt><trkpt lat="45.60652265634236" lon="10.987197002894431"><ele>610.0</ele><time>2026-04-04T11:23:52.002Z</time></trkpt><trkpt lat="45.60645379811886" lon="10.987162591852634"><ele>610.0</ele><time>2026-04-04T11:23:53.002Z</time></trkpt><trkpt lat="45.606337832510825" lon="10.987104211263844"><ele>610.0</ele><time>2026-04-04T11:23:55.002Z</time></trkpt><trkpt lat="45.60627104822573" lon="10.987069398161841"><ele>610.0</ele><time>2026-04-04T11:23:56.002Z</time></trkpt><trkpt lat="45.60617412123369" lon="10.986986075791453"><ele>610.0</ele><time>2026-04-04T11:23:58.002Z</time></trkpt><trkpt lat="45.60606260508425" lon="10.986917577126619"><ele>610.0</ele><time>2026-04-04T11:24:00.002Z</time></trkpt><trkpt lat="45.605744262524" lon="10.987418270801033"><ele>609.3333333333334</ele><time>2026-04-04T11:24:02.002Z</time></trkpt><trkpt lat="45.60568552030239" lon="10.987452103158919"><ele>608.6666666666667</ele><time>2026-04-04T11:24:03.002Z</time></trkpt><trkpt lat="45.60561730140133" lon="10.98749265557197"><ele>608.0</ele><time>2026-04-04T11:24:04.002Z</time></trkpt><trkpt lat="45.605536012923544" lon="10.987494164551771"><ele>607.3333333333334</ele><time>2026-04-04T11:24:05.002Z</time></trkpt><trkpt lat="45.60544069833012" lon="10.987539692304736"><ele>606.6666666666666</ele><time>2026-04-04T11:24:06.002Z</time></trkpt><trkpt lat="45.605359312200605" lon="10.987570002543853"><ele>606.0</ele><time>2026-04-04T11:24:07.002Z</time></trkpt><trkpt lat="45.60527944747717" lon="10.98759213467698"><ele>608.6666666666666</ele><time>2026-04-04T11:24:08.002Z</time></trkpt><trkpt lat="45.60520493410824" lon="10.987594100050362"><ele>611.3333333333334</ele><time>2026-04-04T11:24:09.002Z</time></trkpt><trkpt lat="45.605133305291425" lon="10.98760829869331"><ele>614.0</ele><time>2026-04-04T11:24:10.002Z</time></trkpt><trkpt lat="45.60506366342284" lon="10.987637880190794"><ele>616.6666666666667</ele><time>2026-04-04T11:24:11.002Z</time></trkpt><trkpt lat="45.604979813559645" lon="10.987671572812594"><ele>619.3333333333334</ele><time>2026-04-04T11:24:13.002Z</time></trkpt><trkpt lat="45.60488046392139" lon="10.98770547238036"><ele>622.0</ele><time>2026-04-04T11:24:15.002Z</time></trkpt><trkpt lat="45.604805455741776" lon="10.987720197376182"><ele>622.0</ele><time>2026-04-04T11:24:16.002Z</time></trkpt><trkpt lat="45.60473266004007" lon="10.9877242150999"><ele>622.0</ele><time>2026-04-04T11:24:17.002Z</time></trkpt><trkpt lat="45.60456783239489" lon="10.98774767820618"><ele>622.0</ele><time>2026-04-04T11:24:19.002Z</time></trkpt><trkpt lat="45.604547512442196" lon="10.98764942222478"><ele>622.0</ele><time>2026-04-04T11:24:20.002Z</time></trkpt><trkpt lat="45.60446336426168" lon="10.987646388767491"><ele>622.0</ele><time>2026-04-04T11:24:21.002Z</time></trkpt><trkpt lat="45.60436971054761" lon="10.987645683601599"><ele>615.0</ele><time>2026-04-04T11:24:22.002Z</time></trkpt><trkpt lat="45.60419540154662" lon="10.988317768334598"><ele>620.2</ele><time>2026-04-04T11:24:23.002Z</time></trkpt><trkpt lat="45.60409044311756" lon="10.988374369739436"><ele>625.4</ele><time>2026-04-04T11:24:24.002Z</time></trkpt><trkpt lat="45.60398651198644" lon="10.988436192267637"><ele>630.5999999999999</ele><time>2026-04-04T11:24:25.002Z</time></trkpt><trkpt lat="45.60388853415078" lon="10.988491364210004"><ele>635.8</ele><time>2026-04-04T11:24:26.002Z</time></trkpt><trkpt lat="45.603792450511015" lon="10.988557010030755"><ele>641.0</ele><time>2026-04-04T11:24:27.002Z</time></trkpt><trkpt lat="45.603701358808124" lon="10.988622295367836"><ele>637.1999999999999</ele><time>2026-04-04T11:24:28.002Z</time></trkpt><trkpt lat="45.60363228100175" lon="10.988703019967597"><ele>633.4</ele><time>2026-04-04T11:24:29.002Z</time></trkpt><trkpt lat="45.60356847805261" lon="10.988783582911989"><ele>629.6</ele><time>2026-04-04T11:24:30.002Z</time></trkpt><trkpt lat="45.603521383995144" lon="10.988884078763679"><ele>625.8</ele><time>2026-04-04T11:24:31.003Z</time></trkpt><trkpt lat="45.60345613469032" lon="10.988998238959587"><ele>622.0</ele><time>2026-04-04T11:24:32.003Z</time></trkpt><trkpt lat="45.60338607285493" lon="10.989076634188379"><ele>625.1666666666667</ele><time>2026-04-04T11:24:33.003Z</time></trkpt><trkpt lat="45.60331355842234" lon="10.989184591392663"><ele>628.3333333333334</ele><time>2026-04-04T11:24:34.003Z</time></trkpt><trkpt lat="45.60326780068844" lon="10.989277783861139"><ele>631.5</ele><time>2026-04-04T11:24:35.003Z</time></trkpt><trkpt lat="45.603240082556745" lon="10.989360135705864"><ele>634.6666666666666</ele><time>2026-04-04T11:24:36.003Z</time></trkpt><trkpt lat="45.60323379774128" lon="10.989456235137258"><ele>637.8333333333333</ele><time>2026-04-04T11:24:38.003Z</time></trkpt><trkpt lat="45.60313951091316" lon="10.989466942587743"><ele>641.0</ele><time>2026-04-04T11:24:42Z</time></trkpt><trkpt lat="45.60306592522115" lon="10.98938925608116"><ele>641.0</ele><time>2026-04-04T11:24:44Z</time></trkpt><trkpt lat="45.60295794403355" lon="10.989368317302846"><ele>641.0</ele><time>2026-04-04T11:24:46Z</time></trkpt><trkpt lat="45.60288030642046" lon="10.989348571039159"><ele>641.0</ele><time>2026-04-04T11:24:47Z</time></trkpt><trkpt lat="45.60278117781811" lon="10.989350001172586"><ele>641.0</ele><time>2026-04-04T11:24:48Z</time></trkpt><trkpt lat="45.60268071249877" lon="10.9893711293695"><ele>641.0</ele><time>2026-04-04T11:24:49Z</time></trkpt><trkpt lat="45.60257217429083" lon="10.989403389888695"><ele>641.75</ele><time>2026-04-04T11:24:50Z</time></trkpt><trkpt lat="45.60246212035898" lon="10.989441364929059"><ele>642.5</ele><time>2026-04-04T11:24:51Z</time></trkpt><trkpt lat="45.602342372913974" lon="10.989468123836236"><ele>643.25</ele><time>2026-04-04T11:24:52Z</time></trkpt><trkpt lat="45.60222945556981" lon="10.98949474658885"><ele>644.0</ele><time>2026-04-04T11:24:53Z</time></trkpt><trkpt lat="45.60211181741507" lon="10.989521753249374"><ele>644.25</ele><time>2026-04-04T11:24:54Z</time></trkpt><trkpt lat="45.60199635031594" lon="10.989541570008543"><ele>644.5</ele><time>2026-04-04T11:24:55Z</time></trkpt><trkpt lat="45.60188122922674" lon="10.989559829347597"><ele>644.75</ele><time>2026-04-04T11:24:56Z</time></trkpt><trkpt lat="45.60176233554079" lon="10.989592278448564"><ele>645.0</ele><time>2026-04-04T11:24:57Z</time></trkpt><trkpt lat="45.601640263533" lon="10.989619076299581"><ele>645.0</ele><time>2026-04-04T11:24:58Z</time></trkpt><trkpt lat="45.60152079709681" lon="10.989665147016046"><ele>645.0</ele><time>2026-04-04T11:24:59Z</time></trkpt><trkpt lat="45.601411665350085" lon="10.989704541020268"><ele>645.0</ele><time>2026-04-04T11:25:00Z</time></trkpt><trkpt lat="45.60131821460637" lon="10.989747122833581"><ele>645.0</ele><time>2026-04-04T11:25:01Z</time></trkpt><trkpt lat="45.60123856669142" lon="10.989786261708856"><ele>645.0</ele><time>2026-04-04T11:25:02Z</time></trkpt><trkpt lat="45.60116299668002" lon="10.989788202390644"><ele>643.6666666666666</ele><time>2026-04-04T11:25:03Z</time></trkpt><trkpt lat="45.60108339476218" lon="10.989752436108843"><ele>642.3333333333334</ele><time>2026-04-04T11:25:04Z</time></trkpt><trkpt lat="45.60102073019802" lon="10.98967400344232"><ele>641.0</ele><time>2026-04-04T11:25:05Z</time></trkpt><trkpt lat="45.600983823895135" lon="10.989578001707637"><ele>639.6666666666667</ele><time>2026-04-04T11:25:06Z</time></trkpt><trkpt lat="45.60090484066291" lon="10.989498581076107"><ele>638.3333333333334</ele><time>2026-04-04T11:25:08Z</time></trkpt><trkpt lat="45.60083632942168" lon="10.989491891752804"><ele>637.0</ele><time>2026-04-04T11:25:09Z</time></trkpt><trkpt lat="45.60074968047569" lon="10.989539979429733"><ele>637.0</ele><time>2026-04-04T11:25:10Z</time></trkpt><trkpt lat="45.60065453705374" lon="10.989596429635464"><ele>637.0</ele><time>2026-04-04T11:25:11Z</time></trkpt><trkpt lat="45.600580907517575" lon="10.989647992504423"><ele>637.0</ele><time>2026-04-04T11:25:12Z</time></trkpt><trkpt lat="45.600516461134674" lon="10.989690708589594"><ele>637.0</ele><time>2026-04-04T11:25:13Z</time></trkpt><trkpt lat="45.60046621954645" lon="10.989752146034823"><ele>637.0</ele><time>2026-04-04T11:25:15.001Z</time></trkpt><trkpt lat="45.600415329623445" lon="10.98980754884622"><ele>637.0</ele><time>2026-04-04T11:25:16.001Z</time></trkpt><trkpt lat="45.60035851629212" lon="10.98988004635284"><ele>638.0</ele><time>2026-04-04T11:25:17.001Z</time></trkpt><trkpt lat="45.60028260811863" lon="10.989961655040627"><ele>639.0</ele><time>2026-04-04T11:25:18.001Z</time></trkpt><trkpt lat="45.600219957390124" lon="10.990046301272804"><ele>640.0</ele><time>2026-04-04T11:25:19.001Z</time></trkpt><trkpt lat="45.60016538655422" lon="10.990131645538314"><ele>641.0</ele><time>2026-04-04T11:25:20.001Z</time></trkpt><trkpt lat="45.60011097619016" lon="10.990229851035798"><ele>642.0</ele><time>2026-04-04T11:25:21.001Z</time></trkpt><trkpt lat="45.60003856263574" lon="10.990341289114381"><ele>642.0</ele><time>2026-04-04T11:25:23.001Z</time></trkpt><trkpt lat="45.59993743979497" lon="10.99044340301307"><ele>642.0</ele><time>2026-04-04T11:25:25.001Z</time></trkpt><trkpt lat="45.599862065803215" lon="10.990493351821259"><ele>642.0</ele><time>2026-04-04T11:25:26.001Z</time></trkpt><trkpt lat="45.59977890449407" lon="10.990573223761526"><ele>642.0</ele><time>2026-04-04T11:25:27.001Z</time></trkpt><trkpt lat="45.59971405544782" lon="10.990655858161988"><ele>642.0</ele><time>2026-04-04T11:25:28.001Z</time></trkpt><trkpt lat="45.599642448137544" lon="10.990729923866311"><ele>642.0</ele><time>2026-04-04T11:25:29.001Z</time></trkpt><trkpt lat="45.59957452092397" lon="10.990786564019745"><ele>642.0</ele><time>2026-04-04T11:25:30.001Z</time></trkpt><trkpt lat="45.59948586772559" lon="10.99091512528719"><ele>642.0</ele><time>2026-04-04T11:25:32.001Z</time></trkpt><trkpt lat="45.59943259847139" lon="10.99099651284497"><ele>642.0</ele><time>2026-04-04T11:25:36.001Z</time></trkpt><trkpt lat="45.59936793810867" lon="10.991021894866165"><ele>642.0</ele><time>2026-04-04T11:25:38.001Z</time></trkpt><trkpt lat="45.59928109612981" lon="10.99105882965417"><ele>642.0</ele><time>2026-04-04T11:25:40.001Z</time></trkpt><trkpt lat="45.59921740670129" lon="10.991080631258606"><ele>642.5</ele><time>2026-04-04T11:26:09.002Z</time></trkpt><trkpt lat="45.59925068644903" lon="10.991160276163944"><ele>643.0</ele><time>2026-04-04T11:26:45.003Z</time></trkpt><trkpt lat="45.59923697912493" lon="10.99125059908505"><ele>643.5</ele><time>2026-04-04T11:26:48Z</time></trkpt><trkpt lat="45.599223365920764" lon="10.991377122520413"><ele>644.0</ele><time>2026-04-04T11:26:50Z</time></trkpt><trkpt lat="45.59922628554852" lon="10.991498598934177"><ele>644.5</ele><time>2026-04-04T11:26:52Z</time></trkpt><trkpt lat="45.599184935301736" lon="10.991611391518417"><ele>645.0</ele><time>2026-04-04T11:26:54Z</time></trkpt><trkpt lat="45.5991361166765" lon="10.991690110719356"><ele>645.0</ele><time>2026-04-04T11:26:57Z</time></trkpt><trkpt lat="45.5990993034147" lon="10.99180062287644"><ele>645.0</ele><time>2026-04-04T11:27:10Z</time></trkpt><trkpt lat="45.599105542748816" lon="10.99194838645476"><ele>645.0</ele><time>2026-04-04T11:27:12Z</time></trkpt><trkpt lat="45.599036450728" lon="10.992009388856342"><ele>645.0</ele><time>2026-04-04T11:27:14Z</time></trkpt><trkpt lat="45.598978334167526" lon="10.992110646190527"><ele>645.0</ele><time>2026-04-04T11:27:16Z</time></trkpt><trkpt lat="45.598955361868384" lon="10.992218366123776"><ele>645.0</ele><time>2026-04-04T11:27:18Z</time></trkpt><trkpt lat="45.59896043836919" lon="10.992356608516346"><ele>645.0</ele><time>2026-04-04T11:27:20.001Z</time></trkpt><trkpt lat="45.59898033094541" lon="10.992447876239734"><ele>645.0</ele><time>2026-04-04T11:27:22.001Z</time></trkpt><trkpt lat="45.59890135979127" lon="10.992533501185704"><ele>645.0</ele><time>2026-04-04T11:27:32.001Z</time></trkpt><trkpt lat="45.5988434970987" lon="10.992585567136796"><ele>645.0</ele><time>2026-04-04T11:27:33.001Z</time></trkpt><trkpt lat="45.59876683878516" lon="10.992657260167302"><ele>645.0</ele><time>2026-04-04T11:27:36.001Z</time></trkpt><trkpt lat="45.598721896056155" lon="10.992755744614826"><ele>645.0</ele><time>2026-04-04T11:27:39.001Z</time></trkpt><trkpt lat="45.59866572034466" lon="10.992840295637572"><ele>645.0</ele><time>2026-04-04T11:27:42.001Z</time></trkpt><trkpt lat="45.59861476648927" lon="10.992906732667604"><ele>645.0</ele><time>2026-04-04T11:27:46.001Z</time></trkpt><trkpt lat="45.59864319070818" lon="10.99281113820876"><ele>645.0</ele><time>2026-04-04T11:28:55Z</time></trkpt><trkpt lat="45.59869430298868" lon="10.992742275858188"><ele>645.0</ele><time>2026-04-04T11:28:58Z</time></trkpt><trkpt lat="45.59873486686394" lon="10.992645537046553"><ele>645.0</ele><time>2026-04-04T11:29:00Z</time></trkpt><trkpt lat="45.59879316673925" lon="10.992604825594311"><ele>645.0</ele><time>2026-04-04T11:29:02Z</time></trkpt><trkpt lat="45.5988529191061" lon="10.992535771956119"><ele>645.0</ele><time>2026-04-04T11:29:05Z</time></trkpt><trkpt lat="45.59891035188915" lon="10.992483842856004"><ele>648.2857142857143</ele><time>2026-04-04T11:29:09Z</time></trkpt><trkpt lat="45.598937432035996" lon="10.992592437831316"><ele>651.5714285714286</ele><time>2026-04-04T11:29:27Z</time></trkpt><trkpt lat="45.599020290011495" lon="10.992596095898598"><ele>654.8571428571429</ele><time>2026-04-04T11:29:32.001Z</time></trkpt><trkpt lat="45.59909998583255" lon="10.992574085735093"><ele>658.1428571428571</ele><time>2026-04-04T11:29:34.001Z</time></trkpt><trkpt lat="45.59916569222607" lon="10.992562207037185"><ele>661.4285714285714</ele><time>2026-04-04T11:29:41.001Z</time></trkpt><trkpt lat="45.5991055369078" lon="10.992597874593196"><ele>664.7142857142857</ele><time>2026-04-04T11:30:45.002Z</time></trkpt><trkpt lat="45.5990324073287" lon="10.99260542593328"><ele>668.0</ele><time>2026-04-04T11:30:49.002Z</time></trkpt><trkpt lat="45.59896849998739" lon="10.992626622407801"><ele>668.0</ele><time>2026-04-04T11:30:52.003Z</time></trkpt><trkpt lat="45.59896329002845" lon="10.992533588141988"><ele>668.0</ele><time>2026-04-04T11:30:58.003Z</time></trkpt><trkpt lat="45.59896293267061" lon="10.99242941384175"><ele>668.0</ele><time>2026-04-04T11:31:05Z</time></trkpt><trkpt lat="45.598924492295126" lon="10.992344480602457"><ele>668.0</ele><time>2026-04-04T11:31:10Z</time></trkpt><trkpt lat="45.59884077016919" lon="10.992365437322077"><ele>668.0</ele><time>2026-04-04T11:31:20Z</time></trkpt><trkpt lat="45.598769216400974" lon="10.99231269802105"><ele>668.0</ele><time>2026-04-04T11:31:23Z</time></trkpt><trkpt lat="45.598710731290154" lon="10.992226604479757"><ele>660.3333333333333</ele><time>2026-04-04T11:31:27Z</time></trkpt><trkpt lat="45.598635803659214" lon="10.992216792044104"><ele>652.6666666666666</ele><time>2026-04-04T11:31:29Z</time></trkpt><trkpt lat="45.59854975418758" lon="10.992225625957154"><ele>645.0</ele><time>2026-04-04T11:31:31Z</time></trkpt><trkpt lat="45.5985138023179" lon="10.992146118757912"><ele>637.3333333333334</ele><time>2026-04-04T11:31:33Z</time></trkpt><trkpt lat="45.59844089615922" lon="10.992088860859383"><ele>629.6666666666667</ele><time>2026-04-04T11:31:36Z</time></trkpt><trkpt lat="45.598379584052" lon="10.991999469571633"><ele>622.0</ele><time>2026-04-04T11:31:39.001Z</time></trkpt><trkpt lat="45.59836497369446" lon="10.991898406034386"><ele>622.0</ele><time>2026-04-04T11:31:43.001Z</time></trkpt><trkpt lat="45.59829564590049" lon="10.991828660757426"><ele>622.0</ele><time>2026-04-04T11:31:46.001Z</time></trkpt><trkpt lat="45.5982465880432" lon="10.991756705669063"><ele>622.0</ele><time>2026-04-04T11:31:48.001Z</time></trkpt><trkpt lat="45.59823830760275" lon="10.991641933826894"><ele>622.0</ele><time>2026-04-04T11:31:51.001Z</time></trkpt><trkpt lat="45.59828024364383" lon="10.991550018243588"><ele>622.0</ele><time>2026-04-04T11:31:56.001Z</time></trkpt><trkpt lat="45.598188797727694" lon="10.991532723830431"><ele>622.0</ele><time>2026-04-04T11:32:00.001Z</time></trkpt><trkpt lat="45.59811213094251" lon="10.99153809346628"><ele>620.0</ele><time>2026-04-04T11:32:02.001Z</time></trkpt><trkpt lat="45.598055381851154" lon="10.991602394619617"><ele>618.0</ele><time>2026-04-04T11:32:05.001Z</time></trkpt><trkpt lat="45.597981211900745" lon="10.991633483356658"><ele>616.0</ele><time>2026-04-04T11:32:10.001Z</time></trkpt><trkpt lat="45.597905174173945" lon="10.991625256754979"><ele>614.0</ele><time>2026-04-04T11:32:12.001Z</time></trkpt><trkpt lat="45.597843938970875" lon="10.99154253389328"><ele>612.0</ele><time>2026-04-04T11:32:14.001Z</time></trkpt><trkpt lat="45.59777969389196" lon="10.99149125774497"><ele>610.0</ele><time>2026-04-04T11:32:16.002Z</time></trkpt><trkpt lat="45.59772763646978" lon="10.99139660395562"><ele>606.5714285714286</ele><time>2026-04-04T11:32:18.002Z</time></trkpt><trkpt lat="45.59766270341015" lon="10.991375878661987"><ele>603.1428571428571</ele><time>2026-04-04T11:32:21.002Z</time></trkpt><trkpt lat="45.59759239327585" lon="10.99134200992317"><ele>599.7142857142857</ele><time>2026-04-04T11:32:23.002Z</time></trkpt><trkpt lat="45.597504221653445" lon="10.991320130282293"><ele>596.2857142857142</ele><time>2026-04-04T11:32:25.002Z</time></trkpt><trkpt lat="45.597435532673735" lon="10.991322834109273"><ele>592.8571428571429</ele><time>2026-04-04T11:32:27.002Z</time></trkpt><trkpt lat="45.597359984932346" lon="10.991300267364325"><ele>589.4285714285713</ele><time>2026-04-04T11:32:30.002Z</time></trkpt><trkpt lat="45.59733252273456" lon="10.99121477470946"><ele>586.0</ele><time>2026-04-04T11:32:34.002Z</time></trkpt><trkpt lat="45.59726511003959" lon="10.991155414796236"><ele>586.0</ele><time>2026-04-04T11:32:38.002Z</time></trkpt><trkpt lat="45.597190920492785" lon="10.991145588079412"><ele>586.0</ele><time>2026-04-04T11:32:41.002Z</time></trkpt><trkpt lat="45.59712399438386" lon="10.991104285452149"><ele>586.0</ele><time>2026-04-04T11:32:53.002Z</time></trkpt><trkpt lat="45.59715897431307" lon="10.991014622776724"><ele>586.0</ele><time>2026-04-04T11:32:57.003Z</time></trkpt><trkpt lat="45.59721712536592" lon="10.990893611842154"><ele>586.0</ele><time>2026-04-04T11:33:00.003Z</time></trkpt><trkpt lat="45.59726510140966" lon="10.990821349624772"><ele>586.0</ele><time>2026-04-04T11:33:09Z</time></trkpt><trkpt lat="45.597193716843265" lon="10.990767763968805"><ele>584.2</ele><time>2026-04-04T11:33:15Z</time></trkpt><trkpt lat="45.59710170030021" lon="10.990790139901668"><ele>582.4000000000001</ele><time>2026-04-04T11:33:18Z</time></trkpt><trkpt lat="45.59702421980843" lon="10.990777155505235"><ele>580.6</ele><time>2026-04-04T11:33:20Z</time></trkpt><trkpt lat="45.59695231129916" lon="10.990744703018464"><ele>578.8000000000001</ele><time>2026-04-04T11:33:22Z</time></trkpt><trkpt lat="45.59683727457406" lon="10.990729832224005"><ele>577.0</ele><time>2026-04-04T11:33:24Z</time></trkpt><trkpt lat="45.59673666730653" lon="10.990762290527568"><ele>572.0</ele><time>2026-04-04T11:33:26Z</time></trkpt><trkpt lat="45.59664940290733" lon="10.990812078184728"><ele>567.0</ele><time>2026-04-04T11:33:28Z</time></trkpt><trkpt lat="45.59653975163033" lon="10.990860766043816"><ele>562.0</ele><time>2026-04-04T11:33:30Z</time></trkpt><trkpt lat="45.59645686405072" lon="10.990857561410975"><ele>557.0</ele><time>2026-04-04T11:33:32Z</time></trkpt><trkpt lat="45.59637741429644" lon="10.990941892274854"><ele>552.0</ele><time>2026-04-04T11:33:35Z</time></trkpt><trkpt lat="45.59632229818688" lon="10.990992346528348"><ele>551.1428571428571</ele><time>2026-04-04T11:34:12.001Z</time></trkpt><trkpt lat="45.59623960254498" lon="10.990988263734037"><ele>550.2857142857143</ele><time>2026-04-04T11:34:17.001Z</time></trkpt><trkpt lat="45.59616831960292" lon="10.990962798045437"><ele>549.4285714285714</ele><time>2026-04-04T11:34:21.001Z</time></trkpt><trkpt lat="45.59609419153453" lon="10.991002955906621"><ele>548.5714285714286</ele><time>2026-04-04T11:34:25.002Z</time></trkpt><trkpt lat="45.59603035314887" lon="10.991005993504379"><ele>547.7142857142858</ele><time>2026-04-04T11:34:28.002Z</time></trkpt><trkpt lat="45.595990286613976" lon="10.990934220273486"><ele>546.8571428571429</ele><time>2026-04-04T11:34:31.002Z</time></trkpt><trkpt lat="45.595918252036924" lon="10.990942157937406"><ele>546.0</ele><time>2026-04-04T11:34:34.002Z</time></trkpt><trkpt lat="45.59583087491027" lon="10.990930119643544"><ele>539.3333333333334</ele><time>2026-04-04T11:34:38.002Z</time></trkpt><trkpt lat="45.59575291360108" lon="10.99094865119337"><ele>532.6666666666666</ele><time>2026-04-04T11:34:42.002Z</time></trkpt><trkpt lat="45.59570116051968" lon="10.99102253335549"><ele>526.0</ele><time>2026-04-04T11:34:46.002Z</time></trkpt><trkpt lat="45.5956362903589" lon="10.991013901717688"><ele>519.3333333333333</ele><time>2026-04-04T11:34:48.002Z</time></trkpt><trkpt lat="45.59555554501269" lon="10.990991749714306"><ele>512.6666666666666</ele><time>2026-04-04T11:34:53.002Z</time></trkpt><trkpt lat="45.59548120823235" lon="10.991012172025307"><ele>506.0</ele><time>2026-04-04T11:34:56.002Z</time></trkpt><trkpt lat="45.59540536734339" lon="10.991051362228175"><ele>501.28571428571433</ele><time>2026-04-04T11:34:59.002Z</time></trkpt><trkpt lat="45.59532048699771" lon="10.99109235559754"><ele>496.57142857142856</ele><time>2026-04-04T11:35:15Z</time></trkpt><trkpt lat="45.5952626554796" lon="10.991052513608187"><ele>491.8571428571429</ele><time>2026-04-04T11:35:21Z</time></trkpt><trkpt lat="45.595198813826805" lon="10.991075634865963"><ele>487.14285714285717</ele><time>2026-04-04T11:35:23Z</time></trkpt><trkpt lat="45.59512277891343" lon="10.991096936190443"><ele>482.42857142857144</ele><time>2026-04-04T11:35:26Z</time></trkpt><trkpt lat="45.59506591570849" lon="10.991143894880478"><ele>477.7142857142857</ele><time>2026-04-04T11:35:41Z</time></trkpt><trkpt lat="45.59511681444325" lon="10.991208500290732"><ele>473.0</ele><time>2026-04-04T11:35:44Z</time></trkpt><trkpt lat="45.595174144143144" lon="10.991272809891361"><ele>473.0</ele><time>2026-04-04T11:35:48.001Z</time></trkpt><trkpt lat="45.595266747334094" lon="10.991335027917138"><ele>472.99999999999994</ele><time>2026-04-04T11:35:51.001Z</time></trkpt><trkpt lat="45.595334169544536" lon="10.99136027377466"><ele>472.99999999999994</ele><time>2026-04-04T11:35:52.001Z</time></trkpt><trkpt lat="45.595444308698916" lon="10.991371750634164"><ele>473.0</ele><time>2026-04-04T11:35:54.001Z</time></trkpt><trkpt lat="45.595545004741716" lon="10.991459578518679"><ele>473.0</ele><time>2026-04-04T11:35:56.001Z</time></trkpt><trkpt lat="45.59560564179615" lon="10.991536370809673"><ele>472.3333333333333</ele><time>2026-04-04T11:35:57.001Z</time></trkpt><trkpt lat="45.59568229151133" lon="10.991608091789793"><ele>471.66666666666663</ele><time>2026-04-04T11:35:58.001Z</time></trkpt><trkpt lat="45.595743010166316" lon="10.99164538423291"><ele>471.0</ele><time>2026-04-04T11:35:59.001Z</time></trkpt><trkpt lat="45.595798142757936" lon="10.991688937399347"><ele>470.33333333333337</ele><time>2026-04-04T11:36:00.001Z</time></trkpt><trkpt lat="45.595864620407" lon="10.991815188172582"><ele>469.6666666666667</ele><time>2026-04-04T11:36:02.001Z</time></trkpt><trkpt lat="45.59592794456598" lon="10.991868572794399"><ele>469.0</ele><time>2026-04-04T11:36:04.001Z</time></trkpt><trkpt lat="45.59598497787434" lon="10.991948199604531"><ele>469.00000000000006</ele><time>2026-04-04T11:36:07.001Z</time></trkpt><trkpt lat="45.59604537198029" lon="10.99202699785749"><ele>469.0</ele><time>2026-04-04T11:36:10.001Z</time></trkpt><trkpt lat="45.596090591401406" lon="10.992090769968334"><ele>469.0</ele><time>2026-04-04T11:36:23.002Z</time></trkpt><trkpt lat="45.596150776138174" lon="10.992185660080864"><ele>469.0</ele><time>2026-04-04T11:36:26.002Z</time></trkpt><trkpt lat="45.596198197427114" lon="10.992256196808293"><ele>469.00000000000006</ele><time>2026-04-04T11:36:28.002Z</time></trkpt><trkpt lat="45.59627965669171" lon="10.992321502993931"><ele>469.0</ele><time>2026-04-04T11:36:30.002Z</time></trkpt><trkpt lat="45.59633694914508" lon="10.99236783934905"><ele>474.33333333333337</ele><time>2026-04-04T11:36:32.002Z</time></trkpt><trkpt lat="45.596400396096776" lon="10.992430181770487"><ele>479.6666666666667</ele><time>2026-04-04T11:36:34.002Z</time></trkpt><trkpt lat="45.59646668282386" lon="10.992439117665135"><ele>485.0</ele><time>2026-04-04T11:36:36.002Z</time></trkpt><trkpt lat="45.59650044389678" lon="10.992533523202152"><ele>490.33333333333337</ele><time>2026-04-04T11:36:39.002Z</time></trkpt><trkpt lat="45.596522767262755" lon="10.992676754309022"><ele>495.6666666666667</ele><time>2026-04-04T11:36:42.002Z</time></trkpt><trkpt lat="45.596512440617026" lon="10.99276750933406"><ele>501.0</ele><time>2026-04-04T11:36:45.002Z</time></trkpt><trkpt lat="45.59652429868929" lon="10.992859855657784"><ele>501.0</ele><time>2026-04-04T11:36:51.002Z</time></trkpt><trkpt lat="45.59649836278254" lon="10.99297406957879"><ele>501.0</ele><time>2026-04-04T11:36:58.002Z</time></trkpt><trkpt lat="45.59648623348082" lon="10.993081827211984"><ele>501.0</ele><time>2026-04-04T11:37:04.003Z</time></trkpt><trkpt lat="45.59646744332899" lon="10.993174392572797"><ele>501.0</ele><time>2026-04-04T11:37:11.003Z</time></trkpt><trkpt lat="45.596400309580844" lon="10.993186581043775"><ele>501.0</ele><time>2026-04-04T11:37:15.003Z</time></trkpt><trkpt lat="45.59641042893077" lon="10.993310962353798"><ele>501.0</ele><time>2026-04-04T11:37:19Z</time></trkpt><trkpt lat="45.596341993211844" lon="10.993328571070867"><ele>498.1666666666667</ele><time>2026-04-04T11:37:33Z</time></trkpt><trkpt lat="45.59630369696482" lon="10.99343166915812"><ele>495.33333333333337</ele><time>2026-04-04T11:37:40Z</time></trkpt><trkpt lat="45.59631673548337" lon="10.993535224155751"><ele>492.5</ele><time>2026-04-04T11:37:43Z</time></trkpt><trkpt lat="45.59631158319642" lon="10.993627282102585"><ele>489.6666666666667</ele><time>2026-04-04T11:37:45Z</time></trkpt><trkpt lat="45.59630847048253" lon="10.993735839109071"><ele>486.83333333333337</ele><time>2026-04-04T11:37:58.001Z</time></trkpt><trkpt lat="45.59627642828183" lon="10.99383783507443"><ele>484.0</ele><time>2026-04-04T11:38:03.001Z</time></trkpt><trkpt lat="45.59624627447036" lon="10.993937707924879"><ele>484.0</ele><time>2026-04-04T11:38:07.001Z</time></trkpt><trkpt lat="45.59621439172736" lon="10.99403277003354"><ele>483.99999999999994</ele><time>2026-04-04T11:38:10.001Z</time></trkpt><trkpt lat="45.59619942919377" lon="10.994130848049812"><ele>484.0</ele><time>2026-04-04T11:38:13.001Z</time></trkpt><trkpt lat="45.59621424226485" lon="10.994227224122008"><ele>484.0</ele><time>2026-04-04T11:38:17.001Z</time></trkpt><trkpt lat="45.596201053666455" lon="10.994346220053439"><ele>483.99999999999994</ele><time>2026-04-04T11:38:21.001Z</time></trkpt><trkpt lat="45.59618347189477" lon="10.994446155454737"><ele>484.0</ele><time>2026-04-04T11:38:25.001Z</time></trkpt><trkpt lat="45.59622800295582" lon="10.99453674907274"><ele>484.0</ele><time>2026-04-04T11:38:28.001Z</time></trkpt><trkpt lat="45.596262012339935" lon="10.994664146400716"><ele>480.33333333333337</ele><time>2026-04-04T11:38:30.002Z</time></trkpt><trkpt lat="45.59630119206074" lon="10.99481518597551"><ele>476.6666666666667</ele><time>2026-04-04T11:38:32.002Z</time></trkpt><trkpt lat="45.59633157925896" lon="10.994921480039558"><ele>473.0</ele><time>2026-04-04T11:38:34.002Z</time></trkpt><trkpt lat="45.59634049006075" lon="10.995038266376897"><ele>469.33333333333337</ele><time>2026-04-04T11:38:37.002Z</time></trkpt><trkpt lat="45.59632263496566" lon="10.995142878467936"><ele>465.6666666666667</ele><time>2026-04-04T11:38:41.002Z</time></trkpt><trkpt lat="45.59630498098408" lon="10.995267726845043"><ele>462.0</ele><time>2026-04-04T11:38:43.002Z</time></trkpt><trkpt lat="45.5963185594244" lon="10.995363517391699"><ele>458.0</ele><time>2026-04-04T11:38:46.002Z</time></trkpt><trkpt lat="45.59633867956638" lon="10.995465851981537"><ele>454.0</ele><time>2026-04-04T11:38:48.002Z</time></trkpt><trkpt lat="45.596363634022225" lon="10.995552908449605"><ele>450.0</ele><time>2026-04-04T11:38:52.002Z</time></trkpt><trkpt lat="45.59641861932192" lon="10.995602357629279"><ele>446.0</ele><time>2026-04-04T11:39:10.003Z</time></trkpt><trkpt lat="45.59646391701586" lon="10.995680941603057"><ele>442.0</ele><time>2026-04-04T11:39:13.003Z</time></trkpt><trkpt lat="45.59639130148178" lon="10.995726167815585"><ele>438.0</ele><time>2026-04-04T11:39:17.003Z</time></trkpt><trkpt lat="45.596408041306645" lon="10.9958135613967"><ele>434.0</ele><time>2026-04-04T11:39:21.003Z</time></trkpt><trkpt lat="45.59646577161509" lon="10.995884793157671"><ele>431.8333333333333</ele><time>2026-04-04T11:39:24Z</time></trkpt><trkpt lat="45.59640458598306" lon="10.995966643177773"><ele>429.66666666666663</ele><time>2026-04-04T11:39:27Z</time></trkpt><trkpt lat="45.596339040700705" lon="10.995960243079944"><ele>427.5</ele><time>2026-04-04T11:39:29Z</time></trkpt><trkpt lat="45.59625311046043" lon="10.99594849320108"><ele>425.33333333333337</ele><time>2026-04-04T11:39:31Z</time></trkpt><trkpt lat="45.59617452121506" lon="10.995859799891797"><ele>423.1666666666667</ele><time>2026-04-04T11:39:33Z</time></trkpt><trkpt lat="45.596083041317755" lon="10.995767700477446"><ele>421.0</ele><time>2026-04-04T11:39:35Z</time></trkpt><trkpt lat="45.595985982456966" lon="10.995683205208323"><ele>419.33333333333337</ele><time>2026-04-04T11:39:37Z</time></trkpt><trkpt lat="45.59593273560776" lon="10.995628686734987"><ele>417.6666666666667</ele><time>2026-04-04T11:39:43Z</time></trkpt><trkpt lat="45.59586955272911" lon="10.995705758374468"><ele>416.0</ele><time>2026-04-04T11:39:48Z</time></trkpt><trkpt lat="45.59583624504627" lon="10.9957864448683"><ele>414.33333333333337</ele><time>2026-04-04T11:39:50Z</time></trkpt><trkpt lat="45.59582227042337" lon="10.995882797974506"><ele>412.6666666666667</ele><time>2026-04-04T11:39:52Z</time></trkpt><trkpt lat="45.595853922007514" lon="10.99600245874743"><ele>411.0</ele><time>2026-04-04T11:39:54Z</time></trkpt><trkpt lat="45.59595760195998" lon="10.996190819339077"><ele>412.6666666666667</ele><time>2026-04-04T11:39:57Z</time></trkpt><trkpt lat="45.595998558242414" lon="10.996261983001652"><ele>414.33333333333337</ele><time>2026-04-04T11:39:58Z</time></trkpt><trkpt lat="45.59605223739399" lon="10.996337869956317"><ele>416.0</ele><time>2026-04-04T11:40:01.001Z</time></trkpt><trkpt lat="45.596111348552206" lon="10.996386055889348"><ele>417.6666666666667</ele><time>2026-04-04T11:40:09.001Z</time></trkpt><trkpt lat="45.596186423844436" lon="10.996378184607336"><ele>419.33333333333337</ele><time>2026-04-04T11:40:12.001Z</time></trkpt><trkpt lat="45.59625776854014" lon="10.996470224677209"><ele>421.0</ele><time>2026-04-04T11:40:14.001Z</time></trkpt><trkpt lat="45.59633098559577" lon="10.996487720169087"><ele>421.00000000000006</ele><time>2026-04-04T11:40:15.001Z</time></trkpt><trkpt lat="45.59640199473944" lon="10.996514795656733"><ele>421.0</ele><time>2026-04-04T11:40:16.001Z</time></trkpt><trkpt lat="45.59648872881923" lon="10.996553541030611"><ele>421.0</ele><time>2026-04-04T11:40:17.001Z</time></trkpt><trkpt lat="45.596569842319845" lon="10.996586577903809"><ele>421.0</ele><time>2026-04-04T11:40:18.001Z</time></trkpt><trkpt lat="45.59667746484904" lon="10.9966231930808"><ele>421.00000000000006</ele><time>2026-04-04T11:40:19.001Z</time></trkpt><trkpt lat="45.59676387323352" lon="10.996658953568964"><ele>421.0</ele><time>2026-04-04T11:40:20.001Z</time></trkpt><trkpt lat="45.59684800097701" lon="10.996720063996987"><ele>425.0</ele><time>2026-04-04T11:40:22.001Z</time></trkpt><trkpt lat="45.59692444156539" lon="10.996821055053038"><ele>429.0</ele><time>2026-04-04T11:40:24.001Z</time></trkpt><trkpt lat="45.5971710347156" lon="10.996901083541825"><ele>433.0</ele><time>2026-04-04T11:40:26.001Z</time></trkpt><trkpt lat="45.597274189587466" lon="10.996950199999548"><ele>433.0</ele><time>2026-04-04T11:40:27.001Z</time></trkpt><trkpt lat="45.597350067108366" lon="10.997011116797234"><ele>432.99999999999994</ele><time>2026-04-04T11:40:28.001Z</time></trkpt><trkpt lat="45.59743406344494" lon="10.997097453722512"><ele>432.99999999999994</ele><time>2026-04-04T11:40:29.001Z</time></trkpt><trkpt lat="45.59751491948728" lon="10.997223748057202"><ele>433.0</ele><time>2026-04-04T11:40:30.001Z</time></trkpt><trkpt lat="45.59758573301126" lon="10.99733921232671"><ele>433.0</ele><time>2026-04-04T11:40:31.001Z</time></trkpt><trkpt lat="45.59766088206931" lon="10.997431920504686"><ele>434.0</ele><time>2026-04-04T11:40:32.001Z</time></trkpt><trkpt lat="45.59773501197846" lon="10.997522608440978"><ele>434.99999999999994</ele><time>2026-04-04T11:40:33.001Z</time></trkpt><trkpt lat="45.59781636750922" lon="10.997630118328273"><ele>435.99999999999994</ele><time>2026-04-04T11:40:34.001Z</time></trkpt><trkpt lat="45.59790954362953" lon="10.997720856530771"><ele>437.0</ele><time>2026-04-04T11:40:35.001Z</time></trkpt><trkpt lat="45.59800628772658" lon="10.997778772923526"><ele>438.0</ele><time>2026-04-04T11:40:36.001Z</time></trkpt><trkpt lat="45.598112689900425" lon="10.997817669829775"><ele>438.0</ele><time>2026-04-04T11:40:37.002Z</time></trkpt><trkpt lat="45.598222243963505" lon="10.99783794525377"><ele>437.99999999999994</ele><time>2026-04-04T11:40:38.002Z</time></trkpt><trkpt lat="45.598329241380625" lon="10.997831962152286"><ele>437.99999999999994</ele><time>2026-04-04T11:40:39.002Z</time></trkpt><trkpt lat="45.598401498444225" lon="10.997825087804799"><ele>438.0</ele><time>2026-04-04T11:40:40.002Z</time></trkpt><trkpt lat="45.59850741642561" lon="10.997870849115792"><ele>438.0</ele><time>2026-04-04T11:40:42.002Z</time></trkpt><trkpt lat="45.59855603459948" lon="10.997931939241408"><ele>438.0</ele><time>2026-04-04T11:40:43.002Z</time></trkpt><trkpt lat="45.59860631589074" lon="10.998001856354367"><ele>438.0</ele><time>2026-04-04T11:40:44.002Z</time></trkpt><trkpt lat="45.5986599101781" lon="10.998065950503763"><ele>438.0</ele><time>2026-04-04T11:40:45.002Z</time></trkpt><trkpt lat="45.59872823217245" lon="10.998074209217522"><ele>438.0</ele><time>2026-04-04T11:40:46.002Z</time></trkpt><trkpt lat="45.598793441489406" lon="10.99810548476414"><ele>438.0</ele><time>2026-04-04T11:40:47.002Z</time></trkpt><trkpt lat="45.59885487041066" lon="10.998184619257085"><ele>438.0</ele><time>2026-04-04T11:40:48.002Z</time></trkpt><trkpt lat="45.59892841764268" lon="10.998280709948785"><ele>443.3333333333333</ele><time>2026-04-04T11:40:49.002Z</time></trkpt><trkpt lat="45.598994095821354" lon="10.998359313921966"><ele>448.66666666666663</ele><time>2026-04-04T11:40:50.002Z</time></trkpt><trkpt lat="45.59905642291249" lon="10.99842297104409"><ele>454.0</ele><time>2026-04-04T11:40:51.002Z</time></trkpt><trkpt lat="45.59913087046625" lon="10.998457546879337"><ele>459.3333333333333</ele><time>2026-04-04T11:40:52.002Z</time></trkpt><trkpt lat="45.59919996596441" lon="10.998462650608284"><ele>464.66666666666663</ele><time>2026-04-04T11:40:53.002Z</time></trkpt><trkpt lat="45.59925503420772" lon="10.998418261080893"><ele>470.0</ele><time>2026-04-04T11:40:54.002Z</time></trkpt><trkpt lat="45.59938278187111" lon="10.998371867650865"><ele>470.0</ele><time>2026-04-04T11:40:56.002Z</time></trkpt><trkpt lat="45.599466663408" lon="10.998349833934245"><ele>470.0</ele><time>2026-04-04T11:40:57.002Z</time></trkpt><trkpt lat="45.59953434170791" lon="10.998340310860605"><ele>470.0</ele><time>2026-04-04T11:40:58.002Z</time></trkpt><trkpt lat="45.59967189419786" lon="10.998349606683288"><ele>470.0</ele><time>2026-04-04T11:41:00.002Z</time></trkpt><trkpt lat="45.59977562204332" lon="10.998350181132862"><ele>470.0</ele><time>2026-04-04T11:41:01.002Z</time></trkpt><trkpt lat="45.59990065034165" lon="10.998348742120585"><ele>470.3333333333333</ele><time>2026-04-04T11:41:03.002Z</time></trkpt><trkpt lat="45.59996514214444" lon="10.998332692857396"><ele>470.66666666666663</ele><time>2026-04-04T11:41:04.002Z</time></trkpt><trkpt lat="45.60004166014675" lon="10.998282086792962"><ele>471.0</ele><time>2026-04-04T11:41:06.002Z</time></trkpt><trkpt lat="45.600132131627426" lon="10.998275382322069"><ele>471.33333333333337</ele><time>2026-04-04T11:41:08.002Z</time></trkpt><trkpt lat="45.600208725108786" lon="10.99825126271117"><ele>471.6666666666667</ele><time>2026-04-04T11:41:10.002Z</time></trkpt><trkpt lat="45.600273346867546" lon="10.998237136179906"><ele>472.0</ele><time>2026-04-04T11:41:11.002Z</time></trkpt><trkpt lat="45.60034136033668" lon="10.998221856019391"><ele>472.00000000000006</ele><time>2026-04-04T11:41:12.002Z</time></trkpt><trkpt lat="45.60040427191988" lon="10.998213608831124"><ele>472.0</ele><time>2026-04-04T11:41:13.002Z</time></trkpt><trkpt lat="45.60049862890403" lon="10.998201207348743"><ele>472.0</ele><time>2026-04-04T11:41:15.003Z</time></trkpt><trkpt lat="45.60056898299665" lon="10.998161349346331"><ele>472.0</ele><time>2026-04-04T11:41:16.003Z</time></trkpt><trkpt lat="45.600645573420906" lon="10.998148802848412"><ele>472.00000000000006</ele><time>2026-04-04T11:41:18.003Z</time></trkpt><trkpt lat="45.60073546658363" lon="10.998154827486095"><ele>472.0</ele><time>2026-04-04T11:41:21.003Z</time></trkpt><trkpt lat="45.600834599203914" lon="10.998163095813972"><ele>472.0</ele><time>2026-04-04T11:41:25.003Z</time></trkpt><trkpt lat="45.60093082663201" lon="10.998153461925819"><ele>472.00000000000006</ele><time>2026-04-04T11:41:26.003Z</time></trkpt><trkpt lat="45.60100649054477" lon="10.998169808278904"><ele>472.00000000000006</ele><time>2026-04-04T11:41:27.003Z</time></trkpt><trkpt lat="45.60106808683007" lon="10.998191089456455"><ele>472.0</ele><time>2026-04-04T11:41:28.003Z</time></trkpt><trkpt lat="45.60120094696855" lon="10.998239088602237"><ele>472.0</ele><time>2026-04-04T11:41:29.999Z</time></trkpt><trkpt lat="45.60130367290942" lon="10.998281498744268"><ele>474.20000000000005</ele><time>2026-04-04T11:41:31.999Z</time></trkpt><trkpt lat="45.60138116338661" lon="10.998280711474207"><ele>476.40000000000003</ele><time>2026-04-04T11:41:33.999Z</time></trkpt><trkpt lat="45.601495069528525" lon="10.998298318810344"><ele>478.59999999999997</ele><time>2026-04-04T11:41:35.999Z</time></trkpt><trkpt lat="45.60158528301985" lon="10.998406761413646"><ele>480.79999999999995</ele><time>2026-04-04T11:41:37.999Z</time></trkpt><trkpt lat="45.60165903108699" lon="10.998470511320724"><ele>483.0</ele><time>2026-04-04T11:41:38.999Z</time></trkpt><trkpt lat="45.601718276841176" lon="10.998543517875836"><ele>483.59999999999997</ele><time>2026-04-04T11:41:39.999Z</time></trkpt><trkpt lat="45.601783934115915" lon="10.998622978698002"><ele>484.19999999999993</ele><time>2026-04-04T11:41:40.999Z</time></trkpt><trkpt lat="45.601897703520756" lon="10.998744222754683"><ele>484.8</ele><time>2026-04-04T11:41:42.999Z</time></trkpt><trkpt lat="45.601987996498856" lon="10.99880661091775"><ele>485.4</ele><time>2026-04-04T11:41:44.999Z</time></trkpt><trkpt lat="45.60207024775273" lon="10.998885538756909"><ele>486.0</ele><time>2026-04-04T11:41:46.999Z</time></trkpt><trkpt lat="45.602197865262895" lon="10.998960279697712"><ele>488.5</ele><time>2026-04-04T11:41:49Z</time></trkpt><trkpt lat="45.60227825588353" lon="10.999043919472761"><ele>491.0</ele><time>2026-04-04T11:41:51Z</time></trkpt><trkpt lat="45.602335742985396" lon="10.99914511833749"><ele>493.5</ele><time>2026-04-04T11:41:53Z</time></trkpt><trkpt lat="45.60240203306531" lon="10.99923792857092"><ele>496.0</ele><time>2026-04-04T11:41:55Z</time></trkpt><trkpt lat="45.60246136927117" lon="10.999270223792081"><ele>498.5</ele><time>2026-04-04T11:41:56Z</time></trkpt><trkpt lat="45.60251850650598" lon="10.999360638031298"><ele>501.0</ele><time>2026-04-04T11:41:58Z</time></trkpt><trkpt lat="45.60256742041511" lon="10.999428694950456"><ele>501.8571428571429</ele><time>2026-04-04T11:42:01Z</time></trkpt><trkpt lat="45.60264205867149" lon="10.999475370988476"><ele>502.71428571428567</ele><time>2026-04-04T11:42:04Z</time></trkpt><trkpt lat="45.60268428467881" lon="10.999546793827417"><ele>503.57142857142856</ele><time>2026-04-04T11:42:13.001Z</time></trkpt><trkpt lat="45.60273878615748" lon="10.99959347212417"><ele>504.42857142857144</ele><time>2026-04-04T11:42:18.001Z</time></trkpt><trkpt lat="45.60277577318917" lon="10.999673714031754"><ele>505.28571428571433</ele><time>2026-04-04T11:43:06.002Z</time></trkpt><trkpt lat="45.602839150264266" lon="10.999704325266213"><ele>506.1428571428571</ele><time>2026-04-04T11:43:18.003Z</time></trkpt><trkpt lat="45.60292187734465" lon="10.999742522467919"><ele>507.0</ele><time>2026-04-04T11:43:25.003Z</time></trkpt><trkpt lat="45.60300718147451" lon="10.999743962901118"><ele>507.0</ele><time>2026-04-04T11:43:28.003Z</time></trkpt><trkpt lat="45.60308781084635" lon="10.99977910948418"><ele>507.0</ele><time>2026-04-04T11:43:31.003Z</time></trkpt><trkpt lat="45.60317784503449" lon="10.999786843188092"><ele>507.0</ele><time>2026-04-04T11:43:34.003Z</time></trkpt><trkpt lat="45.60326472831793" lon="10.999808810592706"><ele>507.0</ele><time>2026-04-04T11:43:36Z</time></trkpt><trkpt lat="45.603329143338755" lon="10.999832888574655"><ele>507.0</ele><time>2026-04-04T11:43:38Z</time></trkpt><trkpt lat="45.603407890104265" lon="10.999869048007442"><ele>507.0</ele><time>2026-04-04T11:43:41Z</time></trkpt><trkpt lat="45.60347867469275" lon="10.999936891038882"><ele>507.0</ele><time>2026-04-04T11:43:44Z</time></trkpt><trkpt lat="45.60355246627526" lon="10.999964204489174"><ele>507.0</ele><time>2026-04-04T11:43:47Z</time></trkpt><trkpt lat="45.60364296693931" lon="11.000008625380318"><ele>507.0</ele><time>2026-04-04T11:43:54Z</time></trkpt><trkpt lat="45.60369743507915" lon="11.000097806077012"><ele>507.0</ele><time>2026-04-04T11:43:56Z</time></trkpt><trkpt lat="45.603722685025595" lon="11.000191197596028"><ele>507.0</ele><time>2026-04-04T11:43:58Z</time></trkpt><trkpt lat="45.60379303100823" lon="11.000268373271702"><ele>507.0</ele><time>2026-04-04T11:44:01Z</time></trkpt><trkpt lat="45.603839766464425" lon="11.000350143610836"><ele>507.0</ele><time>2026-04-04T11:44:03Z</time></trkpt><trkpt lat="45.60376178126235" lon="11.000403627583836"><ele>507.00000000000006</ele><time>2026-04-04T11:44:06.001Z</time></trkpt><trkpt lat="45.60365202884455" lon="11.00037239207911"><ele>507.00000000000006</ele><time>2026-04-04T11:44:08.001Z</time></trkpt><trkpt lat="45.603535749273895" lon="11.000360030343161"><ele>507.0</ele><time>2026-04-04T11:44:10.001Z</time></trkpt><trkpt lat="45.60346448128804" lon="11.000353950797322"><ele>507.0</ele><time>2026-04-04T11:44:11.001Z</time></trkpt><trkpt lat="45.60337265966404" lon="11.000365097114804"><ele>507.0</ele><time>2026-04-04T11:44:13.001Z</time></trkpt><trkpt lat="45.60330797295641" lon="11.00031964329305"><ele>507.0</ele><time>2026-04-04T11:44:16.001Z</time></trkpt><trkpt lat="45.60318498499893" lon="11.000268851219715"><ele>507.0</ele><time>2026-04-04T11:44:18.001Z</time></trkpt><trkpt lat="45.60310916926092" lon="11.00022469042233"><ele>507.0</ele><time>2026-04-04T11:44:20.001Z</time></trkpt><trkpt lat="45.60304208384897" lon="11.000171521384697"><ele>507.0</ele><time>2026-04-04T11:44:27.001Z</time></trkpt><trkpt lat="45.60295748222474" lon="11.000160975040123"><ele>507.0</ele><time>2026-04-04T11:44:29.001Z</time></trkpt><trkpt lat="45.602853447099676" lon="11.000102259640189"><ele>507.0</ele><time>2026-04-04T11:44:31.001Z</time></trkpt><trkpt lat="45.602783715486524" lon="11.000066540078906"><ele>507.0</ele><time>2026-04-04T11:44:33.001Z</time></trkpt><trkpt lat="45.60269560805635" lon="11.00005403031638"><ele>507.0</ele><time>2026-04-04T11:44:38.001Z</time></trkpt><trkpt lat="45.60262969081697" lon="11.000033108668081"><ele>507.0</ele><time>2026-04-04T11:44:41.002Z</time></trkpt><trkpt lat="45.60253663462814" lon="10.99998089754796"><ele>507.0</ele><time>2026-04-04T11:44:44.002Z</time></trkpt><trkpt lat="45.60243904412067" lon="10.999928135438443"><ele>507.0</ele><time>2026-04-04T11:44:48.002Z</time></trkpt><trkpt lat="45.602363088839994" lon="10.999904087252476"><ele>507.0</ele><time>2026-04-04T11:44:52.002Z</time></trkpt><trkpt lat="45.60228433507081" lon="10.999886568179836"><ele>507.0</ele><time>2026-04-04T11:44:54.002Z</time></trkpt><trkpt lat="45.602188321853056" lon="10.999864697312384"><ele>507.0</ele><time>2026-04-04T11:44:56.002Z</time></trkpt><trkpt lat="45.60216117251467" lon="10.999782705265751"><ele>507.0</ele><time>2026-04-04T11:44:58.002Z</time></trkpt><trkpt lat="45.60207398510751" lon="10.999699414239988"><ele>507.0</ele><time>2026-04-04T11:45:00.002Z</time></trkpt><trkpt lat="45.60201606708094" lon="10.99965876949155"><ele>507.0</ele><time>2026-04-04T11:45:01.002Z</time></trkpt><trkpt lat="45.601953006895236" lon="10.999616831757773"><ele>508.5</ele><time>2026-04-04T11:45:02.002Z</time></trkpt><trkpt lat="45.60188074824056" lon="10.99958463846883"><ele>510.0</ele><time>2026-04-04T11:45:03.002Z</time></trkpt><trkpt lat="45.60181812120084" lon="10.99955291592696"><ele>511.5</ele><time>2026-04-04T11:45:04.002Z</time></trkpt><trkpt lat="45.601729778200344" lon="10.999474013115993"><ele>513.0</ele><time>2026-04-04T11:45:06.002Z</time></trkpt><trkpt lat="45.60166206942209" lon="10.999451342870346"><ele>514.5</ele><time>2026-04-04T11:45:07.002Z</time></trkpt><trkpt lat="45.601596041446776" lon="10.999431993846505"><ele>516.0</ele><time>2026-04-04T11:45:08.002Z</time></trkpt><trkpt lat="45.601527731393546" lon="10.999413098871848"><ele>516.0</ele><time>2026-04-04T11:45:09.002Z</time></trkpt><trkpt lat="45.60142530487553" lon="10.999381367701003"><ele>516.0</ele><time>2026-04-04T11:45:11.002Z</time></trkpt><trkpt lat="45.60136187323886" lon="10.999378145478534"><ele>516.0</ele><time>2026-04-04T11:45:12.002Z</time></trkpt><trkpt lat="45.601292407013766" lon="10.999370976013065"><ele>516.0</ele><time>2026-04-04T11:45:13.003Z</time></trkpt><trkpt lat="45.601218484282946" lon="10.999385334580994"><ele>516.0</ele><time>2026-04-04T11:45:14.003Z</time></trkpt><trkpt lat="45.601116271776114" lon="10.999422233559102"><ele>516.0</ele><time>2026-04-04T11:45:15.003Z</time></trkpt><trkpt lat="45.60103797023488" lon="10.999454475395392"><ele>516.5714285714286</ele><time>2026-04-04T11:45:16.003Z</time></trkpt><trkpt lat="45.6009662974192" lon="10.999486726316645"><ele>517.1428571428571</ele><time>2026-04-04T11:45:17.003Z</time></trkpt><trkpt lat="45.600906369195926" lon="10.99951765942551"><ele>517.7142857142858</ele><time>2026-04-04T11:45:18.003Z</time></trkpt><trkpt lat="45.60083996646297" lon="10.999556952965431"><ele>518.2857142857142</ele><time>2026-04-04T11:45:19.003Z</time></trkpt><trkpt lat="45.600778840480196" lon="10.999599081058049"><ele>518.8571428571429</ele><time>2026-04-04T11:45:20.003Z</time></trkpt><trkpt lat="45.60068913514076" lon="10.99963606968344"><ele>519.4285714285714</ele><time>2026-04-04T11:45:21.003Z</time></trkpt><trkpt lat="45.60061499230948" lon="10.999656416441187"><ele>520.0</ele><time>2026-04-04T11:45:22.003Z</time></trkpt><trkpt lat="45.60054240889962" lon="10.99968217609745"><ele>520.0</ele><time>2026-04-04T11:45:23.003Z</time></trkpt><trkpt lat="45.600415147025146" lon="10.999704887435756"><ele>520.0</ele><time>2026-04-04T11:45:25.003Z</time></trkpt><trkpt lat="45.600348071275576" lon="10.999729157101333"><ele>520.0</ele><time>2026-04-04T11:45:26.003Z</time></trkpt><trkpt lat="45.60028336289227" lon="10.999776784976838"><ele>520.0</ele><time>2026-04-04T11:45:27.003Z</time></trkpt><trkpt lat="45.600183418632504" lon="10.99982081129286"><ele>520.0</ele><time>2026-04-04T11:45:29.003Z</time></trkpt><trkpt lat="45.60012516817063" lon="10.999855763680637"><ele>520.0</ele><time>2026-04-04T11:45:30.003Z</time></trkpt><trkpt lat="45.600039871759954" lon="10.99990651067526"><ele>518.5</ele><time>2026-04-04T11:45:32.003Z</time></trkpt><trkpt lat="45.59996493979384" lon="10.99995016523394"><ele>517.0</ele><time>2026-04-04T11:45:34.003Z</time></trkpt><trkpt lat="45.59985286205367" lon="10.999998055539162"><ele>515.5</ele><time>2026-04-04T11:45:36.003Z</time></trkpt><trkpt lat="45.599789548377395" lon="11.000035737896221"><ele>514.0</ele><time>2026-04-04T11:45:37.003Z</time></trkpt><trkpt lat="45.59972104103059" lon="11.000070608180964"><ele>512.5</ele><time>2026-04-04T11:45:38.003Z</time></trkpt><trkpt lat="45.599650624347554" lon="11.000107932268069"><ele>511.0</ele><time>2026-04-04T11:45:39.003Z</time></trkpt><trkpt lat="45.59955586752597" lon="11.000167754256106"><ele>511.00000000000006</ele><time>2026-04-04T11:45:41Z</time></trkpt><trkpt lat="45.59946304915894" lon="11.000193633818382"><ele>511.0</ele><time>2026-04-04T11:45:43Z</time></trkpt><trkpt lat="45.59936687935161" lon="11.000244209041597"><ele>511.0</ele><time>2026-04-04T11:45:46Z</time></trkpt><trkpt lat="45.59929451277269" lon="11.000230786404671"><ele>511.0</ele><time>2026-04-04T11:45:48Z</time></trkpt><trkpt lat="45.59921767605321" lon="11.000213528564249"><ele>511.00000000000006</ele><time>2026-04-04T11:45:50Z</time></trkpt><trkpt lat="45.59912292124062" lon="11.000213298861889"><ele>511.0</ele><time>2026-04-04T11:45:52Z</time></trkpt><trkpt lat="45.599022876196464" lon="11.000208918415426"><ele>511.0</ele><time>2026-04-04T11:45:54Z</time></trkpt><trkpt lat="45.59892402373057" lon="11.000192361733955"><ele>511.0</ele><time>2026-04-04T11:45:56Z</time></trkpt><trkpt lat="45.598835925276944" lon="11.000201993691935"><ele>511.0</ele><time>2026-04-04T11:45:58Z</time></trkpt><trkpt lat="45.5987359489852" lon="11.0002615758759"><ele>511.0</ele><time>2026-04-04T11:46:00Z</time></trkpt><trkpt lat="45.59862447833235" lon="11.000307242462977"><ele>511.0</ele><time>2026-04-04T11:46:02Z</time></trkpt><trkpt lat="45.59855679701607" lon="11.00030925016163"><ele>511.83333333333337</ele><time>2026-04-04T11:46:03Z</time></trkpt><trkpt lat="45.598489053337545" lon="11.000284941419672"><ele>512.6666666666667</ele><time>2026-04-04T11:46:04Z</time></trkpt><trkpt lat="45.598389197383256" lon="11.000303660884736"><ele>513.5</ele><time>2026-04-04T11:46:06Z</time></trkpt><trkpt lat="45.59832770568861" lon="11.000327238469186"><ele>514.3333333333334</ele><time>2026-04-04T11:46:08Z</time></trkpt><trkpt lat="45.59822875308998" lon="11.00035127715972"><ele>515.1666666666666</ele><time>2026-04-04T11:46:10.001Z</time></trkpt><trkpt lat="45.59816382899696" lon="11.000377633771361"><ele>516.0</ele><time>2026-04-04T11:46:11.001Z</time></trkpt><trkpt lat="45.59807869401697" lon="11.000422653703916"><ele>516.0</ele><time>2026-04-04T11:46:13.001Z</time></trkpt><trkpt lat="45.597974792461095" lon="11.000466245897849"><ele>516.0</ele><time>2026-04-04T11:46:15.001Z</time></trkpt><trkpt lat="45.597876352599556" lon="11.000449580094084"><ele>516.0</ele><time>2026-04-04T11:46:17.001Z</time></trkpt><trkpt lat="45.597794473990795" lon="11.00045050115971"><ele>516.0</ele><time>2026-04-04T11:46:18.001Z</time></trkpt><trkpt lat="45.597731938437875" lon="11.00043354585248"><ele>516.0</ele><time>2026-04-04T11:46:19.001Z</time></trkpt><trkpt lat="45.59763298811841" lon="11.00033989459592"><ele>519.0</ele><time>2026-04-04T11:46:21.001Z</time></trkpt><trkpt lat="45.597558519605165" lon="11.000261881897709"><ele>522.0</ele><time>2026-04-04T11:46:23.001Z</time></trkpt><trkpt lat="45.597505101589746" lon="11.000109942035865"><ele>525.0</ele><time>2026-04-04T11:46:25.001Z</time></trkpt><trkpt lat="45.59744897297586" lon="11.000018159018353"><ele>528.0</ele><time>2026-04-04T11:46:26.001Z</time></trkpt><trkpt lat="45.597397910166265" lon="10.999954308691517"><ele>531.0</ele><time>2026-04-04T11:46:27.001Z</time></trkpt><trkpt lat="45.5972982356611" lon="10.99992426881399"><ele>531.0</ele><time>2026-04-04T11:46:29.001Z</time></trkpt><trkpt lat="45.59722445899004" lon="10.999963765024184"><ele>531.0</ele><time>2026-04-04T11:46:31.001Z</time></trkpt><trkpt lat="45.59711778167344" lon="11.000037579398763"><ele>531.0</ele><time>2026-04-04T11:46:33.001Z</time></trkpt><trkpt lat="45.59705164317904" lon="11.000083629039391"><ele>531.0</ele><time>2026-04-04T11:46:34.001Z</time></trkpt><trkpt lat="45.59698915615006" lon="11.000132511734567"><ele>531.0</ele><time>2026-04-04T11:46:35.001Z</time></trkpt><trkpt lat="45.59690312168423" lon="11.000228329033371"><ele>531.0</ele><time>2026-04-04T11:46:37.001Z</time></trkpt><trkpt lat="45.596851609260575" lon="11.000369139703327"><ele>531.0</ele><time>2026-04-04T11:46:39.001Z</time></trkpt><trkpt lat="45.59678481516164" lon="11.000445202455866"><ele>531.0</ele><time>2026-04-04T11:46:41.001Z</time></trkpt><trkpt lat="45.59671015482804" lon="11.000449369885558"><ele>531.0</ele><time>2026-04-04T11:46:42.001Z</time></trkpt><trkpt lat="45.59664409878742" lon="11.000437102266158"><ele>531.0</ele><time>2026-04-04T11:46:43.001Z</time></trkpt><trkpt lat="45.59651649833466" lon="11.000405826070745"><ele>531.0</ele><time>2026-04-04T11:46:45.002Z</time></trkpt><trkpt lat="45.596449864671534" lon="11.000407786075296"><ele>531.0</ele><time>2026-04-04T11:46:46.002Z</time></trkpt><trkpt lat="45.59637033303786" lon="11.00041534877457"><ele>531.0</ele><time>2026-04-04T11:46:47.002Z</time></trkpt><trkpt lat="45.59629261829147" lon="11.000431027850942"><ele>531.0</ele><time>2026-04-04T11:46:48.002Z</time></trkpt><trkpt lat="45.596213452407184" lon="11.000442767653903"><ele>531.0</ele><time>2026-04-04T11:46:49.002Z</time></trkpt><trkpt lat="45.59613889153942" lon="11.000469289316579"><ele>531.0</ele><time>2026-04-04T11:46:50.002Z</time></trkpt><trkpt lat="45.596071381576685" lon="11.000516486266418"><ele>529.1666666666666</ele><time>2026-04-04T11:46:51.002Z</time></trkpt><trkpt lat="45.59600206198339" lon="11.000585396749907"><ele>527.3333333333334</ele><time>2026-04-04T11:46:52.002Z</time></trkpt><trkpt lat="45.5959358048743" lon="11.000641652125854"><ele>525.5</ele><time>2026-04-04T11:46:53.002Z</time></trkpt><trkpt lat="45.59587147277325" lon="11.000666710251787"><ele>523.6666666666667</ele><time>2026-04-04T11:46:54.002Z</time></trkpt><trkpt lat="45.59578723292532" lon="11.000680499495793"><ele>521.8333333333334</ele><time>2026-04-04T11:46:55.002Z</time></trkpt><trkpt lat="45.5956843857488" lon="11.000704423948923"><ele>520.0</ele><time>2026-04-04T11:46:56.002Z</time></trkpt><trkpt lat="45.59558874999076" lon="11.000740360465473"><ele>520.0</ele><time>2026-04-04T11:46:57.002Z</time></trkpt><trkpt lat="45.5954896521305" lon="11.00075249902877"><ele>520.0</ele><time>2026-04-04T11:46:58.002Z</time></trkpt><trkpt lat="45.59540437673057" lon="11.000750914822332"><ele>520.0</ele><time>2026-04-04T11:46:59.002Z</time></trkpt><trkpt lat="45.59534277401438" lon="11.000801059105248"><ele>520.0</ele><time>2026-04-04T11:47:00.002Z</time></trkpt><trkpt lat="45.595296911113564" lon="11.000880814102914"><ele>520.0</ele><time>2026-04-04T11:47:01.002Z</time></trkpt><trkpt lat="45.59524454816887" lon="11.000953971715386"><ele>520.0</ele><time>2026-04-04T11:47:02.002Z</time></trkpt><trkpt lat="45.59517747510885" lon="11.000969654295082"><ele>522.6</ele><time>2026-04-04T11:47:03.002Z</time></trkpt><trkpt lat="45.595122477644225" lon="11.000915450963877"><ele>525.2</ele><time>2026-04-04T11:47:04.002Z</time></trkpt><trkpt lat="45.59498864818898" lon="11.000917838519566"><ele>527.8</ele><time>2026-04-04T11:47:06.002Z</time></trkpt><trkpt lat="45.594906710555165" lon="11.00094921916743"><ele>530.4</ele><time>2026-04-04T11:47:07.002Z</time></trkpt><trkpt lat="45.59485965125873" lon="11.001009814757863"><ele>533.0</ele><time>2026-04-04T11:47:19.002Z</time></trkpt><trkpt lat="45.594770599485955" lon="11.0010798016518"><ele>533.0</ele><time>2026-04-04T11:47:21.002Z</time></trkpt><trkpt lat="45.59469159175852" lon="11.00115366384457"><ele>533.0</ele><time>2026-04-04T11:47:23.003Z</time></trkpt><trkpt lat="45.594585409692044" lon="11.001207409169512"><ele>533.0</ele><time>2026-04-04T11:47:25.003Z</time></trkpt><trkpt lat="45.594477761696" lon="11.001258308428447"><ele>533.0</ele><time>2026-04-04T11:47:27.003Z</time></trkpt><trkpt lat="45.594389044837634" lon="11.001258581437018"><ele>533.0</ele><time>2026-04-04T11:47:29.003Z</time></trkpt><trkpt lat="45.59427981965194" lon="11.001299339020248"><ele>532.5</ele><time>2026-04-04T11:47:31.003Z</time></trkpt><trkpt lat="45.594204884061476" lon="11.00132742135016"><ele>532.0</ele><time>2026-04-04T11:47:34.003Z</time></trkpt><trkpt lat="45.59412618231585" lon="11.001313885054946"><ele>531.5</ele><time>2026-04-04T11:47:37.003Z</time></trkpt><trkpt lat="45.594024872533026" lon="11.001342822974273"><ele>531.0</ele><time>2026-04-04T11:47:53Z</time></trkpt><trkpt lat="45.59394248618478" lon="11.001349505280878"><ele>530.5</ele><time>2026-04-04T11:47:54Z</time></trkpt><trkpt lat="45.593837593601414" lon="11.001356807448312"><ele>530.0</ele><time>2026-04-04T11:47:55Z</time></trkpt><trkpt lat="45.59372285664158" lon="11.001357091791435"><ele>529.75</ele><time>2026-04-04T11:47:56Z</time></trkpt><trkpt lat="45.593599939678775" lon="11.001346962314162"><ele>529.5</ele><time>2026-04-04T11:47:57Z</time></trkpt><trkpt lat="45.59347169871632" lon="11.001339216770578"><ele>529.25</ele><time>2026-04-04T11:47:58Z</time></trkpt><trkpt lat="45.59334912254093" lon="11.001338838756373"><ele>529.0</ele><time>2026-04-04T11:47:59Z</time></trkpt><trkpt lat="45.59323268654317" lon="11.00136142245668"><ele>529.0</ele><time>2026-04-04T11:48:00Z</time></trkpt><trkpt lat="45.59312349419319" lon="11.001396733861538"><ele>529.0</ele><time>2026-04-04T11:48:01Z</time></trkpt><trkpt lat="45.59302392093318" lon="11.001456348637877"><ele>529.0</ele><time>2026-04-04T11:48:02Z</time></trkpt><trkpt lat="45.59293900077577" lon="11.001533302131472"><ele>529.0</ele><time>2026-04-04T11:48:03Z</time></trkpt><trkpt lat="45.59287852481355" lon="11.001644961365928"><ele>529.0</ele><time>2026-04-04T11:48:04Z</time></trkpt><trkpt lat="45.59285416290325" lon="11.001792313631316"><ele>531.6</ele><time>2026-04-04T11:48:05Z</time></trkpt><trkpt lat="45.59285757455225" lon="11.001950209940997"><ele>534.2</ele><time>2026-04-04T11:48:06Z</time></trkpt><trkpt lat="45.59288550066349" lon="11.002066694091855"><ele>536.8000000000001</ele><time>2026-04-04T11:48:07Z</time></trkpt><trkpt lat="45.592925104640074" lon="11.002161340606122"><ele>539.4</ele><time>2026-04-04T11:48:08Z</time></trkpt><trkpt lat="45.592953622129514" lon="11.002285920691103"><ele>542.0</ele><time>2026-04-04T11:48:09.001Z</time></trkpt><trkpt lat="45.59294769932072" lon="11.00242330970126"><ele>543.0</ele><time>2026-04-04T11:48:10.001Z</time></trkpt><trkpt lat="45.592904083042704" lon="11.002575334249263"><ele>544.0</ele><time>2026-04-04T11:48:11.001Z</time></trkpt><trkpt lat="45.59284476626783" lon="11.002734186418975"><ele>545.0</ele><time>2026-04-04T11:48:12.001Z</time></trkpt><trkpt lat="45.592786988973685" lon="11.002906229414506"><ele>546.0</ele><time>2026-04-04T11:48:13.001Z</time></trkpt><trkpt lat="45.592732850637375" lon="11.00305758928589"><ele>546.2</ele><time>2026-04-04T11:48:14.001Z</time></trkpt><trkpt lat="45.59268917149299" lon="11.003191688868009"><ele>546.4000000000001</ele><time>2026-04-04T11:48:15.001Z</time></trkpt><trkpt lat="45.59264509253263" lon="11.003319732857678"><ele>546.6</ele><time>2026-04-04T11:48:16.001Z</time></trkpt><trkpt lat="45.59261304489252" lon="11.003427847020125"><ele>546.8000000000001</ele><time>2026-04-04T11:48:17.001Z</time></trkpt><trkpt lat="45.592571485903" lon="11.003554134225093"><ele>547.0</ele><time>2026-04-04T11:48:19.001Z</time></trkpt><trkpt lat="45.592468589835434" lon="11.003551439324522"><ele>547.0</ele><time>2026-04-04T11:48:21.001Z</time></trkpt><trkpt lat="45.59242836036509" lon="11.003475872576358"><ele>547.0</ele><time>2026-04-04T11:48:22.001Z</time></trkpt><trkpt lat="45.59242941999015" lon="11.003375299412529"><ele>547.0</ele><time>2026-04-04T11:48:23.001Z</time></trkpt><trkpt lat="45.59245207696852" lon="11.003278828551673"><ele>547.0</ele><time>2026-04-04T11:48:24.001Z</time></trkpt><trkpt lat="45.592470603054515" lon="11.003150675434238"><ele>547.0</ele><time>2026-04-04T11:48:26.001Z</time></trkpt><trkpt lat="45.59239358395249" lon="11.003060704134628"><ele>547.0</ele><time>2026-04-04T11:48:32.001Z</time></trkpt><trkpt lat="45.59231381808568" lon="11.003015340163408"><ele>545.1666666666667</ele><time>2026-04-04T11:48:36.001Z</time></trkpt><trkpt lat="45.592269647439856" lon="11.002939588490259"><ele>543.3333333333334</ele><time>2026-04-04T11:48:38.002Z</time></trkpt><trkpt lat="45.59216198956046" lon="11.002899325174365"><ele>541.5</ele><time>2026-04-04T11:48:40.002Z</time></trkpt><trkpt lat="45.5921097485518" lon="11.002834882669013"><ele>539.6666666666666</ele><time>2026-04-04T11:48:42.002Z</time></trkpt><trkpt lat="45.59201943797168" lon="11.002776216916125"><ele>537.8333333333333</ele><time>2026-04-04T11:48:44.002Z</time></trkpt><trkpt lat="45.59193929907558" lon="11.002733869242192"><ele>536.0</ele><time>2026-04-04T11:48:46.002Z</time></trkpt><trkpt lat="45.59187839723313" lon="11.00269403238241"><ele>541.3333333333333</ele><time>2026-04-04T11:49:21.003Z</time></trkpt><trkpt lat="45.591889620868166" lon="11.002808414922294"><ele>546.6666666666666</ele><time>2026-04-04T11:49:23.003Z</time></trkpt><trkpt lat="45.591872562016405" lon="11.002955049110797"><ele>552.0</ele><time>2026-04-04T11:49:25.003Z</time></trkpt><trkpt lat="45.591874286586936" lon="11.003100578068693"><ele>557.3333333333334</ele><time>2026-04-04T11:49:27.003Z</time></trkpt><trkpt lat="45.59188282744358" lon="11.003201272118488"><ele>562.6666666666667</ele><time>2026-04-04T11:49:28.003Z</time></trkpt><trkpt lat="45.59188556538499" lon="11.003314547850184"><ele>568.0</ele><time>2026-04-04T11:49:29.003Z</time></trkpt><trkpt lat="45.59188122007635" lon="11.003440288207752"><ele>570.1428571428571</ele><time>2026-04-04T11:49:30.003Z</time></trkpt><trkpt lat="45.59187442798754" lon="11.003544265939745"><ele>572.2857142857142</ele><time>2026-04-04T11:49:31.003Z</time></trkpt><trkpt lat="45.59187021178685" lon="11.003635872453506"><ele>574.4285714285714</ele><time>2026-04-04T11:49:32.003Z</time></trkpt><trkpt lat="45.59186591891812" lon="11.003732865850143"><ele>576.5714285714286</ele><time>2026-04-04T11:49:33.003Z</time></trkpt><trkpt lat="45.59185802964711" lon="11.003832792783102"><ele>578.7142857142858</ele><time>2026-04-04T11:49:34.003Z</time></trkpt><trkpt lat="45.591839601403215" lon="11.003934836397795"><ele>580.8571428571429</ele><time>2026-04-04T11:49:35.003Z</time></trkpt><trkpt lat="45.59182797337715" lon="11.004067536165461"><ele>583.0</ele><time>2026-04-04T11:49:36.003Z</time></trkpt><trkpt lat="45.591820379097406" lon="11.004227110615316"><ele>585.0</ele><time>2026-04-04T11:49:37.003Z</time></trkpt><trkpt lat="45.59180884287097" lon="11.004351115369465"><ele>587.0</ele><time>2026-04-04T11:49:38.003Z</time></trkpt><trkpt lat="45.59179913819164" lon="11.004465699980667"><ele>589.0</ele><time>2026-04-04T11:49:39.003Z</time></trkpt><trkpt lat="45.591773169556866" lon="11.00457421553516"><ele>591.0</ele><time>2026-04-04T11:49:40.003Z</time></trkpt><trkpt lat="45.59176051262249" lon="11.004691146682289"><ele>593.0</ele><time>2026-04-04T11:49:41.003Z</time></trkpt><trkpt lat="45.59177647678263" lon="11.004795725769275"><ele>595.0</ele><time>2026-04-04T11:49:42.003Z</time></trkpt><trkpt lat="45.59177647122896" lon="11.004974929877902"><ele>597.0</ele><time>2026-04-04T11:49:44.003Z</time></trkpt><trkpt lat="45.591774161369315" lon="11.005067382889541"><ele>599.0</ele><time>2026-04-04T11:49:45.003Z</time></trkpt><trkpt lat="45.591770018760776" lon="11.005260778058362"><ele>601.0</ele><time>2026-04-04T11:49:47.003Z</time></trkpt><trkpt lat="45.591777321878844" lon="11.005376114278931"><ele>603.0</ele><time>2026-04-04T11:49:48.003Z</time></trkpt><trkpt lat="45.591787667697744" lon="11.005480891763854"><ele>605.0</ele><time>2026-04-04T11:49:49.003Z</time></trkpt><trkpt lat="45.59179300372478" lon="11.005651174138674"><ele>605.0</ele><time>2026-04-04T11:49:51.004Z</time></trkpt><trkpt lat="45.59177646724349" lon="11.005756865588348"><ele>605.0</ele><time>2026-04-04T11:49:52.004Z</time></trkpt><trkpt lat="45.59176969207337" lon="11.005896484196564"><ele>605.0</ele><time>2026-04-04T11:49:53.001Z</time></trkpt><trkpt lat="45.591758164029244" lon="11.006033832101581"><ele>605.0</ele><time>2026-04-04T11:49:54.001Z</time></trkpt><trkpt lat="45.59176046750708" lon="11.006156679096902"><ele>605.0</ele><time>2026-04-04T11:49:55.001Z</time></trkpt><trkpt lat="45.59176086360778" lon="11.006248677225553"><ele>605.0</ele><time>2026-04-04T11:49:56.001Z</time></trkpt><trkpt lat="45.59175789564196" lon="11.006358617139941"><ele>606.8</ele><time>2026-04-04T11:49:58.001Z</time></trkpt><trkpt lat="45.59177172774033" lon="11.006461432968564"><ele>608.6</ele><time>2026-04-04T11:50:00Z</time></trkpt><trkpt lat="45.59176533897467" lon="11.006584447564864"><ele>610.4</ele><time>2026-04-04T11:50:07Z</time></trkpt><trkpt lat="45.59175747762139" lon="11.006736161500028"><ele>612.2</ele><time>2026-04-04T11:50:09Z</time></trkpt><trkpt lat="45.5917626236728" lon="11.006859184133907"><ele>614.0</ele><time>2026-04-04T11:50:11Z</time></trkpt><trkpt lat="45.59175214355929" lon="11.007000759367555"><ele>615.4</ele><time>2026-04-04T11:50:13Z</time></trkpt><trkpt lat="45.59173451542504" lon="11.007130133161338"><ele>616.8</ele><time>2026-04-04T11:50:15Z</time></trkpt><trkpt lat="45.591699732031564" lon="11.007292389973177"><ele>618.2</ele><time>2026-04-04T11:50:17Z</time></trkpt><trkpt lat="45.59168122476371" lon="11.007421811381294"><ele>619.6</ele><time>2026-04-04T11:50:19Z</time></trkpt><trkpt lat="45.59165293346692" lon="11.007541323590756"><ele>621.0</ele><time>2026-04-04T11:50:21Z</time></trkpt><trkpt lat="45.59163133153312" lon="11.007635976596276"><ele>622.3333333333334</ele><time>2026-04-04T11:50:23Z</time></trkpt><trkpt lat="45.591601106607854" lon="11.00771743575697"><ele>623.6666666666666</ele><time>2026-04-04T11:50:25Z</time></trkpt><trkpt lat="45.591576279410866" lon="11.007839352167332"><ele>625.0</ele><time>2026-04-04T11:50:27Z</time></trkpt><trkpt lat="45.59154432645265" lon="11.007938473575903"><ele>626.3333333333333</ele><time>2026-04-04T11:50:29.001Z</time></trkpt><trkpt lat="45.59150729066873" lon="11.008045828509468"><ele>627.6666666666666</ele><time>2026-04-04T11:50:31.001Z</time></trkpt><trkpt lat="45.591455442695285" lon="11.00820014104337"><ele>629.0</ele><time>2026-04-04T11:50:33.001Z</time></trkpt><trkpt lat="45.59139813636543" lon="11.008290250761597"><ele>629.0</ele><time>2026-04-04T11:50:35.001Z</time></trkpt><trkpt lat="45.591351352704464" lon="11.008372907616593"><ele>629.0</ele><time>2026-04-04T11:50:38.001Z</time></trkpt><trkpt lat="45.591286727445315" lon="11.008324240033083"><ele>629.0</ele><time>2026-04-04T11:50:54.001Z</time></trkpt><trkpt lat="45.59126145955538" lon="11.008240735148473"><ele>629.0</ele><time>2026-04-04T11:50:56.001Z</time></trkpt><trkpt lat="45.59123770975344" lon="11.008136002812913"><ele>629.0</ele><time>2026-04-04T11:50:58.001Z</time></trkpt><trkpt lat="45.59121303831389" lon="11.007984813845296"><ele>629.0</ele><time>2026-04-04T11:51:00.001Z</time></trkpt><trkpt lat="45.59118862397874" lon="11.00789921305517"><ele>637.8</ele><time>2026-04-04T11:51:01.001Z</time></trkpt><trkpt lat="45.591135048504945" lon="11.007792827446263"><ele>646.5999999999999</ele><time>2026-04-04T11:51:03.001Z</time></trkpt><trkpt lat="45.591113341838025" lon="11.00765555495061"><ele>655.4</ele><time>2026-04-04T11:51:05.001Z</time></trkpt><trkpt lat="45.59106167745026" lon="11.007520018172283"><ele>664.1999999999999</ele><time>2026-04-04T11:51:07.001Z</time></trkpt><trkpt lat="45.59103829892003" lon="11.007434543969824"><ele>673.0</ele><time>2026-04-04T11:51:08.001Z</time></trkpt><trkpt lat="45.59099888861274" lon="11.007295085211588"><ele>673.0</ele><time>2026-04-04T11:51:10.001Z</time></trkpt><trkpt lat="45.590963787022694" lon="11.007184353223568"><ele>673.0</ele><time>2026-04-04T11:51:12.001Z</time></trkpt><trkpt lat="45.59091481670057" lon="11.007100771292698"><ele>673.0</ele><time>2026-04-04T11:51:14.001Z</time></trkpt><trkpt lat="45.5908740145252" lon="11.007008607538626"><ele>673.0</ele><time>2026-04-04T11:51:16.001Z</time></trkpt><trkpt lat="45.59082686089834" lon="11.006921102929889"><ele>673.0</ele><time>2026-04-04T11:51:18.002Z</time></trkpt><trkpt lat="45.590745122551475" lon="11.006831745488071"><ele>673.0</ele><time>2026-04-04T11:51:20.002Z</time></trkpt><trkpt lat="45.59070318871573" lon="11.00674917537328"><ele>672.5714285714286</ele><time>2026-04-04T11:51:22.002Z</time></trkpt><trkpt lat="45.59065806026071" lon="11.006659043585348"><ele>672.1428571428571</ele><time>2026-04-04T11:51:25.002Z</time></trkpt><trkpt lat="45.59060999204618" lon="11.006582438864278"><ele>671.7142857142857</ele><time>2026-04-04T11:51:27.002Z</time></trkpt><trkpt lat="45.59056366299444" lon="11.006514788787147"><ele>671.2857142857142</ele><time>2026-04-04T11:51:29.002Z</time></trkpt><trkpt lat="45.590570706196765" lon="11.006392964912022"><ele>670.8571428571429</ele><time>2026-04-04T11:51:32.002Z</time></trkpt><trkpt lat="45.590546167892505" lon="11.006299090873755"><ele>670.4285714285713</ele><time>2026-04-04T11:51:37.002Z</time></trkpt><trkpt lat="45.590489443568856" lon="11.0062405438591"><ele>670.0</ele><time>2026-04-04T11:51:41.002Z</time></trkpt><trkpt lat="45.59043808172419" lon="11.00632287728968"><ele>670.0</ele><time>2026-04-04T11:52:00.999Z</time></trkpt><trkpt lat="45.590374382690946" lon="11.0064317211192"><ele>670.0</ele><time>2026-04-04T11:52:02.999Z</time></trkpt><trkpt lat="45.59029710802202" lon="11.006478984046288"><ele>670.0</ele><time>2026-04-04T11:52:04.999Z</time></trkpt><trkpt lat="45.5901852900931" lon="11.006536223209041"><ele>670.0</ele><time>2026-04-04T11:52:06.999Z</time></trkpt><trkpt lat="45.5901355143246" lon="11.006591765576676"><ele>670.0</ele><time>2026-04-04T11:52:07.999Z</time></trkpt><trkpt lat="45.59007628590673" lon="11.00666742228013"><ele>670.0</ele><time>2026-04-04T11:52:08.999Z</time></trkpt><trkpt lat="45.59002132073726" lon="11.006738973982214"><ele>674.0</ele><time>2026-04-04T11:52:09.999Z</time></trkpt><trkpt lat="45.589974428690105" lon="11.006809810001599"><ele>678.0</ele><time>2026-04-04T11:52:11Z</time></trkpt><trkpt lat="45.58994100988297" lon="11.006909530074415"><ele>682.0</ele><time>2026-04-04T11:52:12Z</time></trkpt><trkpt lat="45.589932893798704" lon="11.007085362272354"><ele>686.0</ele><time>2026-04-04T11:52:14Z</time></trkpt><trkpt lat="45.58989675557536" lon="11.00723332942099"><ele>690.0</ele><time>2026-04-04T11:52:16Z</time></trkpt><trkpt lat="45.58985732211569" lon="11.007308959394331"><ele>694.0</ele><time>2026-04-04T11:52:17Z</time></trkpt><trkpt lat="45.58983564896189" lon="11.007409392919348"><ele>693.2</ele><time>2026-04-04T11:52:18Z</time></trkpt><trkpt lat="45.58981865105135" lon="11.00752202321563"><ele>692.4000000000001</ele><time>2026-04-04T11:52:19Z</time></trkpt><trkpt lat="45.589731483354036" lon="11.00766544424479"><ele>691.6</ele><time>2026-04-04T11:52:21Z</time></trkpt><trkpt lat="45.58963634733855" lon="11.0077327487296"><ele>690.8</ele><time>2026-04-04T11:52:22Z</time></trkpt><trkpt lat="45.58956765844043" lon="11.007801247080156"><ele>690.0</ele><time>2026-04-04T11:52:23Z</time></trkpt><trkpt lat="45.58947637042112" lon="11.007917361217983"><ele>690.0</ele><time>2026-04-04T11:52:24Z</time></trkpt><trkpt lat="45.58940033912546" lon="11.00802246928329"><ele>690.0</ele><time>2026-04-04T11:52:25Z</time></trkpt><trkpt lat="45.58931848988226" lon="11.008100662887463"><ele>690.0</ele><time>2026-04-04T11:52:26Z</time></trkpt><trkpt lat="45.589231596846226" lon="11.008167695123852"><ele>690.0</ele><time>2026-04-04T11:52:27Z</time></trkpt><trkpt lat="45.58914856823353" lon="11.008254572436206"><ele>690.0</ele><time>2026-04-04T11:52:28Z</time></trkpt><trkpt lat="45.589076893520044" lon="11.008336059446403"><ele>690.6</ele><time>2026-04-04T11:52:29Z</time></trkpt><trkpt lat="45.588983060531724" lon="11.008429788128543"><ele>691.2</ele><time>2026-04-04T11:52:30Z</time></trkpt><trkpt lat="45.58888299594718" lon="11.008518220818262"><ele>691.8</ele><time>2026-04-04T11:52:31Z</time></trkpt><trkpt lat="45.58878684707189" lon="11.00859566238819"><ele>692.4</ele><time>2026-04-04T11:52:32Z</time></trkpt><trkpt lat="45.58869805770191" lon="11.00865307132605"><ele>693.0</ele><time>2026-04-04T11:52:33Z</time></trkpt><trkpt lat="45.58861055724082" lon="11.008701372305634"><ele>693.0</ele><time>2026-04-04T11:52:34Z</time></trkpt><trkpt lat="45.588524157222466" lon="11.008745240649104"><ele>693.0</ele><time>2026-04-04T11:52:35Z</time></trkpt><trkpt lat="45.58843910492095" lon="11.008763443371146"><ele>693.0</ele><time>2026-04-04T11:52:36Z</time></trkpt><trkpt lat="45.588360592872114" lon="11.008798046028557"><ele>693.0</ele><time>2026-04-04T11:52:37Z</time></trkpt><trkpt lat="45.588271921742034" lon="11.008842659307309"><ele>693.0</ele><time>2026-04-04T11:52:38Z</time></trkpt><trkpt lat="45.58816640671714" lon="11.008886839010005"><ele>693.0</ele><time>2026-04-04T11:52:39Z</time></trkpt><trkpt lat="45.58806312886059" lon="11.008942865467938"><ele>693.0</ele><time>2026-04-04T11:52:40Z</time></trkpt><trkpt lat="45.58795088794651" lon="11.009013623804195"><ele>693.0</ele><time>2026-04-04T11:52:41Z</time></trkpt><trkpt lat="45.587835915417536" lon="11.009074650823383"><ele>693.0</ele><time>2026-04-04T11:52:42Z</time></trkpt><trkpt lat="45.587737859303594" lon="11.009123981594271"><ele>693.2</ele><time>2026-04-04T11:52:43Z</time></trkpt><trkpt lat="45.58765113790044" lon="11.009169965481728"><ele>693.4</ele><time>2026-04-04T11:52:44Z</time></trkpt><trkpt lat="45.58754585198377" lon="11.009230013932791"><ele>693.6</ele><time>2026-04-04T11:52:45Z</time></trkpt><trkpt lat="45.587448972286516" lon="11.009284347051736"><ele>693.8000000000001</ele><time>2026-04-04T11:52:46Z</time></trkpt><trkpt lat="45.587345753617655" lon="11.009340601188073"><ele>694.0</ele><time>2026-04-04T11:52:47Z</time></trkpt><trkpt lat="45.58725214145865" lon="11.009400558433859"><ele>694.0</ele><time>2026-04-04T11:52:48Z</time></trkpt><trkpt lat="45.5871622306005" lon="11.00945340074365"><ele>694.0</ele><time>2026-04-04T11:52:49Z</time></trkpt><trkpt lat="45.587070107164315" lon="11.009508602175682"><ele>694.0</ele><time>2026-04-04T11:52:50Z</time></trkpt><trkpt lat="45.5869826611933" lon="11.009580910904056"><ele>694.0</ele><time>2026-04-04T11:52:51Z</time></trkpt><trkpt lat="45.58690445109853" lon="11.009681282098368"><ele>694.0</ele><time>2026-04-04T11:52:52Z</time></trkpt><trkpt lat="45.586836820490255" lon="11.00980194112047"><ele>693.6</ele><time>2026-04-04T11:52:53.001Z</time></trkpt><trkpt lat="45.586776587272084" lon="11.009918705579192"><ele>693.2</ele><time>2026-04-04T11:52:54.001Z</time></trkpt><trkpt lat="45.586717782596494" lon="11.010021766887288"><ele>692.8000000000001</ele><time>2026-04-04T11:52:55.001Z</time></trkpt><trkpt lat="45.58665018831649" lon="11.010103114230334"><ele>692.4000000000001</ele><time>2026-04-04T11:52:56.001Z</time></trkpt><trkpt lat="45.58657067614676" lon="11.010183844981364"><ele>692.0</ele><time>2026-04-04T11:52:57.001Z</time></trkpt><trkpt lat="45.58649210636785" lon="11.010253828356463"><ele>692.0</ele><time>2026-04-04T11:52:58.001Z</time></trkpt><trkpt lat="45.58641464609028" lon="11.010293925995319"><ele>692.0</ele><time>2026-04-04T11:52:59.001Z</time></trkpt><trkpt lat="45.58634553361407" lon="11.010298531836998"><ele>692.0</ele><time>2026-04-04T11:53:00.001Z</time></trkpt><trkpt lat="45.58626411313938" lon="11.010295265123878"><ele>692.0</ele><time>2026-04-04T11:53:01.001Z</time></trkpt><trkpt lat="45.58617577661529" lon="11.010289873449269"><ele>692.0</ele><time>2026-04-04T11:53:02.001Z</time></trkpt><trkpt lat="45.58609747613492" lon="11.010282503450687"><ele>692.0</ele><time>2026-04-04T11:53:03.001Z</time></trkpt><trkpt lat="45.58603544312563" lon="11.010322378319641"><ele>689.0</ele><time>2026-04-04T11:53:04.001Z</time></trkpt><trkpt lat="45.585977088508635" lon="11.010403842445209"><ele>686.0</ele><time>2026-04-04T11:53:05.001Z</time></trkpt><trkpt lat="45.58590328966237" lon="11.010497308382693"><ele>683.0</ele><time>2026-04-04T11:53:06.001Z</time></trkpt><trkpt lat="45.585838296299656" lon="11.010576926504541"><ele>680.0</ele><time>2026-04-04T11:53:07.001Z</time></trkpt><trkpt lat="45.585742599376644" lon="11.010682278320623"><ele>677.0</ele><time>2026-04-04T11:53:09.001Z</time></trkpt><trkpt lat="45.58566567005531" lon="11.010729419662459"><ele>676.9999999999999</ele><time>2026-04-04T11:53:10.001Z</time></trkpt><trkpt lat="45.5855942091416" lon="11.010760509541768"><ele>677.0</ele><time>2026-04-04T11:53:11.001Z</time></trkpt><trkpt lat="45.58551631158454" lon="11.010783223133698"><ele>677.0</ele><time>2026-04-04T11:53:12.001Z</time></trkpt><trkpt lat="45.585451902615674" lon="11.010805077421416"><ele>677.0</ele><time>2026-04-04T11:53:13.001Z</time></trkpt><trkpt lat="45.58538958614753" lon="11.01083837865806"><ele>677.0</ele><time>2026-04-04T11:53:15.001Z</time></trkpt><trkpt lat="45.58540211375908" lon="11.010954404802542"><ele>676.9999999999999</ele><time>2026-04-04T11:53:17.001Z</time></trkpt><trkpt lat="45.58544862380808" lon="11.011019284738746"><ele>677.0</ele><time>2026-04-04T11:53:18.001Z</time></trkpt><trkpt lat="45.5855161741974" lon="11.011086192960416"><ele>678.2</ele><time>2026-04-04T11:53:19.001Z</time></trkpt><trkpt lat="45.5856020675819" lon="11.011152248815716"><ele>679.4000000000001</ele><time>2026-04-04T11:53:20.001Z</time></trkpt><trkpt lat="45.58570904510433" lon="11.011223267060654"><ele>680.5999999999999</ele><time>2026-04-04T11:53:21.001Z</time></trkpt><trkpt lat="45.585811791937" lon="11.01129791284925"><ele>681.8</ele><time>2026-04-04T11:53:22.001Z</time></trkpt><trkpt lat="45.58588814992777" lon="11.011370848698943"><ele>683.0</ele><time>2026-04-04T11:53:23.001Z</time></trkpt><trkpt lat="45.585974839882226" lon="11.011459978499419"><ele>683.0</ele><time>2026-04-04T11:53:24.001Z</time></trkpt><trkpt lat="45.586075304550995" lon="11.011537711635397"><ele>683.0</ele><time>2026-04-04T11:53:25.001Z</time></trkpt><trkpt lat="45.586175730547474" lon="11.011625098644036"><ele>683.0</ele><time>2026-04-04T11:53:26.001Z</time></trkpt><trkpt lat="45.586261928754546" lon="11.011725881790305"><ele>683.0</ele><time>2026-04-04T11:53:27.001Z</time></trkpt><trkpt lat="45.58636048621191" lon="11.011802089001053"><ele>683.4</ele><time>2026-04-04T11:53:28.001Z</time></trkpt><trkpt lat="45.586452997422185" lon="11.011861105659053"><ele>683.8</ele><time>2026-04-04T11:53:29.001Z</time></trkpt><trkpt lat="45.586536843450666" lon="11.011925324637568"><ele>684.2</ele><time>2026-04-04T11:53:30.001Z</time></trkpt><trkpt lat="45.58661808134583" lon="11.0120054365093"><ele>684.6</ele><time>2026-04-04T11:53:31.001Z</time></trkpt><trkpt lat="45.58672404649875" lon="11.01211205907221"><ele>685.0</ele><time>2026-04-04T11:53:32.001Z</time></trkpt><trkpt lat="45.586844440972946" lon="11.012236071183452"><ele>685.0</ele><time>2026-04-04T11:53:33.002Z</time></trkpt><trkpt lat="45.58694521816351" lon="11.012348685888922"><ele>685.0</ele><time>2026-04-04T11:53:34.002Z</time></trkpt><trkpt lat="45.5870410557119" lon="11.012452084744256"><ele>685.0</ele><time>2026-04-04T11:53:35.002Z</time></trkpt><trkpt lat="45.58713138264856" lon="11.012562262227584"><ele>685.0</ele><time>2026-04-04T11:53:36.002Z</time></trkpt><trkpt lat="45.58720598546258" lon="11.012680496261607"><ele>684.0</ele><time>2026-04-04T11:53:37.002Z</time></trkpt><trkpt lat="45.58726993837379" lon="11.012781867894207"><ele>683.0</ele><time>2026-04-04T11:53:38.002Z</time></trkpt><trkpt lat="45.58732928166163" lon="11.012879974730584"><ele>682.0</ele><time>2026-04-04T11:53:39.002Z</time></trkpt><trkpt lat="45.58737440352208" lon="11.01297498815097"><ele>681.0</ele><time>2026-04-04T11:53:40.002Z</time></trkpt><trkpt lat="45.58740658449661" lon="11.013106865101712"><ele>680.0</ele><time>2026-04-04T11:53:41.002Z</time></trkpt><trkpt lat="45.587426467220254" lon="11.013251832703613"><ele>675.75</ele><time>2026-04-04T11:53:42.002Z</time></trkpt><trkpt lat="45.587423203819256" lon="11.013403449214492"><ele>671.5</ele><time>2026-04-04T11:53:43.002Z</time></trkpt><trkpt lat="45.587391573047675" lon="11.013576348572018"><ele>667.25</ele><time>2026-04-04T11:53:44.002Z</time></trkpt><trkpt lat="45.58736003035052" lon="11.013724295329906"><ele>663.0</ele><time>2026-04-04T11:53:45.002Z</time></trkpt><trkpt lat="45.587319647399845" lon="11.013927111206185"><ele>663.0</ele><time>2026-04-04T11:53:46.002Z</time></trkpt><trkpt lat="45.58728817065258" lon="11.014099864222937"><ele>663.0</ele><time>2026-04-04T11:53:47.002Z</time></trkpt><trkpt lat="45.58727051558902" lon="11.014263575636862"><ele>663.0</ele><time>2026-04-04T11:53:48.002Z</time></trkpt><trkpt lat="45.58723255772189" lon="11.01442382189548"><ele>663.0</ele><time>2026-04-04T11:53:49.002Z</time></trkpt><trkpt lat="45.587206616444774" lon="11.01457100331699"><ele>662.2</ele><time>2026-04-04T11:53:50.002Z</time></trkpt><trkpt lat="45.58718671446979" lon="11.014697831542668"><ele>661.4</ele><time>2026-04-04T11:53:51.002Z</time></trkpt><trkpt lat="45.587167475209256" lon="11.01482952587018"><ele>660.6</ele><time>2026-04-04T11:53:52.002Z</time></trkpt><trkpt lat="45.58715404226135" lon="11.014959977398211"><ele>659.8000000000001</ele><time>2026-04-04T11:53:53.002Z</time></trkpt><trkpt lat="45.58712364395596" lon="11.015063478012266"><ele>659.0</ele><time>2026-04-04T11:53:54.002Z</time></trkpt><trkpt lat="45.58702483670832" lon="11.01511387961199"><ele>659.8000000000001</ele><time>2026-04-04T11:53:56.002Z</time></trkpt><trkpt lat="45.58693176914429" lon="11.01506574975626"><ele>660.6</ele><time>2026-04-04T11:53:57.002Z</time></trkpt><trkpt lat="45.58683969238733" lon="11.015019867610874"><ele>661.4</ele><time>2026-04-04T11:53:58.002Z</time></trkpt><trkpt lat="45.58676103796649" lon="11.015012562339116"><ele>662.2</ele><time>2026-04-04T11:53:59.002Z</time></trkpt><trkpt lat="45.58664855911409" lon="11.0150333556145"><ele>663.0</ele><time>2026-04-04T11:54:00.002Z</time></trkpt><trkpt lat="45.586547486756295" lon="11.01504458332151"><ele>663.0</ele><time>2026-04-04T11:54:01.002Z</time></trkpt><trkpt lat="45.58644406016462" lon="11.01506104942419"><ele>663.0</ele><time>2026-04-04T11:54:02.002Z</time></trkpt><trkpt lat="45.58633780157509" lon="11.015082374027562"><ele>663.0</ele><time>2026-04-04T11:54:03.002Z</time></trkpt><trkpt lat="45.586226493117366" lon="11.015116994811152"><ele>663.0</ele><time>2026-04-04T11:54:04.002Z</time></trkpt><trkpt lat="45.58611495548574" lon="11.01515977781231"><ele>663.0</ele><time>2026-04-04T11:54:04.999Z</time></trkpt><trkpt lat="45.5859995513796" lon="11.015218626178646"><ele>660.5</ele><time>2026-04-04T11:54:05.999Z</time></trkpt><trkpt lat="45.58589152658356" lon="11.015288326656085"><ele>658.0</ele><time>2026-04-04T11:54:07Z</time></trkpt><trkpt lat="45.58578286186645" lon="11.015377496919289"><ele>655.5</ele><time>2026-04-04T11:54:08Z</time></trkpt><trkpt lat="45.585673967669386" lon="11.015489007433297"><ele>653.0</ele><time>2026-04-04T11:54:09Z</time></trkpt><trkpt lat="45.58558696614413" lon="11.015594865428676"><ele>653.0</ele><time>2026-04-04T11:54:10Z</time></trkpt><trkpt lat="45.58551285546538" lon="11.015708494019888"><ele>653.0</ele><time>2026-04-04T11:54:11Z</time></trkpt><trkpt lat="45.58544917794893" lon="11.015831456491128"><ele>653.0</ele><time>2026-04-04T11:54:12Z</time></trkpt><trkpt lat="45.585389526022794" lon="11.015959106811534"><ele>653.0</ele><time>2026-04-04T11:54:13Z</time></trkpt><trkpt lat="45.58532162682385" lon="11.016105424691565"><ele>653.0</ele><time>2026-04-04T11:54:14Z</time></trkpt><trkpt lat="45.58526402761748" lon="11.016241545278783"><ele>652.5999999999999</ele><time>2026-04-04T11:54:15Z</time></trkpt><trkpt lat="45.585215575228425" lon="11.01639391559388"><ele>652.1999999999999</ele><time>2026-04-04T11:54:16Z</time></trkpt><trkpt lat="45.58516876479621" lon="11.016545932488514"><ele>651.8</ele><time>2026-04-04T11:54:17Z</time></trkpt><trkpt lat="45.58513838433379" lon="11.016702518843875"><ele>651.4</ele><time>2026-04-04T11:54:18Z</time></trkpt><trkpt lat="45.585119510088866" lon="11.016835732631947"><ele>651.0</ele><time>2026-04-04T11:54:19Z</time></trkpt><trkpt lat="45.585089413423574" lon="11.016983162812041"><ele>651.0</ele><time>2026-04-04T11:54:20Z</time></trkpt><trkpt lat="45.58503752752598" lon="11.017117695239328"><ele>651.0</ele><time>2026-04-04T11:54:21Z</time></trkpt><trkpt lat="45.5849607340292" lon="11.017230076296931"><ele>651.0</ele><time>2026-04-04T11:54:22Z</time></trkpt><trkpt lat="45.58487211927776" lon="11.01733439052426"><ele>651.0</ele><time>2026-04-04T11:54:23Z</time></trkpt><trkpt lat="45.58478639065162" lon="11.017431664049491"><ele>651.0</ele><time>2026-04-04T11:54:24Z</time></trkpt><trkpt lat="45.5846951556971" lon="11.017520125447652"><ele>650.6666666666666</ele><time>2026-04-04T11:54:25Z</time></trkpt><trkpt lat="45.584601575755855" lon="11.017596543139414"><ele>650.3333333333334</ele><time>2026-04-04T11:54:26Z</time></trkpt><trkpt lat="45.5845173775277" lon="11.017681968111829"><ele>650.0</ele><time>2026-04-04T11:54:27Z</time></trkpt><trkpt lat="45.58447375101472" lon="11.017759046894207"><ele>649.6666666666667</ele><time>2026-04-04T11:54:28Z</time></trkpt><trkpt lat="45.58441613772306" lon="11.01785032867411"><ele>649.3333333333334</ele><time>2026-04-04T11:54:30Z</time></trkpt><trkpt lat="45.58439993522718" lon="11.017943703844887"><ele>649.0</ele><time>2026-04-04T11:54:45.001Z</time></trkpt><trkpt lat="45.584416169518306" lon="11.018092325547215"><ele>649.0</ele><time>2026-04-04T11:54:47.001Z</time></trkpt><trkpt lat="45.58443002236576" lon="11.018245278222055"><ele>649.0</ele><time>2026-04-04T11:54:49.001Z</time></trkpt><trkpt lat="45.584447576527886" lon="11.018391079786868"><ele>649.0</ele><time>2026-04-04T11:54:51.001Z</time></trkpt><trkpt lat="45.58443240518325" lon="11.018537957816024"><ele>649.0</ele><time>2026-04-04T11:54:53.001Z</time></trkpt><trkpt lat="45.58447016131707" lon="11.018713366424643"><ele>649.0</ele><time>2026-04-04T11:54:55.001Z</time></trkpt><trkpt lat="45.584484168911345" lon="11.018827773677575"><ele>649.0</ele><time>2026-04-04T11:54:56.001Z</time></trkpt><trkpt lat="45.58449730142487" lon="11.018916793867906"><ele>649.0</ele><time>2026-04-04T11:54:57.001Z</time></trkpt><trkpt lat="45.58449117762216" lon="11.0190424920697"><ele>649.0</ele><time>2026-04-04T11:54:59.001Z</time></trkpt><trkpt lat="45.58451140241913" lon="11.01918472134313"><ele>649.0</ele><time>2026-04-04T11:55:01.001Z</time></trkpt><trkpt lat="45.58444228667199" lon="11.019247581439231"><ele>649.0</ele><time>2026-04-04T11:55:03.001Z</time></trkpt><trkpt lat="45.58435143412865" lon="11.019282515751495"><ele>649.0</ele><time>2026-04-04T11:56:12Z</time></trkpt><trkpt lat="45.5842951028254" lon="11.019326567711142"><ele>649.0</ele><time>2026-04-04T11:56:29Z</time></trkpt><trkpt lat="45.584231507887715" lon="11.019367490837842"><ele>649.0</ele><time>2026-04-04T11:56:31Z</time></trkpt><trkpt lat="45.58416898348982" lon="11.0194227892567"><ele>649.0</ele><time>2026-04-04T11:56:33Z</time></trkpt><trkpt lat="45.58411621175444" lon="11.019510768565135"><ele>649.0</ele><time>2026-04-04T11:56:35Z</time></trkpt><trkpt lat="45.58405865736309" lon="11.019616886048963"><ele>649.0</ele><time>2026-04-04T11:56:38Z</time></trkpt><trkpt lat="45.58402423306653" lon="11.019718797933686"><ele>649.0</ele><time>2026-04-04T11:56:40Z</time></trkpt><trkpt lat="45.583984448345625" lon="11.019814734149156"><ele>648.9999999999999</ele><time>2026-04-04T11:56:43Z</time></trkpt><trkpt lat="45.583952497543294" lon="11.01989759446627"><ele>649.0</ele><time>2026-04-04T11:56:46.001Z</time></trkpt><trkpt lat="45.58388880620147" lon="11.019948704768641"><ele>649.0</ele><time>2026-04-04T11:56:58.001Z</time></trkpt><trkpt lat="45.583824412747106" lon="11.019923596747608"><ele>649.0</ele><time>2026-04-04T11:57:02.001Z</time></trkpt><trkpt lat="45.58375133189309" lon="11.019885239215322"><ele>649.0</ele><time>2026-04-04T11:57:05.001Z</time></trkpt><trkpt lat="45.58368846189667" lon="11.019872307251665"><ele>648.9999999999999</ele><time>2026-04-04T11:57:08.001Z</time></trkpt><trkpt lat="45.58359902599661" lon="11.019926331740985"><ele>649.0</ele><time>2026-04-04T11:57:11.001Z</time></trkpt><trkpt lat="45.58351300195493" lon="11.020002189813045"><ele>649.2</ele><time>2026-04-04T11:57:13.001Z</time></trkpt><trkpt lat="45.58341421606457" lon="11.020051888740515"><ele>649.4000000000001</ele><time>2026-04-04T11:57:15.001Z</time></trkpt><trkpt lat="45.58331207614314" lon="11.020087794764905"><ele>649.6</ele><time>2026-04-04T11:57:17.001Z</time></trkpt><trkpt lat="45.583212367374934" lon="11.020118149635424"><ele>649.8</ele><time>2026-04-04T11:57:19.001Z</time></trkpt><trkpt lat="45.583115725759356" lon="11.020143592767818"><ele>650.0</ele><time>2026-04-04T11:57:21.001Z</time></trkpt><trkpt lat="45.58299659443355" lon="11.020173325197913"><ele>650.0</ele><time>2026-04-04T11:57:23.002Z</time></trkpt><trkpt lat="45.5829282509289" lon="11.02018323230137"><ele>650.0</ele><time>2026-04-04T11:57:24.002Z</time></trkpt><trkpt lat="45.58281343585489" lon="11.020180432252147"><ele>650.0</ele><time>2026-04-04T11:57:26.002Z</time></trkpt><trkpt lat="45.582696966076796" lon="11.020159766071856"><ele>650.0</ele><time>2026-04-04T11:57:28.002Z</time></trkpt><trkpt lat="45.582594840870144" lon="11.020122550824459"><ele>650.0</ele><time>2026-04-04T11:57:30.002Z</time></trkpt><trkpt lat="45.58251798242623" lon="11.020100305680117"><ele>649.1666666666666</ele><time>2026-04-04T11:57:32.002Z</time></trkpt><trkpt lat="45.58245170796241" lon="11.0201407701484"><ele>648.3333333333333</ele><time>2026-04-04T11:58:02.003Z</time></trkpt><trkpt lat="45.58237703334365" lon="11.02020245161442"><ele>647.5</ele><time>2026-04-04T11:58:34Z</time></trkpt><trkpt lat="45.58230014044239" lon="11.020288659730024"><ele>646.6666666666666</ele><time>2026-04-04T11:58:36Z</time></trkpt><trkpt lat="45.582223859760695" lon="11.020375478144544"><ele>645.8333333333334</ele><time>2026-04-04T11:58:38Z</time></trkpt><trkpt lat="45.58216899456205" lon="11.020476480444794"><ele>645.0</ele><time>2026-04-04T11:58:40Z</time></trkpt><trkpt lat="45.58212721090057" lon="11.02058218801667"><ele>645.0</ele><time>2026-04-04T11:58:42Z</time></trkpt><trkpt lat="45.582099232777246" lon="11.02070844695105"><ele>645.0</ele><time>2026-04-04T11:58:44Z</time></trkpt><trkpt lat="45.582091255741034" lon="11.02086630546644"><ele>645.0</ele><time>2026-04-04T11:58:46Z</time></trkpt><trkpt lat="45.58212613446627" lon="11.02101125663019"><ele>645.0</ele><time>2026-04-04T11:58:48Z</time></trkpt><trkpt lat="45.58215343383105" lon="11.021103662332212"><ele>645.0</ele><time>2026-04-04T11:58:50.001Z</time></trkpt><trkpt lat="45.58204962169872" lon="11.021170090882222"><ele>647.0</ele><time>2026-04-04T11:59:14.001Z</time></trkpt><trkpt lat="45.58196732908932" lon="11.02117330270534"><ele>649.0</ele><time>2026-04-04T11:59:15.001Z</time></trkpt><trkpt lat="45.581875138456695" lon="11.021190538251293"><ele>651.0</ele><time>2026-04-04T11:59:16.001Z</time></trkpt><trkpt lat="45.581780378052024" lon="11.021239136971955"><ele>653.0</ele><time>2026-04-04T11:59:17.001Z</time></trkpt><trkpt lat="45.5816842550636" lon="11.021299684731153"><ele>655.0</ele><time>2026-04-04T11:59:18.001Z</time></trkpt><trkpt lat="45.58159556709173" lon="11.021329381882046"><ele>655.0</ele><time>2026-04-04T11:59:19.001Z</time></trkpt><trkpt lat="45.58151426686742" lon="11.021308895988783"><ele>655.0</ele><time>2026-04-04T11:59:20.001Z</time></trkpt><trkpt lat="45.581422609670575" lon="11.021254302747142"><ele>655.0</ele><time>2026-04-04T11:59:21.001Z</time></trkpt><trkpt lat="45.581323287853465" lon="11.021183498941541"><ele>655.0</ele><time>2026-04-04T11:59:22.001Z</time></trkpt><trkpt lat="45.58121960027209" lon="11.02111872581773"><ele>655.0</ele><time>2026-04-04T11:59:23.001Z</time></trkpt><trkpt lat="45.58110813337578" lon="11.021058351780022"><ele>655.8</ele><time>2026-04-04T11:59:24.001Z</time></trkpt><trkpt lat="45.5809982814081" lon="11.020997610065683"><ele>656.6</ele><time>2026-04-04T11:59:25.001Z</time></trkpt><trkpt lat="45.58090124568996" lon="11.020932550945979"><ele>657.4000000000001</ele><time>2026-04-04T11:59:26.001Z</time></trkpt><trkpt lat="45.58081135340304" lon="11.020875814996804"><ele>658.2</ele><time>2026-04-04T11:59:27.001Z</time></trkpt><trkpt lat="45.5807136870275" lon="11.02084553322866"><ele>659.0</ele><time>2026-04-04T11:59:28.002Z</time></trkpt><trkpt lat="45.58062057087479" lon="11.020839924296206"><ele>659.0</ele><time>2026-04-04T11:59:29.002Z</time></trkpt><trkpt lat="45.580533894499375" lon="11.020851683578552"><ele>659.0</ele><time>2026-04-04T11:59:30.002Z</time></trkpt><trkpt lat="45.580468196482464" lon="11.020866733936447"><ele>659.0</ele><time>2026-04-04T11:59:31.002Z</time></trkpt><trkpt lat="45.580401588414354" lon="11.02092589520914"><ele>659.0</ele><time>2026-04-04T11:59:33.002Z</time></trkpt><trkpt lat="45.580332429782864" lon="11.021041389862043"><ele>659.0</ele><time>2026-04-04T11:59:35.002Z</time></trkpt><trkpt lat="45.58029071903198" lon="11.02119155689928"><ele>658.0</ele><time>2026-04-04T11:59:37.002Z</time></trkpt><trkpt lat="45.580280784860115" lon="11.021310182130103"><ele>657.0</ele><time>2026-04-04T11:59:39.002Z</time></trkpt><trkpt lat="45.58026822416066" lon="11.02143000143126"><ele>656.0</ele><time>2026-04-04T11:59:41.002Z</time></trkpt><trkpt lat="45.58024323048077" lon="11.021564338275551"><ele>655.0</ele><time>2026-04-04T11:59:43.002Z</time></trkpt><trkpt lat="45.58021994358212" lon="11.021694663189288"><ele>654.0</ele><time>2026-04-04T11:59:45.002Z</time></trkpt><trkpt lat="45.58019535542009" lon="11.021828467287817"><ele>652.8000000000001</ele><time>2026-04-04T11:59:47.002Z</time></trkpt><trkpt lat="45.58016065986834" lon="11.021945945500965"><ele>651.6</ele><time>2026-04-04T11:59:49.002Z</time></trkpt><trkpt lat="45.58014112318961" lon="11.022066953433848"><ele>650.4</ele><time>2026-04-04T11:59:51.002Z</time></trkpt><trkpt lat="45.58013294699389" lon="11.022200019522732"><ele>649.2</ele><time>2026-04-04T11:59:53.002Z</time></trkpt><trkpt lat="45.58011387447901" lon="11.022349757416906"><ele>648.0</ele><time>2026-04-04T11:59:55.002Z</time></trkpt><trkpt lat="45.58010105431781" lon="11.022508342633758"><ele>645.5</ele><time>2026-04-04T11:59:57.002Z</time></trkpt><trkpt lat="45.580103527431554" lon="11.022637222422885"><ele>643.0</ele><time>2026-04-04T11:59:59.002Z</time></trkpt><trkpt lat="45.58011832466314" lon="11.02275345630568"><ele>640.5</ele><time>2026-04-04T12:00:01.002Z</time></trkpt><trkpt lat="45.58014076929778" lon="11.022860220541181"><ele>638.0</ele><time>2026-04-04T12:00:03.002Z</time></trkpt><trkpt lat="45.58014890405568" lon="11.022976961185988"><ele>635.5</ele><time>2026-04-04T12:00:05.002Z</time></trkpt><trkpt lat="45.58017497930766" lon="11.023107211095533"><ele>633.0</ele><time>2026-04-04T12:00:09.003Z</time></trkpt><trkpt lat="45.5801883305741" lon="11.023201236082064"><ele>633.0</ele><time>2026-04-04T12:00:11.003Z</time></trkpt><trkpt lat="45.58018180806984" lon="11.023301373067406"><ele>633.0</ele><time>2026-04-04T12:00:14.003Z</time></trkpt><trkpt lat="45.58016975751993" lon="11.023398856256092"><ele>633.0</ele><time>2026-04-04T12:00:16.003Z</time></trkpt><trkpt lat="45.580199462189285" lon="11.023522179521724"><ele>633.0</ele><time>2026-04-04T12:00:18.003Z</time></trkpt><trkpt lat="45.58022792326257" lon="11.023637100569236"><ele>633.0</ele><time>2026-04-04T12:00:20.003Z</time></trkpt><trkpt lat="45.58024555746283" lon="11.023749797422248"><ele>633.0</ele><time>2026-04-04T12:00:22.003Z</time></trkpt><trkpt lat="45.58027014978626" lon="11.023865672977102"><ele>630.8333333333334</ele><time>2026-04-04T12:00:24Z</time></trkpt><trkpt lat="45.58029827852676" lon="11.023980493712637"><ele>628.6666666666666</ele><time>2026-04-04T12:00:26Z</time></trkpt><trkpt lat="45.58032918556562" lon="11.024093160864034"><ele>626.5</ele><time>2026-04-04T12:00:28Z</time></trkpt><trkpt lat="45.58035612585243" lon="11.024246937507531"><ele>624.3333333333333</ele><time>2026-04-04T12:00:30Z</time></trkpt><trkpt lat="45.58037935181704" lon="11.024335710362903"><ele>622.1666666666666</ele><time>2026-04-04T12:00:32Z</time></trkpt><trkpt lat="45.580430214210736" lon="11.024421962628486"><ele>620.0</ele><time>2026-04-04T12:00:36Z</time></trkpt><trkpt lat="45.58049617262017" lon="11.024503430313729"><ele>603.0</ele><time>2026-04-04T12:00:58.001Z</time></trkpt><trkpt lat="45.58055919869017" lon="11.024484949102431"><ele>603.0</ele><time>2026-04-04T12:01:03.001Z</time></trkpt><trkpt lat="45.58064307357878" lon="11.024455749441657"><ele>603.0</ele><time>2026-04-04T12:01:06.001Z</time></trkpt></trkseg><trkseg><trkpt lat="45.56629538147802" lon="11.079290172017009"><ele>701.0</ele><time>2026-04-04T13:02:15.999Z</time></trkpt><trkpt lat="45.56622722823086" lon="11.079397266018098"><ele>701.0</ele><time>2026-04-04T13:02:17.999Z</time></trkpt><trkpt lat="45.56616374705127" lon="11.079464263868289"><ele>701.0</ele><time>2026-04-04T13:02:18.999Z</time></trkpt><trkpt lat="45.56609329802231" lon="11.07956445316657"><ele>701.0</ele><time>2026-04-04T13:02:19.999Z</time></trkpt><trkpt lat="45.56601265358406" lon="11.079664955497554"><ele>701.0</ele><time>2026-04-04T13:02:20.999Z</time></trkpt><trkpt lat="45.565913278210715" lon="11.079769245993587"><ele>700.75</ele><time>2026-04-04T13:02:21.999Z</time></trkpt><trkpt lat="45.56581573761623" lon="11.079875568597304"><ele>700.5</ele><time>2026-04-04T13:02:22.999Z</time></trkpt><trkpt lat="45.56571344128835" lon="11.079990007105714"><ele>700.25</ele><time>2026-04-04T13:02:23.999Z</time></trkpt><trkpt lat="45.56559694985649" lon="11.080102269822024"><ele>700.0</ele><time>2026-04-04T13:02:24.999Z</time></trkpt><trkpt lat="45.56548213022401" lon="11.080184714079971"><ele>700.25</ele><time>2026-04-04T13:02:25.999Z</time></trkpt><trkpt lat="45.56536183278592" lon="11.08022899256384"><ele>700.5</ele><time>2026-04-04T13:02:26.999Z</time></trkpt><trkpt lat="45.565241485686556" lon="11.08023876734065"><ele>700.75</ele><time>2026-04-04T13:02:27.999Z</time></trkpt><trkpt lat="45.56510178176842" lon="11.080230986540016"><ele>701.0</ele><time>2026-04-04T13:02:28.999Z</time></trkpt><trkpt lat="45.564947204780765" lon="11.080228267362552"><ele>701.0</ele><time>2026-04-04T13:02:29.999Z</time></trkpt><trkpt lat="45.56479223263403" lon="11.08022784053072"><ele>701.0</ele><time>2026-04-04T13:02:30.999Z</time></trkpt><trkpt lat="45.564650569401024" lon="11.080227436595646"><ele>701.0</ele><time>2026-04-04T13:02:31.999Z</time></trkpt><trkpt lat="45.564517282161496" lon="11.080233145218662"><ele>701.0</ele><time>2026-04-04T13:02:33Z</time></trkpt><trkpt lat="45.564369151770556" lon="11.080217797167707"><ele>700.3333333333333</ele><time>2026-04-04T13:02:34Z</time></trkpt><trkpt lat="45.56421506308996" lon="11.08025718278841"><ele>699.6666666666666</ele><time>2026-04-04T13:02:35Z</time></trkpt><trkpt lat="45.56405548176956" lon="11.0802941494518"><ele>699.0</ele><time>2026-04-04T13:02:36Z</time></trkpt><trkpt lat="45.56389781164714" lon="11.080345150427194"><ele>699.0</ele><time>2026-04-04T13:02:37Z</time></trkpt><trkpt lat="45.56374456203412" lon="11.080398758161161"><ele>699.0</ele><time>2026-04-04T13:02:38Z</time></trkpt><trkpt lat="45.56360409928558" lon="11.080457054546091"><ele>699.0</ele><time>2026-04-04T13:02:39Z</time></trkpt><trkpt lat="45.56346467671028" lon="11.080495349025222"><ele>699.0</ele><time>2026-04-04T13:02:40Z</time></trkpt><trkpt lat="45.56332599670674" lon="11.080546377752812"><ele>697.6666666666666</ele><time>2026-04-04T13:02:41Z</time></trkpt><trkpt lat="45.5631803863304" lon="11.080600219479367"><ele>696.3333333333333</ele><time>2026-04-04T13:02:42Z</time></trkpt><trkpt lat="45.56302856256798" lon="11.08066202047255"><ele>695.0</ele><time>2026-04-04T13:02:43Z</time></trkpt><trkpt lat="45.5628953420906" lon="11.080757909860532"><ele>691.25</ele><time>2026-04-04T13:02:44Z</time></trkpt><trkpt lat="45.562764091309916" lon="11.08084749220567"><ele>687.5</ele><time>2026-04-04T13:02:45Z</time></trkpt><trkpt lat="45.562644121550065" lon="11.080971658696855"><ele>683.75</ele><time>2026-04-04T13:02:46Z</time></trkpt><trkpt lat="45.562543780717185" lon="11.081108318369047"><ele>680.0</ele><time>2026-04-04T13:02:47Z</time></trkpt><trkpt lat="45.56244105571127" lon="11.081243152363653"><ele>680.0</ele><time>2026-04-04T13:02:48Z</time></trkpt><trkpt lat="45.5623287870865" lon="11.081369027223884"><ele>680.0</ele><time>2026-04-04T13:02:49Z</time></trkpt><trkpt lat="45.56221860387602" lon="11.081501327985674"><ele>680.0</ele><time>2026-04-04T13:02:50Z</time></trkpt><trkpt lat="45.56210564465329" lon="11.081635723225952"><ele>680.0</ele><time>2026-04-04T13:02:51Z</time></trkpt><trkpt lat="45.5619869139739" lon="11.08174601583475"><ele>679.5</ele><time>2026-04-04T13:02:52Z</time></trkpt><trkpt lat="45.56185032216929" lon="11.081790388472639"><ele>679.0</ele><time>2026-04-04T13:02:53Z</time></trkpt><trkpt lat="45.56171676521344" lon="11.0818103399135"><ele>678.5</ele><time>2026-04-04T13:02:54Z</time></trkpt><trkpt lat="45.56158439456866" lon="11.081819987904106"><ele>678.0</ele><time>2026-04-04T13:02:55Z</time></trkpt><trkpt lat="45.56145303664929" lon="11.081830684530168"><ele>678.0</ele><time>2026-04-04T13:02:56Z</time></trkpt><trkpt lat="45.561329996253406" lon="11.081840703847204"><ele>678.0</ele><time>2026-04-04T13:02:57Z</time></trkpt><trkpt lat="45.561208871080865" lon="11.081850567016135"><ele>678.0</ele><time>2026-04-04T13:02:58Z</time></trkpt><trkpt lat="45.561086089312155" lon="11.082075678037826"><ele>678.0</ele><time>2026-04-04T13:02:59Z</time></trkpt><trkpt lat="45.56095818401908" lon="11.082178802605776"><ele>677.5</ele><time>2026-04-04T13:03:00Z</time></trkpt><trkpt lat="45.56083708934896" lon="11.082272277862106"><ele>677.0</ele><time>2026-04-04T13:03:01Z</time></trkpt><trkpt lat="45.56071306648981" lon="11.082352269260504"><ele>676.5</ele><time>2026-04-04T13:03:02Z</time></trkpt><trkpt lat="45.56058358569541" lon="11.082422862856541"><ele>676.0</ele><time>2026-04-04T13:03:03Z</time></trkpt><trkpt lat="45.560457184508145" lon="11.082481863296518"><ele>672.25</ele><time>2026-04-04T13:03:04Z</time></trkpt><trkpt lat="45.560331550025246" lon="11.082527415381971"><ele>668.5</ele><time>2026-04-04T13:03:05Z</time></trkpt><trkpt lat="45.56020252973923" lon="11.082565443089381"><ele>664.75</ele><time>2026-04-04T13:03:06Z</time></trkpt><trkpt lat="45.56006993488785" lon="11.08260867793307"><ele>661.0</ele><time>2026-04-04T13:03:07Z</time></trkpt><trkpt lat="45.5599283804719" lon="11.08265601226855"><ele>661.0</ele><time>2026-04-04T13:03:08Z</time></trkpt><trkpt lat="45.55980848927962" lon="11.08269567918609"><ele>661.0</ele><time>2026-04-04T13:03:09Z</time></trkpt><trkpt lat="45.559698132500635" lon="11.082731087970728"><ele>661.0</ele><time>2026-04-04T13:03:10Z</time></trkpt><trkpt lat="45.5595943865589" lon="11.082761495469498"><ele>661.0</ele><time>2026-04-04T13:03:10.999Z</time></trkpt><trkpt lat="45.559497446356026" lon="11.082799326650326"><ele>661.0</ele><time>2026-04-04T13:03:11.999Z</time></trkpt><trkpt lat="45.559397385627484" lon="11.082835516992594"><ele>659.8</ele><time>2026-04-04T13:03:12.999Z</time></trkpt><trkpt lat="45.55929488066834" lon="11.082861758096039"><ele>658.5999999999999</ele><time>2026-04-04T13:03:13.999Z</time></trkpt><trkpt lat="45.55919281239131" lon="11.082896559981327"><ele>657.4</ele><time>2026-04-04T13:03:14.999Z</time></trkpt><trkpt lat="45.559092050536165" lon="11.082935439971688"><ele>656.2</ele><time>2026-04-04T13:03:15.999Z</time></trkpt><trkpt lat="45.558990117958444" lon="11.082965572853388"><ele>655.0</ele><time>2026-04-04T13:03:16.999Z</time></trkpt><trkpt lat="45.55888344053029" lon="11.082997714108606"><ele>655.0</ele><time>2026-04-04T13:03:17.999Z</time></trkpt><trkpt lat="45.558759652702136" lon="11.083049052223242"><ele>655.0</ele><time>2026-04-04T13:03:18.999Z</time></trkpt><trkpt lat="45.558626476664855" lon="11.08309564111847"><ele>655.0</ele><time>2026-04-04T13:03:19.999Z</time></trkpt><trkpt lat="45.558480357421914" lon="11.083133779856627"><ele>655.0</ele><time>2026-04-04T13:03:20.999Z</time></trkpt><trkpt lat="45.55834216991755" lon="11.083171654724058"><ele>654.25</ele><time>2026-04-04T13:03:21.999Z</time></trkpt><trkpt lat="45.55820695037409" lon="11.083209942881753"><ele>653.5</ele><time>2026-04-04T13:03:22.999Z</time></trkpt><trkpt lat="45.55806006502768" lon="11.083257853925158"><ele>652.75</ele><time>2026-04-04T13:03:23.999Z</time></trkpt><trkpt lat="45.55792301551877" lon="11.083303445159327"><ele>652.0</ele><time>2026-04-04T13:03:24.999Z</time></trkpt><trkpt lat="45.55777574445184" lon="11.08335221601219"><ele>649.6666666666667</ele><time>2026-04-04T13:03:25.999Z</time></trkpt><trkpt lat="45.55762218341908" lon="11.083398693674063"><ele>647.3333333333334</ele><time>2026-04-04T13:03:26.999Z</time></trkpt><trkpt lat="45.557472275890404" lon="11.083446252762267"><ele>645.0</ele><time>2026-04-04T13:03:27.999Z</time></trkpt><trkpt lat="45.557324501515666" lon="11.083499806496238"><ele>645.0</ele><time>2026-04-04T13:03:28.999Z</time></trkpt><trkpt lat="45.55719223213535" lon="11.083549921435962"><ele>645.0</ele><time>2026-04-04T13:03:29.999Z</time></trkpt><trkpt lat="45.5570739142823" lon="11.083620279003933"><ele>645.0</ele><time>2026-04-04T13:03:30.999Z</time></trkpt><trkpt lat="45.556972084129455" lon="11.083720479470585"><ele>645.0</ele><time>2026-04-04T13:03:31.999Z</time></trkpt><trkpt lat="45.556877608093046" lon="11.083871274017051"><ele>645.25</ele><time>2026-04-04T13:03:32.999Z</time></trkpt><trkpt lat="45.556785087896664" lon="11.084045892651496"><ele>645.5</ele><time>2026-04-04T13:03:33.999Z</time></trkpt><trkpt lat="45.556685385165906" lon="11.084197584566205"><ele>645.75</ele><time>2026-04-04T13:03:34.999Z</time></trkpt><trkpt lat="45.55657310894444" lon="11.084335113761783"><ele>646.0</ele><time>2026-04-04T13:03:35.999Z</time></trkpt><trkpt lat="45.556456570194676" lon="11.084453570634434"><ele>646.0</ele><time>2026-04-04T13:03:36.999Z</time></trkpt><trkpt lat="45.55633913728626" lon="11.084563894054718"><ele>646.0</ele><time>2026-04-04T13:03:37.999Z</time></trkpt><trkpt lat="45.556217984771614" lon="11.084648657373869"><ele>646.0</ele><time>2026-04-04T13:03:38.999Z</time></trkpt><trkpt lat="45.55609012140901" lon="11.084691580412947"><ele>646.0</ele><time>2026-04-04T13:03:39.999Z</time></trkpt><trkpt lat="45.55595286486632" lon="11.084681343945237"><ele>644.3333333333334</ele><time>2026-04-04T13:03:40.999Z</time></trkpt><trkpt lat="45.55581493312823" lon="11.084612933424893"><ele>642.6666666666666</ele><time>2026-04-04T13:03:41.999Z</time></trkpt><trkpt lat="45.55568109665081" lon="11.084491627539318"><ele>641.0</ele><time>2026-04-04T13:03:42.999Z</time></trkpt><trkpt lat="45.55556045744502" lon="11.084361862934461"><ele>641.0</ele><time>2026-04-04T13:03:43.999Z</time></trkpt><trkpt lat="45.5554459392638" lon="11.084249862474321"><ele>641.0</ele><time>2026-04-04T13:03:44.999Z</time></trkpt><trkpt lat="45.555341760465794" lon="11.084164056631803"><ele>641.0</ele><time>2026-04-04T13:03:45.999Z</time></trkpt><trkpt lat="45.55523900848492" lon="11.084120422091349"><ele>641.0</ele><time>2026-04-04T13:03:46.999Z</time></trkpt><trkpt lat="45.555133218490774" lon="11.084130902012808"><ele>640.0</ele><time>2026-04-04T13:03:47.999Z</time></trkpt><trkpt lat="45.5550202735019" lon="11.084190834914848"><ele>639.0</ele><time>2026-04-04T13:03:48.999Z</time></trkpt><trkpt lat="45.55491133558019" lon="11.084294492763522"><ele>638.0</ele><time>2026-04-04T13:03:49.999Z</time></trkpt><trkpt lat="45.554803961652055" lon="11.084427694048658"><ele>637.0</ele><time>2026-04-04T13:03:50.999Z</time></trkpt><trkpt lat="45.554699041468105" lon="11.084564934745266"><ele>637.0</ele><time>2026-04-04T13:03:51.999Z</time></trkpt><trkpt lat="45.55459917635443" lon="11.084668228320702"><ele>637.0</ele><time>2026-04-04T13:03:52.999Z</time></trkpt><trkpt lat="45.55448654056754" lon="11.084747586809671"><ele>637.0</ele><time>2026-04-04T13:03:53.999Z</time></trkpt><trkpt lat="45.55436504446697" lon="11.084818784550587"><ele>637.0</ele><time>2026-04-04T13:03:54.999Z</time></trkpt><trkpt lat="45.55424688618792" lon="11.084868192380329"><ele>634.75</ele><time>2026-04-04T13:03:55.999Z</time></trkpt><trkpt lat="45.55412083189557" lon="11.084884562100425"><ele>632.5</ele><time>2026-04-04T13:03:56.999Z</time></trkpt><trkpt lat="45.5539862572584" lon="11.084873817036632"><ele>630.25</ele><time>2026-04-04T13:03:57.999Z</time></trkpt><trkpt lat="45.5538506709116" lon="11.084854878554692"><ele>628.0</ele><time>2026-04-04T13:03:58.999Z</time></trkpt><trkpt lat="45.553722631992336" lon="11.084843034249554"><ele>628.25</ele><time>2026-04-04T13:03:59.999Z</time></trkpt><trkpt lat="45.553594607114725" lon="11.084832607210222"><ele>628.5</ele><time>2026-04-04T13:04:00.999Z</time></trkpt><trkpt lat="45.553469051213504" lon="11.084840110947031"><ele>628.75</ele><time>2026-04-04T13:04:01.999Z</time></trkpt><trkpt lat="45.5533405507717" lon="11.084871048721427"><ele>629.0</ele><time>2026-04-04T13:04:02.999Z</time></trkpt><trkpt lat="45.55320183142967" lon="11.084919055855076"><ele>631.0</ele><time>2026-04-04T13:04:03.999Z</time></trkpt><trkpt lat="45.553066414004164" lon="11.08498319691396"><ele>633.0</ele><time>2026-04-04T13:04:04.999Z</time></trkpt><trkpt lat="45.55294925047628" lon="11.085065642924707"><ele>635.0</ele><time>2026-04-04T13:04:05.999Z</time></trkpt><trkpt lat="45.552848327796994" lon="11.085161076568562"><ele>637.0</ele><time>2026-04-04T13:04:06.999Z</time></trkpt><trkpt lat="45.55276346387465" lon="11.085258193311319"><ele>637.0</ele><time>2026-04-04T13:04:07.999Z</time></trkpt><trkpt lat="45.552692543453595" lon="11.085342861549288"><ele>637.0</ele><time>2026-04-04T13:04:08.999Z</time></trkpt><trkpt lat="45.552640195229955" lon="11.085413997927889"><ele>637.0</ele><time>2026-04-04T13:04:09.999Z</time></trkpt><trkpt lat="45.55263692541221" lon="11.085565845470185"><ele>637.0</ele><time>2026-04-04T13:04:11.999Z</time></trkpt><trkpt lat="45.55268529492781" lon="11.08567072730621"><ele>637.0</ele><time>2026-04-04T13:04:12.999Z</time></trkpt><trkpt lat="45.55276451811125" lon="11.085770724696978"><ele>637.25</ele><time>2026-04-04T13:04:13.999Z</time></trkpt><trkpt lat="45.55286296972998" lon="11.085856779221329"><ele>637.5</ele><time>2026-04-04T13:04:14.999Z</time></trkpt><trkpt lat="45.55297847506407" lon="11.08593843853194"><ele>637.75</ele><time>2026-04-04T13:04:15.999Z</time></trkpt><trkpt lat="45.553095470650504" lon="11.086004022900662"><ele>638.0</ele><time>2026-04-04T13:04:16.999Z</time></trkpt><trkpt lat="45.553234689173465" lon="11.086074788746252"><ele>638.5</ele><time>2026-04-04T13:04:17.999Z</time></trkpt><trkpt lat="45.553386288914716" lon="11.08614609959493"><ele>639.0</ele><time>2026-04-04T13:04:18.999Z</time></trkpt><trkpt lat="45.55352631505802" lon="11.086225464833316"><ele>639.5</ele><time>2026-04-04T13:04:19.999Z</time></trkpt><trkpt lat="45.55365038719748" lon="11.086303238969503"><ele>640.0</ele><time>2026-04-04T13:04:20.999Z</time></trkpt><trkpt lat="45.55376430562825" lon="11.086380658814479"><ele>639.8</ele><time>2026-04-04T13:04:21.999Z</time></trkpt><trkpt lat="45.55386788605622" lon="11.08645469735974"><ele>639.6</ele><time>2026-04-04T13:04:22.999Z</time></trkpt><trkpt lat="45.55396368996769" lon="11.086530089157993"><ele>639.4</ele><time>2026-04-04T13:04:23.999Z</time></trkpt><trkpt lat="45.554056309534616" lon="11.086603300748402"><ele>639.2</ele><time>2026-04-04T13:04:24.999Z</time></trkpt><trkpt lat="45.55415910219058" lon="11.086673132428007"><ele>639.0</ele><time>2026-04-04T13:04:25.999Z</time></trkpt><trkpt lat="45.55426557018434" lon="11.086752929620715"><ele>639.0</ele><time>2026-04-04T13:04:26.999Z</time></trkpt><trkpt lat="45.554364139851295" lon="11.08684675451055"><ele>639.0</ele><time>2026-04-04T13:04:27.999Z</time></trkpt><trkpt lat="45.55444006125327" lon="11.086969450184835"><ele>639.0</ele><time>2026-04-04T13:04:28.999Z</time></trkpt><trkpt lat="45.55450353956287" lon="11.087108505012806"><ele>639.0</ele><time>2026-04-04T13:04:29.999Z</time></trkpt><trkpt lat="45.554559312845846" lon="11.087275363476477"><ele>639.0</ele><time>2026-04-04T13:04:30.999Z</time></trkpt><trkpt lat="45.554602863286036" lon="11.087471956255294"><ele>639.0</ele><time>2026-04-04T13:04:31.999Z</time></trkpt><trkpt lat="45.55462906432568" lon="11.087660086182767"><ele>639.0</ele><time>2026-04-04T13:04:32.999Z</time></trkpt><trkpt lat="45.55464577963664" lon="11.087835191499252"><ele>639.0</ele><time>2026-04-04T13:04:33.999Z</time></trkpt><trkpt lat="45.554662932626925" lon="11.087993870532582"><ele>639.0</ele><time>2026-04-04T13:04:34.999Z</time></trkpt><trkpt lat="45.55467885753199" lon="11.0881408158614"><ele>639.0</ele><time>2026-04-04T13:04:35.999Z</time></trkpt><trkpt lat="45.55469951646712" lon="11.088277103143364"><ele>639.0</ele><time>2026-04-04T13:04:36.999Z</time></trkpt><trkpt lat="45.55470821098169" lon="11.088413028015754"><ele>639.0</ele><time>2026-04-04T13:04:37.999Z</time></trkpt><trkpt lat="45.55470225103445" lon="11.088580577294179"><ele>639.0</ele><time>2026-04-04T13:04:38.998Z</time></trkpt><trkpt lat="45.554691844209295" lon="11.088777172086015"><ele>636.25</ele><time>2026-04-04T13:04:39.998Z</time></trkpt><trkpt lat="45.55468549541222" lon="11.088966061974205"><ele>633.5</ele><time>2026-04-04T13:04:40.998Z</time></trkpt><trkpt lat="45.554676417447524" lon="11.08917597249808"><ele>630.75</ele><time>2026-04-04T13:04:41.998Z</time></trkpt><trkpt lat="45.55467035454413" lon="11.089378026887806"><ele>628.0</ele><time>2026-04-04T13:04:42.999Z</time></trkpt><trkpt lat="45.554666603442506" lon="11.089581210396725"><ele>624.0</ele><time>2026-04-04T13:04:43.999Z</time></trkpt><trkpt lat="45.55466679298592" lon="11.089796845341258"><ele>620.0</ele><time>2026-04-04T13:04:44.999Z</time></trkpt><trkpt lat="45.55466630328556" lon="11.09001402375077"><ele>616.0</ele><time>2026-04-04T13:04:45.999Z</time></trkpt><trkpt lat="45.55466250564619" lon="11.090228307754696"><ele>613.4</ele><time>2026-04-04T13:04:46.999Z</time></trkpt><trkpt lat="45.554663147882046" lon="11.090424726869362"><ele>610.8</ele><time>2026-04-04T13:04:47.999Z</time></trkpt><trkpt lat="45.55466165664596" lon="11.0905992472903"><ele>608.1999999999999</ele><time>2026-04-04T13:04:48.999Z</time></trkpt><trkpt lat="45.554657842417626" lon="11.090734541144284"><ele>605.6</ele><time>2026-04-04T13:04:49.999Z</time></trkpt><trkpt lat="45.55471949816695" lon="11.090772159823484"><ele>603.0</ele><time>2026-04-04T13:04:53.999Z</time></trkpt><trkpt lat="45.55478507219193" lon="11.09072765706893"><ele>603.0</ele><time>2026-04-04T13:04:55.999Z</time></trkpt><trkpt lat="45.55484194908526" lon="11.09068615337498"><ele>603.0</ele><time>2026-04-04T13:04:57.999Z</time></trkpt><trkpt lat="45.55490869966709" lon="11.090599201131422"><ele>603.0</ele><time>2026-04-04T13:05:00.999Z</time></trkpt><trkpt lat="45.554998577271945" lon="11.090508124423875"><ele>603.0</ele><time>2026-04-04T13:05:02.999Z</time></trkpt><trkpt lat="45.55506675367194" lon="11.090454056103244"><ele>603.0</ele><time>2026-04-04T13:05:03.999Z</time></trkpt><trkpt lat="45.55514763621659" lon="11.09036922805719"><ele>603.0</ele><time>2026-04-04T13:05:05.999Z</time></trkpt><trkpt lat="45.55520125717121" lon="11.09046078701911"><ele>603.0</ele><time>2026-04-04T13:05:08.999Z</time></trkpt><trkpt lat="45.555228651821935" lon="11.090565770954742"><ele>603.0</ele><time>2026-04-04T13:05:10.999Z</time></trkpt><trkpt lat="45.55524165975263" lon="11.090670157759103"><ele>603.0</ele><time>2026-04-04T13:05:12.999Z</time></trkpt><trkpt lat="45.55524679075519" lon="11.09078419748079"><ele>603.0</ele><time>2026-04-04T13:05:15.999Z</time></trkpt><trkpt lat="45.555231655780744" lon="11.0908927364092"><ele>603.0</ele><time>2026-04-04T13:05:17.999Z</time></trkpt><trkpt lat="45.55524123947564" lon="11.0909988187647"><ele>603.0</ele><time>2026-04-04T13:05:19.999Z</time></trkpt><trkpt lat="45.55525699354885" lon="11.0911174693279"><ele>601.1999999999999</ele><time>2026-04-04T13:05:21.999Z</time></trkpt><trkpt lat="45.555267320714435" lon="11.091232703228872"><ele>599.4</ele><time>2026-04-04T13:05:23.999Z</time></trkpt><trkpt lat="45.55527685256757" lon="11.091358500122725"><ele>597.5999999999999</ele><time>2026-04-04T13:05:26.999Z</time></trkpt><trkpt lat="45.555319489650294" lon="11.091484913025601"><ele>595.8</ele><time>2026-04-04T13:05:29.999Z</time></trkpt><trkpt lat="45.55533302050535" lon="11.091601765565748"><ele>594.0</ele><time>2026-04-04T13:05:31.999Z</time></trkpt><trkpt lat="45.55539656680913" lon="11.091723104580831"><ele>593.6</ele><time>2026-04-04T13:05:33.999Z</time></trkpt><trkpt lat="45.555406467122125" lon="11.091815612384782"><ele>593.2</ele><time>2026-04-04T13:05:34.999Z</time></trkpt><trkpt lat="45.555455268356205" lon="11.0919097241909"><ele>592.8000000000001</ele><time>2026-04-04T13:05:35.999Z</time></trkpt><trkpt lat="45.55550940410707" lon="11.092017956609833"><ele>592.4</ele><time>2026-04-04T13:05:37.999Z</time></trkpt><trkpt lat="45.55558979117164" lon="11.092156798089656"><ele>592.0</ele><time>2026-04-04T13:05:39.999Z</time></trkpt><trkpt lat="45.55566993492923" lon="11.092235923889143"><ele>592.0</ele><time>2026-04-04T13:05:41.999Z</time></trkpt><trkpt lat="45.55574994404489" lon="11.092344516579773"><ele>592.0</ele><time>2026-04-04T13:05:43.999Z</time></trkpt><trkpt lat="45.555819906877936" lon="11.092410754423934"><ele>592.0</ele><time>2026-04-04T13:05:45.999Z</time></trkpt><trkpt lat="45.5558542062752" lon="11.092490403164984"><ele>592.0</ele><time>2026-04-04T13:05:46.999Z</time></trkpt><trkpt lat="45.55591649502166" lon="11.092549516806052"><ele>592.0</ele><time>2026-04-04T13:05:48.999Z</time></trkpt><trkpt lat="45.5559822636443" lon="11.09261101312799"><ele>592.0</ele><time>2026-04-04T13:05:50.999Z</time></trkpt><trkpt lat="45.55603746483109" lon="11.092656606361063"><ele>588.5</ele><time>2026-04-04T13:05:51.999Z</time></trkpt><trkpt lat="45.55610651480757" lon="11.092688722074433"><ele>585.0</ele><time>2026-04-04T13:05:52.999Z</time></trkpt><trkpt lat="45.55616780320167" lon="11.092717327955866"><ele>581.5</ele><time>2026-04-04T13:05:53.999Z</time></trkpt><trkpt lat="45.556280505745306" lon="11.092751237424872"><ele>578.0</ele><time>2026-04-04T13:05:55.999Z</time></trkpt><trkpt lat="45.556355932467646" lon="11.092744450721213"><ele>574.5</ele><time>2026-04-04T13:05:56.999Z</time></trkpt><trkpt lat="45.556462373411044" lon="11.092755036924332"><ele>571.0</ele><time>2026-04-04T13:05:58.999Z</time></trkpt><trkpt lat="45.556555592177716" lon="11.092785917377784"><ele>571.0</ele><time>2026-04-04T13:06:00.999Z</time></trkpt><trkpt lat="45.55663282336283" lon="11.092803039873417"><ele>571.0</ele><time>2026-04-04T13:06:01.999Z</time></trkpt><trkpt lat="45.55673691282662" lon="11.09283804408179"><ele>571.0</ele><time>2026-04-04T13:06:03.999Z</time></trkpt><trkpt lat="45.556821653145995" lon="11.092867237298153"><ele>571.0</ele><time>2026-04-04T13:06:05.999Z</time></trkpt><trkpt lat="45.5569118283214" lon="11.092874074919193"><ele>571.0</ele><time>2026-04-04T13:06:07.999Z</time></trkpt><trkpt lat="45.557035626106895" lon="11.092905610010327"><ele>570.5</ele><time>2026-04-04T13:06:09.999Z</time></trkpt><trkpt lat="45.55709733709277" lon="11.092941747291857"><ele>570.0</ele><time>2026-04-04T13:06:10.999Z</time></trkpt><trkpt lat="45.55719546388259" lon="11.092968598731545"><ele>569.5</ele><time>2026-04-04T13:06:12.999Z</time></trkpt><trkpt lat="45.55726515400178" lon="11.092985373511503"><ele>569.0</ele><time>2026-04-04T13:06:29.999Z</time></trkpt><trkpt lat="45.55733105297696" lon="11.093034611145931"><ele>568.5</ele><time>2026-04-04T13:07:11.999Z</time></trkpt><trkpt lat="45.557435074129934" lon="11.093048596868696"><ele>568.0</ele><time>2026-04-04T13:07:13.999Z</time></trkpt><trkpt lat="45.557532961236674" lon="11.093090894002811"><ele>568.0</ele><time>2026-04-04T13:07:16.999Z</time></trkpt><trkpt lat="45.557634643618165" lon="11.093141745466255"><ele>568.0</ele><time>2026-04-04T13:07:19.999Z</time></trkpt><trkpt lat="45.55773237756415" lon="11.093227982161913"><ele>568.0</ele><time>2026-04-04T13:07:21.999Z</time></trkpt><trkpt lat="45.557797971315864" lon="11.093237397885925"><ele>568.0</ele><time>2026-04-04T13:07:22.999Z</time></trkpt><trkpt lat="45.55786605568054" lon="11.093257622141"><ele>568.0</ele><time>2026-04-04T13:07:23.999Z</time></trkpt><trkpt lat="45.557971015952624" lon="11.093305944762136"><ele>563.3333333333334</ele><time>2026-04-04T13:07:25.999Z</time></trkpt><trkpt lat="45.55804239854283" lon="11.093373238539545"><ele>558.6666666666667</ele><time>2026-04-04T13:07:28.999Z</time></trkpt><trkpt lat="45.55812106310482" lon="11.093416813122476"><ele>554.0</ele><time>2026-04-04T13:07:30.999Z</time></trkpt><trkpt lat="45.55820392417763" lon="11.093416804652943"><ele>549.3333333333334</ele><time>2026-04-04T13:07:32.999Z</time></trkpt><trkpt lat="45.55826374370827" lon="11.093456146238092"><ele>544.6666666666666</ele><time>2026-04-04T13:07:34.999Z</time></trkpt><trkpt lat="45.55833366468755" lon="11.093492399614874"><ele>540.0</ele><time>2026-04-04T13:07:36.999Z</time></trkpt><trkpt lat="45.558412834773684" lon="11.093507836758313"><ele>540.0</ele><time>2026-04-04T13:07:38.999Z</time></trkpt><trkpt lat="45.55848446960989" lon="11.09351428735709"><ele>540.0</ele><time>2026-04-04T13:07:39.999Z</time></trkpt><trkpt lat="45.55854644238381" lon="11.093498079181758"><ele>540.0</ele><time>2026-04-04T13:07:40.999Z</time></trkpt><trkpt lat="45.558619933850764" lon="11.093497889157115"><ele>540.0</ele><time>2026-04-04T13:07:42.999Z</time></trkpt><trkpt lat="45.558745809587634" lon="11.09355787651094"><ele>540.0</ele><time>2026-04-04T13:07:46.999Z</time></trkpt><trkpt lat="45.558810552003784" lon="11.093583849681622"><ele>540.0</ele><time>2026-04-04T13:07:48.999Z</time></trkpt><trkpt lat="45.55887944284472" lon="11.09363834807399"><ele>540.0</ele><time>2026-04-04T13:07:50.999Z</time></trkpt><trkpt lat="45.558954558151385" lon="11.093666287909123"><ele>540.0</ele><time>2026-04-04T13:07:53.999Z</time></trkpt><trkpt lat="45.55906253715616" lon="11.093713799241558"><ele>540.0</ele><time>2026-04-04T13:08:22.999Z</time></trkpt><trkpt lat="45.559151187462334" lon="11.093727323303716"><ele>540.0</ele><time>2026-04-04T13:08:26.999Z</time></trkpt><trkpt lat="45.55923790100285" lon="11.093779389864709"><ele>540.0</ele><time>2026-04-04T13:08:28.999Z</time></trkpt><trkpt lat="45.559332980803134" lon="11.093827572746376"><ele>540.0</ele><time>2026-04-04T13:08:38.999Z</time></trkpt><trkpt lat="45.5594029632868" lon="11.093892491738005"><ele>540.0</ele><time>2026-04-04T13:08:40.999Z</time></trkpt><trkpt lat="45.55945627523044" lon="11.09394866186741"><ele>540.0</ele><time>2026-04-04T13:08:42.999Z</time></trkpt><trkpt lat="45.559438217707964" lon="11.09403965560449"><ele>540.0</ele><time>2026-04-04T13:08:45.999Z</time></trkpt><trkpt lat="45.559360398960415" lon="11.094134182012395"><ele>540.0</ele><time>2026-04-04T13:08:47.999Z</time></trkpt><trkpt lat="45.559304847725095" lon="11.094211237140692"><ele>540.0</ele><time>2026-04-04T13:08:49.999Z</time></trkpt><trkpt lat="45.559191670962235" lon="11.09417958575964"><ele>539.0</ele><time>2026-04-04T13:08:51.998Z</time></trkpt><trkpt lat="45.559119663380706" lon="11.094162478070961"><ele>538.0</ele><time>2026-04-04T13:08:52.998Z</time></trkpt><trkpt lat="45.5589934343113" lon="11.09418454965163"><ele>537.0</ele><time>2026-04-04T13:08:54.998Z</time></trkpt><trkpt lat="45.55887288695444" lon="11.09419211741763"><ele>536.0</ele><time>2026-04-04T13:08:56.998Z</time></trkpt><trkpt lat="45.558800827531094" lon="11.094200942477002"><ele>535.0</ele><time>2026-04-04T13:08:58.998Z</time></trkpt><trkpt lat="45.55873385535404" lon="11.094200255820473"><ele>535.4</ele><time>2026-04-04T13:08:59.998Z</time></trkpt><trkpt lat="45.558626475322264" lon="11.094247379263415"><ele>535.8</ele><time>2026-04-04T13:09:01.999Z</time></trkpt><trkpt lat="45.55854292624593" lon="11.094285379748444"><ele>536.2</ele><time>2026-04-04T13:09:02.999Z</time></trkpt><trkpt lat="45.5584772346696" lon="11.09428329731058"><ele>536.6</ele><time>2026-04-04T13:09:03.999Z</time></trkpt><trkpt lat="45.55838246171694" lon="11.094312956875388"><ele>537.0</ele><time>2026-04-04T13:09:05.999Z</time></trkpt><trkpt lat="45.558295232212814" lon="11.094347967050666"><ele>537.0</ele><time>2026-04-04T13:09:08.999Z</time></trkpt><trkpt lat="45.55819191048974" lon="11.09436230327801"><ele>537.0</ele><time>2026-04-04T13:09:10.999Z</time></trkpt><trkpt lat="45.55813762665739" lon="11.094313120705884"><ele>537.0</ele><time>2026-04-04T13:09:11.999Z</time></trkpt><trkpt lat="45.55805540656893" lon="11.094316937831751"><ele>537.0</ele><time>2026-04-04T13:09:13.999Z</time></trkpt><trkpt lat="45.55797952920018" lon="11.094324734169808"><ele>537.0</ele><time>2026-04-04T13:09:30.999Z</time></trkpt><trkpt lat="45.557892234438945" lon="11.094300019616389"><ele>537.0</ele><time>2026-04-04T13:09:32.999Z</time></trkpt><trkpt lat="45.55781326197196" lon="11.094290258478772"><ele>537.1666666666666</ele><time>2026-04-04T13:09:34.999Z</time></trkpt><trkpt lat="45.557730167669376" lon="11.094269623643953"><ele>537.3333333333334</ele><time>2026-04-04T13:09:36.999Z</time></trkpt><trkpt lat="45.55765325226328" lon="11.09426017525324"><ele>537.5</ele><time>2026-04-04T13:09:38.999Z</time></trkpt><trkpt lat="45.557566061295965" lon="11.094315694252893"><ele>537.6666666666667</ele><time>2026-04-04T13:09:41.999Z</time></trkpt><trkpt lat="45.55754274752991" lon="11.09439928651748"><ele>537.8333333333334</ele><time>2026-04-04T13:09:45.999Z</time></trkpt><trkpt lat="45.55747404180079" lon="11.094444051863293"><ele>538.0</ele><time>2026-04-04T13:09:49.999Z</time></trkpt><trkpt lat="45.55738031823758" lon="11.094471595648548"><ele>538.0</ele><time>2026-04-04T13:09:51.999Z</time></trkpt><trkpt lat="45.55730112851234" lon="11.09446682758718"><ele>538.0</ele><time>2026-04-04T13:09:53.999Z</time></trkpt><trkpt lat="45.55722958350066" lon="11.094468064699072"><ele>538.0</ele><time>2026-04-04T13:09:55.999Z</time></trkpt><trkpt lat="45.557166075292464" lon="11.094551271245566"><ele>538.0</ele><time>2026-04-04T13:10:00Z</time></trkpt><trkpt lat="45.55713952953099" lon="11.094664371168653"><ele>538.0</ele><time>2026-04-04T13:10:02Z</time></trkpt><trkpt lat="45.55704697941539" lon="11.094727470040988"><ele>538.0</ele><time>2026-04-04T13:10:05Z</time></trkpt><trkpt lat="45.55700071509392" lon="11.094792818548658"><ele>537.4</ele><time>2026-04-04T13:10:06Z</time></trkpt><trkpt lat="45.55695210885633" lon="11.094859645223977"><ele>536.8</ele><time>2026-04-04T13:10:07Z</time></trkpt><trkpt lat="45.55686609105461" lon="11.09493808517933"><ele>536.2</ele><time>2026-04-04T13:10:09Z</time></trkpt><trkpt lat="45.55678523657732" lon="11.095038439109148"><ele>535.6</ele><time>2026-04-04T13:10:11Z</time></trkpt><trkpt lat="45.556698454685105" lon="11.095106397946324"><ele>535.0</ele><time>2026-04-04T13:10:13Z</time></trkpt><trkpt lat="45.55662154918164" lon="11.095143480562456"><ele>537.0</ele><time>2026-04-04T13:10:14Z</time></trkpt><trkpt lat="45.55654559344256" lon="11.095178856866248"><ele>539.0</ele><time>2026-04-04T13:10:15Z</time></trkpt><trkpt lat="45.55648394175697" lon="11.095205748350892"><ele>541.0</ele><time>2026-04-04T13:10:16Z</time></trkpt><trkpt lat="45.55637550027648" lon="11.09521037611753"><ele>543.0</ele><time>2026-04-04T13:10:18Z</time></trkpt><trkpt lat="45.556284704727155" lon="11.095224566775991"><ele>545.0</ele><time>2026-04-04T13:10:20Z</time></trkpt><trkpt lat="45.556222265435935" lon="11.095268489162079"><ele>547.0</ele><time>2026-04-04T13:10:23Z</time></trkpt><trkpt lat="45.556151038134665" lon="11.09525905387655"><ele>547.0</ele><time>2026-04-04T13:10:26Z</time></trkpt><trkpt lat="45.55609221167995" lon="11.095301450274736"><ele>547.0</ele><time>2026-04-04T13:10:27Z</time></trkpt><trkpt lat="45.55601485937571" lon="11.095382263563938"><ele>547.0</ele><time>2026-04-04T13:10:30Z</time></trkpt><trkpt lat="45.55588346608915" lon="11.09552665338148"><ele>547.0</ele><time>2026-04-04T13:10:32Z</time></trkpt><trkpt lat="45.555794378620966" lon="11.095574113392203"><ele>547.0</ele><time>2026-04-04T13:10:34Z</time></trkpt><trkpt lat="45.555718830312735" lon="11.095631058297517"><ele>548.3333333333334</ele><time>2026-04-04T13:10:36Z</time></trkpt><trkpt lat="45.55567128957063" lon="11.095761911850582"><ele>549.6666666666667</ele><time>2026-04-04T13:10:39Z</time></trkpt><trkpt lat="45.55561187110279" lon="11.095829568650448"><ele>551.0</ele><time>2026-04-04T13:10:41Z</time></trkpt><trkpt lat="45.55555144179642" lon="11.095872064192832"><ele>552.3333333333334</ele><time>2026-04-04T13:10:43Z</time></trkpt><trkpt lat="45.555519063264036" lon="11.095954884750263"><ele>553.6666666666666</ele><time>2026-04-04T13:10:51Z</time></trkpt><trkpt lat="45.55545212374815" lon="11.095964458341268"><ele>555.0</ele><time>2026-04-04T13:10:56Z</time></trkpt><trkpt lat="45.555368786433895" lon="11.095996392105036"><ele>555.0</ele><time>2026-04-04T13:10:57.998Z</time></trkpt><trkpt lat="45.55527917329811" lon="11.096081740129584"><ele>555.0</ele><time>2026-04-04T13:10:59.998Z</time></trkpt><trkpt lat="45.55520425385212" lon="11.096132716623687"><ele>555.0</ele><time>2026-04-04T13:11:00.998Z</time></trkpt><trkpt lat="45.555121697706056" lon="11.09618717570537"><ele>555.0</ele><time>2026-04-04T13:11:01.998Z</time></trkpt><trkpt lat="45.55503149811834" lon="11.096275467553221"><ele>555.0</ele><time>2026-04-04T13:11:03.998Z</time></trkpt><trkpt lat="45.55498545418077" lon="11.09638437761867"><ele>555.0</ele><time>2026-04-04T13:11:05.998Z</time></trkpt><trkpt lat="45.55495230758172" lon="11.096497448820443"><ele>555.0</ele><time>2026-04-04T13:11:06.998Z</time></trkpt><trkpt lat="45.554917534805114" lon="11.096633605498369"><ele>555.0</ele><time>2026-04-04T13:11:08.998Z</time></trkpt><trkpt lat="45.55489963669561" lon="11.096742514875094"><ele>555.0</ele><time>2026-04-04T13:11:11.999Z</time></trkpt><trkpt lat="45.55488714356269" lon="11.096904127420112"><ele>555.0</ele><time>2026-04-04T13:11:13.999Z</time></trkpt><trkpt lat="45.554889210027355" lon="11.09700283970691"><ele>555.0</ele><time>2026-04-04T13:11:14.999Z</time></trkpt><trkpt lat="45.55487684589351" lon="11.097116058267687"><ele>557.5</ele><time>2026-04-04T13:11:15.999Z</time></trkpt><trkpt lat="45.554897333163794" lon="11.097291420401227"><ele>560.0</ele><time>2026-04-04T13:11:17.999Z</time></trkpt><trkpt lat="45.554920246358805" lon="11.097451440194513"><ele>562.5</ele><time>2026-04-04T13:11:19.999Z</time></trkpt><trkpt lat="45.55496144076488" lon="11.097601182938876"><ele>565.0</ele><time>2026-04-04T13:11:21.999Z</time></trkpt><trkpt lat="45.55502920255052" lon="11.09775238589242"><ele>565.0</ele><time>2026-04-04T13:11:23.999Z</time></trkpt><trkpt lat="45.55504687986348" lon="11.097898175371213"><ele>565.0</ele><time>2026-04-04T13:11:25.999Z</time></trkpt><trkpt lat="45.555088691784256" lon="11.098045621808955"><ele>565.0</ele><time>2026-04-04T13:11:27.999Z</time></trkpt><trkpt lat="45.55508501526051" lon="11.098190019795886"><ele>565.0</ele><time>2026-04-04T13:11:28.999Z</time></trkpt><trkpt lat="45.55509628847779" lon="11.098351017291193"><ele>565.0</ele><time>2026-04-04T13:11:30.999Z</time></trkpt><trkpt lat="45.55515762876774" lon="11.098464103096111"><ele>565.0</ele><time>2026-04-04T13:11:32.999Z</time></trkpt><trkpt lat="45.55519298604782" lon="11.09854726234401"><ele>565.0</ele><time>2026-04-04T13:11:33.999Z</time></trkpt><trkpt lat="45.55522002430196" lon="11.098637398014601"><ele>565.0</ele><time>2026-04-04T13:11:34.999Z</time></trkpt><trkpt lat="45.5552417777305" lon="11.09883521937089"><ele>565.0</ele><time>2026-04-04T13:11:36.999Z</time></trkpt><trkpt lat="45.555256239204994" lon="11.09893634596646"><ele>565.0</ele><time>2026-04-04T13:11:37.999Z</time></trkpt><trkpt lat="45.55526783124532" lon="11.099050153090078"><ele>565.0</ele><time>2026-04-04T13:11:38.999Z</time></trkpt><trkpt lat="45.555314663728375" lon="11.099154917006123"><ele>565.2</ele><time>2026-04-04T13:11:39.999Z</time></trkpt><trkpt lat="45.5553633898586" lon="11.09925927373677"><ele>565.4</ele><time>2026-04-04T13:11:40.999Z</time></trkpt><trkpt lat="45.55542533114501" lon="11.09940211752504"><ele>565.6</ele><time>2026-04-04T13:11:41.999Z</time></trkpt><trkpt lat="45.55548888637126" lon="11.099488663236764"><ele>565.8</ele><time>2026-04-04T13:11:42.999Z</time></trkpt><trkpt lat="45.55555410477527" lon="11.099649854339182"><ele>566.0</ele><time>2026-04-04T13:11:44.999Z</time></trkpt><trkpt lat="45.55559079447777" lon="11.09980763950702"><ele>566.6666666666666</ele><time>2026-04-04T13:11:46.999Z</time></trkpt><trkpt lat="45.55562955892395" lon="11.099939142647017"><ele>567.3333333333333</ele><time>2026-04-04T13:11:49Z</time></trkpt><trkpt lat="45.55562502814623" lon="11.100033554071247"><ele>568.0</ele><time>2026-04-04T13:11:50Z</time></trkpt><trkpt lat="45.55563517269961" lon="11.100175746440751"><ele>568.6666666666666</ele><time>2026-04-04T13:11:52Z</time></trkpt><trkpt lat="45.55564308730248" lon="11.100317609653676"><ele>569.3333333333334</ele><time>2026-04-04T13:11:54Z</time></trkpt><trkpt lat="45.55564774280707" lon="11.100432063821879"><ele>570.0</ele><time>2026-04-04T13:11:55Z</time></trkpt><trkpt lat="45.55564596736861" lon="11.100575194897306"><ele>570.0</ele><time>2026-04-04T13:11:57Z</time></trkpt><trkpt lat="45.555579575376704" lon="11.10052609875665"><ele>570.0</ele><time>2026-04-04T13:11:59Z</time></trkpt><trkpt lat="45.555517856678115" lon="11.100482300571768"><ele>570.0</ele><time>2026-04-04T13:12:01Z</time></trkpt><trkpt lat="45.55541625397607" lon="11.100416325644412"><ele>570.0</ele><time>2026-04-04T13:12:03Z</time></trkpt><trkpt lat="45.55535087350353" lon="11.100353669411703"><ele>570.0</ele><time>2026-04-04T13:12:05Z</time></trkpt><trkpt lat="45.55526986619965" lon="11.100266936692607"><ele>570.0</ele><time>2026-04-04T13:12:07Z</time></trkpt><trkpt lat="45.5551934440799" lon="11.100228379746197"><ele>570.8</ele><time>2026-04-04T13:12:08Z</time></trkpt><trkpt lat="45.55512623084571" lon="11.100206902175053"><ele>571.6</ele><time>2026-04-04T13:12:09Z</time></trkpt><trkpt lat="45.55505220583318" lon="11.100193038801374"><ele>572.4</ele><time>2026-04-04T13:12:10Z</time></trkpt><trkpt lat="45.55502659538187" lon="11.100024839568308"><ele>573.2</ele><time>2026-04-04T13:12:12Z</time></trkpt><trkpt lat="45.554984227584214" lon="11.0998656217384"><ele>574.0</ele><time>2026-04-04T13:12:14Z</time></trkpt><trkpt lat="45.55491710622886" lon="11.099739310907745"><ele>573.5</ele><time>2026-04-04T13:12:16Z</time></trkpt><trkpt lat="45.55483358875174" lon="11.099705955659873"><ele>573.0</ele><time>2026-04-04T13:12:18Z</time></trkpt><trkpt lat="45.55475149984454" lon="11.09969482853812"><ele>572.5</ele><time>2026-04-04T13:12:19Z</time></trkpt><trkpt lat="45.55467480931842" lon="11.099638713818514"><ele>572.0</ele><time>2026-04-04T13:12:20Z</time></trkpt><trkpt lat="45.55458688347024" lon="11.09959978939169"><ele>571.5</ele><time>2026-04-04T13:12:21Z</time></trkpt><trkpt lat="45.55449625989972" lon="11.099557928124684"><ele>571.0</ele><time>2026-04-04T13:12:22Z</time></trkpt><trkpt lat="45.55441310463427" lon="11.099516949462313"><ele>571.0</ele><time>2026-04-04T13:12:23Z</time></trkpt><trkpt lat="45.55430781082039" lon="11.099468057691924"><ele>571.0</ele><time>2026-04-04T13:12:24Z</time></trkpt><trkpt lat="45.55421918946953" lon="11.099435533987469"><ele>571.0</ele><time>2026-04-04T13:12:25Z</time></trkpt><trkpt lat="45.55414329692647" lon="11.099414980705017"><ele>571.0</ele><time>2026-04-04T13:12:26Z</time></trkpt><trkpt lat="45.554074838486486" lon="11.099376569577952"><ele>571.0</ele><time>2026-04-04T13:12:27Z</time></trkpt><trkpt lat="45.55397670194662" lon="11.099329711232023"><ele>571.0</ele><time>2026-04-04T13:12:28Z</time></trkpt><trkpt lat="45.55391438823766" lon="11.099310332967061"><ele>571.0</ele><time>2026-04-04T13:12:29Z</time></trkpt><trkpt lat="45.55384761368849" lon="11.099268837833305"><ele>571.0</ele><time>2026-04-04T13:12:30Z</time></trkpt><trkpt lat="45.553778839562156" lon="11.099203858585327"><ele>571.0</ele><time>2026-04-04T13:12:31Z</time></trkpt><trkpt lat="45.55370121918375" lon="11.09917212281958"><ele>571.0</ele><time>2026-04-04T13:12:32Z</time></trkpt><trkpt lat="45.55363068251255" lon="11.099140838986267"><ele>571.0</ele><time>2026-04-04T13:12:33Z</time></trkpt><trkpt lat="45.55354253546268" lon="11.099076516165114"><ele>570.8333333333334</ele><time>2026-04-04T13:12:35Z</time></trkpt><trkpt lat="45.55347682672938" lon="11.098946927516648"><ele>570.6666666666667</ele><time>2026-04-04T13:12:37Z</time></trkpt><trkpt lat="45.55344209102569" lon="11.0988653070382"><ele>570.5</ele><time>2026-04-04T13:12:47Z</time></trkpt><trkpt lat="45.55344757052112" lon="11.098747733635625"><ele>570.3333333333334</ele><time>2026-04-04T13:12:50Z</time></trkpt><trkpt lat="45.55342409472408" lon="11.098593407458715"><ele>570.1666666666666</ele><time>2026-04-04T13:12:52Z</time></trkpt><trkpt lat="45.553397530870605" lon="11.098507024946713"><ele>570.0</ele><time>2026-04-04T13:12:53Z</time></trkpt><trkpt lat="45.55336620711307" lon="11.098408075047077"><ele>570.0</ele><time>2026-04-04T13:12:55Z</time></trkpt><trkpt lat="45.55335710274564" lon="11.098296415863945"><ele>570.0</ele><time>2026-04-04T13:12:57Z</time></trkpt><trkpt lat="45.553319101380666" lon="11.098198224492062"><ele>570.0</ele><time>2026-04-04T13:12:59Z</time></trkpt><trkpt lat="45.553284207841706" lon="11.098065715140892"><ele>570.0</ele><time>2026-04-04T13:13:01Z</time></trkpt><trkpt lat="45.55322736924233" lon="11.09799930111546"><ele>570.0</ele><time>2026-04-04T13:13:02Z</time></trkpt><trkpt lat="45.55313176729917" lon="11.097932969128316"><ele>570.0</ele><time>2026-04-04T13:13:03.998Z</time></trkpt><trkpt lat="45.55308060413053" lon="11.097849027727682"><ele>566.8</ele><time>2026-04-04T13:13:04.998Z</time></trkpt><trkpt lat="45.553042894936894" lon="11.09776624407591"><ele>563.6</ele><time>2026-04-04T13:13:05.998Z</time></trkpt><trkpt lat="45.552974529866056" lon="11.097629326221256"><ele>560.4</ele><time>2026-04-04T13:13:07.999Z</time></trkpt><trkpt lat="45.5529184581298" lon="11.09756605726393"><ele>557.2</ele><time>2026-04-04T13:13:08.999Z</time></trkpt><trkpt lat="45.552835704431736" lon="11.097521254599094"><ele>554.0</ele><time>2026-04-04T13:13:10.999Z</time></trkpt><trkpt lat="45.55273086529612" lon="11.097483129231112"><ele>554.0</ele><time>2026-04-04T13:13:12.999Z</time></trkpt><trkpt lat="45.55262579030653" lon="11.097446151095264"><ele>554.0</ele><time>2026-04-04T13:13:14.999Z</time></trkpt><trkpt lat="45.552540298606836" lon="11.097432702728957"><ele>554.0</ele><time>2026-04-04T13:13:16.999Z</time></trkpt><trkpt lat="45.552446178950696" lon="11.097352643862115"><ele>554.0</ele><time>2026-04-04T13:13:18.999Z</time></trkpt><trkpt lat="45.55239237396594" lon="11.097304268916535"><ele>554.0</ele><time>2026-04-04T13:13:19.999Z</time></trkpt><trkpt lat="45.55233903819569" lon="11.0971356386062"><ele>549.2</ele><time>2026-04-04T13:13:21.999Z</time></trkpt><trkpt lat="45.552332007432796" lon="11.097036013364898"><ele>544.4</ele><time>2026-04-04T13:13:22.999Z</time></trkpt><trkpt lat="45.552266562694356" lon="11.09697306637594"><ele>539.6</ele><time>2026-04-04T13:13:24.999Z</time></trkpt><trkpt lat="45.55229902183317" lon="11.096848425019958"><ele>534.8</ele><time>2026-04-04T13:13:27.999Z</time></trkpt><trkpt lat="45.55237103523987" lon="11.096755707080927"><ele>530.0</ele><time>2026-04-04T13:13:30.999Z</time></trkpt><trkpt lat="45.55250128733151" lon="11.096695258451254"><ele>530.0</ele><time>2026-04-04T13:13:32.999Z</time></trkpt><trkpt lat="45.55257945452958" lon="11.0966441615651"><ele>530.0</ele><time>2026-04-04T13:13:33.999Z</time></trkpt><trkpt lat="45.5526494591932" lon="11.096578860483179"><ele>530.0</ele><time>2026-04-04T13:13:34.999Z</time></trkpt><trkpt lat="45.552756657494854" lon="11.09654964661373"><ele>530.0</ele><time>2026-04-04T13:13:37Z</time></trkpt><trkpt lat="45.55286703270528" lon="11.096550838408819"><ele>530.0</ele><time>2026-04-04T13:13:39Z</time></trkpt><trkpt lat="45.55293410925035" lon="11.096577221708046"><ele>527.0</ele><time>2026-04-04T13:13:41Z</time></trkpt><trkpt lat="45.55293623686373" lon="11.096479394632501"><ele>524.0</ele><time>2026-04-04T13:13:44Z</time></trkpt><trkpt lat="45.552895561888974" lon="11.096406532992244"><ele>521.0</ele><time>2026-04-04T13:13:45Z</time></trkpt><trkpt lat="45.5528730020813" lon="11.096311074130083"><ele>518.0</ele><time>2026-04-04T13:13:47Z</time></trkpt><trkpt lat="45.55279726619926" lon="11.096159315184321"><ele>515.0</ele><time>2026-04-04T13:13:49Z</time></trkpt><trkpt lat="45.55274143254605" lon="11.096103059649057"><ele>512.0</ele><time>2026-04-04T13:13:50Z</time></trkpt><trkpt lat="45.552638595295505" lon="11.09603844620414"><ele>510.8333333333333</ele><time>2026-04-04T13:13:52Z</time></trkpt><trkpt lat="45.552569546822454" lon="11.095981746428935"><ele>509.66666666666663</ele><time>2026-04-04T13:13:54Z</time></trkpt><trkpt lat="45.55250718852341" lon="11.095899898147985"><ele>508.5</ele><time>2026-04-04T13:13:56Z</time></trkpt><trkpt lat="45.552439954607486" lon="11.095881948854483"><ele>507.33333333333337</ele><time>2026-04-04T13:14:04Z</time></trkpt><trkpt lat="45.55232549943403" lon="11.095839387485467"><ele>506.1666666666667</ele><time>2026-04-04T13:14:07Z</time></trkpt><trkpt lat="45.55225954678992" lon="11.095820487714912"><ele>505.0</ele><time>2026-04-04T13:14:08Z</time></trkpt><trkpt lat="45.55218700658878" lon="11.095843212025933"><ele>505.0</ele><time>2026-04-04T13:14:09Z</time></trkpt><trkpt lat="45.55209187713445" lon="11.095885201914108"><ele>505.0</ele><time>2026-04-04T13:14:11Z</time></trkpt><trkpt lat="45.55201734094799" lon="11.095914463899382"><ele>505.0</ele><time>2026-04-04T13:14:12Z</time></trkpt><trkpt lat="45.551872776177596" lon="11.095926630356816"><ele>505.0</ele><time>2026-04-04T13:14:14Z</time></trkpt><trkpt lat="45.55178821329116" lon="11.095992524567645"><ele>505.0</ele><time>2026-04-04T13:14:16Z</time></trkpt><trkpt lat="45.551681184944385" lon="11.096114864713684"><ele>503.6</ele><time>2026-04-04T13:14:18Z</time></trkpt><trkpt lat="45.551614896627974" lon="11.09617441214092"><ele>502.2</ele><time>2026-04-04T13:14:19Z</time></trkpt><trkpt lat="45.551549331149545" lon="11.096236838711466"><ele>500.79999999999995</ele><time>2026-04-04T13:14:20Z</time></trkpt><trkpt lat="45.5514497596513" lon="11.096296254256535"><ele>499.4</ele><time>2026-04-04T13:14:22Z</time></trkpt><trkpt lat="45.55134661475277" lon="11.096384039832902"><ele>498.0</ele><time>2026-04-04T13:14:24Z</time></trkpt><trkpt lat="45.551270742522185" lon="11.096428000525"><ele>498.0</ele><time>2026-04-04T13:14:25Z</time></trkpt><trkpt lat="45.551208243530375" lon="11.096490477710967"><ele>497.99999999999994</ele><time>2026-04-04T13:14:26Z</time></trkpt><trkpt lat="45.55116436145851" lon="11.096584029863909"><ele>498.0</ele><time>2026-04-04T13:14:27Z</time></trkpt><trkpt lat="45.55112974382863" lon="11.096663437282825"><ele>498.0</ele><time>2026-04-04T13:14:28Z</time></trkpt><trkpt lat="45.551091608184976" lon="11.096765317600264"><ele>497.99999999999994</ele><time>2026-04-04T13:14:30Z</time></trkpt><trkpt lat="45.55107573826703" lon="11.096853269520686"><ele>498.0</ele><time>2026-04-04T13:14:32Z</time></trkpt><trkpt lat="45.55104596794548" lon="11.096938340779339"><ele>498.0</ele><time>2026-04-04T13:14:33Z</time></trkpt><trkpt lat="45.55097917246181" lon="11.097033395826097"><ele>498.0</ele><time>2026-04-04T13:14:35Z</time></trkpt><trkpt lat="45.55090724431487" lon="11.097120393264737"><ele>498.0</ele><time>2026-04-04T13:14:37Z</time></trkpt><trkpt lat="45.55082987859817" lon="11.097221221883315"><ele>498.0</ele><time>2026-04-04T13:14:39.001Z</time></trkpt><trkpt lat="45.55079247151009" lon="11.097306768304806"><ele>498.0</ele><time>2026-04-04T13:14:54.001Z</time></trkpt><trkpt lat="45.550723698746516" lon="11.097401202281674"><ele>498.0</ele><time>2026-04-04T13:14:59.001Z</time></trkpt><trkpt lat="45.5506824304865" lon="11.097488708189406"><ele>498.0</ele><time>2026-04-04T13:15:01.001Z</time></trkpt><trkpt lat="45.55062333172748" lon="11.09759519667854"><ele>501.6666666666667</ele><time>2026-04-04T13:15:04.001Z</time></trkpt><trkpt lat="45.550581524842066" lon="11.097705346153864"><ele>505.33333333333337</ele><time>2026-04-04T13:15:07.001Z</time></trkpt><trkpt lat="45.55053959546248" lon="11.097807266125924"><ele>509.0</ele><time>2026-04-04T13:15:08.999Z</time></trkpt><trkpt lat="45.550525441341016" lon="11.097898031294038"><ele>512.6666666666667</ele><time>2026-04-04T13:15:10.999Z</time></trkpt><trkpt lat="45.550490015665765" lon="11.098010227876053"><ele>516.3333333333334</ele><time>2026-04-04T13:15:13.999Z</time></trkpt><trkpt lat="45.55047150608678" lon="11.098116498373134"><ele>520.0</ele><time>2026-04-04T13:15:16.999Z</time></trkpt><trkpt lat="45.55042714256895" lon="11.098212783132748"><ele>518.3333333333334</ele><time>2026-04-04T13:15:20.999Z</time></trkpt><trkpt lat="45.550380329496" lon="11.09827850159389"><ele>516.6666666666667</ele><time>2026-04-04T13:15:23.999Z</time></trkpt><trkpt lat="45.55035561010502" lon="11.098369815757193"><ele>515.0</ele><time>2026-04-04T13:15:26.999Z</time></trkpt><trkpt lat="45.550380717412274" lon="11.098455683179413"><ele>513.3333333333334</ele><time>2026-04-04T13:15:45Z</time></trkpt><trkpt lat="45.55039931637809" lon="11.098561487417285"><ele>511.6666666666667</ele><time>2026-04-04T13:15:48Z</time></trkpt><trkpt lat="45.55041815076811" lon="11.098706789599778"><ele>510.0</ele><time>2026-04-04T13:15:51Z</time></trkpt><trkpt lat="45.55040353636051" lon="11.09881952187417"><ele>515.1666666666666</ele><time>2026-04-04T13:15:54Z</time></trkpt><trkpt lat="45.5504117789304" lon="11.098968457909319"><ele>520.3333333333334</ele><time>2026-04-04T13:15:58Z</time></trkpt><trkpt lat="45.55045718490648" lon="11.099038417599099"><ele>525.5</ele><time>2026-04-04T13:16:01Z</time></trkpt><trkpt lat="45.550458334382206" lon="11.09913195515846"><ele>530.6666666666667</ele><time>2026-04-04T13:16:04Z</time></trkpt><trkpt lat="45.55045005218106" lon="11.099236185037178"><ele>535.8333333333334</ele><time>2026-04-04T13:16:08Z</time></trkpt><trkpt lat="45.550451154017495" lon="11.09936515970687"><ele>541.0</ele><time>2026-04-04T13:16:10Z</time></trkpt><trkpt lat="45.55042708695331" lon="11.09950321353116"><ele>542.7142857142858</ele><time>2026-04-04T13:16:13Z</time></trkpt><trkpt lat="45.55045985499645" lon="11.09958268993484"><ele>544.4285714285714</ele><time>2026-04-04T13:16:21.001Z</time></trkpt><trkpt lat="45.550534840870334" lon="11.099594389619298"><ele>546.1428571428571</ele><time>2026-04-04T13:16:36.001Z</time></trkpt><trkpt lat="45.55055237270611" lon="11.099697450548529"><ele>547.8571428571429</ele><time>2026-04-04T13:16:41.001Z</time></trkpt><trkpt lat="45.55053156151926" lon="11.099806670702415"><ele>549.5714285714286</ele><time>2026-04-04T13:16:44.001Z</time></trkpt><trkpt lat="45.550533800924086" lon="11.099918295599771"><ele>551.2857142857143</ele><time>2026-04-04T13:16:47.001Z</time></trkpt><trkpt lat="45.55053771365111" lon="11.100012792510144"><ele>553.0</ele><time>2026-04-04T13:16:49.001Z</time></trkpt><trkpt lat="45.550491492868034" lon="11.100080335174342"><ele>553.0</ele><time>2026-04-04T13:17:02.001Z</time></trkpt><trkpt lat="45.55043371315729" lon="11.100020477781376"><ele>553.0</ele><time>2026-04-04T13:17:07.001Z</time></trkpt><trkpt lat="45.55038008707489" lon="11.0999153114372"><ele>553.0</ele><time>2026-04-04T13:17:14.001Z</time></trkpt><trkpt lat="45.550330739856385" lon="11.099777748320555"><ele>553.0</ele><time>2026-04-04T13:17:15.999Z</time></trkpt><trkpt lat="45.55029594744852" lon="11.099669836334927"><ele>553.0</ele><time>2026-04-04T13:17:17.999Z</time></trkpt><trkpt lat="45.55026993160588" lon="11.099559057093233"><ele>553.0</ele><time>2026-04-04T13:17:19.999Z</time></trkpt><trkpt lat="45.55020711516369" lon="11.099460130620336"><ele>550.0</ele><time>2026-04-04T13:17:22.999Z</time></trkpt><trkpt lat="45.55014027851586" lon="11.099454466588483"><ele>547.0</ele><time>2026-04-04T13:17:24.999Z</time></trkpt><trkpt lat="45.550103906305885" lon="11.09937693620837"><ele>544.0</ele><time>2026-04-04T13:17:30.999Z</time></trkpt><trkpt lat="45.550072358388796" lon="11.099286302131977"><ele>541.0</ele><time>2026-04-04T13:17:34Z</time></trkpt><trkpt lat="45.550026890791386" lon="11.099203517183197"><ele>538.0</ele><time>2026-04-04T13:17:37Z</time></trkpt><trkpt lat="45.54994406099455" lon="11.099156047382058"><ele>535.0</ele><time>2026-04-04T13:17:40Z</time></trkpt><trkpt lat="45.549866269761885" lon="11.09917002492859"><ele>532.0</ele><time>2026-04-04T13:17:42Z</time></trkpt><trkpt lat="45.5498005205491" lon="11.09914378350038"><ele>532.0</ele><time>2026-04-04T13:17:45Z</time></trkpt><trkpt lat="45.54973141820762" lon="11.099158570887338"><ele>532.0</ele><time>2026-04-04T13:17:48Z</time></trkpt><trkpt lat="45.54966400208067" lon="11.099115877131807"><ele>532.0</ele><time>2026-04-04T13:17:53Z</time></trkpt><trkpt lat="45.549589895128605" lon="11.09912189423114"><ele>532.0</ele><time>2026-04-04T13:17:56Z</time></trkpt><trkpt lat="45.54952650509133" lon="11.099132245839247"><ele>532.0</ele><time>2026-04-04T13:17:58Z</time></trkpt><trkpt lat="45.54946018513899" lon="11.099116873403513"><ele>532.0</ele><time>2026-04-04T13:18:01Z</time></trkpt><trkpt lat="45.54939793698562" lon="11.099087467488197"><ele>532.0</ele><time>2026-04-04T13:18:03Z</time></trkpt><trkpt lat="45.54933443972017" lon="11.099062781272131"><ele>529.6</ele><time>2026-04-04T13:18:05Z</time></trkpt><trkpt lat="45.54926085905956" lon="11.099088768166803"><ele>527.2</ele><time>2026-04-04T13:18:07Z</time></trkpt><trkpt lat="45.549156081063934" lon="11.099106759124785"><ele>524.8</ele><time>2026-04-04T13:18:09Z</time></trkpt><trkpt lat="45.54903917704729" lon="11.099129923883675"><ele>522.4</ele><time>2026-04-04T13:18:11Z</time></trkpt><trkpt lat="45.548937347129154" lon="11.099120133281694"><ele>520.0</ele><time>2026-04-04T13:18:13Z</time></trkpt><trkpt lat="45.54886337051515" lon="11.099152927515107"><ele>520.0000000000001</ele><time>2026-04-04T13:18:14.001Z</time></trkpt><trkpt lat="45.548798474840524" lon="11.09918618348686"><ele>520.0</ele><time>2026-04-04T13:18:15.001Z</time></trkpt><trkpt lat="45.548721208609884" lon="11.099218615872182"><ele>520.0</ele><time>2026-04-04T13:18:16.001Z</time></trkpt><trkpt lat="45.54865321079117" lon="11.099237769242526"><ele>520.0</ele><time>2026-04-04T13:18:17.001Z</time></trkpt><trkpt lat="45.54859019424255" lon="11.099278799998004"><ele>520.0</ele><time>2026-04-04T13:18:18.001Z</time></trkpt><trkpt lat="45.548516750622895" lon="11.099306440411"><ele>520.0000000000001</ele><time>2026-04-04T13:18:19.001Z</time></trkpt><trkpt lat="45.548455643363965" lon="11.099377837878668"><ele>520.0</ele><time>2026-04-04T13:18:20.001Z</time></trkpt><trkpt lat="45.548385890419986" lon="11.099428424998663"><ele>519.2</ele><time>2026-04-04T13:18:21.001Z</time></trkpt><trkpt lat="45.54832674991774" lon="11.099477266815317"><ele>518.4</ele><time>2026-04-04T13:18:22.001Z</time></trkpt><trkpt lat="45.54825790113209" lon="11.099564932712688"><ele>517.6</ele><time>2026-04-04T13:18:24.001Z</time></trkpt><trkpt lat="45.54820313178873" lon="11.099706069850031"><ele>516.8</ele><time>2026-04-04T13:18:26.001Z</time></trkpt><trkpt lat="45.548126810922156" lon="11.099886348729612"><ele>516.0</ele><time>2026-04-04T13:18:28.001Z</time></trkpt><trkpt lat="45.548097030899775" lon="11.099981766982609"><ele>516.0</ele><time>2026-04-04T13:18:30.001Z</time></trkpt><trkpt lat="45.54806675142512" lon="11.100128926657044"><ele>516.0</ele><time>2026-04-04T13:18:32.001Z</time></trkpt><trkpt lat="45.54802930479022" lon="11.100261552833363"><ele>516.0</ele><time>2026-04-04T13:18:33.001Z</time></trkpt><trkpt lat="45.547989314762376" lon="11.100351568404365"><ele>516.0</ele><time>2026-04-04T13:18:35.001Z</time></trkpt><trkpt lat="45.54797031789571" lon="11.100440100590923"><ele>516.0</ele><time>2026-04-04T13:18:38.001Z</time></trkpt><trkpt lat="45.547883474724465" lon="11.100471116926643"><ele>516.0</ele><time>2026-04-04T13:18:44.001Z</time></trkpt><trkpt lat="45.547827735404084" lon="11.100527615470448"><ele>513.2</ele><time>2026-04-04T13:18:49.001Z</time></trkpt><trkpt lat="45.54777745513304" lon="11.10063613153482"><ele>510.40000000000003</ele><time>2026-04-04T13:18:52.001Z</time></trkpt><trkpt lat="45.5477170827249" lon="11.100716724168283"><ele>507.6</ele><time>2026-04-04T13:18:55.001Z</time></trkpt><trkpt lat="45.54766075049901" lon="11.100852461362766"><ele>504.8</ele><time>2026-04-04T13:18:57.001Z</time></trkpt><trkpt lat="45.5476043646875" lon="11.10095100691203"><ele>502.0</ele><time>2026-04-04T13:18:59.001Z</time></trkpt><trkpt lat="45.54755546179777" lon="11.101074404411083"><ele>502.00000000000006</ele><time>2026-04-04T13:19:02.001Z</time></trkpt><trkpt lat="45.54753127057547" lon="11.101180581964375"><ele>502.0</ele><time>2026-04-04T13:19:06.002Z</time></trkpt><trkpt lat="45.5475040657091" lon="11.101266902890833"><ele>502.0</ele><time>2026-04-04T13:19:08.002Z</time></trkpt><trkpt lat="45.54745423797586" lon="11.10135592851188"><ele>502.0</ele><time>2026-04-04T13:19:11.002Z</time></trkpt><trkpt lat="45.54737382505083" lon="11.101313607174882"><ele>502.00000000000006</ele><time>2026-04-04T13:19:15.002Z</time></trkpt><trkpt lat="45.54729687790786" lon="11.101259643101079"><ele>502.0</ele><time>2026-04-04T13:19:17.002Z</time></trkpt><trkpt lat="45.54721204220538" lon="11.1012523014256"><ele>502.0</ele><time>2026-04-04T13:19:20.002Z</time></trkpt><trkpt lat="45.547119949511085" lon="11.101221276003793"><ele>502.0</ele><time>2026-04-04T13:19:23Z</time></trkpt><trkpt lat="45.54688715640659" lon="11.101164433087353"><ele>502.0</ele><time>2026-04-04T13:19:24Z</time></trkpt><trkpt lat="45.54680623440473" lon="11.101147587769372"><ele>502.0</ele><time>2026-04-04T13:19:25Z</time></trkpt><trkpt lat="45.54674406258622" lon="11.101125424953976"><ele>500.1666666666667</ele><time>2026-04-04T13:19:26Z</time></trkpt><trkpt lat="45.54665363087809" lon="11.101064962703271"><ele>498.33333333333337</ele><time>2026-04-04T13:19:28Z</time></trkpt><trkpt lat="45.546556408683976" lon="11.101048227354129"><ele>496.5</ele><time>2026-04-04T13:19:30Z</time></trkpt><trkpt lat="45.54649031637145" lon="11.101043593148537"><ele>494.66666666666663</ele><time>2026-04-04T13:19:31Z</time></trkpt><trkpt lat="45.54641524751913" lon="11.101073109001952"><ele>492.8333333333333</ele><time>2026-04-04T13:19:32Z</time></trkpt><trkpt lat="45.5463276484995" lon="11.101092918787845"><ele>491.0</ele><time>2026-04-04T13:19:33Z</time></trkpt><trkpt lat="45.54625948253358" lon="11.1011043426215"><ele>489.8</ele><time>2026-04-04T13:19:34Z</time></trkpt><trkpt lat="45.54614568290885" lon="11.101131312174788"><ele>488.6</ele><time>2026-04-04T13:19:36Z</time></trkpt><trkpt lat="45.546048101554995" lon="11.101218243234555"><ele>487.4</ele><time>2026-04-04T13:19:38Z</time></trkpt><trkpt lat="45.545987890605176" lon="11.101297109462982"><ele>486.2</ele><time>2026-04-04T13:19:39Z</time></trkpt><trkpt lat="45.545928907108866" lon="11.101363279969368"><ele>485.0</ele><time>2026-04-04T13:19:40Z</time></trkpt><trkpt lat="45.54586826987154" lon="11.101428859582679"><ele>485.0</ele><time>2026-04-04T13:19:41Z</time></trkpt><trkpt lat="45.545788410968555" lon="11.101546505546988"><ele>485.0</ele><time>2026-04-04T13:19:43Z</time></trkpt><trkpt lat="45.54572007289491" lon="11.10163922783548"><ele>485.0</ele><time>2026-04-04T13:19:44Z</time></trkpt><trkpt lat="45.54566538193255" lon="11.101712628969509"><ele>485.0</ele><time>2026-04-04T13:19:45Z</time></trkpt><trkpt lat="45.545629881532946" lon="11.101817212152056"><ele>485.0</ele><time>2026-04-04T13:19:47Z</time></trkpt><trkpt lat="45.54559031358026" lon="11.10192776457917"><ele>487.4</ele><time>2026-04-04T13:19:48Z</time></trkpt><trkpt lat="45.54553802010977" lon="11.101987388281307"><ele>489.8</ele><time>2026-04-04T13:19:49Z</time></trkpt><trkpt lat="45.54548479387709" lon="11.102199293826654"><ele>492.20000000000005</ele><time>2026-04-04T13:19:51Z</time></trkpt><trkpt lat="45.54544153843977" lon="11.102350120651774"><ele>494.6</ele><time>2026-04-04T13:19:52Z</time></trkpt><trkpt lat="45.54539574620704" lon="11.102446220168085"><ele>497.0</ele><time>2026-04-04T13:19:53Z</time></trkpt><trkpt lat="45.54534351199678" lon="11.102534805559586"><ele>496.99999999999994</ele><time>2026-04-04T13:19:54Z</time></trkpt><trkpt lat="45.54531168055746" lon="11.102643568189562"><ele>497.0</ele><time>2026-04-04T13:19:55Z</time></trkpt><trkpt lat="45.54527899476928" lon="11.102749841986073"><ele>497.0</ele><time>2026-04-04T13:19:57Z</time></trkpt><trkpt lat="45.545303012723146" lon="11.102621538249785"><ele>497.0</ele><time>2026-04-04T13:20:13.001Z</time></trkpt><trkpt lat="45.54521433650491" lon="11.102673813763337"><ele>496.99999999999994</ele><time>2026-04-04T13:20:18.001Z</time></trkpt><trkpt lat="45.54515340543669" lon="11.102780955800899"><ele>497.0</ele><time>2026-04-04T13:20:20.001Z</time></trkpt><trkpt lat="45.545074185588234" lon="11.102784406871379"><ele>497.0</ele><time>2026-04-04T13:20:31.001Z</time></trkpt><trkpt lat="45.544999399482776" lon="11.102839136566406"><ele>497.00000000000006</ele><time>2026-04-04T13:20:34.001Z</time></trkpt><trkpt lat="45.544917516387024" lon="11.102968230285985"><ele>497.00000000000006</ele><time>2026-04-04T13:20:36.001Z</time></trkpt><trkpt lat="45.54487481426549" lon="11.103069165534004"><ele>497.0</ele><time>2026-04-04T13:20:38.001Z</time></trkpt><trkpt lat="45.544812443309795" lon="11.103174905011114"><ele>497.0</ele><time>2026-04-04T13:20:40.001Z</time></trkpt><trkpt lat="45.544852554909745" lon="11.103059358748327"><ele>497.0</ele><time>2026-04-04T13:20:56.001Z</time></trkpt><trkpt lat="45.54495469649534" lon="11.102923142553117"><ele>497.00000000000006</ele><time>2026-04-04T13:20:58.001Z</time></trkpt><trkpt lat="45.54500323419052" lon="11.102834941105526"><ele>497.00000000000006</ele><time>2026-04-04T13:20:59.002Z</time></trkpt><trkpt lat="45.545063567632816" lon="11.102741050208646"><ele>497.0</ele><time>2026-04-04T13:21:01.002Z</time></trkpt><trkpt lat="45.545093182131154" lon="11.102847881843525"><ele>497.0</ele><time>2026-04-04T13:21:04.002Z</time></trkpt><trkpt lat="45.54506196030626" lon="11.102926501106664"><ele>497.0</ele><time>2026-04-04T13:21:07.002Z</time></trkpt><trkpt lat="45.54507392856931" lon="11.103029321218155"><ele>497.00000000000006</ele><time>2026-04-04T13:21:09.002Z</time></trkpt><trkpt lat="45.545009092193" lon="11.103166822863747"><ele>497.00000000000006</ele><time>2026-04-04T13:21:11.002Z</time></trkpt><trkpt lat="45.54498615255913" lon="11.103307381621864"><ele>497.0</ele><time>2026-04-04T13:21:13.002Z</time></trkpt><trkpt lat="45.5449517172543" lon="11.10345601035838"><ele>497.0</ele><time>2026-04-04T13:21:15.002Z</time></trkpt><trkpt lat="45.54495691649461" lon="11.103606066380314"><ele>500.0</ele><time>2026-04-04T13:21:17.002Z</time></trkpt><trkpt lat="45.544962838038046" lon="11.103696173368274"><ele>503.0</ele><time>2026-04-04T13:21:19.002Z</time></trkpt><trkpt lat="45.545112603223245" lon="11.10400234536344"><ele>506.0</ele><time>2026-04-04T13:21:22.002Z</time></trkpt><trkpt lat="45.54513171323047" lon="11.104093912199911"><ele>509.0</ele><time>2026-04-04T13:21:23.002Z</time></trkpt><trkpt lat="45.54515463882072" lon="11.104189065887297"><ele>508.99999999999994</ele><time>2026-04-04T13:21:24.002Z</time></trkpt><trkpt lat="45.54523539206425" lon="11.104305818785852"><ele>509.0</ele><time>2026-04-04T13:21:26.002Z</time></trkpt><trkpt lat="45.5453077823486" lon="11.104411144763942"><ele>509.0</ele><time>2026-04-04T13:21:28Z</time></trkpt><trkpt lat="45.54530038635207" lon="11.104507757762384"><ele>509.0</ele><time>2026-04-04T13:21:33Z</time></trkpt><trkpt lat="45.54528739206569" lon="11.104606805073225"><ele>508.99999999999994</ele><time>2026-04-04T13:21:34Z</time></trkpt><trkpt lat="45.545338746051" lon="11.104683534795873"><ele>509.0</ele><time>2026-04-04T13:21:37Z</time></trkpt><trkpt lat="45.5453123081001" lon="11.10482419707311"><ele>507.6</ele><time>2026-04-04T13:21:39Z</time></trkpt><trkpt lat="45.54533128293749" lon="11.104945568009972"><ele>506.2</ele><time>2026-04-04T13:21:41Z</time></trkpt><trkpt lat="45.545384933110725" lon="11.105024809465213"><ele>504.80000000000007</ele><time>2026-04-04T13:21:43Z</time></trkpt><trkpt lat="45.545455800259596" lon="11.105148759160553"><ele>503.40000000000003</ele><time>2026-04-04T13:21:46Z</time></trkpt><trkpt lat="45.54549431228" lon="11.105269943764403"><ele>502.0</ele><time>2026-04-04T13:21:48Z</time></trkpt><trkpt lat="45.545531357779325" lon="11.105384995733937"><ele>507.20000000000005</ele><time>2026-04-04T13:21:50Z</time></trkpt><trkpt lat="45.5455574540513" lon="11.105479431996962"><ele>512.4000000000001</ele><time>2026-04-04T13:21:51Z</time></trkpt><trkpt lat="45.545589548335286" lon="11.10556747566917"><ele>517.5999999999999</ele><time>2026-04-04T13:21:52Z</time></trkpt><trkpt lat="45.545663838119026" lon="11.105727703751574"><ele>522.8</ele><time>2026-04-04T13:21:54Z</time></trkpt><trkpt lat="45.54568912386163" lon="11.10588507258437"><ele>528.0</ele><time>2026-04-04T13:21:56Z</time></trkpt><trkpt lat="45.5457054175825" lon="11.105978089349911"><ele>528.0</ele><time>2026-04-04T13:21:57Z</time></trkpt><trkpt lat="45.545750470867745" lon="11.106086970712168"><ele>528.0</ele><time>2026-04-04T13:21:59Z</time></trkpt><trkpt lat="45.545846139112726" lon="11.10616036221119"><ele>528.0</ele><time>2026-04-04T13:22:01Z</time></trkpt><trkpt lat="45.545902755499974" lon="11.106216671629493"><ele>528.0</ele><time>2026-04-04T13:22:02Z</time></trkpt><trkpt lat="45.54595624462118" lon="11.106275585954315"><ele>528.0</ele><time>2026-04-04T13:22:04Z</time></trkpt><trkpt lat="45.546040239461114" lon="11.106379488110084"><ele>528.0</ele><time>2026-04-04T13:22:06.001Z</time></trkpt><trkpt lat="45.546103743502584" lon="11.106483861704401"><ele>528.0</ele><time>2026-04-04T13:22:08.001Z</time></trkpt><trkpt lat="45.54616102039824" lon="11.106531057733298"><ele>528.0</ele><time>2026-04-04T13:22:10.001Z</time></trkpt><trkpt lat="45.5462354697067" lon="11.106578191359894"><ele>528.0</ele><time>2026-04-04T13:22:12.001Z</time></trkpt><trkpt lat="45.54632257894644" lon="11.106649866457037"><ele>528.0</ele><time>2026-04-04T13:22:14.001Z</time></trkpt><trkpt lat="45.54640297172527" lon="11.10670898518007"><ele>528.0</ele><time>2026-04-04T13:22:16.001Z</time></trkpt><trkpt lat="45.54644626608138" lon="11.106799668207811"><ele>528.0</ele><time>2026-04-04T13:22:19.001Z</time></trkpt><trkpt lat="45.54654805060071" lon="11.106825808943416"><ele>531.0</ele><time>2026-04-04T13:22:21.001Z</time></trkpt><trkpt lat="45.54665239793062" lon="11.106847505344184"><ele>534.0</ele><time>2026-04-04T13:22:23.001Z</time></trkpt><trkpt lat="45.54672495202337" lon="11.106947110166006"><ele>537.0</ele><time>2026-04-04T13:22:25.001Z</time></trkpt><trkpt lat="45.546814360576164" lon="11.107024866893731"><ele>540.0</ele><time>2026-04-04T13:22:27.001Z</time></trkpt><trkpt lat="45.54688385286101" lon="11.10713791228888"><ele>543.0</ele><time>2026-04-04T13:22:30.001Z</time></trkpt><trkpt lat="45.546923378374736" lon="11.10723440792868"><ele>543.0</ele><time>2026-04-04T13:22:32.001Z</time></trkpt><trkpt lat="45.54696209725887" lon="11.1073345339363"><ele>543.0</ele><time>2026-04-04T13:22:35.001Z</time></trkpt><trkpt lat="45.547020255746396" lon="11.107436710346246"><ele>543.0</ele><time>2026-04-04T13:22:39.001Z</time></trkpt><trkpt lat="45.547059895184226" lon="11.107514829442403"><ele>543.0</ele><time>2026-04-04T13:22:41.001Z</time></trkpt><trkpt lat="45.54711395194238" lon="11.107585902778187"><ele>543.0</ele><time>2026-04-04T13:22:43.001Z</time></trkpt><trkpt lat="45.547171479218875" lon="11.10767835092873"><ele>543.0</ele><time>2026-04-04T13:22:45.001Z</time></trkpt><trkpt lat="45.54723809458445" lon="11.10774328305752"><ele>542.1999999999999</ele><time>2026-04-04T13:22:47.001Z</time></trkpt><trkpt lat="45.54722224014459" lon="11.10783596699553"><ele>541.4</ele><time>2026-04-04T13:22:50.001Z</time></trkpt><trkpt lat="45.54713390796846" lon="11.107832821100985"><ele>540.5999999999999</ele><time>2026-04-04T13:22:54.001Z</time></trkpt><trkpt lat="45.5470523295017" lon="11.107811328337258"><ele>539.8</ele><time>2026-04-04T13:22:56.002Z</time></trkpt><trkpt lat="45.546927527446385" lon="11.107787629326191"><ele>539.0</ele><time>2026-04-04T13:22:58.002Z</time></trkpt><trkpt lat="45.54683714040242" lon="11.107783621635418"><ele>539.0</ele><time>2026-04-04T13:22:59.002Z</time></trkpt><trkpt lat="45.546742451711474" lon="11.107793949836502"><ele>539.0</ele><time>2026-04-04T13:23:00.002Z</time></trkpt><trkpt lat="45.54666055535319" lon="11.107805448861765"><ele>539.0</ele><time>2026-04-04T13:23:01.002Z</time></trkpt><trkpt lat="45.54657928546539" lon="11.10781298646376"><ele>539.0</ele><time>2026-04-04T13:23:02.002Z</time></trkpt><trkpt lat="45.546491673455265" lon="11.10782529642541"><ele>539.0</ele><time>2026-04-04T13:23:03.002Z</time></trkpt><trkpt lat="45.546402611637106" lon="11.107833414279636"><ele>539.0</ele><time>2026-04-04T13:23:04.002Z</time></trkpt><trkpt lat="45.546320987359195" lon="11.107848245604133"><ele>539.0</ele><time>2026-04-04T13:23:05.002Z</time></trkpt><trkpt lat="45.54625326572141" lon="11.107863762637736"><ele>539.0</ele><time>2026-04-04T13:23:06.002Z</time></trkpt><trkpt lat="45.546189699996816" lon="11.107872767691356"><ele>539.0</ele><time>2026-04-04T13:23:07.002Z</time></trkpt><trkpt lat="45.54606558934937" lon="11.107895660728417"><ele>539.0</ele><time>2026-04-04T13:23:09.002Z</time></trkpt><trkpt lat="45.54597660502225" lon="11.107934184162835"><ele>539.0</ele><time>2026-04-04T13:23:11.002Z</time></trkpt><trkpt lat="45.54596396630614" lon="11.108038145952152"><ele>539.0</ele><time>2026-04-04T13:23:13.002Z</time></trkpt><trkpt lat="45.54604361592817" lon="11.108090479994823"><ele>539.0</ele><time>2026-04-04T13:23:15.002Z</time></trkpt><trkpt lat="45.54616099521608" lon="11.108136756816423"><ele>539.0</ele><time>2026-04-04T13:23:17.002Z</time></trkpt><trkpt lat="45.54629900074533" lon="11.108090079493934"><ele>539.0</ele><time>2026-04-04T13:23:19.002Z</time></trkpt><trkpt lat="45.54639470321695" lon="11.108106183616485"><ele>539.0</ele><time>2026-04-04T13:23:21.002Z</time></trkpt><trkpt lat="45.54647426514439" lon="11.108143758418578"><ele>539.0</ele><time>2026-04-04T13:23:22.002Z</time></trkpt><trkpt lat="45.54647491262625" lon="11.108235016518165"><ele>539.0</ele><time>2026-04-04T13:23:24.002Z</time></trkpt><trkpt lat="45.546340689780365" lon="11.108234732513548"><ele>539.0</ele><time>2026-04-04T13:23:27.002Z</time></trkpt><trkpt lat="45.54627388115163" lon="11.10831971910065"><ele>539.0</ele><time>2026-04-04T13:23:30.002Z</time></trkpt><trkpt lat="45.54626494140911" lon="11.108409310901868"><ele>539.0</ele><time>2026-04-04T13:23:31.002Z</time></trkpt><trkpt lat="45.54616987782273" lon="11.10848279205332"><ele>539.0</ele><time>2026-04-04T13:23:33Z</time></trkpt><trkpt lat="45.54608914159432" lon="11.108553187567676"><ele>541.8333333333333</ele><time>2026-04-04T13:23:35Z</time></trkpt><trkpt lat="45.54599882368121" lon="11.10859680484491"><ele>544.6666666666666</ele><time>2026-04-04T13:23:58Z</time></trkpt><trkpt lat="45.54593827252244" lon="11.108664188190831"><ele>547.5</ele><time>2026-04-04T13:24:00Z</time></trkpt><trkpt lat="45.54587610020241" lon="11.108723373228734"><ele>550.3333333333334</ele><time>2026-04-04T13:24:03Z</time></trkpt><trkpt lat="45.54580666179768" lon="11.108773529258874"><ele>553.1666666666667</ele><time>2026-04-04T13:24:05Z</time></trkpt><trkpt lat="45.54574684108802" lon="11.108813223339597"><ele>556.0</ele><time>2026-04-04T13:24:07Z</time></trkpt><trkpt lat="45.54576573077287" lon="11.108923670563419"><ele>556.0</ele><time>2026-04-04T13:24:13.001Z</time></trkpt><trkpt lat="45.545755610925774" lon="11.109043155689474"><ele>556.0</ele><time>2026-04-04T13:24:16.001Z</time></trkpt><trkpt lat="45.545734794976255" lon="11.109217455668691"><ele>556.0</ele><time>2026-04-04T13:24:17.001Z</time></trkpt><trkpt lat="45.545696980622836" lon="11.109330627821652"><ele>556.0</ele><time>2026-04-04T13:24:19.001Z</time></trkpt><trkpt lat="45.545650149920974" lon="11.109458783944364"><ele>556.0</ele><time>2026-04-04T13:24:21.001Z</time></trkpt><trkpt lat="45.54556493489223" lon="11.109519318448346"><ele>558.1666666666667</ele><time>2026-04-04T13:24:23.001Z</time></trkpt><trkpt lat="45.54549532416596" lon="11.109455719995065"><ele>560.3333333333334</ele><time>2026-04-04T13:24:24.001Z</time></trkpt><trkpt lat="45.54542774055902" lon="11.10947314243397"><ele>562.5</ele><time>2026-04-04T13:24:25.001Z</time></trkpt><trkpt lat="45.54531153194414" lon="11.109472726387665"><ele>564.6666666666666</ele><time>2026-04-04T13:24:27.001Z</time></trkpt><trkpt lat="45.545236583031226" lon="11.109497445096217"><ele>566.8333333333333</ele><time>2026-04-04T13:24:28.001Z</time></trkpt><trkpt lat="45.545152834461874" lon="11.109538169325875"><ele>569.0</ele><time>2026-04-04T13:24:29.001Z</time></trkpt><trkpt lat="45.5450719490807" lon="11.109565159013648"><ele>569.0</ele><time>2026-04-04T13:24:30.001Z</time></trkpt><trkpt lat="45.54498381691289" lon="11.109611047178202"><ele>569.0</ele><time>2026-04-04T13:24:31.001Z</time></trkpt><trkpt lat="45.54487442441899" lon="11.109639196409198"><ele>569.0</ele><time>2026-04-04T13:24:32.001Z</time></trkpt><trkpt lat="45.54478833573912" lon="11.109647666704568"><ele>569.0</ele><time>2026-04-04T13:24:33.001Z</time></trkpt><trkpt lat="45.54471879921919" lon="11.109641396784053"><ele>569.0</ele><time>2026-04-04T13:24:34.001Z</time></trkpt><trkpt lat="45.54464280382721" lon="11.109657614510468"><ele>569.0</ele><time>2026-04-04T13:24:35.001Z</time></trkpt><trkpt lat="45.54451636174686" lon="11.109714910469362"><ele>569.1666666666666</ele><time>2026-04-04T13:24:37.001Z</time></trkpt><trkpt lat="45.5444521115037" lon="11.109765427823875"><ele>569.3333333333333</ele><time>2026-04-04T13:24:39.001Z</time></trkpt><trkpt lat="45.54442949236863" lon="11.109859269408375"><ele>569.5</ele><time>2026-04-04T13:24:42.001Z</time></trkpt><trkpt lat="45.544476809515054" lon="11.109929948735866"><ele>569.6666666666666</ele><time>2026-04-04T13:24:44.001Z</time></trkpt><trkpt lat="45.54459757523841" lon="11.109979587480735"><ele>569.8333333333334</ele><time>2026-04-04T13:24:46.001Z</time></trkpt><trkpt lat="45.54467952592622" lon="11.110058725568813"><ele>570.0</ele><time>2026-04-04T13:24:48.001Z</time></trkpt><trkpt lat="45.54473986012229" lon="11.110175033894226"><ele>573.3333333333334</ele><time>2026-04-04T13:24:50.001Z</time></trkpt><trkpt lat="45.54479735172611" lon="11.110273633608886"><ele>576.6666666666666</ele><time>2026-04-04T13:24:52.001Z</time></trkpt><trkpt lat="45.544862507505535" lon="11.110391000316064"><ele>580.0</ele><time>2026-04-04T13:24:54.001Z</time></trkpt><trkpt lat="45.54491107876361" lon="11.1104553417976"><ele>583.3333333333333</ele><time>2026-04-04T13:24:55.001Z</time></trkpt><trkpt lat="45.54496646415436" lon="11.110514374446621"><ele>586.6666666666666</ele><time>2026-04-04T13:24:56.001Z</time></trkpt><trkpt lat="45.54503134630722" lon="11.110575538517352"><ele>590.0</ele><time>2026-04-04T13:24:57.001Z</time></trkpt><trkpt lat="45.54503066334645" lon="11.110794932842849"><ele>590.6</ele><time>2026-04-04T13:24:58.001Z</time></trkpt><trkpt lat="45.54509151228173" lon="11.110832968363184"><ele>591.2</ele><time>2026-04-04T13:24:59.001Z</time></trkpt><trkpt lat="45.54516639124455" lon="11.110870734366738"><ele>591.8</ele><time>2026-04-04T13:25:00.001Z</time></trkpt><trkpt lat="45.54523478187332" lon="11.11090175791211"><ele>592.4</ele><time>2026-04-04T13:25:01.001Z</time></trkpt><trkpt lat="45.545125057381604" lon="11.110834621777169"><ele>593.0</ele><time>2026-04-04T13:25:06.002Z</time></trkpt><trkpt lat="45.545020268455374" lon="11.11076811532499"><ele>592.5</ele><time>2026-04-04T13:25:08.002Z</time></trkpt><trkpt lat="45.54490518803439" lon="11.11071574216051"><ele>592.0</ele><time>2026-04-04T13:25:10.002Z</time></trkpt><trkpt lat="45.5448543750782" lon="11.110646664705556"><ele>591.5</ele><time>2026-04-04T13:25:11.002Z</time></trkpt><trkpt lat="45.54479149075604" lon="11.11060838996669"><ele>591.0</ele><time>2026-04-04T13:25:12.002Z</time></trkpt><trkpt lat="45.54472983438369" lon="11.11053354809833"><ele>590.5</ele><time>2026-04-04T13:25:13.002Z</time></trkpt><trkpt lat="45.5446472855758" lon="11.110469429737005"><ele>590.0</ele><time>2026-04-04T13:25:14.002Z</time></trkpt><trkpt lat="45.54456548502541" lon="11.11039614992868"><ele>587.0</ele><time>2026-04-04T13:25:15.002Z</time></trkpt><trkpt lat="45.54447741081003" lon="11.110298589309835"><ele>584.0</ele><time>2026-04-04T13:25:16.002Z</time></trkpt><trkpt lat="45.544399126220085" lon="11.110182216771685"><ele>581.0</ele><time>2026-04-04T13:25:17.002Z</time></trkpt><trkpt lat="45.54433707024061" lon="11.110055783072207"><ele>578.0</ele><time>2026-04-04T13:25:18.002Z</time></trkpt><trkpt lat="45.54428372102527" lon="11.109917385834162"><ele>575.0</ele><time>2026-04-04T13:25:19.002Z</time></trkpt><trkpt lat="45.54424254415975" lon="11.109776246188874"><ele>573.75</ele><time>2026-04-04T13:25:20.002Z</time></trkpt><trkpt lat="45.54419486415182" lon="11.109622491249707"><ele>572.5</ele><time>2026-04-04T13:25:21.002Z</time></trkpt><trkpt lat="45.544117689976574" lon="11.109459240290276"><ele>571.25</ele><time>2026-04-04T13:25:22.002Z</time></trkpt><trkpt lat="45.54407094036303" lon="11.10928556696372"><ele>570.0</ele><time>2026-04-04T13:25:23.002Z</time></trkpt><trkpt lat="45.54401473048194" lon="11.109123953210494"><ele>567.5</ele><time>2026-04-04T13:25:24.002Z</time></trkpt><trkpt lat="45.54395872582828" lon="11.108961610453544"><ele>565.0</ele><time>2026-04-04T13:25:25.002Z</time></trkpt><trkpt lat="45.543905670821694" lon="11.108802414018925"><ele>562.5</ele><time>2026-04-04T13:25:26.002Z</time></trkpt><trkpt lat="45.543856912033185" lon="11.10865272684965"><ele>560.0</ele><time>2026-04-04T13:25:27.002Z</time></trkpt><trkpt lat="45.5438154122641" lon="11.108537247098267"><ele>560.0</ele><time>2026-04-04T13:25:28.002Z</time></trkpt><trkpt lat="45.543768481077024" lon="11.10843189861613"><ele>560.0</ele><time>2026-04-04T13:25:29.002Z</time></trkpt><trkpt lat="45.54370404806041" lon="11.108340331523069"><ele>560.0</ele><time>2026-04-04T13:25:30.002Z</time></trkpt><trkpt lat="45.54362690384603" lon="11.10827958315678"><ele>560.0</ele><time>2026-04-04T13:25:31.002Z</time></trkpt><trkpt lat="45.54354246260048" lon="11.108259596828814"><ele>560.0</ele><time>2026-04-04T13:25:32.002Z</time></trkpt><trkpt lat="45.54348149458622" lon="11.108226438842415"><ele>560.0</ele><time>2026-04-04T13:25:33.002Z</time></trkpt><trkpt lat="45.54340912210109" lon="11.10812269416463"><ele>556.4</ele><time>2026-04-04T13:25:35.002Z</time></trkpt><trkpt lat="45.543431367520945" lon="11.108028926622133"><ele>552.8</ele><time>2026-04-04T13:25:36.002Z</time></trkpt><trkpt lat="45.543467738727934" lon="11.10790591433851"><ele>549.2</ele><time>2026-04-04T13:25:37.002Z</time></trkpt><trkpt lat="45.54352293585031" lon="11.107762619351012"><ele>545.6</ele><time>2026-04-04T13:25:38.002Z</time></trkpt><trkpt lat="45.54358060606234" lon="11.107614518790632"><ele>542.0</ele><time>2026-04-04T13:25:39Z</time></trkpt><trkpt lat="45.543668237080155" lon="11.10751229377909"><ele>542.8000000000001</ele><time>2026-04-04T13:25:40Z</time></trkpt><trkpt lat="45.54376306661484" lon="11.107454532165512"><ele>543.6</ele><time>2026-04-04T13:25:41Z</time></trkpt><trkpt lat="45.54386050890088" lon="11.107425687877528"><ele>544.4000000000001</ele><time>2026-04-04T13:25:42Z</time></trkpt><trkpt lat="45.54395442910349" lon="11.107424848353267"><ele>545.2</ele><time>2026-04-04T13:25:43Z</time></trkpt><trkpt lat="45.54403399458026" lon="11.107468925974967"><ele>546.0</ele><time>2026-04-04T13:25:44Z</time></trkpt><trkpt lat="45.544099713955795" lon="11.107503473037017"><ele>542.8</ele><time>2026-04-04T13:25:45Z</time></trkpt><trkpt lat="45.54419698060205" lon="11.107398421619619"><ele>539.6</ele><time>2026-04-04T13:25:47Z</time></trkpt><trkpt lat="45.54420658529867" lon="11.10725876675672"><ele>536.4</ele><time>2026-04-04T13:25:48Z</time></trkpt><trkpt lat="45.544137616853945" lon="11.107127063187278"><ele>533.2</ele><time>2026-04-04T13:25:49Z</time></trkpt><trkpt lat="45.54406276530318" lon="11.10703334678583"><ele>530.0</ele><time>2026-04-04T13:25:50Z</time></trkpt><trkpt lat="45.54397491542811" lon="11.106972551880014"><ele>530.0</ele><time>2026-04-04T13:25:51Z</time></trkpt><trkpt lat="45.54387065676795" lon="11.106938658409469"><ele>530.0</ele><time>2026-04-04T13:25:52Z</time></trkpt><trkpt lat="45.54376991909944" lon="11.10693018136362"><ele>530.0</ele><time>2026-04-04T13:25:53Z</time></trkpt><trkpt lat="45.543669615485946" lon="11.106905435393308"><ele>530.0</ele><time>2026-04-04T13:25:54Z</time></trkpt><trkpt lat="45.54356805395686" lon="11.106901591545874"><ele>530.0</ele><time>2026-04-04T13:25:55Z</time></trkpt><trkpt lat="45.54346905367057" lon="11.10690028802173"><ele>530.6</ele><time>2026-04-04T13:25:56Z</time></trkpt><trkpt lat="45.54337411113568" lon="11.10690546723902"><ele>531.2</ele><time>2026-04-04T13:25:57Z</time></trkpt><trkpt lat="45.54327978618475" lon="11.106914422676452"><ele>531.8</ele><time>2026-04-04T13:25:58Z</time></trkpt><trkpt lat="45.54318201607756" lon="11.106930618590717"><ele>532.4</ele><time>2026-04-04T13:25:59Z</time></trkpt><trkpt lat="45.54308102455308" lon="11.106954138806723"><ele>533.0</ele><time>2026-04-04T13:26:00Z</time></trkpt><trkpt lat="45.54298414367277" lon="11.106991991432116"><ele>533.0</ele><time>2026-04-04T13:26:01Z</time></trkpt><trkpt lat="45.542894643961226" lon="11.10704143459853"><ele>533.0</ele><time>2026-04-04T13:26:02Z</time></trkpt><trkpt lat="45.542812618992684" lon="11.10709262472903"><ele>533.0</ele><time>2026-04-04T13:26:03Z</time></trkpt><trkpt lat="45.542748100884744" lon="11.107138515645874"><ele>533.0</ele><time>2026-04-04T13:26:04Z</time></trkpt><trkpt lat="45.5426994771606" lon="11.107233725566358"><ele>533.0</ele><time>2026-04-04T13:26:05Z</time></trkpt><trkpt lat="45.54265042427172" lon="11.10733411199144"><ele>533.0</ele><time>2026-04-04T13:26:06Z</time></trkpt><trkpt lat="45.54263249198831" lon="11.10744573726876"><ele>532.0</ele><time>2026-04-04T13:26:07Z</time></trkpt><trkpt lat="45.54257653323082" lon="11.107529486232368"><ele>531.0</ele><time>2026-04-04T13:26:09.001Z</time></trkpt><trkpt lat="45.542571318440515" lon="11.107651184788951"><ele>530.0</ele><time>2026-04-04T13:27:50.001Z</time></trkpt><trkpt lat="45.54255821398041" lon="11.107778864547834"><ele>529.0</ele><time>2026-04-04T13:27:52.001Z</time></trkpt><trkpt lat="45.54255018202166" lon="11.107917724120172"><ele>528.0</ele><time>2026-04-04T13:27:54.001Z</time></trkpt><trkpt lat="45.54254043189457" lon="11.108015748315859"><ele>527.0</ele><time>2026-04-04T13:27:55.001Z</time></trkpt><trkpt lat="45.5425304245979" lon="11.108116357950411"><ele>532.0</ele><time>2026-04-04T13:27:56.001Z</time></trkpt><trkpt lat="45.54210283486543" lon="11.108332339720045"><ele>532.0</ele><time>2026-04-04T13:27:59.001Z</time></trkpt><trkpt lat="45.542067336191074" lon="11.108431062581142"><ele>532.0</ele><time>2026-04-04T13:28:00.001Z</time></trkpt><trkpt lat="45.542038663208956" lon="11.108548777418058"><ele>532.0</ele><time>2026-04-04T13:28:01.001Z</time></trkpt><trkpt lat="45.542018871973276" lon="11.108668725376269"><ele>532.0</ele><time>2026-04-04T13:28:02.001Z</time></trkpt><trkpt lat="45.54199723951965" lon="11.108794693213929"><ele>532.0</ele><time>2026-04-04T13:28:03.001Z</time></trkpt><trkpt lat="45.54198725906684" lon="11.108891876450917"><ele>532.0</ele><time>2026-04-04T13:28:04.001Z</time></trkpt><trkpt lat="45.54197877444107" lon="11.109004603650048"><ele>526.8333333333334</ele><time>2026-04-04T13:28:05.001Z</time></trkpt><trkpt lat="45.54196748242864" lon="11.109106626267765"><ele>521.6666666666667</ele><time>2026-04-04T13:28:06.001Z</time></trkpt><trkpt lat="45.54195502117176" lon="11.109210121731252"><ele>516.5</ele><time>2026-04-04T13:28:07.001Z</time></trkpt><trkpt lat="45.541950639083375" lon="11.109324936492268"><ele>511.33333333333337</ele><time>2026-04-04T13:28:08.001Z</time></trkpt><trkpt lat="45.54196504215552" lon="11.109435481868694"><ele>506.1666666666667</ele><time>2026-04-04T13:28:09.001Z</time></trkpt><trkpt lat="45.54197931158858" lon="11.10955471137376"><ele>501.0</ele><time>2026-04-04T13:28:10.001Z</time></trkpt><trkpt lat="45.54197774394824" lon="11.109674918545624"><ele>501.0</ele><time>2026-04-04T13:28:11.001Z</time></trkpt><trkpt lat="45.54196306370162" lon="11.109798961723541"><ele>501.0</ele><time>2026-04-04T13:28:12.001Z</time></trkpt><trkpt lat="45.541947533437046" lon="11.109908499622522"><ele>501.0</ele><time>2026-04-04T13:28:13.001Z</time></trkpt><trkpt lat="45.54194863890438" lon="11.110029811670296"><ele>501.0</ele><time>2026-04-04T13:28:14.001Z</time></trkpt><trkpt lat="45.54197305143139" lon="11.110170296161698"><ele>501.0</ele><time>2026-04-04T13:28:15.001Z</time></trkpt><trkpt lat="45.541978843159825" lon="11.110298247832912"><ele>501.0</ele><time>2026-04-04T13:28:16.001Z</time></trkpt><trkpt lat="45.54197931102539" lon="11.110426876684123"><ele>500.7142857142857</ele><time>2026-04-04T13:28:17.001Z</time></trkpt><trkpt lat="45.54196147031289" lon="11.11054285458053"><ele>500.42857142857144</ele><time>2026-04-04T13:28:18.001Z</time></trkpt><trkpt lat="45.54193579480485" lon="11.110651606135232"><ele>500.14285714285717</ele><time>2026-04-04T13:28:19.001Z</time></trkpt><trkpt lat="45.54193823871699" lon="11.110756433437597"><ele>499.8571428571429</ele><time>2026-04-04T13:28:20.001Z</time></trkpt><trkpt lat="45.54195181324427" lon="11.110857017126657"><ele>499.57142857142856</ele><time>2026-04-04T13:28:21.001Z</time></trkpt><trkpt lat="45.54197311451896" lon="11.11095095869267"><ele>499.28571428571433</ele><time>2026-04-04T13:28:23.001Z</time></trkpt><trkpt lat="45.541910953388054" lon="11.110968501472584"><ele>499.00000000000006</ele><time>2026-04-04T13:28:25.001Z</time></trkpt><trkpt lat="45.54183078053665" lon="11.110889242484033"><ele>499.0</ele><time>2026-04-04T13:28:27.001Z</time></trkpt><trkpt lat="45.541784096498354" lon="11.11081397665376"><ele>499.0</ele><time>2026-04-04T13:28:28.001Z</time></trkpt><trkpt lat="45.54170625238423" lon="11.110723282125367"><ele>499.0</ele><time>2026-04-04T13:28:29.001Z</time></trkpt><trkpt lat="45.54158547148053" lon="11.110641840913127"><ele>499.0</ele><time>2026-04-04T13:28:31.001Z</time></trkpt><trkpt lat="45.541495872283264" lon="11.110543601205967"><ele>499.0</ele><time>2026-04-04T13:28:32.001Z</time></trkpt><trkpt lat="45.541407168640326" lon="11.110486111672492"><ele>499.0</ele><time>2026-04-04T13:28:33.001Z</time></trkpt><trkpt lat="45.54136589085131" lon="11.110404676180483"><ele>499.0</ele><time>2026-04-04T13:28:34.001Z</time></trkpt><trkpt lat="45.541286783891316" lon="11.110337375545116"><ele>499.0</ele><time>2026-04-04T13:28:35.001Z</time></trkpt><trkpt lat="45.54119397422705" lon="11.110305750403962"><ele>499.0</ele><time>2026-04-04T13:28:36.001Z</time></trkpt><trkpt lat="45.54110337738953" lon="11.110252553695652"><ele>499.0</ele><time>2026-04-04T13:28:37.001Z</time></trkpt><trkpt lat="45.54099223372195" lon="11.11023977635849"><ele>496.4</ele><time>2026-04-04T13:28:38.001Z</time></trkpt><trkpt lat="45.540888783345956" lon="11.110206565267614"><ele>493.79999999999995</ele><time>2026-04-04T13:28:39.001Z</time></trkpt><trkpt lat="45.54075779785701" lon="11.110153059038188"><ele>491.20000000000005</ele><time>2026-04-04T13:28:40.001Z</time></trkpt><trkpt lat="45.54065014037533" lon="11.11013965267077"><ele>488.6</ele><time>2026-04-04T13:28:41.001Z</time></trkpt><trkpt lat="45.54055206662163" lon="11.110138664998532"><ele>486.0</ele><time>2026-04-04T13:28:42.001Z</time></trkpt><trkpt lat="45.54047937231229" lon="11.110118230008197"><ele>486.20000000000005</ele><time>2026-04-04T13:28:43.001Z</time></trkpt><trkpt lat="45.54037529191249" lon="11.1100395208763"><ele>486.40000000000003</ele><time>2026-04-04T13:28:45.001Z</time></trkpt><trkpt lat="45.54028945522022" lon="11.109982101009816"><ele>486.6</ele><time>2026-04-04T13:28:47.001Z</time></trkpt><trkpt lat="45.54020908756488" lon="11.10990341506052"><ele>486.8</ele><time>2026-04-04T13:28:48.001Z</time></trkpt><trkpt lat="45.54014765557799" lon="11.109871315478582"><ele>487.0</ele><time>2026-04-04T13:28:49.001Z</time></trkpt><trkpt lat="45.54008235667349" lon="11.10981982387308"><ele>482.0</ele><time>2026-04-04T13:28:50.001Z</time></trkpt><trkpt lat="45.54001523695947" lon="11.109747741404433"><ele>477.00000000000006</ele><time>2026-04-04T13:28:51.001Z</time></trkpt><trkpt lat="45.53995545762026" lon="11.109695643064663"><ele>472.00000000000006</ele><time>2026-04-04T13:28:52.001Z</time></trkpt><trkpt lat="45.539856925373876" lon="11.109575257508368"><ele>467.0</ele><time>2026-04-04T13:28:54.001Z</time></trkpt><trkpt lat="45.53979002033661" lon="11.109530700121018"><ele>462.0</ele><time>2026-04-04T13:28:56.001Z</time></trkpt><trkpt lat="45.539712081876864" lon="11.109452142958805"><ele>462.0</ele><time>2026-04-04T13:28:59.002Z</time></trkpt><trkpt lat="45.53963652413659" lon="11.10933609384522"><ele>462.0</ele><time>2026-04-04T13:29:01.002Z</time></trkpt><trkpt lat="45.539588851202204" lon="11.109193400608858"><ele>462.0</ele><time>2026-04-04T13:29:03.002Z</time></trkpt><trkpt lat="45.53956283948447" lon="11.109103373038748"><ele>462.0</ele><time>2026-04-04T13:29:04.002Z</time></trkpt><trkpt lat="45.53953180881661" lon="11.109005578467384"><ele>462.0</ele><time>2026-04-04T13:29:06.002Z</time></trkpt><trkpt lat="45.539590250796714" lon="11.108933806392914"><ele>462.0</ele><time>2026-04-04T13:29:10.002Z</time></trkpt><trkpt lat="45.53965857595745" lon="11.10894232283168"><ele>460.1666666666667</ele><time>2026-04-04T13:29:12.002Z</time></trkpt><trkpt lat="45.53968577238988" lon="11.108843740722719"><ele>458.33333333333337</ele><time>2026-04-04T13:29:15.002Z</time></trkpt><trkpt lat="45.53965718645937" lon="11.108755300785731"><ele>456.5</ele><time>2026-04-04T13:29:18.002Z</time></trkpt><trkpt lat="45.539601125991005" lon="11.108701900641815"><ele>454.6666666666667</ele><time>2026-04-04T13:29:20.002Z</time></trkpt><trkpt lat="45.53951582323118" lon="11.10866118076563"><ele>452.83333333333337</ele><time>2026-04-04T13:29:22.002Z</time></trkpt><trkpt lat="45.53947338403898" lon="11.108587844913126"><ele>451.0</ele><time>2026-04-04T13:29:27.002Z</time></trkpt><trkpt lat="45.539406500938355" lon="11.108510393016063"><ele>449.33333333333337</ele><time>2026-04-04T13:29:30.002Z</time></trkpt><trkpt lat="45.53932337523989" lon="11.108465939894621"><ele>447.6666666666667</ele><time>2026-04-04T13:29:32.002Z</time></trkpt><trkpt lat="45.53926184243152" lon="11.108379314640347"><ele>446.0</ele><time>2026-04-04T13:29:33.002Z</time></trkpt><trkpt lat="45.53919727648082" lon="11.108305822333111"><ele>444.33333333333337</ele><time>2026-04-04T13:29:34.002Z</time></trkpt><trkpt lat="45.5391449502557" lon="11.108249704725775"><ele>442.6666666666667</ele><time>2026-04-04T13:29:35.002Z</time></trkpt><trkpt lat="45.539032626835805" lon="11.108223663940798"><ele>441.0</ele><time>2026-04-04T13:29:37.002Z</time></trkpt><trkpt lat="45.53893947699999" lon="11.108199837916587"><ele>438.6</ele><time>2026-04-04T13:29:38.002Z</time></trkpt><trkpt lat="45.53884405243994" lon="11.108186121541571"><ele>436.20000000000005</ele><time>2026-04-04T13:29:39.002Z</time></trkpt><trkpt lat="45.53873206641157" lon="11.108196877771094"><ele>433.79999999999995</ele><time>2026-04-04T13:29:41.002Z</time></trkpt><trkpt lat="45.5386551473938" lon="11.108184992656454"><ele>431.4</ele><time>2026-04-04T13:29:43.002Z</time></trkpt><trkpt lat="45.53858840611945" lon="11.10823512716089"><ele>429.0</ele><time>2026-04-04T13:29:48.002Z</time></trkpt><trkpt lat="45.53849952658064" lon="11.108335761383817"><ele>429.0</ele><time>2026-04-04T13:29:50.002Z</time></trkpt><trkpt lat="45.538389501975274" lon="11.108399539923349"><ele>429.0</ele><time>2026-04-04T13:29:52.001Z</time></trkpt><trkpt lat="45.538341170658896" lon="11.108465444908447"><ele>429.0</ele><time>2026-04-04T13:29:54.001Z</time></trkpt><trkpt lat="45.53829175096429" lon="11.108543445604445"><ele>429.0</ele><time>2026-04-04T13:29:58.001Z</time></trkpt><trkpt lat="45.538200993823175" lon="11.108503837225797"><ele>429.0</ele><time>2026-04-04T13:30:03.001Z</time></trkpt><trkpt lat="45.538122853806016" lon="11.108517427399718"><ele>429.0</ele><time>2026-04-04T13:30:06.001Z</time></trkpt><trkpt lat="45.53803938378181" lon="11.108566421609234"><ele>429.0</ele><time>2026-04-04T13:30:09.001Z</time></trkpt><trkpt lat="45.53798193852676" lon="11.108647086548519"><ele>429.0</ele><time>2026-04-04T13:30:12.001Z</time></trkpt><trkpt lat="45.537908716268895" lon="11.108678998268273"><ele>429.0</ele><time>2026-04-04T13:30:14.001Z</time></trkpt><trkpt lat="45.53788472054994" lon="11.108789471428834"><ele>429.0</ele><time>2026-04-04T13:30:18.001Z</time></trkpt><trkpt lat="45.53792110955099" lon="11.108895836299915"><ele>429.0</ele><time>2026-04-04T13:30:20.001Z</time></trkpt><trkpt lat="45.537892838213416" lon="11.109010919035745"><ele>429.0</ele><time>2026-04-04T13:30:22.001Z</time></trkpt><trkpt lat="45.537913721406916" lon="11.109110406923458"><ele>426.0</ele><time>2026-04-04T13:30:25.001Z</time></trkpt><trkpt lat="45.53788735422308" lon="11.109194473328452"><ele>423.0</ele><time>2026-04-04T13:30:27.001Z</time></trkpt><trkpt lat="45.5378419993741" lon="11.10932683860996"><ele>420.0</ele><time>2026-04-04T13:30:29.001Z</time></trkpt><trkpt lat="45.53776323741238" lon="11.109422139854162"><ele>417.0</ele><time>2026-04-04T13:30:31.001Z</time></trkpt><trkpt lat="45.53770652320235" lon="11.109574145406826"><ele>414.0</ele><time>2026-04-04T13:30:33.001Z</time></trkpt><trkpt lat="45.53766040591083" lon="11.109692994594491"><ele>414.0</ele><time>2026-04-04T13:30:36.001Z</time></trkpt><trkpt lat="45.53764799937239" lon="11.109834393226361"><ele>414.0</ele><time>2026-04-04T13:30:39.001Z</time></trkpt><trkpt lat="45.53761034464716" lon="11.10995419238522"><ele>414.0</ele><time>2026-04-04T13:30:41.001Z</time></trkpt><trkpt lat="45.53756489344587" lon="11.11007669361517"><ele>414.0</ele><time>2026-04-04T13:30:42.001Z</time></trkpt><trkpt lat="45.5375382565959" lon="11.110200429033071"><ele>414.0</ele><time>2026-04-04T13:30:43.001Z</time></trkpt><trkpt lat="45.537523322372856" lon="11.110294421212615"><ele>414.0</ele><time>2026-04-04T13:30:44.001Z</time></trkpt><trkpt lat="45.537510144497624" lon="11.110425723091952"><ele>416.00000000000006</ele><time>2026-04-04T13:30:46.001Z</time></trkpt><trkpt lat="45.537514390360556" lon="11.110529508937482"><ele>418.0</ele><time>2026-04-04T13:30:47.001Z</time></trkpt><trkpt lat="45.53753395553688" lon="11.110619708937952"><ele>420.0</ele><time>2026-04-04T13:30:48.001Z</time></trkpt><trkpt lat="45.537563858739674" lon="11.110717291800029"><ele>422.0</ele><time>2026-04-04T13:30:49.001Z</time></trkpt><trkpt lat="45.53758743352821" lon="11.110807192361785"><ele>424.0</ele><time>2026-04-04T13:30:50.001Z</time></trkpt><trkpt lat="45.53758847144469" lon="11.110925464322946"><ele>426.00000000000006</ele><time>2026-04-04T13:30:51.001Z</time></trkpt><trkpt lat="45.537613437116136" lon="11.111033257973123"><ele>428.0</ele><time>2026-04-04T13:30:52.001Z</time></trkpt><trkpt lat="45.53762384415704" lon="11.111142606253708"><ele>429.2</ele><time>2026-04-04T13:30:53.001Z</time></trkpt><trkpt lat="45.53762941210491" lon="11.111350918320236"><ele>430.4</ele><time>2026-04-04T13:30:55.001Z</time></trkpt><trkpt lat="45.53761550582255" lon="11.111465312645366"><ele>431.59999999999997</ele><time>2026-04-04T13:30:56.001Z</time></trkpt><trkpt lat="45.53759375092236" lon="11.11157308103039"><ele>432.79999999999995</ele><time>2026-04-04T13:30:57.001Z</time></trkpt><trkpt lat="45.537560372540455" lon="11.111760442977092"><ele>434.0</ele><time>2026-04-04T13:30:59.001Z</time></trkpt><trkpt lat="45.537518236642306" lon="11.111929322790893"><ele>434.2</ele><time>2026-04-04T13:31:01.001Z</time></trkpt><trkpt lat="45.53749780153045" lon="11.112037766095613"><ele>434.4</ele><time>2026-04-04T13:31:02.001Z</time></trkpt><trkpt lat="45.537490138554226" lon="11.11213837242374"><ele>434.6</ele><time>2026-04-04T13:31:03.001Z</time></trkpt><trkpt lat="45.537436798328294" lon="11.1123215568301"><ele>434.8</ele><time>2026-04-04T13:31:05.001Z</time></trkpt><trkpt lat="45.53741201506489" lon="11.11248062039597"><ele>435.0</ele><time>2026-04-04T13:31:07.001Z</time></trkpt><trkpt lat="45.53738104629539" lon="11.112559159425986"><ele>435.0</ele><time>2026-04-04T13:31:08.001Z</time></trkpt><trkpt lat="45.53739127948733" lon="11.112664052591947"><ele>435.0</ele><time>2026-04-04T13:31:09.001Z</time></trkpt><trkpt lat="45.537375912261226" lon="11.11277882734315"><ele>435.0</ele><time>2026-04-04T13:31:11.001Z</time></trkpt><trkpt lat="45.537300379949166" lon="11.112690340228957"><ele>435.0</ele><time>2026-04-04T13:31:14.001Z</time></trkpt><trkpt lat="45.53729363921773" lon="11.112519315032191"><ele>435.0</ele><time>2026-04-04T13:31:16.001Z</time></trkpt><trkpt lat="45.53725167773561" lon="11.112363301869474"><ele>435.0</ele><time>2026-04-04T13:31:18.001Z</time></trkpt><trkpt lat="45.53721832067985" lon="11.112248406159633"><ele>435.0</ele><time>2026-04-04T13:31:19.001Z</time></trkpt><trkpt lat="45.53717754593782" lon="11.112101251944356"><ele>435.0</ele><time>2026-04-04T13:31:21.001Z</time></trkpt><trkpt lat="45.53709828448304" lon="11.111958472449858"><ele>435.0</ele><time>2026-04-04T13:31:23.001Z</time></trkpt><trkpt lat="45.53704299075005" lon="11.111877643438254"><ele>435.0</ele><time>2026-04-04T13:31:24.002Z</time></trkpt><trkpt lat="45.5369882650029" lon="11.111776598794764"><ele>435.0</ele><time>2026-04-04T13:31:25.002Z</time></trkpt><trkpt lat="45.53689691247093" lon="11.11164282085248"><ele>435.0</ele><time>2026-04-04T13:31:27.002Z</time></trkpt><trkpt lat="45.536832622202525" lon="11.111539957116596"><ele>435.0</ele><time>2026-04-04T13:31:28.002Z</time></trkpt><trkpt lat="45.536772736446906" lon="11.111465578326277"><ele>435.0</ele><time>2026-04-04T13:31:29.002Z</time></trkpt><trkpt lat="45.536708264180106" lon="11.111412463883914"><ele>435.0</ele><time>2026-04-04T13:31:30.002Z</time></trkpt><trkpt lat="45.53663467871025" lon="11.111325265580838"><ele>431.6666666666667</ele><time>2026-04-04T13:31:31.002Z</time></trkpt><trkpt lat="45.53655079265804" lon="11.111233089374494"><ele>428.33333333333337</ele><time>2026-04-04T13:31:32.002Z</time></trkpt><trkpt lat="45.53648323845512" lon="11.111176231516486"><ele>425.0</ele><time>2026-04-04T13:31:33.002Z</time></trkpt><trkpt lat="45.53643475017485" lon="11.111118334565472"><ele>421.6666666666667</ele><time>2026-04-04T13:31:34.002Z</time></trkpt><trkpt lat="45.536382668216014" lon="11.11104008476013"><ele>418.33333333333337</ele><time>2026-04-04T13:31:35.002Z</time></trkpt><trkpt lat="45.536318075200356" lon="11.110977860544692"><ele>415.0</ele><time>2026-04-04T13:31:36.002Z</time></trkpt><trkpt lat="45.536251600528864" lon="11.110928223329646"><ele>415.8</ele><time>2026-04-04T13:31:37.002Z</time></trkpt><trkpt lat="45.536129764340494" lon="11.110850460848068"><ele>416.6</ele><time>2026-04-04T13:31:39.002Z</time></trkpt><trkpt lat="45.5360663453089" lon="11.110832032380815"><ele>417.4</ele><time>2026-04-04T13:31:40.002Z</time></trkpt><trkpt lat="45.53598386395244" lon="11.110800561763764"><ele>418.2</ele><time>2026-04-04T13:31:41.002Z</time></trkpt><trkpt lat="45.5359100914657" lon="11.110816191204314"><ele>419.0</ele><time>2026-04-04T13:31:42.002Z</time></trkpt><trkpt lat="45.535789165801994" lon="11.110780861149491"><ele>418.99999999999994</ele><time>2026-04-04T13:31:44.002Z</time></trkpt><trkpt lat="45.535707241314476" lon="11.110729668410128"><ele>419.0</ele><time>2026-04-04T13:31:45.002Z</time></trkpt><trkpt lat="45.53562411501919" lon="11.110718601579709"><ele>419.0</ele><time>2026-04-04T13:31:46.002Z</time></trkpt><trkpt lat="45.535562464592545" lon="11.110758733541456"><ele>419.0</ele><time>2026-04-04T13:31:47.002Z</time></trkpt><trkpt lat="45.53543761413171" lon="11.110815857373838"><ele>418.99999999999994</ele><time>2026-04-04T13:31:49.002Z</time></trkpt><trkpt lat="45.535366158724585" lon="11.110795934586532"><ele>419.0</ele><time>2026-04-04T13:31:50.002Z</time></trkpt><trkpt lat="45.53529073392761" lon="11.11077178402689"><ele>418.4285714285714</ele><time>2026-04-04T13:31:51.002Z</time></trkpt><trkpt lat="45.53523043842226" lon="11.110738860689843"><ele>417.85714285714283</ele><time>2026-04-04T13:31:52.002Z</time></trkpt><trkpt lat="45.53516625060266" lon="11.110715639012913"><ele>417.2857142857143</ele><time>2026-04-04T13:31:53.002Z</time></trkpt><trkpt lat="45.53511051077916" lon="11.110769789464138"><ele>416.71428571428567</ele><time>2026-04-04T13:31:54.002Z</time></trkpt><trkpt lat="45.535030382982626" lon="11.11081967301626"><ele>416.14285714285717</ele><time>2026-04-04T13:31:55.002Z</time></trkpt><trkpt lat="45.53498303486255" lon="11.110895123392385"><ele>415.57142857142856</ele><time>2026-04-04T13:31:56.002Z</time></trkpt><trkpt lat="45.53491793038471" lon="11.110947518047452"><ele>415.0</ele><time>2026-04-04T13:31:57Z</time></trkpt><trkpt lat="45.53484588384951" lon="11.111011848886575"><ele>415.0</ele><time>2026-04-04T13:31:58Z</time></trkpt><trkpt lat="45.534740326013434" lon="11.111107173734876"><ele>415.0</ele><time>2026-04-04T13:31:59Z</time></trkpt><trkpt lat="45.53469005338411" lon="11.111210278893333"><ele>415.0</ele><time>2026-04-04T13:32:00Z</time></trkpt><trkpt lat="45.534646789125595" lon="11.111288507770634"><ele>415.0</ele><time>2026-04-04T13:32:01Z</time></trkpt><trkpt lat="45.53457433597644" lon="11.111405972069486"><ele>415.0</ele><time>2026-04-04T13:32:03Z</time></trkpt><trkpt lat="45.534453676470214" lon="11.111453309045377"><ele>416.4</ele><time>2026-04-04T13:32:05Z</time></trkpt><trkpt lat="45.534363961903324" lon="11.11150832231212"><ele>417.8</ele><time>2026-04-04T13:32:06Z</time></trkpt><trkpt lat="45.53429477829316" lon="11.11157596207447"><ele>419.20000000000005</ele><time>2026-04-04T13:32:08Z</time></trkpt><trkpt lat="45.534357315753205" lon="11.111438465607279"><ele>420.6</ele><time>2026-04-04T13:32:24Z</time></trkpt><trkpt lat="45.534446181589885" lon="11.11132365352383"><ele>422.0</ele><time>2026-04-04T13:32:26Z</time></trkpt><trkpt lat="45.53448583560504" lon="11.11123833404762"><ele>420.8333333333333</ele><time>2026-04-04T13:32:27Z</time></trkpt><trkpt lat="45.534566094206234" lon="11.111172047640471"><ele>419.66666666666663</ele><time>2026-04-04T13:32:29Z</time></trkpt><trkpt lat="45.53462345628089" lon="11.111092012961985"><ele>418.5</ele><time>2026-04-04T13:32:31Z</time></trkpt><trkpt lat="45.53463802503427" lon="11.110985714199042"><ele>417.33333333333337</ele><time>2026-04-04T13:32:32Z</time></trkpt><trkpt lat="45.53466477569096" lon="11.110852018469895"><ele>416.1666666666667</ele><time>2026-04-04T13:32:34Z</time></trkpt><trkpt lat="45.5346032154166" lon="11.110818621393685"><ele>415.0</ele><time>2026-04-04T13:32:37Z</time></trkpt><trkpt lat="45.534553457859126" lon="11.110876146672004"><ele>411.4</ele><time>2026-04-04T13:32:38Z</time></trkpt><trkpt lat="45.53449652767891" lon="11.110939580714145"><ele>407.8</ele><time>2026-04-04T13:32:39Z</time></trkpt><trkpt lat="45.53443085551509" lon="11.110991816372467"><ele>404.20000000000005</ele><time>2026-04-04T13:32:40Z</time></trkpt><trkpt lat="45.53433714896428" lon="11.111074354201302"><ele>400.6</ele><time>2026-04-04T13:32:42.001Z</time></trkpt><trkpt lat="45.53422415135493" lon="11.111141915175102"><ele>397.0</ele><time>2026-04-04T13:32:44.001Z</time></trkpt><trkpt lat="45.53415093517806" lon="11.11114916153197"><ele>397.00000000000006</ele><time>2026-04-04T13:32:45.001Z</time></trkpt><trkpt lat="45.53405805876589" lon="11.111142956486827"><ele>397.0</ele><time>2026-04-04T13:32:47.001Z</time></trkpt><trkpt lat="45.533998730726175" lon="11.111203458063246"><ele>397.0</ele><time>2026-04-04T13:32:49.001Z</time></trkpt><trkpt lat="45.53391512375876" lon="11.111150373312777"><ele>397.0</ele><time>2026-04-04T13:32:52.001Z</time></trkpt><trkpt lat="45.53382663854343" lon="11.111151966103902"><ele>397.00000000000006</ele><time>2026-04-04T13:32:55.001Z</time></trkpt><trkpt lat="45.5337628467039" lon="11.111204171770199"><ele>397.0</ele><time>2026-04-04T13:32:57.001Z</time></trkpt><trkpt lat="45.53368014939532" lon="11.111271473009678"><ele>394.8</ele><time>2026-04-04T13:32:59.001Z</time></trkpt><trkpt lat="45.53364073040739" lon="11.111169054788496"><ele>392.6</ele><time>2026-04-04T13:33:03.001Z</time></trkpt><trkpt lat="45.533600425306496" lon="11.111087815765353"><ele>390.40000000000003</ele><time>2026-04-04T13:33:05.001Z</time></trkpt><trkpt lat="45.533431175696236" lon="11.11112362763344"><ele>388.20000000000005</ele><time>2026-04-04T13:33:16.001Z</time></trkpt><trkpt lat="45.53335977212817" lon="11.11112715084333"><ele>386.0</ele><time>2026-04-04T13:33:18.001Z</time></trkpt><trkpt lat="45.53327195759462" lon="11.111124990611152"><ele>385.99999999999994</ele><time>2026-04-04T13:33:20.001Z</time></trkpt><trkpt lat="45.533187071109545" lon="11.111083427812622"><ele>386.0</ele><time>2026-04-04T13:33:22.001Z</time></trkpt><trkpt lat="45.5331223904207" lon="11.111090132779795"><ele>386.0</ele><time>2026-04-04T13:33:23.001Z</time></trkpt><trkpt lat="45.533055367032915" lon="11.111110984552534"><ele>386.0</ele><time>2026-04-04T13:33:24.001Z</time></trkpt><trkpt lat="45.53297219177683" lon="11.111140196852933"><ele>385.99999999999994</ele><time>2026-04-04T13:33:25.001Z</time></trkpt><trkpt lat="45.5328851933349" lon="11.11118070417861"><ele>386.0</ele><time>2026-04-04T13:33:26.001Z</time></trkpt><trkpt lat="45.53281379861382" lon="11.111216358396048"><ele>385.20000000000005</ele><time>2026-04-04T13:33:27.001Z</time></trkpt><trkpt lat="45.53275599672042" lon="11.111259353191498"><ele>384.40000000000003</ele><time>2026-04-04T13:33:28.001Z</time></trkpt><trkpt lat="45.532678413996074" lon="11.111318355352827"><ele>383.6</ele><time>2026-04-04T13:33:29.001Z</time></trkpt><trkpt lat="45.532573064661676" lon="11.111395270802156"><ele>382.8</ele><time>2026-04-04T13:33:30.001Z</time></trkpt><trkpt lat="45.53249317557542" lon="11.11142443581404"><ele>382.0</ele><time>2026-04-04T13:33:31.001Z</time></trkpt><trkpt lat="45.53239544748386" lon="11.111492512328264"><ele>382.0</ele><time>2026-04-04T13:33:33.001Z</time></trkpt><trkpt lat="45.53231288323563" lon="11.1114903266847"><ele>382.0</ele><time>2026-04-04T13:33:38.001Z</time></trkpt><trkpt lat="45.532221491378884" lon="11.111485232182053"><ele>382.0</ele><time>2026-04-04T13:33:40.001Z</time></trkpt><trkpt lat="45.53215252173217" lon="11.111573769114559"><ele>382.0</ele><time>2026-04-04T13:33:46.001Z</time></trkpt><trkpt lat="45.532110546701695" lon="11.11166827577957"><ele>382.0</ele><time>2026-04-04T13:33:47.001Z</time></trkpt><trkpt lat="45.53206789660257" lon="11.111736649172917"><ele>382.0</ele><time>2026-04-04T13:33:48.002Z</time></trkpt><trkpt lat="45.53201466519145" lon="11.111813830481418"><ele>382.0</ele><time>2026-04-04T13:33:49.002Z</time></trkpt><trkpt lat="45.532095650853925" lon="11.111699627829926"><ele>382.0</ele><time>2026-04-04T13:34:24Z</time></trkpt><trkpt lat="45.53215781950503" lon="11.111580368485264"><ele>382.0</ele><time>2026-04-04T13:34:26Z</time></trkpt><trkpt lat="45.53214601663011" lon="11.11149205552672"><ele>382.0</ele><time>2026-04-04T13:34:29Z</time></trkpt><trkpt lat="45.53208296198438" lon="11.111482557486964"><ele>382.0</ele><time>2026-04-04T13:34:32Z</time></trkpt><trkpt lat="45.53201675247615" lon="11.111452806398507"><ele>382.0</ele><time>2026-04-04T13:34:34Z</time></trkpt><trkpt lat="45.53198931293291" lon="11.111364508260326"><ele>379.8333333333333</ele><time>2026-04-04T13:34:37Z</time></trkpt><trkpt lat="45.53192305822378" lon="11.111352760168622"><ele>377.66666666666663</ele><time>2026-04-04T13:34:45Z</time></trkpt><trkpt lat="45.53189108021779" lon="11.11123369060349"><ele>375.5</ele><time>2026-04-04T13:34:52Z</time></trkpt><trkpt lat="45.5318436448837" lon="11.111158086883648"><ele>373.3333333333333</ele><time>2026-04-04T13:34:54Z</time></trkpt><trkpt lat="45.53176650478923" lon="11.111100337638407"><ele>371.1666666666667</ele><time>2026-04-04T13:34:58Z</time></trkpt><trkpt lat="45.53168532000543" lon="11.111115895962776"><ele>369.0</ele><time>2026-04-04T13:35:01.001Z</time></trkpt><trkpt lat="45.5315899466613" lon="11.111158109443089"><ele>369.0</ele><time>2026-04-04T13:35:04.001Z</time></trkpt><trkpt lat="45.531496197452725" lon="11.111203115399704"><ele>369.0</ele><time>2026-04-04T13:35:06.001Z</time></trkpt><trkpt lat="45.531404758721685" lon="11.111190714960136"><ele>369.0</ele><time>2026-04-04T13:35:07.001Z</time></trkpt><trkpt lat="45.531310285525805" lon="11.111182583713623"><ele>369.0</ele><time>2026-04-04T13:35:10.001Z</time></trkpt><trkpt lat="45.53125057029087" lon="11.111271314578469"><ele>369.0</ele><time>2026-04-04T13:35:13.001Z</time></trkpt><trkpt lat="45.53119631091069" lon="11.111446778650418"><ele>370.8333333333333</ele><time>2026-04-04T13:35:15.001Z</time></trkpt><trkpt lat="45.53120038382006" lon="11.11155364282479"><ele>372.6666666666667</ele><time>2026-04-04T13:35:17.001Z</time></trkpt><trkpt lat="45.53124023354104" lon="11.111631345220513"><ele>374.5</ele><time>2026-04-04T13:35:19.001Z</time></trkpt><trkpt lat="45.531195486029766" lon="11.11172385220348"><ele>376.33333333333337</ele><time>2026-04-04T13:35:21.001Z</time></trkpt><trkpt lat="45.53119234165989" lon="11.111814505319371"><ele>378.1666666666667</ele><time>2026-04-04T13:35:23.001Z</time></trkpt><trkpt lat="45.53120072019705" lon="11.111960528189341"><ele>380.0</ele><time>2026-04-04T13:35:25.001Z</time></trkpt><trkpt lat="45.53117334201471" lon="11.11207774352432"><ele>375.5</ele><time>2026-04-04T13:35:27.001Z</time></trkpt><trkpt lat="45.531171486755355" lon="11.112193166676219"><ele>371.0</ele><time>2026-04-04T13:35:30.001Z</time></trkpt><trkpt lat="45.531103897768645" lon="11.11220886378648"><ele>366.5</ele><time>2026-04-04T13:35:34.001Z</time></trkpt><trkpt lat="45.53103074035504" lon="11.112168980611413"><ele>362.0</ele><time>2026-04-04T13:35:36.001Z</time></trkpt><trkpt lat="45.530942642303145" lon="11.112165567185835"><ele>357.5</ele><time>2026-04-04T13:35:38.001Z</time></trkpt><trkpt lat="45.53084871328884" lon="11.112162430490773"><ele>353.0</ele><time>2026-04-04T13:35:40.001Z</time></trkpt><trkpt lat="45.53075311910796" lon="11.112133996057288"><ele>353.0</ele><time>2026-04-04T13:35:42.001Z</time></trkpt><trkpt lat="45.530679881438374" lon="11.112170855674998"><ele>353.0</ele><time>2026-04-04T13:35:43.001Z</time></trkpt><trkpt lat="45.53059169001317" lon="11.112156226996738"><ele>353.0</ele><time>2026-04-04T13:35:44.001Z</time></trkpt><trkpt lat="45.53049815265385" lon="11.112078023581933"><ele>353.0</ele><time>2026-04-04T13:35:46.001Z</time></trkpt><trkpt lat="45.53043370737046" lon="11.112025972537072"><ele>353.0</ele><time>2026-04-04T13:35:47.001Z</time></trkpt><trkpt lat="45.53036652810766" lon="11.112031280839515"><ele>353.0</ele><time>2026-04-04T13:35:48.001Z</time></trkpt><trkpt lat="45.53029819909054" lon="11.112018820797877"><ele>351.59999999999997</ele><time>2026-04-04T13:35:49.001Z</time></trkpt><trkpt lat="45.53016691022904" lon="11.111982507690954"><ele>350.2</ele><time>2026-04-04T13:35:51.001Z</time></trkpt><trkpt lat="45.53008699364991" lon="11.111965486459152"><ele>348.8</ele><time>2026-04-04T13:35:52.001Z</time></trkpt><trkpt lat="45.529965867100174" lon="11.111966265166748"><ele>347.4</ele><time>2026-04-04T13:35:54.001Z</time></trkpt><trkpt lat="45.52986320489792" lon="11.111960504556034"><ele>346.0</ele><time>2026-04-04T13:35:56.001Z</time></trkpt><trkpt lat="45.529806582402365" lon="11.11200111503477"><ele>346.0</ele><time>2026-04-04T13:35:57.001Z</time></trkpt><trkpt lat="45.52973841566398" lon="11.112072519693887"><ele>346.0</ele><time>2026-04-04T13:35:59.001Z</time></trkpt><trkpt lat="45.52969173783313" lon="11.112148282617147"><ele>346.0</ele><time>2026-04-04T13:36:00.001Z</time></trkpt><trkpt lat="45.529648534602956" lon="11.112242041674106"><ele>346.0</ele><time>2026-04-04T13:36:01.001Z</time></trkpt><trkpt lat="45.52960180154334" lon="11.11232500283822"><ele>346.0</ele><time>2026-04-04T13:36:02.001Z</time></trkpt><trkpt lat="45.529554325399815" lon="11.112387287279898"><ele>346.0</ele><time>2026-04-04T13:36:03.001Z</time></trkpt><trkpt lat="45.52949075038819" lon="11.112491082222654"><ele>346.66666666666663</ele><time>2026-04-04T13:36:05.002Z</time></trkpt><trkpt lat="45.529426085972744" lon="11.112568915151495"><ele>347.3333333333333</ele><time>2026-04-04T13:36:07.002Z</time></trkpt><trkpt lat="45.529350267202986" lon="11.112649453228542"><ele>348.0</ele><time>2026-04-04T13:36:08.999Z</time></trkpt><trkpt lat="45.52929013552521" lon="11.112713856356075"><ele>348.6666666666667</ele><time>2026-04-04T13:36:09.999Z</time></trkpt><trkpt lat="45.52921564559108" lon="11.1127855363483"><ele>349.33333333333337</ele><time>2026-04-04T13:36:11.999Z</time></trkpt><trkpt lat="45.52914549343574" lon="11.112818461102718"><ele>350.0</ele><time>2026-04-04T13:36:13.999Z</time></trkpt><trkpt lat="45.52908003308225" lon="11.112864896857984"><ele>350.0</ele><time>2026-04-04T13:36:16.999Z</time></trkpt><trkpt lat="45.52899844880717" lon="11.112929526415073"><ele>350.0</ele><time>2026-04-04T13:36:18.999Z</time></trkpt><trkpt lat="45.52893578808737" lon="11.113010591882391"><ele>350.0</ele><time>2026-04-04T13:36:22.999Z</time></trkpt><trkpt lat="45.52889574907469" lon="11.113103678537376"><ele>350.0</ele><time>2026-04-04T13:36:24.999Z</time></trkpt><trkpt lat="45.52884047205339" lon="11.113218170576452"><ele>350.0</ele><time>2026-04-04T13:36:27Z</time></trkpt><trkpt lat="45.52876223274712" lon="11.113327532830922"><ele>347.2</ele><time>2026-04-04T13:36:29Z</time></trkpt><trkpt lat="45.528691692903614" lon="11.113424994527936"><ele>344.4</ele><time>2026-04-04T13:36:32Z</time></trkpt><trkpt lat="45.528622269549594" lon="11.113524484262083"><ele>341.6</ele><time>2026-04-04T13:36:34Z</time></trkpt><trkpt lat="45.528582476881915" lon="11.113652621484292"><ele>338.8</ele><time>2026-04-04T13:36:36Z</time></trkpt><trkpt lat="45.52855143527176" lon="11.11373911146273"><ele>336.0</ele><time>2026-04-04T13:36:37Z</time></trkpt><trkpt lat="45.528502381593604" lon="11.113841233674169"><ele>336.0</ele><time>2026-04-04T13:36:38Z</time></trkpt><trkpt lat="45.52846218591862" lon="11.113924690007895"><ele>336.0</ele><time>2026-04-04T13:36:39Z</time></trkpt><trkpt lat="45.52839722854746" lon="11.11402005042258"><ele>336.0</ele><time>2026-04-04T13:36:41Z</time></trkpt><trkpt lat="45.52829382770908" lon="11.114101595691585"><ele>336.0</ele><time>2026-04-04T13:36:43Z</time></trkpt><trkpt lat="45.52821431680687" lon="11.114195148000247"><ele>336.0</ele><time>2026-04-04T13:36:45Z</time></trkpt><trkpt lat="45.52817934162151" lon="11.1142802500259"><ele>338.2857142857143</ele><time>2026-04-04T13:36:46Z</time></trkpt><trkpt lat="45.52813148324585" lon="11.114368250127715"><ele>340.57142857142856</ele><time>2026-04-04T13:36:47Z</time></trkpt><trkpt lat="45.52809120587303" lon="11.114444218775406"><ele>342.8571428571429</ele><time>2026-04-04T13:36:49Z</time></trkpt><trkpt lat="45.52806584333067" lon="11.11453585753681"><ele>345.1428571428571</ele><time>2026-04-04T13:37:29.001Z</time></trkpt><trkpt lat="45.528059180904435" lon="11.114635414472632"><ele>347.42857142857144</ele><time>2026-04-04T13:37:37.001Z</time></trkpt><trkpt lat="45.528081099399" lon="11.114728849051243"><ele>349.7142857142857</ele><time>2026-04-04T13:37:43.001Z</time></trkpt><trkpt lat="45.52809522954829" lon="11.114824196048296"><ele>352.0</ele><time>2026-04-04T13:37:48.001Z</time></trkpt><trkpt lat="45.52810298597275" lon="11.114935150574881"><ele>355.8</ele><time>2026-04-04T13:38:53Z</time></trkpt><trkpt lat="45.52810507347782" lon="11.115053977634448"><ele>359.6</ele><time>2026-04-04T13:39:11.001Z</time></trkpt><trkpt lat="45.52804807755767" lon="11.11509237939864"><ele>363.40000000000003</ele><time>2026-04-04T13:39:36.001Z</time></trkpt><trkpt lat="45.527978809670785" lon="11.115150618689395"><ele>367.20000000000005</ele><time>2026-04-04T13:42:01.002Z</time></trkpt><trkpt lat="45.52801560718984" lon="11.115427229447285"><ele>371.0</ele><time>2026-04-04T13:42:12.002Z</time></trkpt><trkpt lat="45.527948186961645" lon="11.115491992429606"><ele>371.0</ele><time>2026-04-04T13:42:13.002Z</time></trkpt><trkpt lat="45.52789571452483" lon="11.115549439891385"><ele>371.0</ele><time>2026-04-04T13:42:14.002Z</time></trkpt><trkpt lat="45.5277915140271" lon="11.115609747315872"><ele>371.0</ele><time>2026-04-04T13:42:17.002Z</time></trkpt><trkpt lat="45.527691215953894" lon="11.115735831453433"><ele>371.0</ele><time>2026-04-04T13:42:19.002Z</time></trkpt><trkpt lat="45.527637425616696" lon="11.115822752068157"><ele>371.0</ele><time>2026-04-04T13:42:20.002Z</time></trkpt><trkpt lat="45.52755199217726" lon="11.115860745088677"><ele>371.4</ele><time>2026-04-04T13:42:21.002Z</time></trkpt><trkpt lat="45.527493400173505" lon="11.115991067675964"><ele>371.8</ele><time>2026-04-04T13:42:23.002Z</time></trkpt><trkpt lat="45.52737401178486" lon="11.116078715841768"><ele>372.2</ele><time>2026-04-04T13:42:25.002Z</time></trkpt><trkpt lat="45.52729551353764" lon="11.116132191810319"><ele>372.59999999999997</ele><time>2026-04-04T13:42:26.002Z</time></trkpt><trkpt lat="45.527189835778785" lon="11.116193847392204"><ele>373.0</ele><time>2026-04-04T13:42:28.001Z</time></trkpt><trkpt lat="45.52713821393367" lon="11.116279419679353"><ele>373.0</ele><time>2026-04-04T13:42:29.001Z</time></trkpt><trkpt lat="45.527112742574516" lon="11.116384703527281"><ele>373.0</ele><time>2026-04-04T13:42:30.001Z</time></trkpt><trkpt lat="45.52704761673779" lon="11.11645063979821"><ele>373.0</ele><time>2026-04-04T13:42:31.001Z</time></trkpt><trkpt lat="45.52698798000351" lon="11.116502472464292"><ele>373.0</ele><time>2026-04-04T13:42:39.001Z</time></trkpt><trkpt lat="45.526930524360715" lon="11.116570294293698"><ele>373.0</ele><time>2026-04-04T13:42:41.001Z</time></trkpt><trkpt lat="45.52682785119255" lon="11.116648755900442"><ele>373.0</ele><time>2026-04-04T13:42:43.001Z</time></trkpt><trkpt lat="45.52676618701109" lon="11.116689848120128"><ele>372.8333333333333</ele><time>2026-04-04T13:42:44.001Z</time></trkpt><trkpt lat="45.52666334499378" lon="11.116745176867623"><ele>372.66666666666663</ele><time>2026-04-04T13:42:46.001Z</time></trkpt><trkpt lat="45.52660787709432" lon="11.116803954865903"><ele>372.5</ele><time>2026-04-04T13:42:47.001Z</time></trkpt><trkpt lat="45.52655311760939" lon="11.116876443376336"><ele>372.3333333333333</ele><time>2026-04-04T13:42:48.001Z</time></trkpt><trkpt lat="45.52647645660245" lon="11.116941014725635"><ele>372.1666666666667</ele><time>2026-04-04T13:42:49.001Z</time></trkpt><trkpt lat="45.526395856810694" lon="11.116988780132647"><ele>372.0</ele><time>2026-04-04T13:42:50.001Z</time></trkpt><trkpt lat="45.52633619198673" lon="11.117077734062738"><ele>372.0</ele><time>2026-04-04T13:42:51.001Z</time></trkpt><trkpt lat="45.52630108643684" lon="11.117179029474492"><ele>372.0</ele><time>2026-04-04T13:42:52.001Z</time></trkpt><trkpt lat="45.52624577171775" lon="11.117275141066527"><ele>372.0</ele><time>2026-04-04T13:42:53.001Z</time></trkpt><trkpt lat="45.52617916221945" lon="11.117347115203472"><ele>372.0</ele><time>2026-04-04T13:42:54.001Z</time></trkpt><trkpt lat="45.52608822469769" lon="11.117448000075665"><ele>372.0</ele><time>2026-04-04T13:42:56.001Z</time></trkpt><trkpt lat="45.52598826763333" lon="11.117538562954412"><ele>370.0</ele><time>2026-04-04T13:42:58.001Z</time></trkpt><trkpt lat="45.525953804141054" lon="11.117623475510205"><ele>368.0</ele><time>2026-04-04T13:42:59.001Z</time></trkpt><trkpt lat="45.52590963979449" lon="11.117757877442441"><ele>366.0</ele><time>2026-04-04T13:43:00.001Z</time></trkpt><trkpt lat="45.52584481247287" lon="11.117892681646042"><ele>364.0</ele><time>2026-04-04T13:43:01.001Z</time></trkpt><trkpt lat="45.52579587894401" lon="11.117998249305629"><ele>362.0</ele><time>2026-04-04T13:43:02.001Z</time></trkpt><trkpt lat="45.525753870843765" lon="11.118093618455157"><ele>362.0</ele><time>2026-04-04T13:43:03.001Z</time></trkpt><trkpt lat="45.52573018292099" lon="11.118183664460053"><ele>362.0</ele><time>2026-04-04T13:43:04.001Z</time></trkpt><trkpt lat="45.525695889292216" lon="11.11827462352538"><ele>362.0</ele><time>2026-04-04T13:43:05.001Z</time></trkpt><trkpt lat="45.52564639264869" lon="11.118355733308798"><ele>362.0</ele><time>2026-04-04T13:43:06.001Z</time></trkpt><trkpt lat="45.52560739918022" lon="11.118492555246418"><ele>362.0</ele><time>2026-04-04T13:43:08.001Z</time></trkpt><trkpt lat="45.52560115877521" lon="11.11865262921201"><ele>362.0</ele><time>2026-04-04T13:43:10.001Z</time></trkpt><trkpt lat="45.525629926154586" lon="11.118759288721826"><ele>365.6</ele><time>2026-04-04T13:43:13.001Z</time></trkpt><trkpt lat="45.5257152041823" lon="11.11875013129995"><ele>369.20000000000005</ele><time>2026-04-04T13:43:24.001Z</time></trkpt><trkpt lat="45.52577209729949" lon="11.118701308644471"><ele>372.8</ele><time>2026-04-04T13:43:26.001Z</time></trkpt><trkpt lat="45.52586209066096" lon="11.118633878641788"><ele>376.4</ele><time>2026-04-04T13:43:28.001Z</time></trkpt><trkpt lat="45.52588962365299" lon="11.11875078984012"><ele>380.0</ele><time>2026-04-04T13:43:32.001Z</time></trkpt><trkpt lat="45.52592853363823" lon="11.11889945849608"><ele>380.0</ele><time>2026-04-04T13:43:35.001Z</time></trkpt><trkpt lat="45.525987044194245" lon="11.118837813984296"><ele>380.0</ele><time>2026-04-04T13:43:37.001Z</time></trkpt><trkpt lat="45.52601999912502" lon="11.118696777648767"><ele>380.0</ele><time>2026-04-04T13:43:39.001Z</time></trkpt><trkpt lat="45.52612419825412" lon="11.118760422808485"><ele>380.0</ele><time>2026-04-04T13:43:42.001Z</time></trkpt><trkpt lat="45.52620564246673" lon="11.118757363202814"><ele>380.0</ele><time>2026-04-04T13:43:44.001Z</time></trkpt><trkpt lat="45.526243729600175" lon="11.118668083903065"><ele>380.0</ele><time>2026-04-04T13:43:46.001Z</time></trkpt><trkpt lat="45.52637759590875" lon="11.118583005978632"><ele>384.4</ele><time>2026-04-04T13:43:48.001Z</time></trkpt><trkpt lat="45.526428851524805" lon="11.118508729677808"><ele>388.8</ele><time>2026-04-04T13:43:49.001Z</time></trkpt><trkpt lat="45.52653383546189" lon="11.118460677284082"><ele>393.20000000000005</ele><time>2026-04-04T13:43:52.001Z</time></trkpt><trkpt lat="45.52659196036179" lon="11.118516023269432"><ele>397.6</ele><time>2026-04-04T13:43:54.002Z</time></trkpt><trkpt lat="45.52657810194907" lon="11.11867106905794"><ele>402.0</ele><time>2026-04-04T13:43:56.002Z</time></trkpt><trkpt lat="45.52656702237232" lon="11.11882779103229"><ele>402.0</ele><time>2026-04-04T13:43:58.002Z</time></trkpt><trkpt lat="45.52657804135136" lon="11.118929317662317"><ele>402.0</ele><time>2026-04-04T13:44:00.002Z</time></trkpt><trkpt lat="45.52659863419021" lon="11.119014342839648"><ele>402.0</ele><time>2026-04-04T13:44:02.002Z</time></trkpt><trkpt lat="45.52668206122383" lon="11.119066054880443"><ele>402.0</ele><time>2026-04-04T13:44:10.002Z</time></trkpt><trkpt lat="45.526749710289806" lon="11.119074095243896"><ele>402.0</ele><time>2026-04-04T13:44:11.002Z</time></trkpt><trkpt lat="45.526832463555394" lon="11.119045637776578"><ele>402.0</ele><time>2026-04-04T13:44:13.002Z</time></trkpt><trkpt lat="45.52692057679654" lon="11.119041953717721"><ele>402.0</ele><time>2026-04-04T13:44:16.002Z</time></trkpt><trkpt lat="45.52698396863976" lon="11.11904749858977"><ele>402.0</ele><time>2026-04-04T13:44:20.002Z</time></trkpt><trkpt lat="45.527057907911605" lon="11.118962375949872"><ele>402.0</ele><time>2026-04-04T13:44:22.002Z</time></trkpt><trkpt lat="45.52713870541279" lon="11.118902285732874"><ele>402.0</ele><time>2026-04-04T13:44:24.002Z</time></trkpt><trkpt lat="45.52719526918995" lon="11.11894807822096"><ele>402.0</ele><time>2026-04-04T13:44:33Z</time></trkpt><trkpt lat="45.52723585980278" lon="11.119028593548043"><ele>402.0</ele><time>2026-04-04T13:44:47Z</time></trkpt><trkpt lat="45.52718101943437" lon="11.119187511851301"><ele>403.0</ele><time>2026-04-04T13:44:49Z</time></trkpt><trkpt lat="45.52712992135772" lon="11.119271118672085"><ele>404.0</ele><time>2026-04-04T13:44:50Z</time></trkpt><trkpt lat="45.52709604693599" lon="11.119366027432694"><ele>405.0</ele><time>2026-04-04T13:44:51Z</time></trkpt><trkpt lat="45.52707424940218" lon="11.119482811580266"><ele>406.0</ele><time>2026-04-04T13:44:52Z</time></trkpt><trkpt lat="45.52704444233894" lon="11.119628994081603"><ele>407.0</ele><time>2026-04-04T13:44:53Z</time></trkpt><trkpt lat="45.52703199922056" lon="11.11976759973294"><ele>408.0</ele><time>2026-04-04T13:44:54Z</time></trkpt><trkpt lat="45.52701974047231" lon="11.119884337024512"><ele>407.5</ele><time>2026-04-04T13:44:55Z</time></trkpt><trkpt lat="45.52702084686735" lon="11.120014878134237"><ele>407.0</ele><time>2026-04-04T13:44:56Z</time></trkpt><trkpt lat="45.52702073229302" lon="11.120132028070316"><ele>406.5</ele><time>2026-04-04T13:44:57Z</time></trkpt><trkpt lat="45.52703034736211" lon="11.120239832530748"><ele>406.0</ele><time>2026-04-04T13:44:58Z</time></trkpt><trkpt lat="45.52706380447281" lon="11.120363758565505"><ele>405.5</ele><time>2026-04-04T13:44:59Z</time></trkpt><trkpt lat="45.52710626262532" lon="11.120483243508836"><ele>405.0</ele><time>2026-04-04T13:45:00Z</time></trkpt><trkpt lat="45.52716278003535" lon="11.120622206170907"><ele>409.0</ele><time>2026-04-04T13:45:01Z</time></trkpt><trkpt lat="45.52721469606842" lon="11.120751073851054"><ele>413.0</ele><time>2026-04-04T13:45:02Z</time></trkpt><trkpt lat="45.52726302349428" lon="11.12087746836087"><ele>417.0</ele><time>2026-04-04T13:45:03Z</time></trkpt><trkpt lat="45.52731505210706" lon="11.120995791766157"><ele>421.0</ele><time>2026-04-04T13:45:04Z</time></trkpt><trkpt lat="45.52736889788105" lon="11.121113184813332"><ele>425.0</ele><time>2026-04-04T13:45:05Z</time></trkpt><trkpt lat="45.52741405848651" lon="11.121205131441126"><ele>425.0</ele><time>2026-04-04T13:45:06Z</time></trkpt><trkpt lat="45.52746324476598" lon="11.121316928293636"><ele>425.0</ele><time>2026-04-04T13:45:07Z</time></trkpt><trkpt lat="45.52753699890417" lon="11.121431821680204"><ele>425.0</ele><time>2026-04-04T13:45:08Z</time></trkpt><trkpt lat="45.52761140494641" lon="11.121559909468981"><ele>425.0</ele><time>2026-04-04T13:45:09Z</time></trkpt><trkpt lat="45.52769731806143" lon="11.12162601395906"><ele>425.0</ele><time>2026-04-04T13:45:10Z</time></trkpt><trkpt lat="45.52779141197631" lon="11.121704487120306"><ele>426.8</ele><time>2026-04-04T13:45:11Z</time></trkpt><trkpt lat="45.52787530818101" lon="11.121778749964623"><ele>428.6</ele><time>2026-04-04T13:45:12Z</time></trkpt><trkpt lat="45.52794185538924" lon="11.12188468642948"><ele>430.4</ele><time>2026-04-04T13:45:13Z</time></trkpt><trkpt lat="45.52801127975431" lon="11.122029058206355"><ele>432.2</ele><time>2026-04-04T13:45:14Z</time></trkpt><trkpt lat="45.52805013891309" lon="11.122150876478733"><ele>434.0</ele><time>2026-04-04T13:45:15Z</time></trkpt><trkpt lat="45.528137469792256" lon="11.122251447792566"><ele>433.99999999999994</ele><time>2026-04-04T13:45:16Z</time></trkpt><trkpt lat="45.5282080688829" lon="11.122360517668445"><ele>434.0</ele><time>2026-04-04T13:45:17Z</time></trkpt><trkpt lat="45.52825901965447" lon="11.12247167571885"><ele>434.0</ele><time>2026-04-04T13:45:18Z</time></trkpt><trkpt lat="45.52829096074803" lon="11.122565943475013"><ele>434.0</ele><time>2026-04-04T13:45:19Z</time></trkpt><trkpt lat="45.52835451923591" lon="11.122655355733595"><ele>433.99999999999994</ele><time>2026-04-04T13:45:20Z</time></trkpt><trkpt lat="45.528419970701776" lon="11.122702903135515"><ele>434.0</ele><time>2026-04-04T13:45:21Z</time></trkpt><trkpt lat="45.52848029316106" lon="11.122784422450028"><ele>436.0</ele><time>2026-04-04T13:45:22Z</time></trkpt><trkpt lat="45.52852480616283" lon="11.122854046323052"><ele>438.0</ele><time>2026-04-04T13:45:23Z</time></trkpt><trkpt lat="45.52860929924384" lon="11.122949064565619"><ele>440.0</ele><time>2026-04-04T13:45:24Z</time></trkpt><trkpt lat="45.52867519910107" lon="11.123047512298042"><ele>442.0</ele><time>2026-04-04T13:45:25Z</time></trkpt><trkpt lat="45.528726931392306" lon="11.123170084231852"><ele>444.0</ele><time>2026-04-04T13:45:26Z</time></trkpt><trkpt lat="45.52878131635842" lon="11.123275639366533"><ele>440.6666666666667</ele><time>2026-04-04T13:45:27Z</time></trkpt><trkpt lat="45.52882593820912" lon="11.123343891362397"><ele>437.33333333333337</ele><time>2026-04-04T13:45:28.001Z</time></trkpt><trkpt lat="45.52885257514635" lon="11.123467907416941"><ele>434.0</ele><time>2026-04-04T13:45:30.001Z</time></trkpt><trkpt lat="45.52881173145768" lon="11.123537083917492"><ele>430.6666666666667</ele><time>2026-04-04T13:45:31.001Z</time></trkpt><trkpt lat="45.528760882767465" lon="11.123633747937765"><ele>427.33333333333337</ele><time>2026-04-04T13:45:32.001Z</time></trkpt><trkpt lat="45.528659480848155" lon="11.12372263655414"><ele>424.0</ele><time>2026-04-04T13:45:34.001Z</time></trkpt><trkpt lat="45.52859402673602" lon="11.123723237508717"><ele>421.83333333333337</ele><time>2026-04-04T13:45:35.001Z</time></trkpt><trkpt lat="45.528514925830365" lon="11.123731809238194"><ele>419.6666666666667</ele><time>2026-04-04T13:45:36.001Z</time></trkpt><trkpt lat="45.52842856458994" lon="11.123721157404542"><ele>417.5</ele><time>2026-04-04T13:45:37.001Z</time></trkpt><trkpt lat="45.52834486735309" lon="11.123681493348982"><ele>415.33333333333337</ele><time>2026-04-04T13:45:38.001Z</time></trkpt><trkpt lat="45.52828048629199" lon="11.123670313339753"><ele>413.1666666666667</ele><time>2026-04-04T13:45:39.001Z</time></trkpt><trkpt lat="45.528217045321895" lon="11.123681874001171"><ele>411.0</ele><time>2026-04-04T13:45:40.001Z</time></trkpt><trkpt lat="45.5281588612304" lon="11.123746980603448"><ele>411.0</ele><time>2026-04-04T13:45:41.001Z</time></trkpt><trkpt lat="45.52808995542859" lon="11.123764006924937"><ele>411.0</ele><time>2026-04-04T13:45:42.001Z</time></trkpt><trkpt lat="45.52800240720814" lon="11.123750403730762"><ele>411.0</ele><time>2026-04-04T13:45:43.001Z</time></trkpt><trkpt lat="45.52793071384611" lon="11.123713871879911"><ele>411.0</ele><time>2026-04-04T13:45:44.001Z</time></trkpt><trkpt lat="45.527860376439996" lon="11.123681954430968"><ele>411.0</ele><time>2026-04-04T13:45:45.001Z</time></trkpt><trkpt lat="45.52775610744049" lon="11.12363876138046"><ele>411.0</ele><time>2026-04-04T13:45:46.001Z</time></trkpt><trkpt lat="45.527652510557715" lon="11.123570641038635"><ele>410.8</ele><time>2026-04-04T13:45:47.001Z</time></trkpt><trkpt lat="45.52757160472029" lon="11.123516802103984"><ele>410.6</ele><time>2026-04-04T13:45:48.001Z</time></trkpt><trkpt lat="45.5274849417457" lon="11.123468997494545"><ele>410.4</ele><time>2026-04-04T13:45:49.001Z</time></trkpt><trkpt lat="45.527388948113725" lon="11.123440245550302"><ele>410.2</ele><time>2026-04-04T13:45:50.001Z</time></trkpt><trkpt lat="45.52729111075037" lon="11.12342672275385"><ele>410.0</ele><time>2026-04-04T13:45:51.001Z</time></trkpt><trkpt lat="45.52719161552654" lon="11.123393530950162"><ele>409.99999999999994</ele><time>2026-04-04T13:45:52.001Z</time></trkpt><trkpt lat="45.52710837204906" lon="11.123355706474047"><ele>410.0</ele><time>2026-04-04T13:45:53.001Z</time></trkpt><trkpt lat="45.52701487236965" lon="11.12331184148305"><ele>410.0</ele><time>2026-04-04T13:45:54.001Z</time></trkpt><trkpt lat="45.52693303590627" lon="11.123269046380667"><ele>410.0</ele><time>2026-04-04T13:45:55.001Z</time></trkpt><trkpt lat="45.52684910747153" lon="11.123286499509279"><ele>409.99999999999994</ele><time>2026-04-04T13:46:01.001Z</time></trkpt><trkpt lat="45.52677614103687" lon="11.123303296212914"><ele>410.0</ele><time>2026-04-04T13:46:02.001Z</time></trkpt><trkpt lat="45.526689240449635" lon="11.123317871899108"><ele>411.49999999999994</ele><time>2026-04-04T13:46:03.001Z</time></trkpt><trkpt lat="45.52660601610693" lon="11.12334098079755"><ele>413.0</ele><time>2026-04-04T13:46:04.001Z</time></trkpt><trkpt lat="45.526528781573724" lon="11.123365092185296"><ele>414.5</ele><time>2026-04-04T13:46:05.001Z</time></trkpt><trkpt lat="45.52646761928847" lon="11.123424021711307"><ele>416.0</ele><time>2026-04-04T13:46:07.001Z</time></trkpt><trkpt lat="45.526454004661886" lon="11.123532544524034"><ele>417.49999999999994</ele><time>2026-04-04T13:46:09.001Z</time></trkpt><trkpt lat="45.526493051488366" lon="11.123672278439736"><ele>419.0</ele><time>2026-04-04T13:46:11.001Z</time></trkpt><trkpt lat="45.52651120478677" lon="11.1238460481459"><ele>418.99999999999994</ele><time>2026-04-04T13:46:13.001Z</time></trkpt><trkpt lat="45.52651608944439" lon="11.123954293716581"><ele>419.0</ele><time>2026-04-04T13:46:14.001Z</time></trkpt><trkpt lat="45.52653138468171" lon="11.124078230916457"><ele>419.0</ele><time>2026-04-04T13:46:15.001Z</time></trkpt><trkpt lat="45.52656015051999" lon="11.124184754451067"><ele>419.0</ele><time>2026-04-04T13:46:16.002Z</time></trkpt><trkpt lat="45.526597827381806" lon="11.124281967395007"><ele>418.99999999999994</ele><time>2026-04-04T13:46:17.001Z</time></trkpt><trkpt lat="45.526633453636265" lon="11.124362443343788"><ele>419.0</ele><time>2026-04-04T13:46:18.001Z</time></trkpt><trkpt lat="45.52666393507386" lon="11.124452665749436"><ele>422.79999999999995</ele><time>2026-04-04T13:46:19.001Z</time></trkpt><trkpt lat="45.52670786986154" lon="11.12460905434745"><ele>426.59999999999997</ele><time>2026-04-04T13:46:21.001Z</time></trkpt><trkpt lat="45.52671301510943" lon="11.124784770258367"><ele>430.4</ele><time>2026-04-04T13:46:23.002Z</time></trkpt><trkpt lat="45.5266876609054" lon="11.12489561765686"><ele>434.2</ele><time>2026-04-04T13:46:24.002Z</time></trkpt><trkpt lat="45.52665731638656" lon="11.125023470820798"><ele>438.0</ele><time>2026-04-04T13:46:25.002Z</time></trkpt><trkpt lat="45.52661287084653" lon="11.125172045611372"><ele>441.2</ele><time>2026-04-04T13:46:26.002Z</time></trkpt><trkpt lat="45.52655815548699" lon="11.1253264150726"><ele>444.4</ele><time>2026-04-04T13:46:27.002Z</time></trkpt><trkpt lat="45.52650252975261" lon="11.125475755668624"><ele>447.59999999999997</ele><time>2026-04-04T13:46:28.002Z</time></trkpt><trkpt lat="45.52646372244047" lon="11.125600368396338"><ele>450.79999999999995</ele><time>2026-04-04T13:46:29.002Z</time></trkpt><trkpt lat="45.52642741557241" lon="11.125730012731264"><ele>454.0</ele><time>2026-04-04T13:46:30.002Z</time></trkpt><trkpt lat="45.52640235858535" lon="11.125838228424529"><ele>456.4</ele><time>2026-04-04T13:46:31.002Z</time></trkpt><trkpt lat="45.52640574497605" lon="11.12595111583728"><ele>458.79999999999995</ele><time>2026-04-04T13:46:32.002Z</time></trkpt><trkpt lat="45.52642310950584" lon="11.126090008254213"><ele>461.20000000000005</ele><time>2026-04-04T13:46:33.002Z</time></trkpt><trkpt lat="45.52644621659883" lon="11.126236078207189"><ele>463.6</ele><time>2026-04-04T13:46:34.002Z</time></trkpt><trkpt lat="45.52645185689346" lon="11.12638199010961"><ele>466.0</ele><time>2026-04-04T13:46:35.002Z</time></trkpt><trkpt lat="45.526446643681346" lon="11.126523596001665"><ele>468.8</ele><time>2026-04-04T13:46:36.002Z</time></trkpt><trkpt lat="45.526464955980934" lon="11.126648524317636"><ele>471.6</ele><time>2026-04-04T13:46:37.002Z</time></trkpt><trkpt lat="45.52650389306414" lon="11.1267419448086"><ele>474.4</ele><time>2026-04-04T13:46:38.002Z</time></trkpt><trkpt lat="45.52651838831374" lon="11.126863215410225"><ele>477.2</ele><time>2026-04-04T13:46:39.999Z</time></trkpt><trkpt lat="45.52640895907791" lon="11.12696355138308"><ele>480.0</ele><time>2026-04-04T13:46:41.999Z</time></trkpt><trkpt lat="45.526320390342306" lon="11.127004750734013"><ele>478.5</ele><time>2026-04-04T13:46:42.999Z</time></trkpt><trkpt lat="45.52621721185848" lon="11.12707954455055"><ele>477.0</ele><time>2026-04-04T13:46:43.999Z</time></trkpt><trkpt lat="45.526124274193" lon="11.127189065629102"><ele>475.5</ele><time>2026-04-04T13:46:44.999Z</time></trkpt><trkpt lat="45.52602332948784" lon="11.127315045727087"><ele>474.0</ele><time>2026-04-04T13:46:45.999Z</time></trkpt><trkpt lat="45.52592124985943" lon="11.12743724705201"><ele>477.5</ele><time>2026-04-04T13:46:46.999Z</time></trkpt><trkpt lat="45.52581280247439" lon="11.127566267746479"><ele>481.0</ele><time>2026-04-04T13:46:47.999Z</time></trkpt><trkpt lat="45.52570513065095" lon="11.127714009655595"><ele>484.5</ele><time>2026-04-04T13:46:48.999Z</time></trkpt><trkpt lat="45.52562120207691" lon="11.127852837485152"><ele>488.0</ele><time>2026-04-04T13:46:49.999Z</time></trkpt><trkpt lat="45.52555069410148" lon="11.127985482133715"><ele>487.99999999999994</ele><time>2026-04-04T13:46:50.999Z</time></trkpt><trkpt lat="45.525490643762616" lon="11.128095259121164"><ele>488.0</ele><time>2026-04-04T13:46:51.999Z</time></trkpt><trkpt lat="45.52544872551347" lon="11.128194922194142"><ele>488.0</ele><time>2026-04-04T13:46:52.999Z</time></trkpt><trkpt lat="45.52541747437299" lon="11.128285497964477"><ele>488.0</ele><time>2026-04-04T13:46:53.999Z</time></trkpt><trkpt lat="45.525395364690304" lon="11.128391736383978"><ele>487.99999999999994</ele><time>2026-04-04T13:46:54.999Z</time></trkpt><trkpt lat="45.5253860044729" lon="11.128510681134074"><ele>488.0</ele><time>2026-04-04T13:46:55.999Z</time></trkpt><trkpt lat="45.525413412817706" lon="11.128658212327654"><ele>487.4</ele><time>2026-04-04T13:46:56.999Z</time></trkpt><trkpt lat="45.52546399812135" lon="11.12880004057601"><ele>486.79999999999995</ele><time>2026-04-04T13:46:57.999Z</time></trkpt><trkpt lat="45.525495226422755" lon="11.128916951080559"><ele>486.2</ele><time>2026-04-04T13:46:58.999Z</time></trkpt><trkpt lat="45.52549159411114" lon="11.129024416452143"><ele>485.6</ele><time>2026-04-04T13:47:01Z</time></trkpt><trkpt lat="45.52537848070821" lon="11.129000536737674"><ele>485.0</ele><time>2026-04-04T13:47:03Z</time></trkpt><trkpt lat="45.52528547910654" lon="11.128941198529436"><ele>485.0</ele><time>2026-04-04T13:47:04Z</time></trkpt><trkpt lat="45.52517569850389" lon="11.128895171939718"><ele>485.0</ele><time>2026-04-04T13:47:05Z</time></trkpt><trkpt lat="45.52504812505624" lon="11.12886384787611"><ele>485.0</ele><time>2026-04-04T13:47:06Z</time></trkpt><trkpt lat="45.52493379075228" lon="11.12884221255324"><ele>485.0</ele><time>2026-04-04T13:47:07Z</time></trkpt><trkpt lat="45.52484192175778" lon="11.128828753638885"><ele>485.0</ele><time>2026-04-04T13:47:08Z</time></trkpt><trkpt lat="45.524762444205" lon="11.128801029295975"><ele>485.0</ele><time>2026-04-04T13:47:09Z</time></trkpt><trkpt lat="45.52467461365678" lon="11.128742268430956"><ele>485.0</ele><time>2026-04-04T13:47:10Z</time></trkpt><trkpt lat="45.52459361357348" lon="11.128643080843593"><ele>485.0</ele><time>2026-04-04T13:47:11Z</time></trkpt><trkpt lat="45.52450963252547" lon="11.128528875381669"><ele>485.0</ele><time>2026-04-04T13:47:12Z</time></trkpt><trkpt lat="45.52442834423239" lon="11.12840787339986"><ele>482.2</ele><time>2026-04-04T13:47:13Z</time></trkpt><trkpt lat="45.52436105815068" lon="11.128294077470635"><ele>479.4</ele><time>2026-04-04T13:47:14Z</time></trkpt><trkpt lat="45.524319123770425" lon="11.128180891172159"><ele>476.6</ele><time>2026-04-04T13:47:15Z</time></trkpt><trkpt lat="45.52429405482067" lon="11.128049084445331"><ele>473.8</ele><time>2026-04-04T13:47:16Z</time></trkpt><trkpt lat="45.52427741125457" lon="11.127928942803848"><ele>471.0</ele><time>2026-04-04T13:47:17Z</time></trkpt><trkpt lat="45.5242391842955" lon="11.127826746031213"><ele>468.75</ele><time>2026-04-04T13:47:18Z</time></trkpt><trkpt lat="45.524178312226844" lon="11.127759170588767"><ele>466.5</ele><time>2026-04-04T13:47:19Z</time></trkpt><trkpt lat="45.52407981513395" lon="11.12771201044343"><ele>464.25</ele><time>2026-04-04T13:47:20Z</time></trkpt><trkpt lat="45.523945674217394" lon="11.12768491727542"><ele>462.0</ele><time>2026-04-04T13:47:21Z</time></trkpt><trkpt lat="45.523792934321285" lon="11.12765898154215"><ele>459.5</ele><time>2026-04-04T13:47:22Z</time></trkpt><trkpt lat="45.52364569611506" lon="11.12762150297737"><ele>457.0</ele><time>2026-04-04T13:47:23Z</time></trkpt><trkpt lat="45.52351562405414" lon="11.127566955035864"><ele>454.5</ele><time>2026-04-04T13:47:24Z</time></trkpt><trkpt lat="45.523393963416005" lon="11.127506784380653"><ele>452.0</ele><time>2026-04-04T13:47:25Z</time></trkpt><trkpt lat="45.523276353812776" lon="11.12744022485637"><ele>450.25</ele><time>2026-04-04T13:47:26Z</time></trkpt><trkpt lat="45.523160445075916" lon="11.127364018026668"><ele>448.5</ele><time>2026-04-04T13:47:27Z</time></trkpt><trkpt lat="45.5230453894452" lon="11.127267543977561"><ele>446.75</ele><time>2026-04-04T13:47:28Z</time></trkpt><trkpt lat="45.522926595958424" lon="11.127158882608754"><ele>445.0</ele><time>2026-04-04T13:47:29Z</time></trkpt><trkpt lat="45.52280192540971" lon="11.127052153568847"><ele>445.0</ele><time>2026-04-04T13:47:30Z</time></trkpt><trkpt lat="45.522673386719646" lon="11.126947822213614"><ele>445.0</ele><time>2026-04-04T13:47:31Z</time></trkpt><trkpt lat="45.522549309387934" lon="11.12684442573577"><ele>445.0</ele><time>2026-04-04T13:47:32Z</time></trkpt><trkpt lat="45.52243280982748" lon="11.126743988075155"><ele>445.0</ele><time>2026-04-04T13:47:33Z</time></trkpt><trkpt lat="45.52232205293428" lon="11.12664865920033"><ele>442.2</ele><time>2026-04-04T13:47:34Z</time></trkpt><trkpt lat="45.522219420197054" lon="11.126551932105667"><ele>439.4</ele><time>2026-04-04T13:47:35Z</time></trkpt><trkpt lat="45.522125484839435" lon="11.126468274425534"><ele>436.6</ele><time>2026-04-04T13:47:36Z</time></trkpt><trkpt lat="45.52203327219629" lon="11.126403225067945"><ele>433.8</ele><time>2026-04-04T13:47:37Z</time></trkpt><trkpt lat="45.52193332645989" lon="11.126355467708832"><ele>431.0</ele><time>2026-04-04T13:47:38.001Z</time></trkpt><trkpt lat="45.52182206181949" lon="11.126326274467765"><ele>431.0</ele><time>2026-04-04T13:47:39.001Z</time></trkpt><trkpt lat="45.521708373745454" lon="11.126332880843249"><ele>431.0</ele><time>2026-04-04T13:47:40.001Z</time></trkpt><trkpt lat="45.521613883868646" lon="11.126381358905792"><ele>431.0</ele><time>2026-04-04T13:47:41.001Z</time></trkpt><trkpt lat="45.52152163506701" lon="11.126446999197833"><ele>431.0</ele><time>2026-04-04T13:47:42.001Z</time></trkpt><trkpt lat="45.52142621765298" lon="11.126494438935621"><ele>431.0</ele><time>2026-04-04T13:47:43.001Z</time></trkpt><trkpt lat="45.52132896131599" lon="11.12650662176821"><ele>430.99999999999994</ele><time>2026-04-04T13:47:44.001Z</time></trkpt><trkpt lat="45.521265000321094" lon="11.12651339766414"><ele>431.0</ele><time>2026-04-04T13:47:45.001Z</time></trkpt><trkpt lat="45.52117684846041" lon="11.126550284591994"><ele>431.0</ele><time>2026-04-04T13:47:47.001Z</time></trkpt><trkpt lat="45.521075240918975" lon="11.126579363583348"><ele>431.0</ele><time>2026-04-04T13:47:49.001Z</time></trkpt><trkpt lat="45.52098178275687" lon="11.12661039950734"><ele>430.99999999999994</ele><time>2026-04-04T13:47:51.001Z</time></trkpt><trkpt lat="45.520912914777284" lon="11.126654780432718"><ele>431.0</ele><time>2026-04-04T13:47:53.001Z</time></trkpt><trkpt lat="45.52082831044532" lon="11.126690012646494"><ele>428.3333333333333</ele><time>2026-04-04T13:47:55.001Z</time></trkpt><trkpt lat="45.52078207512102" lon="11.12657299938155"><ele>425.66666666666663</ele><time>2026-04-04T13:47:57.001Z</time></trkpt><trkpt lat="45.52075675568335" lon="11.126471956683487"><ele>423.0</ele><time>2026-04-04T13:47:58.001Z</time></trkpt><trkpt lat="45.52070821817278" lon="11.1263733147163"><ele>420.33333333333337</ele><time>2026-04-04T13:47:59.001Z</time></trkpt><trkpt lat="45.52067849247075" lon="11.126268373121391"><ele>417.6666666666667</ele><time>2026-04-04T13:48:00.001Z</time></trkpt><trkpt lat="45.5205711320568" lon="11.126240307851818"><ele>415.0</ele><time>2026-04-04T13:48:03.001Z</time></trkpt><trkpt lat="45.520477813555715" lon="11.126270321795875"><ele>409.6</ele><time>2026-04-04T13:48:05.001Z</time></trkpt><trkpt lat="45.520380945921836" lon="11.126275136602601"><ele>404.2</ele><time>2026-04-04T13:48:07.001Z</time></trkpt><trkpt lat="45.52028601979657" lon="11.126303687820421"><ele>398.79999999999995</ele><time>2026-04-04T13:48:09.001Z</time></trkpt><trkpt lat="45.520189071238214" lon="11.12632647960751"><ele>393.4</ele><time>2026-04-04T13:48:11.001Z</time></trkpt><trkpt lat="45.52009109596745" lon="11.12634631489974"><ele>388.0</ele><time>2026-04-04T13:48:13.001Z</time></trkpt><trkpt lat="45.51999676316396" lon="11.126326560802037"><ele>388.0</ele><time>2026-04-04T13:48:15.001Z</time></trkpt><trkpt lat="45.519888577950525" lon="11.126240415441028"><ele>388.0</ele><time>2026-04-04T13:48:17.001Z</time></trkpt><trkpt lat="45.51980799517575" lon="11.126145230379207"><ele>388.0</ele><time>2026-04-04T13:48:19.001Z</time></trkpt><trkpt lat="45.51979162663771" lon="11.125954000963953"><ele>388.0</ele><time>2026-04-04T13:48:21.001Z</time></trkpt><trkpt lat="45.51975434731371" lon="11.1258277970489"><ele>388.00000000000006</ele><time>2026-04-04T13:48:22.001Z</time></trkpt><trkpt lat="45.51971808349246" lon="11.12572144617126"><ele>388.0</ele><time>2026-04-04T13:48:23.001Z</time></trkpt><trkpt lat="45.51968181604304" lon="11.125635890251303"><ele>388.0</ele><time>2026-04-04T13:48:24.001Z</time></trkpt><trkpt lat="45.51964475489659" lon="11.125526553591767"><ele>388.0</ele><time>2026-04-04T13:48:25.001Z</time></trkpt><trkpt lat="45.51961237552434" lon="11.125417912419762"><ele>388.00000000000006</ele><time>2026-04-04T13:48:26.002Z</time></trkpt><trkpt lat="45.51958837499021" lon="11.125312929100081"><ele>388.0</ele><time>2026-04-04T13:48:27.002Z</time></trkpt><trkpt lat="45.5195684030442" lon="11.125166604555925"><ele>384.0</ele><time>2026-04-04T13:48:28.002Z</time></trkpt><trkpt lat="45.519552628382584" lon="11.12500951883256"><ele>380.0</ele><time>2026-04-04T13:48:29.002Z</time></trkpt><trkpt lat="45.51954275396487" lon="11.124862814000979"><ele>376.0</ele><time>2026-04-04T13:48:30.002Z</time></trkpt><trkpt lat="45.51953015660068" lon="11.124734740517793"><ele>372.0</ele><time>2026-04-04T13:48:31.002Z</time></trkpt><trkpt lat="45.51952390653352" lon="11.12462358479363"><ele>368.0</ele><time>2026-04-04T13:48:32.002Z</time></trkpt><trkpt lat="45.51951744588457" lon="11.124528818962109"><ele>368.0</ele><time>2026-04-04T13:48:33.002Z</time></trkpt><trkpt lat="45.51946225957647" lon="11.12442508173654"><ele>368.0</ele><time>2026-04-04T13:48:35.002Z</time></trkpt><trkpt lat="45.51934553286283" lon="11.12441862716693"><ele>368.0</ele><time>2026-04-04T13:48:37.002Z</time></trkpt><trkpt lat="45.51926837373296" lon="11.124469364842799"><ele>368.0</ele><time>2026-04-04T13:48:38.002Z</time></trkpt><trkpt lat="45.519206906984365" lon="11.12452159158156"><ele>368.0</ele><time>2026-04-04T13:48:39.002Z</time></trkpt><trkpt lat="45.51912664141651" lon="11.124542013267666"><ele>368.0</ele><time>2026-04-04T13:48:40.002Z</time></trkpt><trkpt lat="45.51902950757447" lon="11.124494136980125"><ele>368.0</ele><time>2026-04-04T13:48:41.002Z</time></trkpt><trkpt lat="45.51893848055126" lon="11.124408324316443"><ele>368.0</ele><time>2026-04-04T13:48:42.002Z</time></trkpt><trkpt lat="45.51882759162465" lon="11.124286620937403"><ele>368.0</ele><time>2026-04-04T13:48:43.002Z</time></trkpt><trkpt lat="45.518708324518734" lon="11.124169184662689"><ele>368.0</ele><time>2026-04-04T13:48:44.002Z</time></trkpt><trkpt lat="45.51857989656592" lon="11.124050044855652"><ele>365.25</ele><time>2026-04-04T13:48:44.999Z</time></trkpt><trkpt lat="45.51846587903796" lon="11.123936868557276"><ele>362.5</ele><time>2026-04-04T13:48:45.999Z</time></trkpt><trkpt lat="45.51834312994141" lon="11.123803887371125"><ele>359.75</ele><time>2026-04-04T13:48:46.999Z</time></trkpt><trkpt lat="45.51822286180313" lon="11.12368245963975"><ele>357.0</ele><time>2026-04-04T13:48:47.999Z</time></trkpt><trkpt lat="45.518108476484464" lon="11.123568688650415"><ele>357.0</ele><time>2026-04-04T13:48:48.999Z</time></trkpt><trkpt lat="45.51801021392931" lon="11.123468920193424"><ele>357.0</ele><time>2026-04-04T13:48:49.999Z</time></trkpt><trkpt lat="45.5179195757118" lon="11.12338540528255"><ele>357.0</ele><time>2026-04-04T13:48:50.999Z</time></trkpt><trkpt lat="45.51783403698645" lon="11.123320802296725"><ele>357.0</ele><time>2026-04-04T13:48:51.999Z</time></trkpt><trkpt lat="45.517758298697515" lon="11.123289127534683"><ele>357.0</ele><time>2026-04-04T13:48:52.999Z</time></trkpt><trkpt lat="45.51767934794357" lon="11.123261458811776"><ele>356.6</ele><time>2026-04-04T13:48:53.999Z</time></trkpt><trkpt lat="45.51758049700026" lon="11.123236914148542"><ele>356.20000000000005</ele><time>2026-04-04T13:48:54.999Z</time></trkpt><trkpt lat="45.51746169217471" lon="11.123209177422144"><ele>355.8</ele><time>2026-04-04T13:48:55.999Z</time></trkpt><trkpt lat="45.517356447608016" lon="11.123177368498013"><ele>355.4</ele><time>2026-04-04T13:48:56.999Z</time></trkpt><trkpt lat="45.517269585431805" lon="11.123131136794992"><ele>355.0</ele><time>2026-04-04T13:48:57.999Z</time></trkpt><trkpt lat="45.51720682476656" lon="11.123069041678201"><ele>354.66666666666663</ele><time>2026-04-04T13:48:58.999Z</time></trkpt><trkpt lat="45.517164685881674" lon="11.122934377485542"><ele>354.3333333333333</ele><time>2026-04-04T13:49:00.999Z</time></trkpt><trkpt lat="45.517186580714615" lon="11.122839446394638"><ele>354.0</ele><time>2026-04-04T13:49:01.999Z</time></trkpt><trkpt lat="45.517229074227544" lon="11.122745407512774"><ele>353.6666666666667</ele><time>2026-04-04T13:49:02.999Z</time></trkpt><trkpt lat="45.517292008085406" lon="11.122666408512412"><ele>353.33333333333337</ele><time>2026-04-04T13:49:03.999Z</time></trkpt><trkpt lat="45.51737444414422" lon="11.12260387958011"><ele>353.0</ele><time>2026-04-04T13:49:04.999Z</time></trkpt><trkpt lat="45.517462088914606" lon="11.12253887082503"><ele>353.0</ele><time>2026-04-04T13:49:05.999Z</time></trkpt><trkpt lat="45.517541792168316" lon="11.122480275334587"><ele>353.0</ele><time>2026-04-04T13:49:06.999Z</time></trkpt><trkpt lat="45.51761965636494" lon="11.122457418246324"><ele>353.0</ele><time>2026-04-04T13:49:07.999Z</time></trkpt><trkpt lat="45.51772558204289" lon="11.122442213632526"><ele>353.0</ele><time>2026-04-04T13:49:10Z</time></trkpt><trkpt lat="45.51778696075917" lon="11.122366757458318"><ele>353.0</ele><time>2026-04-04T13:49:12Z</time></trkpt><trkpt lat="45.51788804427304" lon="11.122314253802198"><ele>350.5</ele><time>2026-04-04T13:49:14Z</time></trkpt><trkpt lat="45.51795377899285" lon="11.12230548071374"><ele>348.0</ele><time>2026-04-04T13:49:15Z</time></trkpt><trkpt lat="45.51801945225907" lon="11.122301496830673"><ele>345.5</ele><time>2026-04-04T13:49:16Z</time></trkpt><trkpt lat="45.51812816006176" lon="11.122291408845454"><ele>343.0</ele><time>2026-04-04T13:49:18Z</time></trkpt><trkpt lat="45.518213803384356" lon="11.122284905307119"><ele>340.5</ele><time>2026-04-04T13:49:20Z</time></trkpt><trkpt lat="45.51820829715498" lon="11.122160982006102"><ele>338.0</ele><time>2026-04-04T13:49:34Z</time></trkpt><trkpt lat="45.518152110712045" lon="11.122066677855004"><ele>338.0</ele><time>2026-04-04T13:49:36Z</time></trkpt><trkpt lat="45.51807782706205" lon="11.122018583908277"><ele>338.0</ele><time>2026-04-04T13:49:38Z</time></trkpt><trkpt lat="45.51801243362858" lon="11.122004323366713"><ele>338.0</ele><time>2026-04-04T13:49:41Z</time></trkpt><trkpt lat="45.51794900298846" lon="11.12199375021326"><ele>338.0</ele><time>2026-04-04T13:49:43Z</time></trkpt><trkpt lat="45.517881186894805" lon="11.121951920424861"><ele>338.0</ele><time>2026-04-04T13:49:46Z</time></trkpt><trkpt lat="45.51782961560921" lon="11.121885211037853"><ele>338.0</ele><time>2026-04-04T13:49:51Z</time></trkpt><trkpt lat="45.517839656060744" lon="11.121783382287923"><ele>338.0</ele><time>2026-04-04T13:49:56Z</time></trkpt><trkpt lat="45.51789768902518" lon="11.121737931914016"><ele>338.0</ele><time>2026-04-04T13:50:01.001Z</time></trkpt><trkpt lat="45.51796355920895" lon="11.121686636958904"><ele>338.0</ele><time>2026-04-04T13:50:04.001Z</time></trkpt><trkpt lat="45.518059358610834" lon="11.121627121271676"><ele>338.0</ele><time>2026-04-04T13:50:07.001Z</time></trkpt><trkpt lat="45.51811422168001" lon="11.121582136924888"><ele>338.0</ele><time>2026-04-04T13:50:09.001Z</time></trkpt><trkpt lat="45.5181377351061" lon="11.121489631919955"><ele>338.0</ele><time>2026-04-04T13:50:19.001Z</time></trkpt><trkpt lat="45.51805800663685" lon="11.121455105178542"><ele>338.0</ele><time>2026-04-04T13:50:23.001Z</time></trkpt><trkpt lat="45.51800598286185" lon="11.121382033833962"><ele>335.0</ele><time>2026-04-04T13:50:30.001Z</time></trkpt><trkpt lat="45.517951895667515" lon="11.121319515182428"><ele>332.0</ele><time>2026-04-04T13:50:43.002Z</time></trkpt><trkpt lat="45.51800480182283" lon="11.121263958772767"><ele>329.0</ele><time>2026-04-04T13:51:10Z</time></trkpt><trkpt lat="45.51801527892248" lon="11.121162906285432"><ele>326.0</ele><time>2026-04-04T13:51:19Z</time></trkpt><trkpt lat="45.51791611518065" lon="11.121158036446376"><ele>323.0</ele><time>2026-04-04T13:51:23Z</time></trkpt><trkpt lat="45.51782166032322" lon="11.12115538178291"><ele>320.0</ele><time>2026-04-04T13:51:27Z</time></trkpt><trkpt lat="45.5176935378755" lon="11.121153667380463"><ele>316.42857142857144</ele><time>2026-04-04T13:51:31Z</time></trkpt><trkpt lat="45.51762735586297" lon="11.121169115794832"><ele>312.8571428571429</ele><time>2026-04-04T13:51:33.001Z</time></trkpt><trkpt lat="45.51756203481911" lon="11.121135408104113"><ele>309.28571428571433</ele><time>2026-04-04T13:51:35.001Z</time></trkpt><trkpt lat="45.51748982810144" lon="11.12115077963253"><ele>305.7142857142857</ele><time>2026-04-04T13:51:38.001Z</time></trkpt><trkpt lat="45.51740478481472" lon="11.12112333366875"><ele>302.14285714285717</ele><time>2026-04-04T13:51:41.001Z</time></trkpt><trkpt lat="45.517320415956675" lon="11.12111325188192"><ele>298.5714285714286</ele><time>2026-04-04T13:51:45.001Z</time></trkpt><trkpt lat="45.517256544352385" lon="11.121118791668177"><ele>295.0</ele><time>2026-04-04T13:51:50.001Z</time></trkpt><trkpt lat="45.51716895505177" lon="11.121089124593402"><ele>295.00000000000006</ele><time>2026-04-04T13:51:55.001Z</time></trkpt><trkpt lat="45.51710104667836" lon="11.121087072067768"><ele>295.0</ele><time>2026-04-04T13:51:58.001Z</time></trkpt><trkpt lat="45.517030884583995" lon="11.121085265664401"><ele>295.0</ele><time>2026-04-04T13:52:02.001Z</time></trkpt><trkpt lat="45.516961223322" lon="11.121072839460577"><ele>295.0</ele><time>2026-04-04T13:52:04.001Z</time></trkpt><trkpt lat="45.51689978171631" lon="11.121048292372032"><ele>295.0</ele><time>2026-04-04T13:52:07.001Z</time></trkpt><trkpt lat="45.5168225176262" lon="11.121049565580849"><ele>295.00000000000006</ele><time>2026-04-04T13:52:09.001Z</time></trkpt><trkpt lat="45.5167590029221" lon="11.121089966186068"><ele>295.0</ele><time>2026-04-04T13:52:11.001Z</time></trkpt><trkpt lat="45.5166882429887" lon="11.121088194304104"><ele>292.14285714285717</ele><time>2026-04-04T13:52:14.002Z</time></trkpt><trkpt lat="45.516613827544006" lon="11.121111625586014"><ele>289.2857142857143</ele><time>2026-04-04T13:52:16.002Z</time></trkpt><trkpt lat="45.516544585076616" lon="11.121147730512101"><ele>286.42857142857144</ele><time>2026-04-04T13:52:18.002Z</time></trkpt><trkpt lat="45.51647905013492" lon="11.121170925801088"><ele>283.57142857142856</ele><time>2026-04-04T13:52:20.002Z</time></trkpt><trkpt lat="45.51641243627295" lon="11.12120477151734"><ele>280.7142857142857</ele><time>2026-04-04T13:52:22.002Z</time></trkpt><trkpt lat="45.51634952049825" lon="11.121259490792653"><ele>277.8571428571429</ele><time>2026-04-04T13:52:25.002Z</time></trkpt><trkpt lat="45.516303430899846" lon="11.121336359442635"><ele>275.0</ele><time>2026-04-04T13:52:28.002Z</time></trkpt><trkpt lat="45.516255339477894" lon="11.121420990612613"><ele>273.8571428571429</ele><time>2026-04-04T13:52:32.002Z</time></trkpt><trkpt lat="45.516181554091816" lon="11.12143300579012"><ele>272.7142857142857</ele><time>2026-04-04T13:52:38.002Z</time></trkpt><trkpt lat="45.51611720251076" lon="11.1215100396747"><ele>271.57142857142856</ele><time>2026-04-04T13:52:41.002Z</time></trkpt><trkpt lat="45.51605813637439" lon="11.121544007094217"><ele>270.42857142857144</ele><time>2026-04-04T13:52:44.002Z</time></trkpt><trkpt lat="45.5160085084747" lon="11.121637092114497"><ele>269.2857142857143</ele><time>2026-04-04T13:52:47.002Z</time></trkpt><trkpt lat="45.51594953121158" lon="11.121692127326071"><ele>268.14285714285717</ele><time>2026-04-04T13:52:49.002Z</time></trkpt><trkpt lat="45.51588503318471" lon="11.12173456512716"><ele>267.0</ele><time>2026-04-04T13:52:51.002Z</time></trkpt><trkpt lat="45.51581748579075" lon="11.121793879552367"><ele>267.00000000000006</ele><time>2026-04-04T13:52:53.002Z</time></trkpt><trkpt lat="45.51576282329807" lon="11.121862077782565"><ele>267.0</ele><time>2026-04-04T13:52:55.002Z</time></trkpt><trkpt lat="45.51570421599013" lon="11.121903536549276"><ele>267.0</ele><time>2026-04-04T13:52:56.999Z</time></trkpt><trkpt lat="45.515660628815404" lon="11.121985974680559"><ele>267.0</ele><time>2026-04-04T13:52:58.999Z</time></trkpt><trkpt lat="45.515598262680506" lon="11.122008883992097"><ele>267.0</ele><time>2026-04-04T13:53:00.999Z</time></trkpt><trkpt lat="45.51552601554508" lon="11.122090298959012"><ele>267.00000000000006</ele><time>2026-04-04T13:53:03.999Z</time></trkpt><trkpt lat="45.515453799747675" lon="11.122127046241612"><ele>267.0</ele><time>2026-04-04T13:53:05.999Z</time></trkpt><trkpt lat="45.51539375310128" lon="11.122188183535798"><ele>263.5</ele><time>2026-04-04T13:53:07.999Z</time></trkpt><trkpt lat="45.51532629685967" lon="11.12227085557907"><ele>260.0</ele><time>2026-04-04T13:53:10.999Z</time></trkpt><trkpt lat="45.51526566707406" lon="11.122308434374386"><ele>256.5</ele><time>2026-04-04T13:53:13Z</time></trkpt><trkpt lat="45.51519987522966" lon="11.122380600034631"><ele>253.0</ele><time>2026-04-04T13:53:16Z</time></trkpt><trkpt lat="45.51514880238758" lon="11.122452375112212"><ele>249.5</ele><time>2026-04-04T13:53:18Z</time></trkpt><trkpt lat="45.51508495645453" lon="11.122509475911569"><ele>246.0</ele><time>2026-04-04T13:53:20Z</time></trkpt><trkpt lat="45.51503106177956" lon="11.122567003626235"><ele>246.0</ele><time>2026-04-04T13:53:22Z</time></trkpt><trkpt lat="45.51498282508943" lon="11.12264179433157"><ele>246.0</ele><time>2026-04-04T13:53:25Z</time></trkpt><trkpt lat="45.51493253256747" lon="11.122741013730181"><ele>246.0</ele><time>2026-04-04T13:53:28Z</time></trkpt><trkpt lat="45.514889047296975" lon="11.122816359695054"><ele>246.0</ele><time>2026-04-04T13:53:31Z</time></trkpt><trkpt lat="45.51484990525622" lon="11.12292182706943"><ele>246.0</ele><time>2026-04-04T13:53:34Z</time></trkpt><trkpt lat="45.514820036844135" lon="11.123032731546665"><ele>246.0</ele><time>2026-04-04T13:53:37Z</time></trkpt><trkpt lat="45.514786798655024" lon="11.123130674129719"><ele>246.0</ele><time>2026-04-04T13:53:40Z</time></trkpt><trkpt lat="45.51475945548532" lon="11.123224823295727"><ele>246.0</ele><time>2026-04-04T13:53:43Z</time></trkpt><trkpt lat="45.514702430214925" lon="11.123319878096236"><ele>246.0</ele><time>2026-04-04T13:53:46.001Z</time></trkpt><trkpt lat="45.514667583584696" lon="11.123221403305307"><ele>246.0</ele><time>2026-04-04T13:53:49.001Z</time></trkpt><trkpt lat="45.51465037820592" lon="11.12312516119804"><ele>246.0</ele><time>2026-04-04T13:53:51.001Z</time></trkpt><trkpt lat="45.514645870173446" lon="11.123018157559061"><ele>246.0</ele><time>2026-04-04T13:53:53.001Z</time></trkpt><trkpt lat="45.51464909046293" lon="11.122907203142097"><ele>246.0</ele><time>2026-04-04T13:53:56.001Z</time></trkpt><trkpt lat="45.51466850371919" lon="11.122763534665358"><ele>246.0</ele><time>2026-04-04T13:53:59.001Z</time></trkpt><trkpt lat="45.51468141025686" lon="11.12266087731147"><ele>246.0</ele><time>2026-04-04T13:54:01.001Z</time></trkpt><trkpt lat="45.51461863892477" lon="11.12266825303745"><ele>246.0</ele><time>2026-04-04T13:54:05.001Z</time></trkpt><trkpt lat="45.51454695592669" lon="11.122713673961165"><ele>246.0</ele><time>2026-04-04T13:54:08.001Z</time></trkpt><trkpt lat="45.51452394210445" lon="11.122805257263662"><ele>246.0</ele><time>2026-04-04T13:54:10.001Z</time></trkpt><trkpt lat="45.514479481481494" lon="11.122886239592795"><ele>241.83333333333334</ele><time>2026-04-04T13:54:13.001Z</time></trkpt><trkpt lat="45.514457659365235" lon="11.122972407031114"><ele>237.66666666666669</ele><time>2026-04-04T13:54:15.001Z</time></trkpt><trkpt lat="45.51442104737459" lon="11.123046241309709"><ele>233.5</ele><time>2026-04-04T13:54:17.001Z</time></trkpt><trkpt lat="45.514362242583985" lon="11.123135601274278"><ele>229.33333333333334</ele><time>2026-04-04T13:54:20.001Z</time></trkpt><trkpt lat="45.51430318101263" lon="11.123208949897569"><ele>225.16666666666669</ele><time>2026-04-04T13:54:22.001Z</time></trkpt><trkpt lat="45.51426879739063" lon="11.123311069069276"><ele>221.0</ele><time>2026-04-04T13:54:24.002Z</time></trkpt><trkpt lat="45.51428081268054" lon="11.123435816694686"><ele>221.00000000000003</ele><time>2026-04-04T13:54:27.002Z</time></trkpt><trkpt lat="45.51424308926469" lon="11.12352620164603"><ele>221.0</ele><time>2026-04-04T13:54:29.002Z</time></trkpt><trkpt lat="45.5141670100949" lon="11.123509695336017"><ele>221.0</ele><time>2026-04-04T13:54:31.002Z</time></trkpt><trkpt lat="45.5140709234918" lon="11.123530727614765"><ele>221.0</ele><time>2026-04-04T13:54:33.002Z</time></trkpt><trkpt lat="45.514017130844586" lon="11.123578715305293"><ele>221.00000000000003</ele><time>2026-04-04T13:54:34.002Z</time></trkpt><trkpt lat="45.51395526787843" lon="11.123623859186162"><ele>221.0</ele><time>2026-04-04T13:54:35.002Z</time></trkpt><trkpt lat="45.51383727784637" lon="11.123694171270959"><ele>221.0</ele><time>2026-04-04T13:54:37.002Z</time></trkpt><trkpt lat="45.51376497824465" lon="11.12371999486875"><ele>221.00000000000003</ele><time>2026-04-04T13:54:38.002Z</time></trkpt><trkpt lat="45.513645735941836" lon="11.123794845850602"><ele>221.00000000000003</ele><time>2026-04-04T13:54:40.002Z</time></trkpt><trkpt lat="45.513513333920365" lon="11.123791884393095"><ele>221.0</ele><time>2026-04-04T13:54:42.002Z</time></trkpt><trkpt lat="45.51344784019979" lon="11.123789875970354"><ele>221.0</ele><time>2026-04-04T13:54:43.002Z</time></trkpt><trkpt lat="45.5133676265642" lon="11.123784538100935"><ele>220.66666666666669</ele><time>2026-04-04T13:54:44.002Z</time></trkpt><trkpt lat="45.513296576696845" lon="11.123756100837994"><ele>220.33333333333334</ele><time>2026-04-04T13:54:45.002Z</time></trkpt><trkpt lat="45.5132294956586" lon="11.123747762994961"><ele>220.0</ele><time>2026-04-04T13:54:46.002Z</time></trkpt><trkpt lat="45.51317490494943" lon="11.123797200183779"><ele>219.66666666666669</ele><time>2026-04-04T13:54:47.002Z</time></trkpt><trkpt lat="45.513110208672536" lon="11.123816267838246"><ele>219.33333333333334</ele><time>2026-04-04T13:54:48.002Z</time></trkpt><trkpt lat="45.51296692663555" lon="11.123854073390625"><ele>219.0</ele><time>2026-04-04T13:54:50.002Z</time></trkpt><trkpt lat="45.51290615641152" lon="11.123885378795114"><ele>219.33333333333334</ele><time>2026-04-04T13:54:51.002Z</time></trkpt><trkpt lat="45.51280999145193" lon="11.123988753534539"><ele>219.66666666666669</ele><time>2026-04-04T13:54:53.002Z</time></trkpt><trkpt lat="45.512720196762615" lon="11.12399510153214"><ele>220.0</ele><time>2026-04-04T13:54:54.002Z</time></trkpt><trkpt lat="45.51263360459948" lon="11.123997746991677"><ele>220.33333333333334</ele><time>2026-04-04T13:54:55.002Z</time></trkpt><trkpt lat="45.51256339759884" lon="11.124042230616414"><ele>220.66666666666669</ele><time>2026-04-04T13:54:56.002Z</time></trkpt><trkpt lat="45.51249695961964" lon="11.124077195525318"><ele>221.0</ele><time>2026-04-04T13:54:57.002Z</time></trkpt><trkpt lat="45.51242327504118" lon="11.124128239720704"><ele>221.00000000000003</ele><time>2026-04-04T13:54:58.002Z</time></trkpt><trkpt lat="45.5123687149416" lon="11.12419894657874"><ele>221.0</ele><time>2026-04-04T13:54:59.002Z</time></trkpt><trkpt lat="45.51229734333062" lon="11.124244505516574"><ele>221.0</ele><time>2026-04-04T13:55:00.002Z</time></trkpt><trkpt lat="45.51221305090952" lon="11.124292418698124"><ele>221.0</ele><time>2026-04-04T13:55:01.002Z</time></trkpt><trkpt lat="45.51214975272885" lon="11.124319828650972"><ele>221.00000000000003</ele><time>2026-04-04T13:55:02.003Z</time></trkpt><trkpt lat="45.51207909719079" lon="11.124345223830721"><ele>221.0</ele><time>2026-04-04T13:55:02.999Z</time></trkpt><trkpt lat="45.51201004383861" lon="11.124341957621537"><ele>219.33333333333334</ele><time>2026-04-04T13:55:03.999Z</time></trkpt><trkpt lat="45.511939633250655" lon="11.124342144706128"><ele>217.66666666666669</ele><time>2026-04-04T13:55:04.999Z</time></trkpt><trkpt lat="45.51184782362847" lon="11.124323648628673"><ele>216.0</ele><time>2026-04-04T13:55:05.999Z</time></trkpt><trkpt lat="45.511767255063326" lon="11.124319745514406"><ele>214.33333333333331</ele><time>2026-04-04T13:55:06.999Z</time></trkpt><trkpt lat="45.51170044108246" lon="11.124330710921729"><ele>212.66666666666666</ele><time>2026-04-04T13:55:07.999Z</time></trkpt><trkpt lat="45.51158750977705" lon="11.124333245981237"><ele>211.0</ele><time>2026-04-04T13:55:09.999Z</time></trkpt><trkpt lat="45.51151900680241" lon="11.124314093054833"><ele>210.99999999999997</ele><time>2026-04-04T13:55:10.999Z</time></trkpt><trkpt lat="45.511431563910655" lon="11.124308888008448"><ele>211.0</ele><time>2026-04-04T13:55:11.999Z</time></trkpt><trkpt lat="45.51136806961943" lon="11.124287219167593"><ele>211.0</ele><time>2026-04-04T13:55:12.999Z</time></trkpt><trkpt lat="45.511305342022396" lon="11.124302369187642"><ele>211.0</ele><time>2026-04-04T13:55:13.999Z</time></trkpt><trkpt lat="45.51119937836587" lon="11.12432862093041"><ele>210.99999999999997</ele><time>2026-04-04T13:55:15.999Z</time></trkpt><trkpt lat="45.51109527623808" lon="11.12433648648448"><ele>211.0</ele><time>2026-04-04T13:55:17.999Z</time></trkpt><trkpt lat="45.510987446181595" lon="11.124322267317474"><ele>209.4</ele><time>2026-04-04T13:55:20Z</time></trkpt><trkpt lat="45.510879295868016" lon="11.12429326278015"><ele>207.8</ele><time>2026-04-04T13:55:22Z</time></trkpt><trkpt lat="45.51080325390289" lon="11.124316646749934"><ele>206.20000000000002</ele><time>2026-04-04T13:55:24Z</time></trkpt><trkpt lat="45.51070372827897" lon="11.124392602103207"><ele>204.60000000000002</ele><time>2026-04-04T13:55:27Z</time></trkpt><trkpt lat="45.51060833047759" lon="11.124492889271977"><ele>203.0</ele><time>2026-04-04T13:55:29Z</time></trkpt><trkpt lat="45.51055235161113" lon="11.124544330135752"><ele>203.0</ele><time>2026-04-04T13:55:30Z</time></trkpt><trkpt lat="45.51044902520601" lon="11.124568674459615"><ele>203.0</ele><time>2026-04-04T13:55:32Z</time></trkpt><trkpt lat="45.510384644860046" lon="11.124638558312919"><ele>203.0</ele><time>2026-04-04T13:55:34Z</time></trkpt><trkpt lat="45.51029213991752" lon="11.12467369613122"><ele>203.0</ele><time>2026-04-04T13:55:36Z</time></trkpt><trkpt lat="45.510191840142284" lon="11.124732494534879"><ele>203.0</ele><time>2026-04-04T13:55:38Z</time></trkpt><trkpt lat="45.510113259445966" lon="11.124800867825225"><ele>203.4</ele><time>2026-04-04T13:55:40Z</time></trkpt><trkpt lat="45.510009060989155" lon="11.124894976888786"><ele>203.8</ele><time>2026-04-04T13:55:42Z</time></trkpt><trkpt lat="45.509925102904326" lon="11.124935413063252"><ele>204.2</ele><time>2026-04-04T13:55:44Z</time></trkpt><trkpt lat="45.5098480078785" lon="11.124984780279819"><ele>204.6</ele><time>2026-04-04T13:55:45Z</time></trkpt><trkpt lat="45.509769167736906" lon="11.125044532261178"><ele>205.0</ele><time>2026-04-04T13:55:46Z</time></trkpt><trkpt lat="45.50970708633576" lon="11.125111474625415"><ele>204.16666666666666</ele><time>2026-04-04T13:55:47Z</time></trkpt><trkpt lat="45.50961768863005" lon="11.125209712569742"><ele>203.33333333333331</ele><time>2026-04-04T13:55:48.001Z</time></trkpt><trkpt lat="45.509545002921165" lon="11.12526788621547"><ele>202.5</ele><time>2026-04-04T13:55:49.001Z</time></trkpt><trkpt lat="45.509479721632545" lon="11.125308560643601"><ele>201.66666666666669</ele><time>2026-04-04T13:55:50.001Z</time></trkpt><trkpt lat="45.50941577998272" lon="11.12535999705694"><ele>200.83333333333334</ele><time>2026-04-04T13:55:53.001Z</time></trkpt><trkpt lat="45.5093170981797" lon="11.125338424951805"><ele>200.0</ele><time>2026-04-04T13:55:56.001Z</time></trkpt><trkpt lat="45.509241951520266" lon="11.125359556305764"><ele>200.66666666666669</ele><time>2026-04-04T13:55:58.001Z</time></trkpt><trkpt lat="45.50915603781512" lon="11.125301058773516"><ele>201.33333333333334</ele><time>2026-04-04T13:56:00.001Z</time></trkpt><trkpt lat="45.509074572375276" lon="11.125310550812895"><ele>202.0</ele><time>2026-04-04T13:56:02.001Z</time></trkpt><trkpt lat="45.50898258924666" lon="11.125307736138945"><ele>202.66666666666669</ele><time>2026-04-04T13:56:04.001Z</time></trkpt><trkpt lat="45.508894835091155" lon="11.125327950929005"><ele>203.33333333333334</ele><time>2026-04-04T13:56:05.001Z</time></trkpt><trkpt lat="45.50882065280054" lon="11.125332199275633"><ele>204.0</ele><time>2026-04-04T13:56:06.001Z</time></trkpt><trkpt lat="45.508740103378535" lon="11.125346855294989"><ele>204.0</ele><time>2026-04-04T13:56:07.001Z</time></trkpt><trkpt lat="45.50865168319107" lon="11.125375633411828"><ele>204.0</ele><time>2026-04-04T13:56:08.001Z</time></trkpt><trkpt lat="45.50854475103162" lon="11.12540179960707"><ele>204.0</ele><time>2026-04-04T13:56:09.001Z</time></trkpt><trkpt lat="45.508478665776806" lon="11.125404557207869"><ele>204.0</ele><time>2026-04-04T13:56:10.001Z</time></trkpt><trkpt lat="45.50839048024037" lon="11.125416383922063"><ele>204.0</ele><time>2026-04-04T13:56:11.001Z</time></trkpt><trkpt lat="45.50831830127364" lon="11.125451348823363"><ele>204.0</ele><time>2026-04-04T13:56:12.001Z</time></trkpt><trkpt lat="45.50822341320534" lon="11.125496798051397"><ele>204.0</ele><time>2026-04-04T13:56:13.001Z</time></trkpt><trkpt lat="45.508136318454376" lon="11.125561869949973"><ele>204.0</ele><time>2026-04-04T13:56:14.001Z</time></trkpt><trkpt lat="45.50805789005005" lon="11.125625272342383"><ele>204.0</ele><time>2026-04-04T13:56:15.001Z</time></trkpt><trkpt lat="45.50798850376586" lon="11.12567675861903"><ele>204.0</ele><time>2026-04-04T13:56:16.001Z</time></trkpt><trkpt lat="45.5079260970233" lon="11.125755374902829"><ele>204.0</ele><time>2026-04-04T13:56:17.001Z</time></trkpt><trkpt lat="45.50783889878415" lon="11.12582419061773"><ele>200.79999999999998</ele><time>2026-04-04T13:56:18.001Z</time></trkpt><trkpt lat="45.50774454513372" lon="11.125905625655784"><ele>197.6</ele><time>2026-04-04T13:56:19.001Z</time></trkpt><trkpt lat="45.50761460518167" lon="11.125993368130999"><ele>194.4</ele><time>2026-04-04T13:56:21.001Z</time></trkpt><trkpt lat="45.50753414417119" lon="11.12604791306018"><ele>191.2</ele><time>2026-04-04T13:56:22.001Z</time></trkpt><trkpt lat="45.50743387749149" lon="11.126064275474507"><ele>188.0</ele><time>2026-04-04T13:56:23.002Z</time></trkpt><trkpt lat="45.50733937639709" lon="11.126112899002122"><ele>188.0</ele><time>2026-04-04T13:56:24.002Z</time></trkpt><trkpt lat="45.50724925014037" lon="11.126153495816647"><ele>188.0</ele><time>2026-04-04T13:56:25.002Z</time></trkpt><trkpt lat="45.507161956049934" lon="11.12617318111686"><ele>188.0</ele><time>2026-04-04T13:56:26.002Z</time></trkpt><trkpt lat="45.50704419530771" lon="11.126148834140958"><ele>188.0</ele><time>2026-04-04T13:56:27.002Z</time></trkpt><trkpt lat="45.50693407539136" lon="11.126152390929631"><ele>188.0</ele><time>2026-04-04T13:56:28.002Z</time></trkpt><trkpt lat="45.50682618787586" lon="11.126134272135275"><ele>187.0</ele><time>2026-04-04T13:56:29.002Z</time></trkpt><trkpt lat="45.50672656083371" lon="11.126127003096983"><ele>186.0</ele><time>2026-04-04T13:56:30.002Z</time></trkpt><trkpt lat="45.50663299413131" lon="11.126115064185935"><ele>185.0</ele><time>2026-04-04T13:56:31.002Z</time></trkpt><trkpt lat="45.50655948476101" lon="11.126151739585403"><ele>184.0</ele><time>2026-04-04T13:56:32.002Z</time></trkpt><trkpt lat="45.506471672674586" lon="11.12623306382504"><ele>183.0</ele><time>2026-04-04T13:56:33.002Z</time></trkpt><trkpt lat="45.50637688792702" lon="11.126306833724806"><ele>183.0</ele><time>2026-04-04T13:56:34.002Z</time></trkpt><trkpt lat="45.506284159567876" lon="11.12640777001193"><ele>183.0</ele><time>2026-04-04T13:56:35.002Z</time></trkpt><trkpt lat="45.50618586760996" lon="11.126501414365817"><ele>183.0</ele><time>2026-04-04T13:56:36.002Z</time></trkpt><trkpt lat="45.50608568371972" lon="11.126600388474431"><ele>183.0</ele><time>2026-04-04T13:56:37.002Z</time></trkpt><trkpt lat="45.505969728012936" lon="11.126678996036999"><ele>182.25</ele><time>2026-04-04T13:56:38.002Z</time></trkpt><trkpt lat="45.50587786546811" lon="11.126783216423878"><ele>181.5</ele><time>2026-04-04T13:56:39.002Z</time></trkpt><trkpt lat="45.50578629799455" lon="11.126875653492005"><ele>180.75</ele><time>2026-04-04T13:56:40.002Z</time></trkpt><trkpt lat="45.50567482120756" lon="11.12695171154856"><ele>180.0</ele><time>2026-04-04T13:56:41.002Z</time></trkpt><trkpt lat="45.50557297793268" lon="11.127012662483482"><ele>180.0</ele><time>2026-04-04T13:56:42.002Z</time></trkpt><trkpt lat="45.505463579861505" lon="11.127074499863264"><ele>180.0</ele><time>2026-04-04T13:56:43.002Z</time></trkpt><trkpt lat="45.50535074090804" lon="11.127128833618274"><ele>180.0</ele><time>2026-04-04T13:56:44.002Z</time></trkpt><trkpt lat="45.5052254615035" lon="11.127181629675366"><ele>180.0</ele><time>2026-04-04T13:56:45.002Z</time></trkpt><trkpt lat="45.505144848371074" lon="11.127257663597083"><ele>180.25</ele><time>2026-04-04T13:56:46.002Z</time></trkpt><trkpt lat="45.50504067968597" lon="11.127327728950755"><ele>180.5</ele><time>2026-04-04T13:56:47.002Z</time></trkpt><trkpt lat="45.504934808928816" lon="11.127395552280305"><ele>180.75</ele><time>2026-04-04T13:56:48.002Z</time></trkpt><trkpt lat="45.50482888959907" lon="11.127461926278563"><ele>181.0</ele><time>2026-04-04T13:56:49.002Z</time></trkpt><trkpt lat="45.50472908068204" lon="11.127530456098544"><ele>181.0</ele><time>2026-04-04T13:56:50.002Z</time></trkpt><trkpt lat="45.50464504190956" lon="11.127592961525535"><ele>181.0</ele><time>2026-04-04T13:56:51.002Z</time></trkpt><trkpt lat="45.504550598312186" lon="11.127644543926074"><ele>181.0</ele><time>2026-04-04T13:56:52.002Z</time></trkpt><trkpt lat="45.50444380212435" lon="11.127715292083742"><ele>181.0</ele><time>2026-04-04T13:56:53.002Z</time></trkpt><trkpt lat="45.50434150288159" lon="11.127775831542701"><ele>181.0</ele><time>2026-04-04T13:56:54.002Z</time></trkpt><trkpt lat="45.50424726997057" lon="11.127823067648235"><ele>178.83333333333334</ele><time>2026-04-04T13:56:55.002Z</time></trkpt><trkpt lat="45.50416997243829" lon="11.127857236702706"><ele>176.66666666666669</ele><time>2026-04-04T13:56:56.002Z</time></trkpt><trkpt lat="45.504104793527034" lon="11.127876342564878"><ele>174.5</ele><time>2026-04-04T13:56:58.002Z</time></trkpt><trkpt lat="45.50402615052833" lon="11.127897498967824"><ele>172.33333333333334</ele><time>2026-04-04T13:57:02.003Z</time></trkpt><trkpt lat="45.50395122669571" lon="11.12790701811614"><ele>170.16666666666666</ele><time>2026-04-04T13:57:04.003Z</time></trkpt><trkpt lat="45.50385650482277" lon="11.127892492050856"><ele>168.0</ele><time>2026-04-04T13:57:06.003Z</time></trkpt><trkpt lat="45.50379681323848" lon="11.127841717829615"><ele>167.0</ele><time>2026-04-04T13:57:07.003Z</time></trkpt><trkpt lat="45.50372761031988" lon="11.127727975063799"><ele>166.0</ele><time>2026-04-04T13:57:08.003Z</time></trkpt><trkpt lat="45.50364193003288" lon="11.127659418009967"><ele>165.0</ele><time>2026-04-04T13:57:09Z</time></trkpt><trkpt lat="45.50356633565048" lon="11.127607033689834"><ele>164.0</ele><time>2026-04-04T13:57:10Z</time></trkpt><trkpt lat="45.5034960403796" lon="11.127595166824612"><ele>163.0</ele><time>2026-04-04T13:57:11Z</time></trkpt><trkpt lat="45.50343246829428" lon="11.127562392565048"><ele>162.0</ele><time>2026-04-04T13:57:12Z</time></trkpt><trkpt lat="45.50337571017366" lon="11.127471873883684"><ele>162.33333333333334</ele><time>2026-04-04T13:57:13Z</time></trkpt><trkpt lat="45.503322921170756" lon="11.127356842312075"><ele>162.66666666666666</ele><time>2026-04-04T13:57:14Z</time></trkpt><trkpt lat="45.503288641339125" lon="11.127246181782807"><ele>163.0</ele><time>2026-04-04T13:57:15Z</time></trkpt><trkpt lat="45.503237371428526" lon="11.12717185336237"><ele>163.33333333333331</ele><time>2026-04-04T13:57:16Z</time></trkpt><trkpt lat="45.503171712780976" lon="11.127141420130247"><ele>163.66666666666666</ele><time>2026-04-04T13:57:17Z</time></trkpt><trkpt lat="45.50308724637837" lon="11.127144537680676"><ele>164.0</ele><time>2026-04-04T13:57:18Z</time></trkpt><trkpt lat="45.502971557226665" lon="11.127154814758846"><ele>164.25</ele><time>2026-04-04T13:57:19Z</time></trkpt><trkpt lat="45.502848089598345" lon="11.127156401514151"><ele>164.5</ele><time>2026-04-04T13:57:20Z</time></trkpt><trkpt lat="45.502698555702736" lon="11.127174404938653"><ele>164.75</ele><time>2026-04-04T13:57:21Z</time></trkpt><trkpt lat="45.50254139122114" lon="11.127195962941832"><ele>165.0</ele><time>2026-04-04T13:57:22Z</time></trkpt><trkpt lat="45.50236583473058" lon="11.12723882242562"><ele>165.0</ele><time>2026-04-04T13:57:23Z</time></trkpt><trkpt lat="45.50220074003484" lon="11.127295541873535"><ele>165.0</ele><time>2026-04-04T13:57:24Z</time></trkpt><trkpt lat="45.502058286900855" lon="11.127359624234657"><ele>165.0</ele><time>2026-04-04T13:57:25Z</time></trkpt><trkpt lat="45.50192727276385" lon="11.127437855230793"><ele>162.5</ele><time>2026-04-04T13:57:26Z</time></trkpt><trkpt lat="45.50180056669788" lon="11.127544834766661"><ele>160.0</ele><time>2026-04-04T13:57:27Z</time></trkpt><trkpt lat="45.50168655306256" lon="11.127664869100027"><ele>157.5</ele><time>2026-04-04T13:57:28Z</time></trkpt><trkpt lat="45.501576252670645" lon="11.127787780588369"><ele>155.0</ele><time>2026-04-04T13:57:29Z</time></trkpt><trkpt lat="45.50146563836066" lon="11.12791014789333"><ele>155.0</ele><time>2026-04-04T13:57:30Z</time></trkpt><trkpt lat="45.501357164351596" lon="11.128024600424022"><ele>155.0</ele><time>2026-04-04T13:57:31Z</time></trkpt><trkpt lat="45.50124975994313" lon="11.128132881869872"><ele>155.0</ele><time>2026-04-04T13:57:32Z</time></trkpt><trkpt lat="45.50116634449741" lon="11.12823099292287"><ele>155.0</ele><time>2026-04-04T13:57:33Z</time></trkpt><trkpt lat="45.50111035650775" lon="11.128310713633917"><ele>154.83333333333331</ele><time>2026-04-04T13:57:34Z</time></trkpt><trkpt lat="45.50101266681374" lon="11.128340557818547"><ele>154.66666666666666</ele><time>2026-04-04T13:57:36Z</time></trkpt><trkpt lat="45.500964897059944" lon="11.128278062857037"><ele>154.5</ele><time>2026-04-04T13:57:37Z</time></trkpt><trkpt lat="45.5008933848967" lon="11.128165311234126"><ele>154.33333333333334</ele><time>2026-04-04T13:57:39Z</time></trkpt><trkpt lat="45.50082910771619" lon="11.128197817091683"><ele>154.16666666666669</ele><time>2026-04-04T13:57:40Z</time></trkpt><trkpt lat="45.50075852903576" lon="11.128297128479964"><ele>154.0</ele><time>2026-04-04T13:57:41Z</time></trkpt><trkpt lat="45.50067381811456" lon="11.128407380614325"><ele>154.0</ele><time>2026-04-04T13:57:42Z</time></trkpt><trkpt lat="45.50055622691578" lon="11.128510758565916"><ele>154.0</ele><time>2026-04-04T13:57:43Z</time></trkpt><trkpt lat="45.500428205269735" lon="11.12859434634388"><ele>154.0</ele><time>2026-04-04T13:57:44Z</time></trkpt><trkpt lat="45.50028417060526" lon="11.128672260787653"><ele>154.0</ele><time>2026-04-04T13:57:45Z</time></trkpt><trkpt lat="45.50013515646277" lon="11.128756685186696"><ele>153.5</ele><time>2026-04-04T13:57:46Z</time></trkpt><trkpt lat="45.500007397819296" lon="11.128844014917304"><ele>153.0</ele><time>2026-04-04T13:57:47Z</time></trkpt><trkpt lat="45.49989568349873" lon="11.128927684632835"><ele>152.5</ele><time>2026-04-04T13:57:48.001Z</time></trkpt><trkpt lat="45.49979431253793" lon="11.128992781661118"><ele>152.0</ele><time>2026-04-04T13:57:49.001Z</time></trkpt><trkpt lat="45.49967584527617" lon="11.129048518756402"><ele>151.25</ele><time>2026-04-04T13:57:50.001Z</time></trkpt><trkpt lat="45.49954647224624" lon="11.129054277813914"><ele>150.5</ele><time>2026-04-04T13:57:51.001Z</time></trkpt><trkpt lat="45.49941339162442" lon="11.129013245722797"><ele>149.75</ele><time>2026-04-04T13:57:52.001Z</time></trkpt><trkpt lat="45.49929294601118" lon="11.12892495467348"><ele>149.0</ele><time>2026-04-04T13:57:53.001Z</time></trkpt><trkpt lat="45.499165053213396" lon="11.128806723974376"><ele>149.0</ele><time>2026-04-04T13:57:54.001Z</time></trkpt><trkpt lat="45.49902105768036" lon="11.128683154853585"><ele>149.0</ele><time>2026-04-04T13:57:55.001Z</time></trkpt><trkpt lat="45.498883829044054" lon="11.128609719722824"><ele>149.0</ele><time>2026-04-04T13:57:56.001Z</time></trkpt><trkpt lat="45.49874196577366" lon="11.128591554203751"><ele>150.33333333333331</ele><time>2026-04-04T13:57:57.001Z</time></trkpt><trkpt lat="45.49859152730369" lon="11.128626543547567"><ele>151.66666666666666</ele><time>2026-04-04T13:57:58.001Z</time></trkpt><trkpt lat="45.49843852038138" lon="11.128677572553903"><ele>153.0</ele><time>2026-04-04T13:57:59.001Z</time></trkpt><trkpt lat="45.49829644111436" lon="11.128713959719882"><ele>153.0</ele><time>2026-04-04T13:58:00.001Z</time></trkpt><trkpt lat="45.498165644523105" lon="11.128731931155432"><ele>153.0</ele><time>2026-04-04T13:58:01.001Z</time></trkpt><trkpt lat="45.49803424859251" lon="11.128741986324036"><ele>153.0</ele><time>2026-04-04T13:58:02.001Z</time></trkpt><trkpt lat="45.497895125553676" lon="11.128752798461411"><ele>153.0</ele><time>2026-04-04T13:58:03.001Z</time></trkpt><trkpt lat="45.49774960468829" lon="11.128750650758503"><ele>152.5</ele><time>2026-04-04T13:58:04.001Z</time></trkpt><trkpt lat="45.49759966740155" lon="11.128736340983801"><ele>152.0</ele><time>2026-04-04T13:58:05.001Z</time></trkpt><trkpt lat="45.497454456133404" lon="11.128720997391765"><ele>151.5</ele><time>2026-04-04T13:58:06.001Z</time></trkpt><trkpt lat="45.497326447057354" lon="11.1287115126025"><ele>151.0</ele><time>2026-04-04T13:58:07.001Z</time></trkpt><trkpt lat="45.49719970536287" lon="11.128702444110559"><ele>149.25</ele><time>2026-04-04T13:58:08.001Z</time></trkpt><trkpt lat="45.497066170041656" lon="11.128690209239881"><ele>147.5</ele><time>2026-04-04T13:58:09.001Z</time></trkpt><trkpt lat="45.4969219303607" lon="11.12868237985573"><ele>145.75</ele><time>2026-04-04T13:58:10.001Z</time></trkpt><trkpt lat="45.49677885606976" lon="11.128672398635503"><ele>144.0</ele><time>2026-04-04T13:58:11.001Z</time></trkpt><trkpt lat="45.49663848691231" lon="11.128653077358095"><ele>144.0</ele><time>2026-04-04T13:58:12.001Z</time></trkpt><trkpt lat="45.49649748737429" lon="11.128629800731918"><ele>144.0</ele><time>2026-04-04T13:58:13.001Z</time></trkpt><trkpt lat="45.49635281301042" lon="11.128601954852414"><ele>144.0</ele><time>2026-04-04T13:58:14.001Z</time></trkpt><trkpt lat="45.4961944209395" lon="11.128572071936041"><ele>144.0</ele><time>2026-04-04T13:58:15.001Z</time></trkpt><trkpt lat="45.49603950474808" lon="11.128542583257316"><ele>143.5</ele><time>2026-04-04T13:58:16.001Z</time></trkpt><trkpt lat="45.49589179839034" lon="11.128511692688084"><ele>143.0</ele><time>2026-04-04T13:58:17.001Z</time></trkpt><trkpt lat="45.49574643460339" lon="11.128477018983883"><ele>142.5</ele><time>2026-04-04T13:58:18.001Z</time></trkpt><trkpt lat="45.49559939981858" lon="11.12845846071441"><ele>142.0</ele><time>2026-04-04T13:58:19.001Z</time></trkpt><trkpt lat="45.49545072654005" lon="11.128440337327426"><ele>141.0</ele><time>2026-04-04T13:58:20.001Z</time></trkpt><trkpt lat="45.49530218241395" lon="11.128430560523187"><ele>140.0</ele><time>2026-04-04T13:58:21.001Z</time></trkpt><trkpt lat="45.4951490118654" lon="11.12841906481952"><ele>139.0</ele><time>2026-04-04T13:58:22.001Z</time></trkpt><trkpt lat="45.49499586884888" lon="11.128403510920922"><ele>139.0</ele><time>2026-04-04T13:58:23.002Z</time></trkpt><trkpt lat="45.49484304721323" lon="11.128381357377751"><ele>139.0</ele><time>2026-04-04T13:58:24.002Z</time></trkpt><trkpt lat="45.494694066851665" lon="11.128365524182259"><ele>139.0</ele><time>2026-04-04T13:58:25.002Z</time></trkpt><trkpt lat="45.49456087324237" lon="11.128345684406995"><ele>139.0</ele><time>2026-04-04T13:58:26.002Z</time></trkpt><trkpt lat="45.494433139774834" lon="11.128321036281557"><ele>139.0</ele><time>2026-04-04T13:58:27.002Z</time></trkpt><trkpt lat="45.494316132619716" lon="11.12828722600817"><ele>139.0</ele><time>2026-04-04T13:58:28.002Z</time></trkpt><trkpt lat="45.49420744795366" lon="11.128251395517909"><ele>139.0</ele><time>2026-04-04T13:58:29.002Z</time></trkpt><trkpt lat="45.494112713355925" lon="11.128217304620932"><ele>139.0</ele><time>2026-04-04T13:58:30.002Z</time></trkpt><trkpt lat="45.49403446866621" lon="11.128185267865966"><ele>139.0</ele><time>2026-04-04T13:58:31.002Z</time></trkpt><trkpt lat="45.493946460009376" lon="11.12811283853939"><ele>139.33333333333334</ele><time>2026-04-04T13:58:33.002Z</time></trkpt><trkpt lat="45.493922967483385" lon="11.12800489083975"><ele>139.66666666666669</ele><time>2026-04-04T13:58:35.002Z</time></trkpt><trkpt lat="45.493920739578" lon="11.12788539792911"><ele>140.0</ele><time>2026-04-04T13:58:36.002Z</time></trkpt><trkpt lat="45.49392122689442" lon="11.127765728795262"><ele>140.33333333333334</ele><time>2026-04-04T13:58:37.002Z</time></trkpt><trkpt lat="45.49392082638363" lon="11.127621623793438"><ele>140.66666666666666</ele><time>2026-04-04T13:58:38.002Z</time></trkpt><trkpt lat="45.49391426933883" lon="11.127479533219304"><ele>141.0</ele><time>2026-04-04T13:58:39.002Z</time></trkpt><trkpt lat="45.49389017726934" lon="11.12735707926301"><ele>142.0</ele><time>2026-04-04T13:58:40.002Z</time></trkpt><trkpt lat="45.493853348240286" lon="11.127244529522928"><ele>143.0</ele><time>2026-04-04T13:58:41.002Z</time></trkpt><trkpt lat="45.493789575705506" lon="11.127136003602715"><ele>144.0</ele><time>2026-04-04T13:58:42.002Z</time></trkpt><trkpt lat="45.49370842020352" lon="11.127014953057715"><ele>145.0</ele><time>2026-04-04T13:58:43.002Z</time></trkpt><trkpt lat="45.49361782329008" lon="11.126876485929058"><ele>146.0</ele><time>2026-04-04T13:58:44.002Z</time></trkpt><trkpt lat="45.49353104635266" lon="11.126736678405724"><ele>146.0</ele><time>2026-04-04T13:58:45.002Z</time></trkpt><trkpt lat="45.49343591333212" lon="11.126590139870736"><ele>146.0</ele><time>2026-04-04T13:58:46.002Z</time></trkpt><trkpt lat="45.49333996469534" lon="11.126452436504335"><ele>146.0</ele><time>2026-04-04T13:58:47.002Z</time></trkpt><trkpt lat="45.493245426031905" lon="11.126310525914443"><ele>146.0</ele><time>2026-04-04T13:58:48.002Z</time></trkpt><trkpt lat="45.49315420453344" lon="11.126174078772259"><ele>145.75</ele><time>2026-04-04T13:58:49.002Z</time></trkpt><trkpt lat="45.493069116829325" lon="11.126048716028231"><ele>145.5</ele><time>2026-04-04T13:58:50.002Z</time></trkpt><trkpt lat="45.49298249021213" lon="11.125930780348332"><ele>145.25</ele><time>2026-04-04T13:58:51.002Z</time></trkpt><trkpt lat="45.492885039833475" lon="11.12582942461956"><ele>145.0</ele><time>2026-04-04T13:58:52.002Z</time></trkpt><trkpt lat="45.49276021707696" lon="11.125759520402552"><ele>145.0</ele><time>2026-04-04T13:58:53.002Z</time></trkpt><trkpt lat="45.492610640523004" lon="11.125736618838015"><ele>145.0</ele><time>2026-04-04T13:58:54.002Z</time></trkpt><trkpt lat="45.49244498905969" lon="11.125754052175468"><ele>145.0</ele><time>2026-04-04T13:58:55.002Z</time></trkpt><trkpt lat="45.49228121289113" lon="11.125790715896287"><ele>145.0</ele><time>2026-04-04T13:58:56.002Z</time></trkpt><trkpt lat="45.49214211534917" lon="11.125808254780766"><ele>145.0</ele><time>2026-04-04T13:58:57.002Z</time></trkpt><trkpt lat="45.49201475181684" lon="11.125819120061614"><ele>145.0</ele><time>2026-04-04T13:58:58.003Z</time></trkpt><trkpt lat="45.49188074458999" lon="11.125835537515478"><ele>145.0</ele><time>2026-04-04T13:58:59.003Z</time></trkpt><trkpt lat="45.491731511685444" lon="11.12585488676876"><ele>145.25</ele><time>2026-04-04T13:59:00.003Z</time></trkpt><trkpt lat="45.491582879572086" lon="11.125864075934675"><ele>145.5</ele><time>2026-04-04T13:59:01.003Z</time></trkpt><trkpt lat="45.49144048616864" lon="11.125889640249207"><ele>145.75</ele><time>2026-04-04T13:59:02.003Z</time></trkpt><trkpt lat="45.49131193745882" lon="11.125931325583164"><ele>146.0</ele><time>2026-04-04T13:59:03.003Z</time></trkpt><trkpt lat="45.4911869939783" lon="11.125980872908945"><ele>146.25</ele><time>2026-04-04T13:59:04.003Z</time></trkpt><trkpt lat="45.49105057314003" lon="11.126024418478913"><ele>146.5</ele><time>2026-04-04T13:59:05.003Z</time></trkpt><trkpt lat="45.490910829619644" lon="11.126067591407125"><ele>146.75</ele><time>2026-04-04T13:59:06.003Z</time></trkpt><trkpt lat="45.49076559282926" lon="11.126102641851134"><ele>147.0</ele><time>2026-04-04T13:59:07.003Z</time></trkpt><trkpt lat="45.490617664665045" lon="11.126139607958946"><ele>147.0</ele><time>2026-04-04T13:59:08.003Z</time></trkpt><trkpt lat="45.490466696541134" lon="11.126174842718658"><ele>147.0</ele><time>2026-04-04T13:59:09.003Z</time></trkpt><trkpt lat="45.49031801547264" lon="11.126217080431493"><ele>147.0</ele><time>2026-04-04T13:59:10.003Z</time></trkpt><trkpt lat="45.490174837143265" lon="11.126257489748529"><ele>146.75</ele><time>2026-04-04T13:59:11.003Z</time></trkpt><trkpt lat="45.49003314049699" lon="11.126294167866881"><ele>146.5</ele><time>2026-04-04T13:59:12.003Z</time></trkpt><trkpt lat="45.489887042263014" lon="11.126330914954256"><ele>146.25</ele><time>2026-04-04T13:59:13.003Z</time></trkpt><trkpt lat="45.48974654212195" lon="11.12637071377235"><ele>146.0</ele><time>2026-04-04T13:59:14.003Z</time></trkpt><trkpt lat="45.48961775971009" lon="11.12642363279875"><ele>144.0</ele><time>2026-04-04T13:59:15Z</time></trkpt><trkpt lat="45.48949848646507" lon="11.126510526494679"><ele>142.0</ele><time>2026-04-04T13:59:16Z</time></trkpt><trkpt lat="45.4893952938647" lon="11.126634355697984"><ele>140.0</ele><time>2026-04-04T13:59:17Z</time></trkpt><trkpt lat="45.4893023103267" lon="11.126780852413027"><ele>138.0</ele><time>2026-04-04T13:59:18Z</time></trkpt><trkpt lat="45.48921880354951" lon="11.126930059215905"><ele>136.5</ele><time>2026-04-04T13:59:19Z</time></trkpt><trkpt lat="45.48911898785918" lon="11.127036918159138"><ele>135.0</ele><time>2026-04-04T13:59:20Z</time></trkpt><trkpt lat="45.48898874157357" lon="11.127077491805101"><ele>133.5</ele><time>2026-04-04T13:59:21Z</time></trkpt><trkpt lat="45.48883772750715" lon="11.127080983171844"><ele>132.0</ele><time>2026-04-04T13:59:22Z</time></trkpt><trkpt lat="45.4886719296154" lon="11.127032128428437"><ele>131.5</ele><time>2026-04-04T13:59:23Z</time></trkpt><trkpt lat="45.4885214104695" lon="11.12698232809522"><ele>131.0</ele><time>2026-04-04T13:59:24Z</time></trkpt><trkpt lat="45.48837814371938" lon="11.126953854270809"><ele>130.5</ele><time>2026-04-04T13:59:25Z</time></trkpt><trkpt lat="45.48823373294803" lon="11.126931294805521"><ele>130.0</ele><time>2026-04-04T13:59:26Z</time></trkpt><trkpt lat="45.48810508054879" lon="11.12690813745107"><ele>130.0</ele><time>2026-04-04T13:59:27Z</time></trkpt><trkpt lat="45.48797731392135" lon="11.126884853288047"><ele>130.0</ele><time>2026-04-04T13:59:28Z</time></trkpt><trkpt lat="45.48784250003526" lon="11.12686507615633"><ele>130.0</ele><time>2026-04-04T13:59:29Z</time></trkpt><trkpt lat="45.48770369807569" lon="11.126838231660946"><ele>130.0</ele><time>2026-04-04T13:59:30Z</time></trkpt><trkpt lat="45.487573543851376" lon="11.12680898725782"><ele>129.75</ele><time>2026-04-04T13:59:31Z</time></trkpt><trkpt lat="45.48745438960362" lon="11.126785731676076"><ele>129.5</ele><time>2026-04-04T13:59:32Z</time></trkpt><trkpt lat="45.48733599234153" lon="11.12678263110308"><ele>129.25</ele><time>2026-04-04T13:59:33Z</time></trkpt><trkpt lat="45.48721472266243" lon="11.126816258386329"><ele>129.0</ele><time>2026-04-04T13:59:34Z</time></trkpt><trkpt lat="45.48708800438582" lon="11.12689176388054"><ele>131.0</ele><time>2026-04-04T13:59:35Z</time></trkpt><trkpt lat="45.48696545165083" lon="11.127001286392703"><ele>133.0</ele><time>2026-04-04T13:59:36Z</time></trkpt><trkpt lat="45.48685483998738" lon="11.12714760960175"><ele>135.0</ele><time>2026-04-04T13:59:37Z</time></trkpt><trkpt lat="45.486747253676725" lon="11.127320212276919"><ele>132.25</ele><time>2026-04-04T13:59:38Z</time></trkpt><trkpt lat="45.48664705273873" lon="11.12748234260982"><ele>129.5</ele><time>2026-04-04T13:59:39Z</time></trkpt><trkpt lat="45.48653896327541" lon="11.127613419877125"><ele>126.75</ele><time>2026-04-04T13:59:40Z</time></trkpt><trkpt lat="45.48642051422824" lon="11.127719573689705"><ele>124.0</ele><time>2026-04-04T13:59:41Z</time></trkpt><trkpt lat="45.48627245987954" lon="11.127800303593345"><ele>123.66666666666667</ele><time>2026-04-04T13:59:42Z</time></trkpt><trkpt lat="45.48611234145717" lon="11.127855596883517"><ele>123.33333333333334</ele><time>2026-04-04T13:59:43Z</time></trkpt><trkpt lat="45.48596118648515" lon="11.127902227736808"><ele>123.0</ele><time>2026-04-04T13:59:44.001Z</time></trkpt><trkpt lat="45.48582602853089" lon="11.127945508157799"><ele>123.0</ele><time>2026-04-04T13:59:45.001Z</time></trkpt><trkpt lat="45.48569217035518" lon="11.127995365259103"><ele>123.0</ele><time>2026-04-04T13:59:46.001Z</time></trkpt><trkpt lat="45.485555706271064" lon="11.128038788662256"><ele>123.0</ele><time>2026-04-04T13:59:47.001Z</time></trkpt><trkpt lat="45.48541550072849" lon="11.128055087927024"><ele>123.0</ele><time>2026-04-04T13:59:48.001Z</time></trkpt><trkpt lat="45.485268162092254" lon="11.12802350499591"><ele>123.25</ele><time>2026-04-04T13:59:49.001Z</time></trkpt><trkpt lat="45.48511152765107" lon="11.127943725995523"><ele>123.5</ele><time>2026-04-04T13:59:50.001Z</time></trkpt><trkpt lat="45.48497860293706" lon="11.12786677246548"><ele>123.75</ele><time>2026-04-04T13:59:51.001Z</time></trkpt><trkpt lat="45.48485308743481" lon="11.12780067499251"><ele>124.0</ele><time>2026-04-04T13:59:52.001Z</time></trkpt><trkpt lat="45.48471814946008" lon="11.127759743470852"><ele>123.75</ele><time>2026-04-04T13:59:53.001Z</time></trkpt><trkpt lat="45.484584139507746" lon="11.127700164228235"><ele>123.5</ele><time>2026-04-04T13:59:54.001Z</time></trkpt><trkpt lat="45.484437054224024" lon="11.127657323797546"><ele>123.25</ele><time>2026-04-04T13:59:55.001Z</time></trkpt><trkpt lat="45.48428522026234" lon="11.127620987718503"><ele>123.0</ele><time>2026-04-04T13:59:56.001Z</time></trkpt><trkpt lat="45.48412547004754" lon="11.127580874081394"><ele>123.0</ele><time>2026-04-04T13:59:57.001Z</time></trkpt><trkpt lat="45.48397155666154" lon="11.12752416231188"><ele>123.0</ele><time>2026-04-04T13:59:58.001Z</time></trkpt><trkpt lat="45.48383321095165" lon="11.127464850727014"><ele>123.0</ele><time>2026-04-04T13:59:59.001Z</time></trkpt><trkpt lat="45.48368920083297" lon="11.127400798086953"><ele>125.0</ele><time>2026-04-04T14:00:00.001Z</time></trkpt><trkpt lat="45.48355015696767" lon="11.127341180311237"><ele>127.0</ele><time>2026-04-04T14:00:01.001Z</time></trkpt><trkpt lat="45.48339697444708" lon="11.127281022450887"><ele>129.0</ele><time>2026-04-04T14:00:02.001Z</time></trkpt><trkpt lat="45.48325452461593" lon="11.127237299869691"><ele>129.0</ele><time>2026-04-04T14:00:03.001Z</time></trkpt><trkpt lat="45.48311625315042" lon="11.127207706962816"><ele>129.0</ele><time>2026-04-04T14:00:04.001Z</time></trkpt><trkpt lat="45.482968791180284" lon="11.127182926123513"><ele>129.0</ele><time>2026-04-04T14:00:05.001Z</time></trkpt><trkpt lat="45.48282472895245" lon="11.127161421883683"><ele>129.0</ele><time>2026-04-04T14:00:06.001Z</time></trkpt><trkpt lat="45.48267862906138" lon="11.127139738274597"><ele>128.4</ele><time>2026-04-04T14:00:07.001Z</time></trkpt><trkpt lat="45.48254685273468" lon="11.127134046893335"><ele>127.80000000000001</ele><time>2026-04-04T14:00:08.001Z</time></trkpt><trkpt lat="45.482425473987455" lon="11.127127535243352"><ele>127.19999999999999</ele><time>2026-04-04T14:00:09.001Z</time></trkpt><trkpt lat="45.48233175914319" lon="11.127120746421962"><ele>126.6</ele><time>2026-04-04T14:00:10.001Z</time></trkpt><trkpt lat="45.4822392988718" lon="11.127106400478583"><ele>126.0</ele><time>2026-04-04T14:00:11.001Z</time></trkpt><trkpt lat="45.48216507571813" lon="11.127078484111992"><ele>125.5</ele><time>2026-04-04T14:00:12.001Z</time></trkpt><trkpt lat="45.48208338781726" lon="11.127025826421434"><ele>125.0</ele><time>2026-04-04T14:00:13.001Z</time></trkpt><trkpt lat="45.48198860888121" lon="11.126933386649638"><ele>124.5</ele><time>2026-04-04T14:00:14.001Z</time></trkpt><trkpt lat="45.48190851016037" lon="11.12680297235136"><ele>124.0</ele><time>2026-04-04T14:00:15.001Z</time></trkpt><trkpt lat="45.48184056978786" lon="11.126635005009808"><ele>125.0</ele><time>2026-04-04T14:00:16.001Z</time></trkpt><trkpt lat="45.48179040804041" lon="11.126431781045179"><ele>126.0</ele><time>2026-04-04T14:00:17.001Z</time></trkpt><trkpt lat="45.48174130656848" lon="11.126254428665666"><ele>127.0</ele><time>2026-04-04T14:00:18.001Z</time></trkpt><trkpt lat="45.48167965871419" lon="11.126053023642111"><ele>128.0</ele><time>2026-04-04T14:00:19.002Z</time></trkpt><trkpt lat="45.481612120469826" lon="11.12586137526475"><ele>129.25</ele><time>2026-04-04T14:00:20.002Z</time></trkpt><trkpt lat="45.48154913208757" lon="11.125690495744172"><ele>130.5</ele><time>2026-04-04T14:00:21.002Z</time></trkpt><trkpt lat="45.48148117245617" lon="11.125524956808379"><ele>131.75</ele><time>2026-04-04T14:00:22.002Z</time></trkpt><trkpt lat="45.48139682001109" lon="11.12536896188031"><ele>133.0</ele><time>2026-04-04T14:00:23.002Z</time></trkpt><trkpt lat="45.481305504679824" lon="11.125222004752395"><ele>132.5</ele><time>2026-04-04T14:00:24.002Z</time></trkpt><trkpt lat="45.48122266464411" lon="11.12509455899662"><ele>132.0</ele><time>2026-04-04T14:00:25.002Z</time></trkpt><trkpt lat="45.48113739669111" lon="11.124964560080102"><ele>131.5</ele><time>2026-04-04T14:00:26.002Z</time></trkpt><trkpt lat="45.481064123517726" lon="11.124822628321672"><ele>131.0</ele><time>2026-04-04T14:00:27.002Z</time></trkpt><trkpt lat="45.48097573290309" lon="11.12466507308416"><ele>131.0</ele><time>2026-04-04T14:00:28.002Z</time></trkpt><trkpt lat="45.480879033852354" lon="11.124501744820773"><ele>131.0</ele><time>2026-04-04T14:00:29.002Z</time></trkpt><trkpt lat="45.480780635605115" lon="11.124337845654802"><ele>131.0</ele><time>2026-04-04T14:00:30.002Z</time></trkpt><trkpt lat="45.48069408666367" lon="11.124190914293921"><ele>131.0</ele><time>2026-04-04T14:00:31.002Z</time></trkpt><trkpt lat="45.48062709986356" lon="11.124076889682764"><ele>131.16666666666666</ele><time>2026-04-04T14:00:32.002Z</time></trkpt><trkpt lat="45.48057053368815" lon="11.123979599063698"><ele>131.33333333333331</ele><time>2026-04-04T14:00:33.002Z</time></trkpt><trkpt lat="45.480515532917224" lon="11.123877472293431"><ele>131.5</ele><time>2026-04-04T14:00:34.002Z</time></trkpt><trkpt lat="45.48047008521122" lon="11.123802271176844"><ele>131.66666666666666</ele><time>2026-04-04T14:00:35.002Z</time></trkpt><trkpt lat="45.48042167148988" lon="11.123668971705044"><ele>131.83333333333334</ele><time>2026-04-04T14:00:37.002Z</time></trkpt><trkpt lat="45.480360453075285" lon="11.12356829077398"><ele>132.0</ele><time>2026-04-04T14:00:38.002Z</time></trkpt><trkpt lat="45.480281686803885" lon="11.123443015786822"><ele>132.0</ele><time>2026-04-04T14:00:39.002Z</time></trkpt><trkpt lat="45.480209203709386" lon="11.123320794163444"><ele>132.0</ele><time>2026-04-04T14:00:40.002Z</time></trkpt><trkpt lat="45.48012691100595" lon="11.123236631403579"><ele>132.0</ele><time>2026-04-04T14:00:41.002Z</time></trkpt><trkpt lat="45.48004206336339" lon="11.12318728695171"><ele>132.0</ele><time>2026-04-04T14:00:42.002Z</time></trkpt><trkpt lat="45.47997881497786" lon="11.123189207721127"><ele>132.0</ele><time>2026-04-04T14:00:43.002Z</time></trkpt><trkpt lat="45.47990821161633" lon="11.123236588051455"><ele>132.0</ele><time>2026-04-04T14:00:44.002Z</time></trkpt><trkpt lat="45.479776899757105" lon="11.123282404873684"><ele>132.0</ele><time>2026-04-04T14:00:46.002Z</time></trkpt><trkpt lat="45.47969184912081" lon="11.123303767331524"><ele>132.0</ele><time>2026-04-04T14:00:47.002Z</time></trkpt><trkpt lat="45.4796020893732" lon="11.123322159153522"><ele>132.0</ele><time>2026-04-04T14:00:48.002Z</time></trkpt><trkpt lat="45.47950690862482" lon="11.12335119057778"><ele>132.0</ele><time>2026-04-04T14:00:49.002Z</time></trkpt><trkpt lat="45.47939429013334" lon="11.123376575718142"><ele>132.0</ele><time>2026-04-04T14:00:50.002Z</time></trkpt><trkpt lat="45.47927725500237" lon="11.123402562497159"><ele>133.33333333333334</ele><time>2026-04-04T14:00:51.002Z</time></trkpt><trkpt lat="45.479185076903704" lon="11.123415368367162"><ele>134.66666666666666</ele><time>2026-04-04T14:00:52.002Z</time></trkpt><trkpt lat="45.47912836078097" lon="11.123363712733328"><ele>136.0</ele><time>2026-04-04T14:00:53.002Z</time></trkpt><trkpt lat="45.47908642046697" lon="11.1232567794583"><ele>137.33333333333331</ele><time>2026-04-04T14:00:54.002Z</time></trkpt><trkpt lat="45.479071007293065" lon="11.123125405012406"><ele>138.66666666666666</ele><time>2026-04-04T14:00:55.003Z</time></trkpt><trkpt lat="45.47908012329922" lon="11.1229703889421"><ele>140.0</ele><time>2026-04-04T14:00:56.003Z</time></trkpt><trkpt lat="45.479075388793724" lon="11.12278584836567"><ele>140.0</ele><time>2026-04-04T14:00:57.003Z</time></trkpt><trkpt lat="45.47905470394704" lon="11.12259818211286"><ele>140.0</ele><time>2026-04-04T14:00:58.003Z</time></trkpt><trkpt lat="45.479034668761486" lon="11.122386367352416"><ele>140.0</ele><time>2026-04-04T14:00:59.003Z</time></trkpt><trkpt lat="45.47902392836021" lon="11.122159065469031"><ele>140.0</ele><time>2026-04-04T14:01:00.003Z</time></trkpt><trkpt lat="45.47902112352189" lon="11.121923191751474"><ele>140.0</ele><time>2026-04-04T14:01:01.003Z</time></trkpt><trkpt lat="45.47901974577397" lon="11.121682885370637"><ele>140.0</ele><time>2026-04-04T14:01:02.003Z</time></trkpt><trkpt lat="45.47901525189449" lon="11.121428715080125"><ele>140.0</ele><time>2026-04-04T14:01:03.003Z</time></trkpt><trkpt lat="45.479004658020905" lon="11.121172799760561"><ele>141.33333333333331</ele><time>2026-04-04T14:01:04.003Z</time></trkpt><trkpt lat="45.4789996669771" lon="11.120927080860513"><ele>142.66666666666666</ele><time>2026-04-04T14:01:05.003Z</time></trkpt><trkpt lat="45.47900375079391" lon="11.120695983880248"><ele>144.0</ele><time>2026-04-04T14:01:06.003Z</time></trkpt><trkpt lat="45.47899953939583" lon="11.12048420255909"><ele>146.66666666666666</ele><time>2026-04-04T14:01:07.003Z</time></trkpt><trkpt lat="45.47897256514319" lon="11.12026825636992"><ele>149.33333333333331</ele><time>2026-04-04T14:01:08.003Z</time></trkpt><trkpt lat="45.47892425304243" lon="11.120045271017554"><ele>152.0</ele><time>2026-04-04T14:01:09.003Z</time></trkpt><trkpt lat="45.47886021518545" lon="11.11981357554627"><ele>153.66666666666666</ele><time>2026-04-04T14:01:10.003Z</time></trkpt><trkpt lat="45.47878581680229" lon="11.119601398439652"><ele>155.33333333333334</ele><time>2026-04-04T14:01:11.003Z</time></trkpt><trkpt lat="45.47871743150247" lon="11.119389362499815"><ele>157.0</ele><time>2026-04-04T14:01:12.003Z</time></trkpt><trkpt lat="45.47866917453718" lon="11.119177617626258"><ele>160.25</ele><time>2026-04-04T14:01:13.003Z</time></trkpt><trkpt lat="45.47863800752603" lon="11.11899742928887"><ele>163.5</ele><time>2026-04-04T14:01:14.003Z</time></trkpt><trkpt lat="45.47861143171616" lon="11.118834030000384"><ele>166.75</ele><time>2026-04-04T14:01:15.003Z</time></trkpt><trkpt lat="45.478588369963866" lon="11.118681946760626"><ele>170.0</ele><time>2026-04-04T14:01:16.003Z</time></trkpt><trkpt lat="45.47856309334148" lon="11.118513118660406"><ele>170.0</ele><time>2026-04-04T14:01:17.003Z</time></trkpt><trkpt lat="45.478527870607095" lon="11.11832040557523"><ele>170.0</ele><time>2026-04-04T14:01:18.003Z</time></trkpt><trkpt lat="45.4785051739143" lon="11.1181259787785"><ele>170.0</ele><time>2026-04-04T14:01:19.003Z</time></trkpt><trkpt lat="45.47847801005881" lon="11.117934622295037"><ele>170.0</ele><time>2026-04-04T14:01:20.003Z</time></trkpt><trkpt lat="45.4784408081917" lon="11.117764987236141"><ele>169.5</ele><time>2026-04-04T14:01:21.001Z</time></trkpt><trkpt lat="45.478363827585255" lon="11.117612341680651"><ele>169.0</ele><time>2026-04-04T14:01:22.001Z</time></trkpt><trkpt lat="45.478258664225564" lon="11.117469844551245"><ele>168.5</ele><time>2026-04-04T14:01:23.001Z</time></trkpt><trkpt lat="45.47815614597317" lon="11.11734125944785"><ele>168.0</ele><time>2026-04-04T14:01:24.001Z</time></trkpt><trkpt lat="45.478059249540514" lon="11.1172121743248"><ele>168.0</ele><time>2026-04-04T14:01:25.001Z</time></trkpt><trkpt lat="45.47796974578297" lon="11.117070477344068"><ele>168.0</ele><time>2026-04-04T14:01:26.001Z</time></trkpt><trkpt lat="45.47789826321614" lon="11.11691803349518"><ele>168.0</ele><time>2026-04-04T14:01:27.001Z</time></trkpt><trkpt lat="45.477851163823836" lon="11.116747578733758"><ele>168.0</ele><time>2026-04-04T14:01:28.001Z</time></trkpt><trkpt lat="45.477805557631804" lon="11.116583244284058"><ele>170.0</ele><time>2026-04-04T14:01:29.001Z</time></trkpt><trkpt lat="45.47774686367208" lon="11.116414877266335"><ele>172.0</ele><time>2026-04-04T14:01:30.001Z</time></trkpt><trkpt lat="45.47769206997418" lon="11.116266586540151"><ele>174.0</ele><time>2026-04-04T14:01:31.001Z</time></trkpt><trkpt lat="45.47763645563513" lon="11.11613290007965"><ele>176.0</ele><time>2026-04-04T14:01:32.001Z</time></trkpt><trkpt lat="45.47759397968196" lon="11.116016458620553"><ele>176.0</ele><time>2026-04-04T14:01:33.001Z</time></trkpt><trkpt lat="45.47756161697241" lon="11.115877361295286"><ele>176.0</ele><time>2026-04-04T14:01:35.001Z</time></trkpt><trkpt lat="45.47748831392688" lon="11.115887472037212"><ele>176.0</ele><time>2026-04-04T14:01:37.001Z</time></trkpt><trkpt lat="45.477463768339284" lon="11.115986177606679"><ele>176.0</ele><time>2026-04-04T14:01:38.001Z</time></trkpt><trkpt lat="45.477479547197866" lon="11.116109343726034"><ele>176.0</ele><time>2026-04-04T14:01:39.001Z</time></trkpt><trkpt lat="45.477505357404425" lon="11.116209694168623"><ele>176.0</ele><time>2026-04-04T14:01:40.001Z</time></trkpt><trkpt lat="45.477425838496345" lon="11.116280366790917"><ele>176.0</ele><time>2026-04-04T14:01:42.001Z</time></trkpt><trkpt lat="45.47735803532025" lon="11.11624148625455"><ele>176.0</ele><time>2026-04-04T14:01:44.001Z</time></trkpt><trkpt lat="45.47730182190185" lon="11.11608668035059"><ele>176.0</ele><time>2026-04-04T14:01:46.001Z</time></trkpt><trkpt lat="45.477184263066505" lon="11.11599667733781"><ele>176.0</ele><time>2026-04-04T14:01:48.001Z</time></trkpt><trkpt lat="45.477106838761756" lon="11.115985778605042"><ele>176.0</ele><time>2026-04-04T14:01:49.001Z</time></trkpt><trkpt lat="45.477012361337465" lon="11.115981069416554"><ele>179.4</ele><time>2026-04-04T14:01:50.001Z</time></trkpt><trkpt lat="45.47692220471745" lon="11.115974241123322"><ele>182.8</ele><time>2026-04-04T14:01:51.001Z</time></trkpt><trkpt lat="45.47682836394429" lon="11.11597059405381"><ele>186.20000000000002</ele><time>2026-04-04T14:01:52.001Z</time></trkpt><trkpt lat="45.47672131131284" lon="11.11597692834146"><ele>189.60000000000002</ele><time>2026-04-04T14:01:53.001Z</time></trkpt><trkpt lat="45.476634640673645" lon="11.11599618629198"><ele>193.0</ele><time>2026-04-04T14:01:54.001Z</time></trkpt><trkpt lat="45.47655621333851" lon="11.116021110447882"><ele>193.0</ele><time>2026-04-04T14:01:55.001Z</time></trkpt><trkpt lat="45.47647902428166" lon="11.116038186706962"><ele>193.0</ele><time>2026-04-04T14:01:56.001Z</time></trkpt><trkpt lat="45.47642603016163" lon="11.116135023856932"><ele>193.0</ele><time>2026-04-04T14:01:58.001Z</time></trkpt><trkpt lat="45.476454691311375" lon="11.1163411985629"><ele>193.0</ele><time>2026-04-04T14:02:00.001Z</time></trkpt><trkpt lat="45.47648764652896" lon="11.116436480228787"><ele>193.0</ele><time>2026-04-04T14:02:01.001Z</time></trkpt><trkpt lat="45.476535501077166" lon="11.11649912492925"><ele>193.0</ele><time>2026-04-04T14:02:02.001Z</time></trkpt><trkpt lat="45.47664160241179" lon="11.11655297654435"><ele>193.0</ele><time>2026-04-04T14:02:03.001Z</time></trkpt><trkpt lat="45.47671242448422" lon="11.11661609269828"><ele>193.0</ele><time>2026-04-04T14:02:04.001Z</time></trkpt><trkpt lat="45.47678635361491" lon="11.11669730672203"><ele>193.0</ele><time>2026-04-04T14:02:05.001Z</time></trkpt><trkpt lat="45.476852414309846" lon="11.116808159544169"><ele>193.0</ele><time>2026-04-04T14:02:06.001Z</time></trkpt><trkpt lat="45.476920300041044" lon="11.116937579788917"><ele>195.83333333333331</ele><time>2026-04-04T14:02:07.001Z</time></trkpt><trkpt lat="45.47696991609954" lon="11.11705711805716"><ele>198.66666666666666</ele><time>2026-04-04T14:02:08.001Z</time></trkpt><trkpt lat="45.477004211429495" lon="11.11714992389689"><ele>201.5</ele><time>2026-04-04T14:02:09.001Z</time></trkpt><trkpt lat="45.477036686722485" lon="11.117249828829271"><ele>204.33333333333331</ele><time>2026-04-04T14:02:10.001Z</time></trkpt><trkpt lat="45.47703636592462" lon="11.117374256182988"><ele>207.16666666666666</ele><time>2026-04-04T14:02:11.001Z</time></trkpt><trkpt lat="45.477033434499674" lon="11.11750653873783"><ele>210.0</ele><time>2026-04-04T14:02:12.001Z</time></trkpt><trkpt lat="45.47701922654881" lon="11.117654392064162"><ele>213.0</ele><time>2026-04-04T14:02:13.001Z</time></trkpt><trkpt lat="45.4770072098298" lon="11.117796885878514"><ele>216.0</ele><time>2026-04-04T14:02:14.001Z</time></trkpt><trkpt lat="45.47697029512758" lon="11.117903706995406"><ele>219.0</ele><time>2026-04-04T14:02:15.001Z</time></trkpt><trkpt lat="45.47695137159593" lon="11.117998426750848"><ele>222.0</ele><time>2026-04-04T14:02:16.002Z</time></trkpt><trkpt lat="45.47691836277705" lon="11.118104451074945"><ele>225.0</ele><time>2026-04-04T14:02:17.002Z</time></trkpt><trkpt lat="45.4768876757234" lon="11.11823918742565"><ele>228.0</ele><time>2026-04-04T14:02:19.002Z</time></trkpt><trkpt lat="45.47682312358671" lon="11.118210363171272"><ele>228.0</ele><time>2026-04-04T14:02:21.002Z</time></trkpt><trkpt lat="45.47681437555619" lon="11.118042634349246"><ele>228.0</ele><time>2026-04-04T14:02:23.002Z</time></trkpt><trkpt lat="45.47677469263234" lon="11.117930821812893"><ele>228.0</ele><time>2026-04-04T14:02:24.002Z</time></trkpt><trkpt lat="45.47671969670011" lon="11.11786636841681"><ele>228.0</ele><time>2026-04-04T14:02:25.002Z</time></trkpt><trkpt lat="45.4766564242583" lon="11.117766329978553"><ele>228.0</ele><time>2026-04-04T14:02:26.002Z</time></trkpt><trkpt lat="45.47658119108921" lon="11.117656970833853"><ele>228.0</ele><time>2026-04-04T14:02:27.002Z</time></trkpt><trkpt lat="45.47649304053597" lon="11.11756744550389"><ele>228.0</ele><time>2026-04-04T14:02:28.002Z</time></trkpt><trkpt lat="45.47639137063769" lon="11.117499373655367"><ele>228.0</ele><time>2026-04-04T14:02:29.002Z</time></trkpt><trkpt lat="45.47627656996356" lon="11.11742988573688"><ele>228.0</ele><time>2026-04-04T14:02:30.002Z</time></trkpt><trkpt lat="45.476195826330795" lon="11.117334673639746"><ele>230.0</ele><time>2026-04-04T14:02:31.002Z</time></trkpt><trkpt lat="45.4761126924002" lon="11.117235952119625"><ele>232.0</ele><time>2026-04-04T14:02:32.002Z</time></trkpt><trkpt lat="45.476016455233015" lon="11.117187305449203"><ele>234.0</ele><time>2026-04-04T14:02:33.002Z</time></trkpt><trkpt lat="45.47590645091973" lon="11.117084631177185"><ele>236.0</ele><time>2026-04-04T14:02:34.002Z</time></trkpt><trkpt lat="45.475799847751304" lon="11.116986230787576"><ele>236.0</ele><time>2026-04-04T14:02:35.002Z</time></trkpt><trkpt lat="45.47569647781593" lon="11.116890502599505"><ele>236.00000000000003</ele><time>2026-04-04T14:02:36.002Z</time></trkpt><trkpt lat="45.47560717591226" lon="11.116814569288909"><ele>236.00000000000003</ele><time>2026-04-04T14:02:37.002Z</time></trkpt><trkpt lat="45.4755188919192" lon="11.11674680784522"><ele>236.0</ele><time>2026-04-04T14:02:38.002Z</time></trkpt><trkpt lat="45.475420228801006" lon="11.11671000163878"><ele>236.0</ele><time>2026-04-04T14:02:39.002Z</time></trkpt><trkpt lat="45.47532613100416" lon="11.116676165081467"><ele>237.75</ele><time>2026-04-04T14:02:40.002Z</time></trkpt><trkpt lat="45.47521307429605" lon="11.116613919954979"><ele>239.5</ele><time>2026-04-04T14:02:41.002Z</time></trkpt><trkpt lat="45.475082159149984" lon="11.116534408162735"><ele>241.25</ele><time>2026-04-04T14:02:42.002Z</time></trkpt><trkpt lat="45.47497812008881" lon="11.116444724236104"><ele>243.0</ele><time>2026-04-04T14:02:43.002Z</time></trkpt><trkpt lat="45.4748954177949" lon="11.116348312699598"><ele>243.0</ele><time>2026-04-04T14:02:44.002Z</time></trkpt><trkpt lat="45.47480244800171" lon="11.11624226858137"><ele>243.0</ele><time>2026-04-04T14:02:45.002Z</time></trkpt><trkpt lat="45.474695548668144" lon="11.116124790796587"><ele>243.0</ele><time>2026-04-04T14:02:46.002Z</time></trkpt><trkpt lat="45.47461964271891" lon="11.116016023326532"><ele>243.0</ele><time>2026-04-04T14:02:47.002Z</time></trkpt><trkpt lat="45.47455194070005" lon="11.115886116777508"><ele>247.60000000000002</ele><time>2026-04-04T14:02:48.002Z</time></trkpt><trkpt lat="45.47446822909855" lon="11.115779943900126"><ele>252.20000000000002</ele><time>2026-04-04T14:02:49.002Z</time></trkpt><trkpt lat="45.47437623157314" lon="11.115701555130297"><ele>256.8</ele><time>2026-04-04T14:02:50.002Z</time></trkpt><trkpt lat="45.47427277852363" lon="11.115622759384038"><ele>261.40000000000003</ele><time>2026-04-04T14:02:51.002Z</time></trkpt><trkpt lat="45.47417714499615" lon="11.115540610282126"><ele>266.0</ele><time>2026-04-04T14:02:52.002Z</time></trkpt><trkpt lat="45.474086163319356" lon="11.115436161361837"><ele>266.0</ele><time>2026-04-04T14:02:53.002Z</time></trkpt><trkpt lat="45.47400688778342" lon="11.115322357140254"><ele>266.0</ele><time>2026-04-04T14:02:54.002Z</time></trkpt><trkpt lat="45.473930816684884" lon="11.115187729471648"><ele>266.0</ele><time>2026-04-04T14:02:55.003Z</time></trkpt><trkpt lat="45.473860923295966" lon="11.115029187271027"><ele>266.0</ele><time>2026-04-04T14:02:56.003Z</time></trkpt><trkpt lat="45.47379444029978" lon="11.114880514650153"><ele>272.5</ele><time>2026-04-04T14:02:57.003Z</time></trkpt><trkpt lat="45.47374368614481" lon="11.114730138389318"><ele>279.0</ele><time>2026-04-04T14:02:58.003Z</time></trkpt><trkpt lat="45.47371556435616" lon="11.11457539203192"><ele>285.5</ele><time>2026-04-04T14:02:59.003Z</time></trkpt><trkpt lat="45.47370531021857" lon="11.11439841370654"><ele>292.0</ele><time>2026-04-04T14:03:00.003Z</time></trkpt><trkpt lat="45.4737013709641" lon="11.114220721270804"><ele>292.8</ele><time>2026-04-04T14:03:01.003Z</time></trkpt><trkpt lat="45.4736869141632" lon="11.11405302542672"><ele>293.6</ele><time>2026-04-04T14:03:02.003Z</time></trkpt><trkpt lat="45.473672874154104" lon="11.113911776253637"><ele>294.40000000000003</ele><time>2026-04-04T14:03:03.003Z</time></trkpt><trkpt lat="45.4736601205471" lon="11.11376854822138"><ele>295.2</ele><time>2026-04-04T14:03:04.003Z</time></trkpt><trkpt lat="45.47364421431646" lon="11.113651172810313"><ele>296.0</ele><time>2026-04-04T14:03:05.003Z</time></trkpt><trkpt lat="45.473606419537894" lon="11.11349663325881"><ele>296.0</ele><time>2026-04-04T14:03:07.003Z</time></trkpt><trkpt lat="45.47354615918578" lon="11.113459513376162"><ele>296.0</ele><time>2026-04-04T14:03:08.003Z</time></trkpt><trkpt lat="45.47346875557557" lon="11.113352863345138"><ele>296.0</ele><time>2026-04-04T14:03:10.003Z</time></trkpt><trkpt lat="45.47342891604407" lon="11.113203588632098"><ele>296.0</ele><time>2026-04-04T14:03:12.003Z</time></trkpt><trkpt lat="45.473388768885194" lon="11.11309974232686"><ele>296.0</ele><time>2026-04-04T14:03:13.003Z</time></trkpt><trkpt lat="45.473344984995734" lon="11.113012110374784"><ele>296.0</ele><time>2026-04-04T14:03:14.003Z</time></trkpt><trkpt lat="45.47329343067172" lon="11.112934505905358"><ele>296.8</ele><time>2026-04-04T14:03:16.003Z</time></trkpt><trkpt lat="45.473362079388814" lon="11.112870497849757"><ele>297.6</ele><time>2026-04-04T14:03:18.003Z</time></trkpt><trkpt lat="45.47347546572814" lon="11.112772145077967"><ele>298.4</ele><time>2026-04-04T14:03:20.003Z</time></trkpt><trkpt lat="45.47354164207152" lon="11.112665652304202"><ele>299.2</ele><time>2026-04-04T14:03:22.003Z</time></trkpt><trkpt lat="45.473636435508084" lon="11.112596617502012"><ele>300.0</ele><time>2026-04-04T14:03:24.003Z</time></trkpt><trkpt lat="45.473715217124116" lon="11.11250811996926"><ele>299.8</ele><time>2026-04-04T14:03:26.003Z</time></trkpt><trkpt lat="45.473775154545976" lon="11.112439510717541"><ele>299.6</ele><time>2026-04-04T14:03:28.001Z</time></trkpt><trkpt lat="45.473882062707595" lon="11.112304305026582"><ele>299.4</ele><time>2026-04-04T14:03:30.001Z</time></trkpt><trkpt lat="45.47394325454938" lon="11.112226916348138"><ele>299.2</ele><time>2026-04-04T14:03:31.001Z</time></trkpt><trkpt lat="45.474021955108405" lon="11.112127384588526"><ele>299.0</ele><time>2026-04-04T14:03:32.001Z</time></trkpt><trkpt lat="45.47410456136118" lon="11.11202291333377"><ele>299.0</ele><time>2026-04-04T14:03:33.001Z</time></trkpt><trkpt lat="45.47419992923734" lon="11.111902772574046"><ele>299.0</ele><time>2026-04-04T14:03:34.001Z</time></trkpt><trkpt lat="45.47428601160877" lon="11.111795329358921"><ele>299.0</ele><time>2026-04-04T14:03:35.001Z</time></trkpt><trkpt lat="45.47437058208739" lon="11.11168977321417"><ele>299.0</ele><time>2026-04-04T14:03:36.001Z</time></trkpt><trkpt lat="45.474456423976534" lon="11.11158263015808"><ele>299.0</ele><time>2026-04-04T14:03:37.001Z</time></trkpt><trkpt lat="45.47454357706517" lon="11.111473541300779"><ele>299.0</ele><time>2026-04-04T14:03:38.001Z</time></trkpt><trkpt lat="45.47463668741701" lon="11.111364619196214"><ele>299.0</ele><time>2026-04-04T14:03:39.001Z</time></trkpt><trkpt lat="45.47473401751443" lon="11.111260017913139"><ele>299.0</ele><time>2026-04-04T14:03:40.001Z</time></trkpt><trkpt lat="45.47484666490518" lon="11.111147963322306"><ele>298.5</ele><time>2026-04-04T14:03:41.001Z</time></trkpt><trkpt lat="45.47496279887231" lon="11.1110409286746"><ele>298.0</ele><time>2026-04-04T14:03:42.001Z</time></trkpt><trkpt lat="45.475068914391606" lon="11.110947533767138"><ele>297.5</ele><time>2026-04-04T14:03:43.001Z</time></trkpt><trkpt lat="45.475172797178246" lon="11.110852514292572"><ele>297.0</ele><time>2026-04-04T14:03:44.001Z</time></trkpt><trkpt lat="45.475275305598885" lon="11.110753135907123"><ele>297.4</ele><time>2026-04-04T14:03:45.001Z</time></trkpt><trkpt lat="45.475375809920585" lon="11.11065799308129"><ele>297.79999999999995</ele><time>2026-04-04T14:03:46.001Z</time></trkpt><trkpt lat="45.47546735787145" lon="11.110569886918618"><ele>298.2</ele><time>2026-04-04T14:03:47.001Z</time></trkpt><trkpt lat="45.475548925102956" lon="11.110470115481178"><ele>298.59999999999997</ele><time>2026-04-04T14:03:48.001Z</time></trkpt><trkpt lat="45.47561925203891" lon="11.110374439154436"><ele>299.0</ele><time>2026-04-04T14:03:49.001Z</time></trkpt><trkpt lat="45.47569337212222" lon="11.110259914168699"><ele>298.2</ele><time>2026-04-04T14:03:50.001Z</time></trkpt><trkpt lat="45.47574925669894" lon="11.110159503303459"><ele>297.4</ele><time>2026-04-04T14:03:51.001Z</time></trkpt><trkpt lat="45.47580648201863" lon="11.110049349907284"><ele>296.6</ele><time>2026-04-04T14:03:52.001Z</time></trkpt><trkpt lat="45.47586369767439" lon="11.109914840018101"><ele>295.8</ele><time>2026-04-04T14:03:53.001Z</time></trkpt><trkpt lat="45.47591423815833" lon="11.109753945362764"><ele>295.0</ele><time>2026-04-04T14:03:54.001Z</time></trkpt><trkpt lat="45.475959215477715" lon="11.109605544212496"><ele>295.0</ele><time>2026-04-04T14:03:55.001Z</time></trkpt><trkpt lat="45.4760097181459" lon="11.109451255068441"><ele>295.0</ele><time>2026-04-04T14:03:56.001Z</time></trkpt><trkpt lat="45.476064581153615" lon="11.109288398324145"><ele>295.0</ele><time>2026-04-04T14:03:57.001Z</time></trkpt><trkpt lat="45.47611982032961" lon="11.109142450977505"><ele>295.0</ele><time>2026-04-04T14:03:58.001Z</time></trkpt><trkpt lat="45.476178918886674" lon="11.109000747633578"><ele>295.4</ele><time>2026-04-04T14:03:59.001Z</time></trkpt><trkpt lat="45.47624011678471" lon="11.108886209220412"><ele>295.8</ele><time>2026-04-04T14:04:00.001Z</time></trkpt><trkpt lat="45.47630202775453" lon="11.108787440725248"><ele>296.2</ele><time>2026-04-04T14:04:01.001Z</time></trkpt><trkpt lat="45.476371283508776" lon="11.10869457561297"><ele>296.6</ele><time>2026-04-04T14:04:02.001Z</time></trkpt><trkpt lat="45.476447884835046" lon="11.108594043820878"><ele>297.0</ele><time>2026-04-04T14:04:03.001Z</time></trkpt><trkpt lat="45.47653031773648" lon="11.10848623584483"><ele>294.5</ele><time>2026-04-04T14:04:04.001Z</time></trkpt><trkpt lat="45.47661844775858" lon="11.108368205333758"><ele>292.0</ele><time>2026-04-04T14:04:05.001Z</time></trkpt><trkpt lat="45.4767098410908" lon="11.108233525071338"><ele>289.5</ele><time>2026-04-04T14:04:06.001Z</time></trkpt><trkpt lat="45.47679170526673" lon="11.108109634085423"><ele>287.0</ele><time>2026-04-04T14:04:07.001Z</time></trkpt><trkpt lat="45.47687677867486" lon="11.107983768570337"><ele>287.0</ele><time>2026-04-04T14:04:08.001Z</time></trkpt><trkpt lat="45.47695730414972" lon="11.107870248981804"><ele>287.0</ele><time>2026-04-04T14:04:09.001Z</time></trkpt><trkpt lat="45.47704022865209" lon="11.107757562923869"><ele>287.0</ele><time>2026-04-04T14:04:10.001Z</time></trkpt><trkpt lat="45.47711847230157" lon="11.107651237666051"><ele>287.0</ele><time>2026-04-04T14:04:11.001Z</time></trkpt><trkpt lat="45.477175555417226" lon="11.107573667441466"><ele>287.0</ele><time>2026-04-04T14:04:12.001Z</time></trkpt><trkpt lat="45.47722792387599" lon="11.10750197146116"><ele>286.0</ele><time>2026-04-04T14:04:13.001Z</time></trkpt><trkpt lat="45.47729000366584" lon="11.107416364022143"><ele>285.0</ele><time>2026-04-04T14:04:15.001Z</time></trkpt><trkpt lat="45.47732902636617" lon="11.10734011645149"><ele>284.0</ele><time>2026-04-04T14:04:18.001Z</time></trkpt><trkpt lat="45.4771303705528" lon="11.1072369784454"><ele>283.0</ele><time>2026-04-04T14:04:20.001Z</time></trkpt><trkpt lat="45.47704790959739" lon="11.10725787085631"><ele>282.0</ele><time>2026-04-04T14:04:21.001Z</time></trkpt><trkpt lat="45.47696370707538" lon="11.107256479727944"><ele>282.0</ele><time>2026-04-04T14:04:22.001Z</time></trkpt><trkpt lat="45.47686533866203" lon="11.107247713749448"><ele>282.0</ele><time>2026-04-04T14:04:23.001Z</time></trkpt><trkpt lat="45.476765358105105" lon="11.107254911617213"><ele>282.0</ele><time>2026-04-04T14:04:24.001Z</time></trkpt><trkpt lat="45.476665902186866" lon="11.107261612750257"><ele>282.0</ele><time>2026-04-04T14:04:25.001Z</time></trkpt><trkpt lat="45.47658824858599" lon="11.107238780403815"><ele>282.0</ele><time>2026-04-04T14:04:26.001Z</time></trkpt><trkpt lat="45.47650797998243" lon="11.107141473636831"><ele>282.0</ele><time>2026-04-04T14:04:27.001Z</time></trkpt><trkpt lat="45.47643583196276" lon="11.107013101765505"><ele>282.0</ele><time>2026-04-04T14:04:28.001Z</time></trkpt><trkpt lat="45.476364738304184" lon="11.106884182732502"><ele>282.0</ele><time>2026-04-04T14:04:29.001Z</time></trkpt><trkpt lat="45.47626559223597" lon="11.10678025492529"><ele>282.0</ele><time>2026-04-04T14:04:30.001Z</time></trkpt><trkpt lat="45.47614791022553" lon="11.106714918276973"><ele>283.2</ele><time>2026-04-04T14:04:31.001Z</time></trkpt><trkpt lat="45.476036262533896" lon="11.106693537912719"><ele>284.4</ele><time>2026-04-04T14:04:32.001Z</time></trkpt><trkpt lat="45.47595061255409" lon="11.106719536468013"><ele>285.6</ele><time>2026-04-04T14:04:33.002Z</time></trkpt><trkpt lat="45.47588950799744" lon="11.10665942523736"><ele>286.8</ele><time>2026-04-04T14:04:35.002Z</time></trkpt><trkpt lat="45.47588028424634" lon="11.10649040275652"><ele>288.0</ele><time>2026-04-04T14:04:37.002Z</time></trkpt><trkpt lat="45.47583595884893" lon="11.106347248008666"><ele>284.25</ele><time>2026-04-04T14:04:39.002Z</time></trkpt><trkpt lat="45.47572121826603" lon="11.10630181750195"><ele>280.5</ele><time>2026-04-04T14:04:41.002Z</time></trkpt><trkpt lat="45.47560870826851" lon="11.106333155216777"><ele>276.75</ele><time>2026-04-04T14:04:43.002Z</time></trkpt><trkpt lat="45.47550244663907" lon="11.106441431842196"><ele>273.0</ele><time>2026-04-04T14:04:45.002Z</time></trkpt><trkpt lat="45.47543527002115" lon="11.106519576752452"><ele>274.5</ele><time>2026-04-04T14:04:46.002Z</time></trkpt><trkpt lat="45.47537455510564" lon="11.106596922954653"><ele>276.0</ele><time>2026-04-04T14:04:47.002Z</time></trkpt><trkpt lat="45.47531481115101" lon="11.106669866393252"><ele>277.5</ele><time>2026-04-04T14:04:48.002Z</time></trkpt><trkpt lat="45.47525535446877" lon="11.10673902740808"><ele>279.0</ele><time>2026-04-04T14:04:49.002Z</time></trkpt><trkpt lat="45.475191310695116" lon="11.10678221244565"><ele>280.5</ele><time>2026-04-04T14:04:50.002Z</time></trkpt><trkpt lat="45.47511378614781" lon="11.106811960140694"><ele>282.0</ele><time>2026-04-04T14:04:51.002Z</time></trkpt><trkpt lat="45.47503388572282" lon="11.106827772502283"><ele>282.0</ele><time>2026-04-04T14:04:52.002Z</time></trkpt><trkpt lat="45.474946576673496" lon="11.10686742065956"><ele>282.0</ele><time>2026-04-04T14:04:53.002Z</time></trkpt><trkpt lat="45.474877154126325" lon="11.106933296553418"><ele>282.0</ele><time>2026-04-04T14:04:54.002Z</time></trkpt><trkpt lat="45.47481143878479" lon="11.10702401986014"><ele>282.0</ele><time>2026-04-04T14:04:55.002Z</time></trkpt><trkpt lat="45.47474368484378" lon="11.10709544654108"><ele>282.0</ele><time>2026-04-04T14:04:56.002Z</time></trkpt><trkpt lat="45.474648339296444" lon="11.107161759437137"><ele>280.8333333333333</ele><time>2026-04-04T14:04:58.002Z</time></trkpt><trkpt lat="45.47456875659283" lon="11.107172996468648"><ele>279.6666666666667</ele><time>2026-04-04T14:05:00.002Z</time></trkpt><trkpt lat="45.47447983901578" lon="11.107253667111882"><ele>278.5</ele><time>2026-04-04T14:05:02.002Z</time></trkpt><trkpt lat="45.474423681523376" lon="11.107324216890904"><ele>277.33333333333337</ele><time>2026-04-04T14:05:03.002Z</time></trkpt><trkpt lat="45.47437577380155" lon="11.107409254695565"><ele>276.1666666666667</ele><time>2026-04-04T14:05:04.002Z</time></trkpt><trkpt lat="45.474328607314774" lon="11.107497904753137"><ele>275.0</ele><time>2026-04-04T14:05:05.002Z</time></trkpt><trkpt lat="45.47427773821372" lon="11.107599852139463"><ele>275.0</ele><time>2026-04-04T14:05:06.002Z</time></trkpt><trkpt lat="45.4742264730831" lon="11.107709309188627"><ele>275.0</ele><time>2026-04-04T14:05:07.002Z</time></trkpt><trkpt lat="45.47418149701965" lon="11.107827276360387"><ele>275.0</ele><time>2026-04-04T14:05:08.002Z</time></trkpt><trkpt lat="45.474148241689164" lon="11.107934350400818"><ele>275.0</ele><time>2026-04-04T14:05:09.002Z</time></trkpt><trkpt lat="45.47411176879798" lon="11.108045466642055"><ele>275.0</ele><time>2026-04-04T14:05:10.002Z</time></trkpt><trkpt lat="45.47407972318322" lon="11.108158971843077"><ele>275.0</ele><time>2026-04-04T14:05:11.002Z</time></trkpt><trkpt lat="45.47405847765957" lon="11.108286154223471"><ele>275.1666666666667</ele><time>2026-04-04T14:05:12.002Z</time></trkpt><trkpt lat="45.474050132213605" lon="11.108417738988694"><ele>275.33333333333337</ele><time>2026-04-04T14:05:13.002Z</time></trkpt><trkpt lat="45.47405336803218" lon="11.108552586187388"><ele>275.5</ele><time>2026-04-04T14:05:14.002Z</time></trkpt><trkpt lat="45.474069948578126" lon="11.108674841865609"><ele>275.6666666666667</ele><time>2026-04-04T14:05:15.003Z</time></trkpt><trkpt lat="45.47408032388274" lon="11.10878092662155"><ele>275.8333333333333</ele><time>2026-04-04T14:05:16.003Z</time></trkpt><trkpt lat="45.4740851322753" lon="11.108900398378301"><ele>276.0</ele><time>2026-04-04T14:05:17.003Z</time></trkpt><trkpt lat="45.474067913374626" lon="11.108989694932436"><ele>276.8</ele><time>2026-04-04T14:05:18.003Z</time></trkpt><trkpt lat="45.47395325975583" lon="11.109107017770913"><ele>277.6</ele><time>2026-04-04T14:05:20.003Z</time></trkpt><trkpt lat="45.473867734817226" lon="11.109121995639818"><ele>278.4</ele><time>2026-04-04T14:05:21.003Z</time></trkpt><trkpt lat="45.47376382362504" lon="11.109152725999731"><ele>279.2</ele><time>2026-04-04T14:05:22.003Z</time></trkpt><trkpt lat="45.47366447410973" lon="11.109199274478744"><ele>280.0</ele><time>2026-04-04T14:05:23.003Z</time></trkpt><trkpt lat="45.47355752800244" lon="11.109252487274484"><ele>275.75</ele><time>2026-04-04T14:05:24.003Z</time></trkpt><trkpt lat="45.47344524926343" lon="11.109292042953046"><ele>271.5</ele><time>2026-04-04T14:05:25.003Z</time></trkpt><trkpt lat="45.473330543896694" lon="11.10932500774134"><ele>267.25</ele><time>2026-04-04T14:05:26.003Z</time></trkpt><trkpt lat="45.47321699200684" lon="11.10936037561383"><ele>263.0</ele><time>2026-04-04T14:05:27.003Z</time></trkpt><trkpt lat="45.47310435960674" lon="11.1093921663001"><ele>263.0</ele><time>2026-04-04T14:05:28.003Z</time></trkpt><trkpt lat="45.472995586675495" lon="11.109422463400804"><ele>263.0</ele><time>2026-04-04T14:05:29.003Z</time></trkpt><trkpt lat="45.472879294164564" lon="11.109442827609074"><ele>263.0</ele><time>2026-04-04T14:05:30.003Z</time></trkpt><trkpt lat="45.47277598641473" lon="11.109443789979656"><ele>263.0</ele><time>2026-04-04T14:05:31.003Z</time></trkpt><trkpt lat="45.47267245036504" lon="11.109461073827735"><ele>263.0</ele><time>2026-04-04T14:05:32.003Z</time></trkpt><trkpt lat="45.47259619391528" lon="11.109511433838568"><ele>260.83333333333337</ele><time>2026-04-04T14:05:33Z</time></trkpt><trkpt lat="45.47252298809303" lon="11.10958396034971"><ele>258.6666666666667</ele><time>2026-04-04T14:05:34Z</time></trkpt><trkpt lat="45.47244203974605" lon="11.109643593358356"><ele>256.5</ele><time>2026-04-04T14:05:35Z</time></trkpt><trkpt lat="45.47236787887093" lon="11.1096692347839"><ele>254.33333333333331</ele><time>2026-04-04T14:05:36Z</time></trkpt><trkpt lat="45.47228627148175" lon="11.109675258267407"><ele>252.16666666666666</ele><time>2026-04-04T14:05:37Z</time></trkpt><trkpt lat="45.472191244306025" lon="11.109700187675248"><ele>250.0</ele><time>2026-04-04T14:05:38Z</time></trkpt><trkpt lat="45.4720930698209" lon="11.109748323622378"><ele>247.25</ele><time>2026-04-04T14:05:39Z</time></trkpt><trkpt lat="45.471977372366034" lon="11.109805266321496"><ele>244.5</ele><time>2026-04-04T14:05:40Z</time></trkpt><trkpt lat="45.471856715309904" lon="11.109840910344563"><ele>241.75</ele><time>2026-04-04T14:05:41Z</time></trkpt><trkpt lat="45.47174333656914" lon="11.109874547830541"><ele>239.0</ele><time>2026-04-04T14:05:42Z</time></trkpt><trkpt lat="45.47162646487985" lon="11.109907160269643"><ele>239.2</ele><time>2026-04-04T14:05:43Z</time></trkpt><trkpt lat="45.47151516434078" lon="11.109951156859077"><ele>239.39999999999998</ele><time>2026-04-04T14:05:44Z</time></trkpt><trkpt lat="45.47142602328481" lon="11.109983133022784"><ele>239.6</ele><time>2026-04-04T14:05:45Z</time></trkpt><trkpt lat="45.4713567574701" lon="11.110020812187685"><ele>239.8</ele><time>2026-04-04T14:05:46Z</time></trkpt><trkpt lat="45.47124133255886" lon="11.11007395179401"><ele>240.0</ele><time>2026-04-04T14:05:48Z</time></trkpt><trkpt lat="45.47110057623706" lon="11.11007873991984"><ele>240.0</ele><time>2026-04-04T14:05:50Z</time></trkpt><trkpt lat="45.471012786501156" lon="11.110090707508819"><ele>240.0</ele><time>2026-04-04T14:05:51Z</time></trkpt><trkpt lat="45.470931667718396" lon="11.110096711408795"><ele>240.0</ele><time>2026-04-04T14:05:52Z</time></trkpt><trkpt lat="45.47084493907976" lon="11.1100925159484"><ele>240.0</ele><time>2026-04-04T14:05:53Z</time></trkpt><trkpt lat="45.470780293974606" lon="11.110028979775047"><ele>240.0</ele><time>2026-04-04T14:05:54Z</time></trkpt><trkpt lat="45.47069182243009" lon="11.110015024393022"><ele>240.0</ele><time>2026-04-04T14:05:55Z</time></trkpt><trkpt lat="45.47059109386226" lon="11.109998666581903"><ele>240.0</ele><time>2026-04-04T14:05:56Z</time></trkpt><trkpt lat="45.47052082414821" lon="11.109970709420919"><ele>240.0</ele><time>2026-04-04T14:05:57Z</time></trkpt><trkpt lat="45.470462614007886" lon="11.109934091373916"><ele>240.0</ele><time>2026-04-04T14:05:58Z</time></trkpt><trkpt lat="45.47040553823688" lon="11.109859696139175"><ele>240.0</ele><time>2026-04-04T14:05:59Z</time></trkpt><trkpt lat="45.470347299943164" lon="11.109767997265685"><ele>240.0</ele><time>2026-04-04T14:06:00Z</time></trkpt><trkpt lat="45.4702796260828" lon="11.10969412644612"><ele>240.0</ele><time>2026-04-04T14:06:01Z</time></trkpt><trkpt lat="45.47022192032203" lon="11.109591762413544"><ele>236.33333333333334</ele><time>2026-04-04T14:06:02Z</time></trkpt><trkpt lat="45.47016335475968" lon="11.109523675577194"><ele>232.66666666666669</ele><time>2026-04-04T14:06:03.001Z</time></trkpt><trkpt lat="45.47010013220767" lon="11.10947739038425"><ele>229.0</ele><time>2026-04-04T14:06:04.001Z</time></trkpt><trkpt lat="45.470022143029425" lon="11.109467436389862"><ele>225.33333333333334</ele><time>2026-04-04T14:06:05.001Z</time></trkpt><trkpt lat="45.469959265120394" lon="11.1094322443064"><ele>221.66666666666669</ele><time>2026-04-04T14:06:06.001Z</time></trkpt><trkpt lat="45.46989376322971" lon="11.109381256306408"><ele>218.0</ele><time>2026-04-04T14:06:07.001Z</time></trkpt><trkpt lat="45.469816106874895" lon="11.109291594129063"><ele>218.00000000000003</ele><time>2026-04-04T14:06:08.001Z</time></trkpt><trkpt lat="45.46975253716578" lon="11.109199395493414"><ele>218.0</ele><time>2026-04-04T14:06:09.001Z</time></trkpt><trkpt lat="45.46969832357709" lon="11.109119892761521"><ele>218.0</ele><time>2026-04-04T14:06:10.001Z</time></trkpt><trkpt lat="45.469648438102084" lon="11.109043616624284"><ele>218.0</ele><time>2026-04-04T14:06:11.001Z</time></trkpt><trkpt lat="45.469596523276735" lon="11.108963571388246"><ele>218.00000000000003</ele><time>2026-04-04T14:06:12.001Z</time></trkpt><trkpt lat="45.46954415153356" lon="11.108898032283028"><ele>218.0</ele><time>2026-04-04T14:06:13.001Z</time></trkpt><trkpt lat="45.469528926712535" lon="11.10877430834536"><ele>212.2</ele><time>2026-04-04T14:06:14.001Z</time></trkpt><trkpt lat="45.46950710093756" lon="11.10863945580745"><ele>206.4</ele><time>2026-04-04T14:06:15.001Z</time></trkpt><trkpt lat="45.46948754739706" lon="11.108528559902265"><ele>200.6</ele><time>2026-04-04T14:06:16.001Z</time></trkpt><trkpt lat="45.46946935376329" lon="11.108390379678937"><ele>194.79999999999998</ele><time>2026-04-04T14:06:17.001Z</time></trkpt><trkpt lat="45.46946692829244" lon="11.10824519362465"><ele>189.0</ele><time>2026-04-04T14:06:18.001Z</time></trkpt><trkpt lat="45.46946315082215" lon="11.108135027070379"><ele>187.39999999999998</ele><time>2026-04-04T14:06:19.001Z</time></trkpt><trkpt lat="45.46944376618231" lon="11.107977660120751"><ele>185.8</ele><time>2026-04-04T14:06:21.001Z</time></trkpt><trkpt lat="45.46935226512766" lon="11.108018116376641"><ele>184.2</ele><time>2026-04-04T14:06:26.001Z</time></trkpt><trkpt lat="45.469241225858234" lon="11.107955460068487"><ele>182.60000000000002</ele><time>2026-04-04T14:06:28.001Z</time></trkpt><trkpt lat="45.469177627669005" lon="11.107997164098514"><ele>181.0</ele><time>2026-04-04T14:06:30.001Z</time></trkpt><trkpt lat="45.469128551308096" lon="11.108061357987943"><ele>181.0</ele><time>2026-04-04T14:06:31.001Z</time></trkpt><trkpt lat="45.46907666136192" lon="11.108162668666804"><ele>181.0</ele><time>2026-04-04T14:06:33.001Z</time></trkpt><trkpt lat="45.46903179640581" lon="11.108089853282491"><ele>181.0</ele><time>2026-04-04T14:06:35.001Z</time></trkpt><trkpt lat="45.46905116982607" lon="11.107918657355091"><ele>181.0</ele><time>2026-04-04T14:06:37.001Z</time></trkpt><trkpt lat="45.469073178268005" lon="11.107821887625155"><ele>181.0</ele><time>2026-04-04T14:06:38.001Z</time></trkpt><trkpt lat="45.469041526330734" lon="11.107675133803099"><ele>181.0</ele><time>2026-04-04T14:06:40.001Z</time></trkpt><trkpt lat="45.46892856470519" lon="11.10761099218755"><ele>181.0</ele><time>2026-04-04T14:06:42.001Z</time></trkpt><trkpt lat="45.46882046866558" lon="11.107569176630752"><ele>181.0</ele><time>2026-04-04T14:06:44.001Z</time></trkpt><trkpt lat="45.46873077379609" lon="11.107533261155206"><ele>181.0</ele><time>2026-04-04T14:06:46.002Z</time></trkpt><trkpt lat="45.46863657246432" lon="11.10747897737547"><ele>181.0</ele><time>2026-04-04T14:06:48.002Z</time></trkpt><trkpt lat="45.46853788773632" lon="11.107402898972573"><ele>177.66666666666669</ele><time>2026-04-04T14:06:50.002Z</time></trkpt><trkpt lat="45.468474991505765" lon="11.107372568632638"><ele>174.33333333333334</ele><time>2026-04-04T14:06:51.002Z</time></trkpt><trkpt lat="45.46837431648092" lon="11.107297935183361"><ele>171.0</ele><time>2026-04-04T14:06:53.002Z</time></trkpt><trkpt lat="45.46828510511461" lon="11.107208652676483"><ele>167.66666666666666</ele><time>2026-04-04T14:06:55.002Z</time></trkpt><trkpt lat="45.46821595405312" lon="11.10719237190337"><ele>164.33333333333331</ele><time>2026-04-04T14:06:56.002Z</time></trkpt><trkpt lat="45.4681449574337" lon="11.107181903453293"><ele>161.0</ele><time>2026-04-04T14:06:57.002Z</time></trkpt><trkpt lat="45.46806573515799" lon="11.107166320703604"><ele>161.0</ele><time>2026-04-04T14:06:58.002Z</time></trkpt><trkpt lat="45.467957775370685" lon="11.107148835514336"><ele>161.0</ele><time>2026-04-04T14:06:59.002Z</time></trkpt><trkpt lat="45.467882683411034" lon="11.107145193007895"><ele>161.0</ele><time>2026-04-04T14:07:00.002Z</time></trkpt><trkpt lat="45.46777582977219" lon="11.10716966757882"><ele>161.0</ele><time>2026-04-04T14:07:02.002Z</time></trkpt><trkpt lat="45.467689949036505" lon="11.107175076549685"><ele>161.0</ele><time>2026-04-04T14:07:04.002Z</time></trkpt><trkpt lat="45.467596678753125" lon="11.10709580012364"><ele>158.66666666666666</ele><time>2026-04-04T14:07:06.002Z</time></trkpt><trkpt lat="45.46755814354735" lon="11.107013257726956"><ele>156.33333333333331</ele><time>2026-04-04T14:07:07.002Z</time></trkpt><trkpt lat="45.46750358163248" lon="11.106930637819302"><ele>154.0</ele><time>2026-04-04T14:07:08.002Z</time></trkpt><trkpt lat="45.467399538649275" lon="11.106920210925"><ele>151.66666666666666</ele><time>2026-04-04T14:07:10.002Z</time></trkpt><trkpt lat="45.46733150284091" lon="11.106917673688889"><ele>149.33333333333334</ele><time>2026-04-04T14:07:11.002Z</time></trkpt><trkpt lat="45.46725370711508" lon="11.106906414931217"><ele>147.0</ele><time>2026-04-04T14:07:12.002Z</time></trkpt><trkpt lat="45.46718084227199" lon="11.106878009837176"><ele>147.0</ele><time>2026-04-04T14:07:13.002Z</time></trkpt><trkpt lat="45.46711693620631" lon="11.106839220849073"><ele>147.0</ele><time>2026-04-04T14:07:14.002Z</time></trkpt><trkpt lat="45.46704824116763" lon="11.106790483243131"><ele>147.0</ele><time>2026-04-04T14:07:15.002Z</time></trkpt><trkpt lat="45.466971478309596" lon="11.106738909198567"><ele>147.0</ele><time>2026-04-04T14:07:16.002Z</time></trkpt><trkpt lat="45.46689312020484" lon="11.106696680843463"><ele>147.0</ele><time>2026-04-04T14:07:17.002Z</time></trkpt><trkpt lat="45.46681932893447" lon="11.106656446159102"><ele>147.0</ele><time>2026-04-04T14:07:18.002Z</time></trkpt><trkpt lat="45.466747204643944" lon="11.106672048466779"><ele>143.5</ele><time>2026-04-04T14:07:19.002Z</time></trkpt><trkpt lat="45.466629217417704" lon="11.106535145563516"><ele>140.0</ele><time>2026-04-04T14:07:20.002Z</time></trkpt><trkpt lat="45.46653939153359" lon="11.106558570146323"><ele>136.5</ele><time>2026-04-04T14:07:21.002Z</time></trkpt><trkpt lat="45.466442171745136" lon="11.106577797774692"><ele>133.0</ele><time>2026-04-04T14:07:22.002Z</time></trkpt><trkpt lat="45.46632491633539" lon="11.10657599464301"><ele>132.33333333333334</ele><time>2026-04-04T14:07:24.002Z</time></trkpt><trkpt lat="45.46624996238788" lon="11.10654606550686"><ele>131.66666666666669</ele><time>2026-04-04T14:07:26.002Z</time></trkpt><trkpt lat="45.46618662422723" lon="11.10665852888834"><ele>131.0</ele><time>2026-04-04T14:07:29.003Z</time></trkpt><trkpt lat="45.466181651794024" lon="11.10679229315202"><ele>130.33333333333334</ele><time>2026-04-04T14:07:32.003Z</time></trkpt><trkpt lat="45.46616821186308" lon="11.106901580446092"><ele>129.66666666666666</ele><time>2026-04-04T14:07:33.003Z</time></trkpt><trkpt lat="45.46614470605137" lon="11.107016707523847"><ele>129.0</ele><time>2026-04-04T14:07:34.003Z</time></trkpt><trkpt lat="45.466092600268055" lon="11.107123255711093"><ele>129.0</ele><time>2026-04-04T14:07:35.003Z</time></trkpt><trkpt lat="45.46601580721081" lon="11.107244646693104"><ele>129.0</ele><time>2026-04-04T14:07:36.003Z</time></trkpt><trkpt lat="45.46593270874827" lon="11.107368991954035"><ele>129.0</ele><time>2026-04-04T14:07:37.003Z</time></trkpt><trkpt lat="45.46585713464006" lon="11.10747699395628"><ele>129.0</ele><time>2026-04-04T14:07:38.003Z</time></trkpt><trkpt lat="45.46580140317505" lon="11.107536740613828"><ele>129.0</ele><time>2026-04-04T14:07:39Z</time></trkpt><trkpt lat="45.46573379832757" lon="11.107557919838479"><ele>129.6</ele><time>2026-04-04T14:07:40Z</time></trkpt><trkpt lat="45.465655517035856" lon="11.107598738594778"><ele>130.2</ele><time>2026-04-04T14:07:41Z</time></trkpt><trkpt lat="45.46556635866096" lon="11.107643738039135"><ele>130.79999999999998</ele><time>2026-04-04T14:07:42Z</time></trkpt><trkpt lat="45.46546648406141" lon="11.107729246682634"><ele>131.4</ele><time>2026-04-04T14:07:43Z</time></trkpt><trkpt lat="45.465339354608346" lon="11.10779074918858"><ele>132.0</ele><time>2026-04-04T14:07:44Z</time></trkpt><trkpt lat="45.46522932298145" lon="11.107859229531453"><ele>130.0</ele><time>2026-04-04T14:07:45Z</time></trkpt><trkpt lat="45.46511689711094" lon="11.107927461023298"><ele>128.0</ele><time>2026-04-04T14:07:46Z</time></trkpt><trkpt lat="45.46499083546728" lon="11.108009580294059"><ele>126.0</ele><time>2026-04-04T14:07:47Z</time></trkpt><trkpt lat="45.46486262828486" lon="11.108095573404029"><ele>124.0</ele><time>2026-04-04T14:07:48Z</time></trkpt><trkpt lat="45.464741725285045" lon="11.108190221574537"><ele>124.0</ele><time>2026-04-04T14:07:49Z</time></trkpt><trkpt lat="45.46461356045834" lon="11.108212673398214"><ele>124.0</ele><time>2026-04-04T14:07:50Z</time></trkpt><trkpt lat="45.4644883296215" lon="11.108238580639325"><ele>124.0</ele><time>2026-04-04T14:07:51Z</time></trkpt><trkpt lat="45.4643810729309" lon="11.108261503504899"><ele>124.0</ele><time>2026-04-04T14:07:52Z</time></trkpt><trkpt lat="45.464291535878985" lon="11.10834649970019"><ele>123.6</ele><time>2026-04-04T14:07:53Z</time></trkpt><trkpt lat="45.464205052453295" lon="11.10842641430412"><ele>123.2</ele><time>2026-04-04T14:07:54Z</time></trkpt><trkpt lat="45.46411628559125" lon="11.10842335988438"><ele>122.79999999999998</ele><time>2026-04-04T14:07:55Z</time></trkpt><trkpt lat="45.463994054400494" lon="11.108439832881544"><ele>122.39999999999999</ele><time>2026-04-04T14:07:56Z</time></trkpt><trkpt lat="45.46386101515522" lon="11.10845729358754"><ele>122.0</ele><time>2026-04-04T14:07:57Z</time></trkpt><trkpt lat="45.46370860867134" lon="11.108515685692582"><ele>120.75</ele><time>2026-04-04T14:07:58Z</time></trkpt><trkpt lat="45.463564622077264" lon="11.10856873527846"><ele>119.5</ele><time>2026-04-04T14:07:59Z</time></trkpt><trkpt lat="45.46343011740738" lon="11.108635411869246"><ele>118.25</ele><time>2026-04-04T14:08:00Z</time></trkpt><trkpt lat="45.46330907584222" lon="11.108703097623282"><ele>117.0</ele><time>2026-04-04T14:08:01Z</time></trkpt><trkpt lat="45.46318326522777" lon="11.108759166605878"><ele>117.0</ele><time>2026-04-04T14:08:02Z</time></trkpt><trkpt lat="45.46305776746717" lon="11.108837932571237"><ele>117.0</ele><time>2026-04-04T14:08:03Z</time></trkpt><trkpt lat="45.46293564243492" lon="11.108936553933574"><ele>117.0</ele><time>2026-04-04T14:08:04Z</time></trkpt><trkpt lat="45.46280332593201" lon="11.109022582404677"><ele>117.0</ele><time>2026-04-04T14:08:05Z</time></trkpt><trkpt lat="45.46267101954263" lon="11.109136000535651"><ele>116.0</ele><time>2026-04-04T14:08:06Z</time></trkpt><trkpt lat="45.462535159217936" lon="11.109236259308874"><ele>115.0</ele><time>2026-04-04T14:08:07Z</time></trkpt><trkpt lat="45.46238876259623" lon="11.10931932295883"><ele>114.0</ele><time>2026-04-04T14:08:08Z</time></trkpt><trkpt lat="45.462256086245475" lon="11.109409785733884"><ele>114.0</ele><time>2026-04-04T14:08:09Z</time></trkpt><trkpt lat="45.46212717774798" lon="11.109491554783972"><ele>114.0</ele><time>2026-04-04T14:08:10Z</time></trkpt><trkpt lat="45.462009381695516" lon="11.109558675361379"><ele>114.0</ele><time>2026-04-04T14:08:11Z</time></trkpt><trkpt lat="45.461889302754095" lon="11.109642020659525"><ele>114.0</ele><time>2026-04-04T14:08:12Z</time></trkpt><trkpt lat="45.46174868663221" lon="11.109716425587687"><ele>113.5</ele><time>2026-04-04T14:08:13Z</time></trkpt><trkpt lat="45.46160295675686" lon="11.109797406821482"><ele>113.0</ele><time>2026-04-04T14:08:14Z</time></trkpt><trkpt lat="45.46145781022894" lon="11.10984204566941"><ele>112.5</ele><time>2026-04-04T14:08:15Z</time></trkpt><trkpt lat="45.461325762228725" lon="11.109896107504182"><ele>112.0</ele><time>2026-04-04T14:08:16Z</time></trkpt><trkpt lat="45.461197143814445" lon="11.10993127849013"><ele>112.0</ele><time>2026-04-04T14:08:17Z</time></trkpt><trkpt lat="45.461071194694604" lon="11.109937246572153"><ele>112.0</ele><time>2026-04-04T14:08:18Z</time></trkpt><trkpt lat="45.46094108104072" lon="11.109920252662397"><ele>112.0</ele><time>2026-04-04T14:08:19.001Z</time></trkpt><trkpt lat="45.46080225490883" lon="11.109896697498716"><ele>112.0</ele><time>2026-04-04T14:08:20.001Z</time></trkpt><trkpt lat="45.4606694448361" lon="11.10990137317817"><ele>111.0</ele><time>2026-04-04T14:08:21.001Z</time></trkpt><trkpt lat="45.46054275635809" lon="11.109901053976943"><ele>110.0</ele><time>2026-04-04T14:08:22.001Z</time></trkpt><trkpt lat="45.46041849363144" lon="11.109943229966335"><ele>109.0</ele><time>2026-04-04T14:08:23.001Z</time></trkpt><trkpt lat="45.46028897599661" lon="11.110009116136997"><ele>108.0</ele><time>2026-04-04T14:08:24.001Z</time></trkpt><trkpt lat="45.46015083643068" lon="11.11006174498346"><ele>108.0</ele><time>2026-04-04T14:08:25.001Z</time></trkpt><trkpt lat="45.46001986040281" lon="11.11012589785091"><ele>108.0</ele><time>2026-04-04T14:08:26.001Z</time></trkpt><trkpt lat="45.45988683566991" lon="11.11018976142733"><ele>108.0</ele><time>2026-04-04T14:08:27.001Z</time></trkpt><trkpt lat="45.45975958684398" lon="11.110251947390227"><ele>108.0</ele><time>2026-04-04T14:08:28.001Z</time></trkpt><trkpt lat="45.45964346627532" lon="11.110314635102949"><ele>106.25</ele><time>2026-04-04T14:08:29.001Z</time></trkpt><trkpt lat="45.45952773151917" lon="11.110380158631427"><ele>104.5</ele><time>2026-04-04T14:08:30.001Z</time></trkpt><trkpt lat="45.45942625046579" lon="11.110458932942015"><ele>102.75</ele><time>2026-04-04T14:08:31.001Z</time></trkpt><trkpt lat="45.45931747489771" lon="11.110486237206276"><ele>101.0</ele><time>2026-04-04T14:08:32.001Z</time></trkpt><trkpt lat="45.4592127601295" lon="11.110537093689743"><ele>101.0</ele><time>2026-04-04T14:08:33.001Z</time></trkpt><trkpt lat="45.459142043426326" lon="11.110596608086896"><ele>101.0</ele><time>2026-04-04T14:08:34.001Z</time></trkpt><trkpt lat="45.459072406848726" lon="11.110664167362916"><ele>101.0</ele><time>2026-04-04T14:08:35.001Z</time></trkpt><trkpt lat="45.459002198957776" lon="11.110674972676303"><ele>101.0</ele><time>2026-04-04T14:08:36.001Z</time></trkpt><trkpt lat="45.458959046858865" lon="11.110878537101174"><ele>101.0</ele><time>2026-04-04T14:08:37.001Z</time></trkpt><trkpt lat="45.458925574426544" lon="11.110984481477264"><ele>101.8</ele><time>2026-04-04T14:08:38.001Z</time></trkpt><trkpt lat="45.458884682561425" lon="11.11108555433151"><ele>102.6</ele><time>2026-04-04T14:08:39.001Z</time></trkpt><trkpt lat="45.45883642621475" lon="11.111181118413235"><ele>103.4</ele><time>2026-04-04T14:08:40.001Z</time></trkpt><trkpt lat="45.45878387518359" lon="11.111252313404975"><ele>104.2</ele><time>2026-04-04T14:08:41.001Z</time></trkpt><trkpt lat="45.458727142384646" lon="11.11130945876039"><ele>105.0</ele><time>2026-04-04T14:08:42.001Z</time></trkpt><trkpt lat="45.45856273748707" lon="11.111320411813798"><ele>103.0</ele><time>2026-04-04T14:08:44.001Z</time></trkpt><trkpt lat="45.45845783112708" lon="11.111347269309281"><ele>101.0</ele><time>2026-04-04T14:08:45.001Z</time></trkpt><trkpt lat="45.45837062712056" lon="11.111382806266313"><ele>99.0</ele><time>2026-04-04T14:08:46.001Z</time></trkpt><trkpt lat="45.458275896737376" lon="11.111392089814371"><ele>97.0</ele><time>2026-04-04T14:08:47.001Z</time></trkpt><trkpt lat="45.45817882416665" lon="11.111449549264531"><ele>95.0</ele><time>2026-04-04T14:08:48.001Z</time></trkpt><trkpt lat="45.45805784324284" lon="11.11150328271622"><ele>95.25</ele><time>2026-04-04T14:08:49.001Z</time></trkpt><trkpt lat="45.45793481482175" lon="11.11155207729568"><ele>95.5</ele><time>2026-04-04T14:08:50.001Z</time></trkpt><trkpt lat="45.457806571002315" lon="11.111586564466414"><ele>95.75</ele><time>2026-04-04T14:08:51.001Z</time></trkpt><trkpt lat="45.4576757692777" lon="11.11161287951526"><ele>96.0</ele><time>2026-04-04T14:08:52.001Z</time></trkpt><trkpt lat="45.45755170024532" lon="11.111619534542383"><ele>96.0</ele><time>2026-04-04T14:08:53.001Z</time></trkpt><trkpt lat="45.45743120922122" lon="11.111598515297853"><ele>96.0</ele><time>2026-04-04T14:08:54.001Z</time></trkpt><trkpt lat="45.45731563711404" lon="11.111547992986122"><ele>96.0</ele><time>2026-04-04T14:08:55.001Z</time></trkpt><trkpt lat="45.4571950078134" lon="11.11148705288182"><ele>96.0</ele><time>2026-04-04T14:08:56.001Z</time></trkpt><trkpt lat="45.457046704300204" lon="11.11145438668582"><ele>94.0</ele><time>2026-04-04T14:08:57.001Z</time></trkpt><trkpt lat="45.456919508028015" lon="11.111409753879506"><ele>92.0</ele><time>2026-04-04T14:08:58.001Z</time></trkpt><trkpt lat="45.45679422026953" lon="11.111349319664553"><ele>90.0</ele><time>2026-04-04T14:08:59.001Z</time></trkpt><trkpt lat="45.456695974154506" lon="11.111120395745193"><ele>90.0</ele><time>2026-04-04T14:09:00.002Z</time></trkpt><trkpt lat="45.4565564480872" lon="11.111073885448054"><ele>90.0</ele><time>2026-04-04T14:09:01.002Z</time></trkpt><trkpt lat="45.45642497887697" lon="11.111030071210912"><ele>90.0</ele><time>2026-04-04T14:09:02.002Z</time></trkpt><trkpt lat="45.456261337931814" lon="11.111188924270367"><ele>89.25</ele><time>2026-04-04T14:09:03.002Z</time></trkpt><trkpt lat="45.45613397103381" lon="11.111162493359291"><ele>88.5</ele><time>2026-04-04T14:09:04.002Z</time></trkpt><trkpt lat="45.45600714076098" lon="11.111152840624378"><ele>87.75</ele><time>2026-04-04T14:09:05.002Z</time></trkpt><trkpt lat="45.45587930554789" lon="11.111151224220746"><ele>87.0</ele><time>2026-04-04T14:09:06.002Z</time></trkpt><trkpt lat="45.45574434488222" lon="11.111148093506927"><ele>87.0</ele><time>2026-04-04T14:09:07.002Z</time></trkpt><trkpt lat="45.45561596092107" lon="11.111165756152774"><ele>87.0</ele><time>2026-04-04T14:09:08.002Z</time></trkpt><trkpt lat="45.4554842248826" lon="11.11119706992367"><ele>87.0</ele><time>2026-04-04T14:09:09.002Z</time></trkpt><trkpt lat="45.45535123542697" lon="11.111215519587399"><ele>87.0</ele><time>2026-04-04T14:09:10.002Z</time></trkpt><trkpt lat="45.45520780293243" lon="11.111227392692786"><ele>86.5</ele><time>2026-04-04T14:09:11.002Z</time></trkpt><trkpt lat="45.455073359971145" lon="11.111244687636084"><ele>86.0</ele><time>2026-04-04T14:09:12.002Z</time></trkpt><trkpt lat="45.454943636554326" lon="11.111274212762973"><ele>85.5</ele><time>2026-04-04T14:09:13.002Z</time></trkpt><trkpt lat="45.45482507099398" lon="11.111278620505878"><ele>85.0</ele><time>2026-04-04T14:09:14.002Z</time></trkpt><trkpt lat="45.45473279049131" lon="11.111282178663293"><ele>85.0</ele><time>2026-04-04T14:09:15.002Z</time></trkpt><trkpt lat="45.4546454090086" lon="11.111269180659374"><ele>85.0</ele><time>2026-04-04T14:09:16.002Z</time></trkpt><trkpt lat="45.45455653020057" lon="11.111221549770514"><ele>85.0</ele><time>2026-04-04T14:09:18.002Z</time></trkpt><trkpt lat="45.45451131603722" lon="11.111088885036805"><ele>85.0</ele><time>2026-04-04T14:09:20.002Z</time></trkpt><trkpt lat="45.45445434860973" lon="11.111006383739623"><ele>85.0</ele><time>2026-04-04T14:09:22.002Z</time></trkpt><trkpt lat="45.454333835610726" lon="11.111032679864975"><ele>83.5</ele><time>2026-04-04T14:09:24.002Z</time></trkpt><trkpt lat="45.454237885213374" lon="11.111045386450371"><ele>82.0</ele><time>2026-04-04T14:09:25.002Z</time></trkpt><trkpt lat="45.45412214743593" lon="11.11104442696541"><ele>80.5</ele><time>2026-04-04T14:09:26.002Z</time></trkpt><trkpt lat="45.4539821471093" lon="11.11104948247752"><ele>79.0</ele><time>2026-04-04T14:09:27.002Z</time></trkpt><trkpt lat="45.453823411706296" lon="11.11105207566939"><ele>78.33333333333333</ele><time>2026-04-04T14:09:28.002Z</time></trkpt><trkpt lat="45.45366164849892" lon="11.111057394595584"><ele>77.66666666666667</ele><time>2026-04-04T14:09:29.002Z</time></trkpt><trkpt lat="45.45349053097419" lon="11.111062322601297"><ele>77.0</ele><time>2026-04-04T14:09:30.002Z</time></trkpt><trkpt lat="45.45332084808655" lon="11.111068954359443"><ele>77.0</ele><time>2026-04-04T14:09:31.002Z</time></trkpt><trkpt lat="45.45316176640436" lon="11.11107762051107"><ele>77.0</ele><time>2026-04-04T14:09:32.002Z</time></trkpt><trkpt lat="45.453021945509825" lon="11.111078744366658"><ele>77.0</ele><time>2026-04-04T14:09:33.002Z</time></trkpt><trkpt lat="45.452898195902165" lon="11.111083517930641"><ele>77.0</ele><time>2026-04-04T14:09:34.002Z</time></trkpt><trkpt lat="45.45277673420089" lon="11.111087166973082"><ele>76.6</ele><time>2026-04-04T14:09:35.002Z</time></trkpt><trkpt lat="45.45267509958923" lon="11.111088293130628"><ele>76.2</ele><time>2026-04-04T14:09:36.002Z</time></trkpt><trkpt lat="45.45260202936183" lon="11.111089701544662"><ele>75.8</ele><time>2026-04-04T14:09:37.002Z</time></trkpt><trkpt lat="45.45253034314011" lon="11.111137440248909"><ele>75.4</ele><time>2026-04-04T14:09:39.002Z</time></trkpt><trkpt lat="45.45244985546497" lon="11.111297459025877"><ele>75.0</ele><time>2026-04-04T14:09:41.003Z</time></trkpt><trkpt lat="45.45241270204826" lon="11.11141966185487"><ele>75.0</ele><time>2026-04-04T14:09:42.003Z</time></trkpt><trkpt lat="45.45237932662823" lon="11.111563237737265"><ele>75.0</ele><time>2026-04-04T14:09:43.003Z</time></trkpt><trkpt lat="45.45235309026566" lon="11.111723319926133"><ele>75.0</ele><time>2026-04-04T14:09:44.003Z</time></trkpt><trkpt lat="45.4523265391483" lon="11.11185085547458"><ele>75.0</ele><time>2026-04-04T14:09:45Z</time></trkpt><trkpt lat="45.45228943905735" lon="11.111947937284539"><ele>75.0</ele><time>2026-04-04T14:09:46Z</time></trkpt><trkpt lat="45.45223483613722" lon="11.112001357928346"><ele>75.66666666666667</ele><time>2026-04-04T14:09:47Z</time></trkpt><trkpt lat="45.45215359361062" lon="11.112046182953367"><ele>76.33333333333333</ele><time>2026-04-04T14:09:48Z</time></trkpt><trkpt lat="45.452077625118044" lon="11.11210205242267"><ele>77.0</ele><time>2026-04-04T14:09:49Z</time></trkpt><trkpt lat="45.452006267158424" lon="11.112167192969821"><ele>77.66666666666666</ele><time>2026-04-04T14:09:50Z</time></trkpt><trkpt lat="45.45194489896085" lon="11.11223657659284"><ele>78.33333333333333</ele><time>2026-04-04T14:09:51Z</time></trkpt><trkpt lat="45.45188450199684" lon="11.112318111475288"><ele>79.0</ele><time>2026-04-04T14:09:52Z</time></trkpt><trkpt lat="45.45182690348381" lon="11.112427698957923"><ele>82.2</ele><time>2026-04-04T14:09:53Z</time></trkpt><trkpt lat="45.451763466863966" lon="11.112543759056285"><ele>85.4</ele><time>2026-04-04T14:09:54Z</time></trkpt><trkpt lat="45.451702746967236" lon="11.112639507286262"><ele>88.6</ele><time>2026-04-04T14:09:55Z</time></trkpt><trkpt lat="45.451631387718756" lon="11.112740648628527"><ele>91.8</ele><time>2026-04-04T14:09:56Z</time></trkpt><trkpt lat="45.45157088150468" lon="11.112839309098185"><ele>95.0</ele><time>2026-04-04T14:09:57Z</time></trkpt><trkpt lat="45.45151997422946" lon="11.112933190969587"><ele>95.0</ele><time>2026-04-04T14:09:58Z</time></trkpt><trkpt lat="45.451477756621976" lon="11.11303766750924"><ele>95.0</ele><time>2026-04-04T14:09:59Z</time></trkpt><trkpt lat="45.45144249485058" lon="11.113155591768997"><ele>95.0</ele><time>2026-04-04T14:10:00Z</time></trkpt><trkpt lat="45.451418486277895" lon="11.113253667080688"><ele>95.0</ele><time>2026-04-04T14:10:01Z</time></trkpt><trkpt lat="45.45136836412185" lon="11.113358457351799"><ele>95.0</ele><time>2026-04-04T14:10:03Z</time></trkpt><trkpt lat="45.45124103275514" lon="11.113348811131104"><ele>96.25</ele><time>2026-04-04T14:10:05Z</time></trkpt><trkpt lat="45.45113544592602" lon="11.113345370479042"><ele>97.5</ele><time>2026-04-04T14:10:06Z</time></trkpt><trkpt lat="45.45102481920865" lon="11.113375825901352"><ele>98.75</ele><time>2026-04-04T14:10:07Z</time></trkpt><trkpt lat="45.45090566840287" lon="11.113381383510477"><ele>100.0</ele><time>2026-04-04T14:10:08Z</time></trkpt><trkpt lat="45.45076802622569" lon="11.11337705048554"><ele>100.0</ele><time>2026-04-04T14:10:09Z</time></trkpt><trkpt lat="45.45063409713632" lon="11.113374671603633"><ele>100.0</ele><time>2026-04-04T14:10:10Z</time></trkpt><trkpt lat="45.45050816933132" lon="11.113354522895238"><ele>100.0</ele><time>2026-04-04T14:10:11Z</time></trkpt><trkpt lat="45.45041020526353" lon="11.113339046221212"><ele>100.0</ele><time>2026-04-04T14:10:12Z</time></trkpt><trkpt lat="45.45033215406148" lon="11.11332853506179"><ele>100.0</ele><time>2026-04-04T14:10:13Z</time></trkpt><trkpt lat="45.45020523304837" lon="11.113388633220517"><ele>100.75</ele><time>2026-04-04T14:10:15Z</time></trkpt><trkpt lat="45.450108677970135" lon="11.113438747247722"><ele>101.5</ele><time>2026-04-04T14:10:16Z</time></trkpt><trkpt lat="45.45001111451071" lon="11.113437668331407"><ele>102.25</ele><time>2026-04-04T14:10:17Z</time></trkpt><trkpt lat="45.44988620491902" lon="11.113387504475561"><ele>103.0</ele><time>2026-04-04T14:10:18Z</time></trkpt><trkpt lat="45.44977239771704" lon="11.113335193152261"><ele>103.0</ele><time>2026-04-04T14:10:19Z</time></trkpt><trkpt lat="45.44962739662227" lon="11.113276164651515"><ele>103.0</ele><time>2026-04-04T14:10:20Z</time></trkpt><trkpt lat="45.449479948100205" lon="11.1132311992411"><ele>103.0</ele><time>2026-04-04T14:10:21Z</time></trkpt><trkpt lat="45.44934831046231" lon="11.113188877036952"><ele>103.0</ele><time>2026-04-04T14:10:22Z</time></trkpt><trkpt lat="45.4492332778352" lon="11.11315607748777"><ele>101.80000000000001</ele><time>2026-04-04T14:10:23.001Z</time></trkpt><trkpt lat="45.449118635440946" lon="11.113133578231345"><ele>100.6</ele><time>2026-04-04T14:10:24.001Z</time></trkpt><trkpt lat="45.44901324790244" lon="11.11310133179224"><ele>99.4</ele><time>2026-04-04T14:10:25.001Z</time></trkpt><trkpt lat="45.44891512247011" lon="11.113062897324374"><ele>98.19999999999999</ele><time>2026-04-04T14:10:26.001Z</time></trkpt><trkpt lat="45.448816136199" lon="11.11302715708028"><ele>97.0</ele><time>2026-04-04T14:10:27.001Z</time></trkpt><trkpt lat="45.44872475293356" lon="11.112986845884272"><ele>99.33333333333334</ele><time>2026-04-04T14:10:28.001Z</time></trkpt><trkpt lat="45.448642411118975" lon="11.112972211282448"><ele>101.66666666666667</ele><time>2026-04-04T14:10:29.001Z</time></trkpt><trkpt lat="45.44857280734054" lon="11.112974556060118"><ele>104.0</ele><time>2026-04-04T14:10:30.001Z</time></trkpt><trkpt lat="45.448469292239736" lon="11.113075682185196"><ele>106.33333333333334</ele><time>2026-04-04T14:10:32.001Z</time></trkpt><trkpt lat="45.448439094563504" lon="11.113176579281411"><ele>108.66666666666667</ele><time>2026-04-04T14:10:33.001Z</time></trkpt><trkpt lat="45.44844468416419" lon="11.113308136589087"><ele>111.0</ele><time>2026-04-04T14:10:34.001Z</time></trkpt><trkpt lat="45.448479194730126" lon="11.113441233931265"><ele>112.33333333333333</ele><time>2026-04-04T14:10:35.001Z</time></trkpt><trkpt lat="45.44850315269356" lon="11.113559078349772"><ele>113.66666666666666</ele><time>2026-04-04T14:10:36.001Z</time></trkpt><trkpt lat="45.448517124681" lon="11.113673952950005"><ele>115.0</ele><time>2026-04-04T14:10:37.001Z</time></trkpt><trkpt lat="45.448537465361646" lon="11.113797545520061"><ele>116.33333333333333</ele><time>2026-04-04T14:10:38.001Z</time></trkpt><trkpt lat="45.44856110949394" lon="11.113907133362153"><ele>117.66666666666666</ele><time>2026-04-04T14:10:39.001Z</time></trkpt><trkpt lat="45.448524614452644" lon="11.114010643798812"><ele>119.0</ele><time>2026-04-04T14:10:40.001Z</time></trkpt><trkpt lat="45.448496581486324" lon="11.114122267675832"><ele>119.0</ele><time>2026-04-04T14:10:42.001Z</time></trkpt><trkpt lat="45.448390725828716" lon="11.114044172406366"><ele>119.0</ele><time>2026-04-04T14:10:44.001Z</time></trkpt><trkpt lat="45.448367226158496" lon="11.113918137662328"><ele>119.0</ele><time>2026-04-04T14:10:45.001Z</time></trkpt><trkpt lat="45.44832982351637" lon="11.113799937495804"><ele>119.0</ele><time>2026-04-04T14:10:46.001Z</time></trkpt><trkpt lat="45.44827791666301" lon="11.11368273308099"><ele>119.0</ele><time>2026-04-04T14:10:47.001Z</time></trkpt><trkpt lat="45.44821558088057" lon="11.113549724388292"><ele>119.0</ele><time>2026-04-04T14:10:48.001Z</time></trkpt><trkpt lat="45.44815588531519" lon="11.113415848293354"><ele>119.0</ele><time>2026-04-04T14:10:49.001Z</time></trkpt><trkpt lat="45.44808674438228" lon="11.113300836939754"><ele>119.0</ele><time>2026-04-04T14:10:50.001Z</time></trkpt><trkpt lat="45.44800260869458" lon="11.11317053484951"><ele>119.0</ele><time>2026-04-04T14:10:51.001Z</time></trkpt><trkpt lat="45.44791879444271" lon="11.113043969493102"><ele>121.2</ele><time>2026-04-04T14:10:52.001Z</time></trkpt><trkpt lat="45.44784520550041" lon="11.112930500518816"><ele>123.4</ele><time>2026-04-04T14:10:53.001Z</time></trkpt><trkpt lat="45.44777596909623" lon="11.112808273026317"><ele>125.6</ele><time>2026-04-04T14:10:54.001Z</time></trkpt><trkpt lat="45.447704151395335" lon="11.112673832248735"><ele>127.8</ele><time>2026-04-04T14:10:55.001Z</time></trkpt><trkpt lat="45.4476261177607" lon="11.112560011766137"><ele>130.0</ele><time>2026-04-04T14:10:56.001Z</time></trkpt><trkpt lat="45.447519399326" lon="11.112458655538816"><ele>128.0</ele><time>2026-04-04T14:10:57.001Z</time></trkpt><trkpt lat="45.447409380989164" lon="11.112382185008826"><ele>126.0</ele><time>2026-04-04T14:10:58.001Z</time></trkpt><trkpt lat="45.44731025230602" lon="11.112317866996857"><ele>124.0</ele><time>2026-04-04T14:10:59.001Z</time></trkpt><trkpt lat="45.447213481065624" lon="11.112299902912776"><ele>122.0</ele><time>2026-04-04T14:11:00.001Z</time></trkpt><trkpt lat="45.44710692846116" lon="11.112325536097503"><ele>120.0</ele><time>2026-04-04T14:11:01.001Z</time></trkpt><trkpt lat="45.44701577809307" lon="11.112391367760416"><ele>123.0</ele><time>2026-04-04T14:11:02.001Z</time></trkpt><trkpt lat="45.44694817333635" lon="11.112471550521184"><ele>126.0</ele><time>2026-04-04T14:11:03.001Z</time></trkpt><trkpt lat="45.44689432789003" lon="11.112557100844278"><ele>129.0</ele><time>2026-04-04T14:11:04.002Z</time></trkpt><trkpt lat="45.446796304094356" lon="11.112519780844561"><ele>132.0</ele><time>2026-04-04T14:11:05.002Z</time></trkpt><trkpt lat="45.446685682940895" lon="11.112501578615504"><ele>135.0</ele><time>2026-04-04T14:11:06.002Z</time></trkpt><trkpt lat="45.44657346751613" lon="11.112472510720282"><ele>135.0</ele><time>2026-04-04T14:11:07.002Z</time></trkpt><trkpt lat="45.446446076447785" lon="11.112445230224571"><ele>135.0</ele><time>2026-04-04T14:11:08.002Z</time></trkpt><trkpt lat="45.44632584534507" lon="11.11244373460389"><ele>135.0</ele><time>2026-04-04T14:11:09.002Z</time></trkpt><trkpt lat="45.44620164332385" lon="11.112457231692376"><ele>135.0</ele><time>2026-04-04T14:11:10.002Z</time></trkpt><trkpt lat="45.446103527634484" lon="11.112472514178021"><ele>134.75</ele><time>2026-04-04T14:11:11.002Z</time></trkpt><trkpt lat="45.44598502611178" lon="11.112490971955252"><ele>134.5</ele><time>2026-04-04T14:11:12.002Z</time></trkpt><trkpt lat="45.4458790181175" lon="11.112507483746082"><ele>134.25</ele><time>2026-04-04T14:11:13.002Z</time></trkpt><trkpt lat="45.445761833314556" lon="11.112532592118017"><ele>134.0</ele><time>2026-04-04T14:11:14.002Z</time></trkpt><trkpt lat="45.44564460208752" lon="11.11259120514526"><ele>134.0</ele><time>2026-04-04T14:11:15.002Z</time></trkpt><trkpt lat="45.44554721085508" lon="11.112631099808029"><ele>134.0</ele><time>2026-04-04T14:11:16.002Z</time></trkpt><trkpt lat="45.44544225701298" lon="11.112673424677967"><ele>134.0</ele><time>2026-04-04T14:11:17.002Z</time></trkpt><trkpt lat="45.445339807458666" lon="11.112786833309325"><ele>134.0</ele><time>2026-04-04T14:11:18.002Z</time></trkpt><trkpt lat="45.44516047510141" lon="11.112465911568568"><ele>131.5</ele><time>2026-04-04T14:11:19.002Z</time></trkpt><trkpt lat="45.445054443106685" lon="11.11250098376157"><ele>129.0</ele><time>2026-04-04T14:11:20.002Z</time></trkpt><trkpt lat="45.444974155456094" lon="11.112527540550033"><ele>126.5</ele><time>2026-04-04T14:11:21.002Z</time></trkpt><trkpt lat="45.444892250411215" lon="11.112568479402722"><ele>124.0</ele><time>2026-04-04T14:11:22.002Z</time></trkpt><trkpt lat="45.4449007153507" lon="11.113191130958025"><ele>124.0</ele><time>2026-04-04T14:11:23.002Z</time></trkpt><trkpt lat="45.44482064386923" lon="11.113286458835738"><ele>124.0</ele><time>2026-04-04T14:11:24.002Z</time></trkpt><trkpt lat="45.44474699331284" lon="11.113377228494086"><ele>124.0</ele><time>2026-04-04T14:11:25.002Z</time></trkpt><trkpt lat="45.44467495141322" lon="11.113471997566785"><ele>124.0</ele><time>2026-04-04T14:11:26.002Z</time></trkpt><trkpt lat="45.44460887942902" lon="11.113563706707927"><ele>124.0</ele><time>2026-04-04T14:11:27.002Z</time></trkpt><trkpt lat="45.44453203424657" lon="11.113658384937654"><ele>124.0</ele><time>2026-04-04T14:11:28.002Z</time></trkpt><trkpt lat="45.444447516382255" lon="11.113766788651107"><ele>124.0</ele><time>2026-04-04T14:11:29.002Z</time></trkpt><trkpt lat="45.44436532979742" lon="11.113871521917764"><ele>124.0</ele><time>2026-04-04T14:11:30.002Z</time></trkpt><trkpt lat="45.44428326268447" lon="11.113987467251006"><ele>124.0</ele><time>2026-04-04T14:11:31.002Z</time></trkpt><trkpt lat="45.44419384732885" lon="11.114096803211632"><ele>124.2</ele><time>2026-04-04T14:11:32.002Z</time></trkpt><trkpt lat="45.44410004411705" lon="11.114200940914587"><ele>124.4</ele><time>2026-04-04T14:11:33.002Z</time></trkpt><trkpt lat="45.444012442527885" lon="11.114289103274283"><ele>124.6</ele><time>2026-04-04T14:11:34.002Z</time></trkpt><trkpt lat="45.44393388311821" lon="11.114393085058634"><ele>124.8</ele><time>2026-04-04T14:11:35.002Z</time></trkpt><trkpt lat="45.4438513828955" lon="11.11448070320579"><ele>125.0</ele><time>2026-04-04T14:11:36.002Z</time></trkpt><trkpt lat="45.443780750126614" lon="11.114562510670844"><ele>125.0</ele><time>2026-04-04T14:11:37.002Z</time></trkpt><trkpt lat="45.443701750421205" lon="11.114650944407662"><ele>125.0</ele><time>2026-04-04T14:11:38.002Z</time></trkpt><trkpt lat="45.44361480567083" lon="11.11476353106804"><ele>125.0</ele><time>2026-04-04T14:11:39.002Z</time></trkpt><trkpt lat="45.443528972188325" lon="11.114876531877252"><ele>125.0</ele><time>2026-04-04T14:11:40.002Z</time></trkpt><trkpt lat="45.44345137478264" lon="11.114978478627187"><ele>125.0</ele><time>2026-04-04T14:11:41.002Z</time></trkpt><trkpt lat="45.44338273804045" lon="11.115060680096745"><ele>125.8</ele><time>2026-04-04T14:11:42.002Z</time></trkpt><trkpt lat="45.44331813089195" lon="11.115132465515329"><ele>126.6</ele><time>2026-04-04T14:11:43.002Z</time></trkpt><trkpt lat="45.443215358011926" lon="11.115196492681283"><ele>127.4</ele><time>2026-04-04T14:11:45.003Z</time></trkpt><trkpt lat="45.44312874899584" lon="11.115362606774179"><ele>128.2</ele><time>2026-04-04T14:11:47.003Z</time></trkpt><trkpt lat="45.44310589568729" lon="11.11548806239111"><ele>129.0</ele><time>2026-04-04T14:11:48.003Z</time></trkpt><trkpt lat="45.4430840815201" lon="11.115597971525794"><ele>129.0</ele><time>2026-04-04T14:11:49.003Z</time></trkpt><trkpt lat="45.44305341369875" lon="11.115709463512538"><ele>129.0</ele><time>2026-04-04T14:11:50.003Z</time></trkpt><trkpt lat="45.44300945739254" lon="11.115832501651308"><ele>129.0</ele><time>2026-04-04T14:11:51Z</time></trkpt><trkpt lat="45.44296349545028" lon="11.115955161180777"><ele>129.0</ele><time>2026-04-04T14:11:52Z</time></trkpt><trkpt lat="45.442905176188034" lon="11.116077397794497"><ele>129.0</ele><time>2026-04-04T14:11:53Z</time></trkpt><trkpt lat="45.442837403893286" lon="11.116170867066224"><ele>128.0</ele><time>2026-04-04T14:11:54Z</time></trkpt><trkpt lat="45.442766225761616" lon="11.116266647384286"><ele>127.0</ele><time>2026-04-04T14:11:55Z</time></trkpt><trkpt lat="45.442698038349384" lon="11.116362794924811"><ele>126.0</ele><time>2026-04-04T14:11:56Z</time></trkpt><trkpt lat="45.442642543899396" lon="11.11643599402124"><ele>125.0</ele><time>2026-04-04T14:11:57Z</time></trkpt><trkpt lat="45.44257548658642" lon="11.116518031036403"><ele>124.0</ele><time>2026-04-04T14:11:58Z</time></trkpt><trkpt lat="45.442520324067544" lon="11.116614469196248"><ele>123.0</ele><time>2026-04-04T14:11:59Z</time></trkpt><trkpt lat="45.44246796194095" lon="11.116764427411985"><ele>123.0</ele><time>2026-04-04T14:12:00Z</time></trkpt><trkpt lat="45.442416063768434" lon="11.116898909311693"><ele>123.00000000000001</ele><time>2026-04-04T14:12:01Z</time></trkpt><trkpt lat="45.44235682685181" lon="11.117025033224618"><ele>123.00000000000001</ele><time>2026-04-04T14:12:02Z</time></trkpt><trkpt lat="45.44229803475137" lon="11.11715611827239"><ele>123.0</ele><time>2026-04-04T14:12:03Z</time></trkpt><trkpt lat="45.442272887447395" lon="11.117273525460396"><ele>123.0</ele><time>2026-04-04T14:12:03.999Z</time></trkpt><trkpt lat="45.44219542322266" lon="11.117387495177775"><ele>122.60000000000001</ele><time>2026-04-04T14:12:06Z</time></trkpt><trkpt lat="45.442117527269865" lon="11.11737519125347"><ele>122.20000000000002</ele><time>2026-04-04T14:12:07Z</time></trkpt><trkpt lat="45.44198236965034" lon="11.117430426060581"><ele>121.8</ele><time>2026-04-04T14:12:09Z</time></trkpt><trkpt lat="45.441913970561735" lon="11.117511682883334"><ele>121.4</ele><time>2026-04-04T14:12:10Z</time></trkpt><trkpt lat="45.441849168768286" lon="11.11756244817884"><ele>121.0</ele><time>2026-04-04T14:12:11Z</time></trkpt><trkpt lat="45.441769812928335" lon="11.117620402265013"><ele>121.0</ele><time>2026-04-04T14:12:12Z</time></trkpt><trkpt lat="45.441686705505596" lon="11.117698535122546"><ele>121.0</ele><time>2026-04-04T14:12:13Z</time></trkpt><trkpt lat="45.4416002446604" lon="11.1177669771363"><ele>121.0</ele><time>2026-04-04T14:12:14Z</time></trkpt><trkpt lat="45.44151749571145" lon="11.117846463429478"><ele>121.0</ele><time>2026-04-04T14:12:15Z</time></trkpt><trkpt lat="45.441420982849905" lon="11.117916658878558"><ele>121.0</ele><time>2026-04-04T14:12:16Z</time></trkpt><trkpt lat="45.44132127269535" lon="11.118003552306883"><ele>121.4</ele><time>2026-04-04T14:12:17Z</time></trkpt><trkpt lat="45.441228014617465" lon="11.118069517536856"><ele>121.8</ele><time>2026-04-04T14:12:18Z</time></trkpt><trkpt lat="45.441148541246825" lon="11.118137409732336"><ele>122.20000000000002</ele><time>2026-04-04T14:12:19Z</time></trkpt><trkpt lat="45.44104939020826" lon="11.118250710452559"><ele>122.60000000000001</ele><time>2026-04-04T14:12:20Z</time></trkpt><trkpt lat="45.440959497587116" lon="11.118352024749953"><ele>123.0</ele><time>2026-04-04T14:12:21Z</time></trkpt><trkpt lat="45.4409037929894" lon="11.118412748573503"><ele>123.0</ele><time>2026-04-04T14:12:22Z</time></trkpt><trkpt lat="45.44088412238438" lon="11.11854477675287"><ele>123.0</ele><time>2026-04-04T14:12:24Z</time></trkpt><trkpt lat="45.44091608044952" lon="11.118685976327132"><ele>123.0</ele><time>2026-04-04T14:12:27Z</time></trkpt><trkpt lat="45.440921305102904" lon="11.118780132487604"><ele>123.0</ele><time>2026-04-04T14:12:28Z</time></trkpt><trkpt lat="45.440933798592205" lon="11.11889272278153"><ele>123.0</ele><time>2026-04-04T14:12:29Z</time></trkpt><trkpt lat="45.4409540149219" lon="11.119012569450224"><ele>123.0</ele><time>2026-04-04T14:12:30Z</time></trkpt><trkpt lat="45.4409561258148" lon="11.119146394607563"><ele>124.4</ele><time>2026-04-04T14:12:31Z</time></trkpt><trkpt lat="45.44094678193921" lon="11.119275268801623"><ele>125.80000000000001</ele><time>2026-04-04T14:12:32Z</time></trkpt><trkpt lat="45.44093152280733" lon="11.119419468198954"><ele>127.2</ele><time>2026-04-04T14:12:33Z</time></trkpt><trkpt lat="45.44091439336453" lon="11.119558710123796"><ele>128.6</ele><time>2026-04-04T14:12:34Z</time></trkpt><trkpt lat="45.44087909747288" lon="11.119688215818467"><ele>130.0</ele><time>2026-04-04T14:12:35.001Z</time></trkpt><trkpt lat="45.440831776822236" lon="11.11983200509836"><ele>131.6</ele><time>2026-04-04T14:12:36.001Z</time></trkpt><trkpt lat="45.4407949892635" lon="11.11996468588372"><ele>133.2</ele><time>2026-04-04T14:12:37.001Z</time></trkpt><trkpt lat="45.44076430990827" lon="11.120090768235357"><ele>134.8</ele><time>2026-04-04T14:12:38.001Z</time></trkpt><trkpt lat="45.44071195388498" lon="11.120217888422568"><ele>136.4</ele><time>2026-04-04T14:12:39.001Z</time></trkpt><trkpt lat="45.440658561738104" lon="11.12032914392414"><ele>138.0</ele><time>2026-04-04T14:12:40.001Z</time></trkpt><trkpt lat="45.44049621860102" lon="11.120319890088258"><ele>137.0</ele><time>2026-04-04T14:12:41.001Z</time></trkpt><trkpt lat="45.440424400373175" lon="11.120409993462324"><ele>136.0</ele><time>2026-04-04T14:12:42.001Z</time></trkpt><trkpt lat="45.440338036323276" lon="11.12049596256155"><ele>135.0</ele><time>2026-04-04T14:12:43.001Z</time></trkpt><trkpt lat="45.440243434722476" lon="11.120588406950871"><ele>134.0</ele><time>2026-04-04T14:12:44.001Z</time></trkpt><trkpt lat="45.44015259068046" lon="11.120681629264746"><ele>133.0</ele><time>2026-04-04T14:12:45.001Z</time></trkpt><trkpt lat="45.440081431178605" lon="11.120760583670174"><ele>133.0</ele><time>2026-04-04T14:12:46.001Z</time></trkpt><trkpt lat="45.43999904248426" lon="11.120875300149812"><ele>133.0</ele><time>2026-04-04T14:12:48.001Z</time></trkpt><trkpt lat="45.439998809098" lon="11.121025660527234"><ele>133.0</ele><time>2026-04-04T14:12:50.001Z</time></trkpt><trkpt lat="45.440015851770795" lon="11.121142117216618"><ele>133.0</ele><time>2026-04-04T14:12:51.001Z</time></trkpt><trkpt lat="45.44001708449258" lon="11.121261592614367"><ele>133.0</ele><time>2026-04-04T14:12:52.001Z</time></trkpt><trkpt lat="45.440015023380035" lon="11.121388763233613"><ele>133.0</ele><time>2026-04-04T14:12:53.001Z</time></trkpt><trkpt lat="45.44001243574427" lon="11.12154842021297"><ele>133.0</ele><time>2026-04-04T14:12:54.001Z</time></trkpt><trkpt lat="45.44009109970208" lon="11.12173721220029"><ele>133.0</ele><time>2026-04-04T14:12:55.001Z</time></trkpt><trkpt lat="45.44012128915195" lon="11.12194914106633"><ele>133.0</ele><time>2026-04-04T14:12:56.001Z</time></trkpt><trkpt lat="45.44015034455338" lon="11.12216302458001"><ele>133.0</ele><time>2026-04-04T14:12:57.001Z</time></trkpt><trkpt lat="45.440176516517454" lon="11.122380338480376"><ele>133.0</ele><time>2026-04-04T14:12:58.001Z</time></trkpt><trkpt lat="45.44020726275766" lon="11.12257617010653"><ele>133.0</ele><time>2026-04-04T14:12:59.001Z</time></trkpt><trkpt lat="45.44023910341858" lon="11.122756758113807"><ele>133.0</ele><time>2026-04-04T14:13:00.001Z</time></trkpt><trkpt lat="45.440277122303485" lon="11.122936752643886"><ele>132.0</ele><time>2026-04-04T14:13:01.001Z</time></trkpt><trkpt lat="45.44031966956335" lon="11.123086822686426"><ele>131.0</ele><time>2026-04-04T14:13:02.001Z</time></trkpt><trkpt lat="45.440387543036515" lon="11.123218539568338"><ele>130.0</ele><time>2026-04-04T14:13:03.001Z</time></trkpt><trkpt lat="45.44049351542526" lon="11.123340197671666"><ele>129.0</ele><time>2026-04-04T14:13:04.001Z</time></trkpt><trkpt lat="45.44060500083214" lon="11.123435561173325"><ele>131.16666666666666</ele><time>2026-04-04T14:13:05.001Z</time></trkpt><trkpt lat="45.44069138241598" lon="11.12352162084632"><ele>133.33333333333334</ele><time>2026-04-04T14:13:06.001Z</time></trkpt><trkpt lat="45.44075395954283" lon="11.123605173887915"><ele>135.5</ele><time>2026-04-04T14:13:07.001Z</time></trkpt><trkpt lat="45.44078263016264" lon="11.123701818205687"><ele>137.66666666666669</ele><time>2026-04-04T14:13:08.001Z</time></trkpt><trkpt lat="45.44075433445689" lon="11.123790933304921"><ele>139.83333333333334</ele><time>2026-04-04T14:13:09.001Z</time></trkpt><trkpt lat="45.44069365261619" lon="11.12385819259674"><ele>142.0</ele><time>2026-04-04T14:13:10.001Z</time></trkpt><trkpt lat="45.44057954744159" lon="11.123878240855849"><ele>142.0</ele><time>2026-04-04T14:13:11.001Z</time></trkpt><trkpt lat="45.44046945680026" lon="11.123918217439595"><ele>142.0</ele><time>2026-04-04T14:13:12.001Z</time></trkpt><trkpt lat="45.440352389392125" lon="11.12399238563295"><ele>142.0</ele><time>2026-04-04T14:13:13.002Z</time></trkpt><trkpt lat="45.440236758337306" lon="11.12407677297969"><ele>142.0</ele><time>2026-04-04T14:13:14.002Z</time></trkpt><trkpt lat="45.440149420207526" lon="11.124167335024426"><ele>140.83333333333334</ele><time>2026-04-04T14:13:15.002Z</time></trkpt><trkpt lat="45.440082694026614" lon="11.124261027548947"><ele>139.66666666666669</ele><time>2026-04-04T14:13:16.002Z</time></trkpt><trkpt lat="45.44003029849128" lon="11.124312153302172"><ele>138.5</ele><time>2026-04-04T14:13:17.002Z</time></trkpt><trkpt lat="45.4399618616858" lon="11.124406141825157"><ele>137.33333333333334</ele><time>2026-04-04T14:13:19.002Z</time></trkpt><trkpt lat="45.43988637814924" lon="11.124457014418585"><ele>136.16666666666666</ele><time>2026-04-04T14:13:20.002Z</time></trkpt><trkpt lat="45.439774013464834" lon="11.12446778162982"><ele>135.0</ele><time>2026-04-04T14:13:21.002Z</time></trkpt><trkpt lat="45.439651559402066" lon="11.12447707474151"><ele>134.5</ele><time>2026-04-04T14:13:22.002Z</time></trkpt><trkpt lat="45.439523173564005" lon="11.124495077807966"><ele>134.0</ele><time>2026-04-04T14:13:23.002Z</time></trkpt><trkpt lat="45.4393810605347" lon="11.124564201874724"><ele>133.5</ele><time>2026-04-04T14:13:24.002Z</time></trkpt><trkpt lat="45.43926420374817" lon="11.124637840375739"><ele>133.0</ele><time>2026-04-04T14:13:25.002Z</time></trkpt><trkpt lat="45.43915574429855" lon="11.124677507193871"><ele>133.0</ele><time>2026-04-04T14:13:26.002Z</time></trkpt><trkpt lat="45.43904608251402" lon="11.12468355668747"><ele>133.0</ele><time>2026-04-04T14:13:27.002Z</time></trkpt><trkpt lat="45.43893171935738" lon="11.124659584905459"><ele>133.0</ele><time>2026-04-04T14:13:28.002Z</time></trkpt><trkpt lat="45.43879600618182" lon="11.124597159272575"><ele>133.0</ele><time>2026-04-04T14:13:29.002Z</time></trkpt><trkpt lat="45.438663119802904" lon="11.124527360801249"><ele>132.5</ele><time>2026-04-04T14:13:30.002Z</time></trkpt><trkpt lat="45.43853971264922" lon="11.124478108240146"><ele>132.0</ele><time>2026-04-04T14:13:31.002Z</time></trkpt><trkpt lat="45.43839771578593" lon="11.12447902504589"><ele>131.5</ele><time>2026-04-04T14:13:32.002Z</time></trkpt><trkpt lat="45.43824635138604" lon="11.124525199047133"><ele>131.0</ele><time>2026-04-04T14:13:33.002Z</time></trkpt><trkpt lat="45.43809112301341" lon="11.124600352547056"><ele>130.0</ele><time>2026-04-04T14:13:34.002Z</time></trkpt><trkpt lat="45.437943250235506" lon="11.124666036453169"><ele>129.0</ele><time>2026-04-04T14:13:35.002Z</time></trkpt><trkpt lat="45.43779813785986" lon="11.124729563129693"><ele>128.0</ele><time>2026-04-04T14:13:36.002Z</time></trkpt><trkpt lat="45.43765553816386" lon="11.124772986696168"><ele>128.0</ele><time>2026-04-04T14:13:37.002Z</time></trkpt><trkpt lat="45.43750620898549" lon="11.124811883165338"><ele>128.0</ele><time>2026-04-04T14:13:38.002Z</time></trkpt><trkpt lat="45.4373540517556" lon="11.1248423704856"><ele>128.0</ele><time>2026-04-04T14:13:39.002Z</time></trkpt><trkpt lat="45.437198775994126" lon="11.124842945991965"><ele>129.5</ele><time>2026-04-04T14:13:40.002Z</time></trkpt><trkpt lat="45.43705615090583" lon="11.12480858584039"><ele>131.0</ele><time>2026-04-04T14:13:41.002Z</time></trkpt><trkpt lat="45.43691760764509" lon="11.124748124460995"><ele>132.5</ele><time>2026-04-04T14:13:42.002Z</time></trkpt><trkpt lat="45.436791910719705" lon="11.12467641243569"><ele>134.0</ele><time>2026-04-04T14:13:43.002Z</time></trkpt><trkpt lat="45.43667605756297" lon="11.12459539487963"><ele>134.0</ele><time>2026-04-04T14:13:44.002Z</time></trkpt><trkpt lat="45.43656766455074" lon="11.124527554441856"><ele>134.0</ele><time>2026-04-04T14:13:45.002Z</time></trkpt><trkpt lat="45.436446261652684" lon="11.124467414937351"><ele>134.0</ele><time>2026-04-04T14:13:46.002Z</time></trkpt><trkpt lat="45.43631028489981" lon="11.12441436366816"><ele>134.0</ele><time>2026-04-04T14:13:47.002Z</time></trkpt><trkpt lat="45.43616960151411" lon="11.124364913499717"><ele>136.33333333333331</ele><time>2026-04-04T14:13:48.002Z</time></trkpt><trkpt lat="45.43602404718593" lon="11.124323733078178"><ele>138.66666666666666</ele><time>2026-04-04T14:13:49.002Z</time></trkpt><trkpt lat="45.43587065276316" lon="11.124289895403034"><ele>141.0</ele><time>2026-04-04T14:13:50.002Z</time></trkpt><trkpt lat="45.435722241572186" lon="11.124276851054626"><ele>141.0</ele><time>2026-04-04T14:13:51.002Z</time></trkpt><trkpt lat="45.43557382194693" lon="11.124278603590758"><ele>141.0</ele><time>2026-04-04T14:13:52.003Z</time></trkpt><trkpt lat="45.435438998406404" lon="11.124248237587915"><ele>141.0</ele><time>2026-04-04T14:13:53.003Z</time></trkpt><trkpt lat="45.435310189980456" lon="11.124177782791103"><ele>141.0</ele><time>2026-04-04T14:13:54.003Z</time></trkpt><trkpt lat="45.435183278052" lon="11.124071498048131"><ele>140.25</ele><time>2026-04-04T14:13:55.003Z</time></trkpt><trkpt lat="45.435057978651976" lon="11.123951816716863"><ele>139.5</ele><time>2026-04-04T14:13:56.003Z</time></trkpt><trkpt lat="45.43494086062271" lon="11.123835486186982"><ele>138.75</ele><time>2026-04-04T14:13:56.998Z</time></trkpt><trkpt lat="45.43482862263805" lon="11.123733992292019"><ele>138.0</ele><time>2026-04-04T14:13:57.998Z</time></trkpt><trkpt lat="45.43471046332684" lon="11.123614179667866"><ele>137.0</ele><time>2026-04-04T14:13:58.998Z</time></trkpt><trkpt lat="45.434591749615" lon="11.123496753989228"><ele>136.0</ele><time>2026-04-04T14:13:59.998Z</time></trkpt><trkpt lat="45.434466125311936" lon="11.123386728912843"><ele>135.0</ele><time>2026-04-04T14:14:00.998Z</time></trkpt><trkpt lat="45.434338979485965" lon="11.123281812680993"><ele>134.0</ele><time>2026-04-04T14:14:01.998Z</time></trkpt><trkpt lat="45.43419982316117" lon="11.123199143221049"><ele>134.0</ele><time>2026-04-04T14:14:02.998Z</time></trkpt><trkpt lat="45.43406316071367" lon="11.123141436272373"><ele>134.0</ele><time>2026-04-04T14:14:03.998Z</time></trkpt><trkpt lat="45.43392974643319" lon="11.123094897329999"><ele>134.0</ele><time>2026-04-04T14:14:04.998Z</time></trkpt><trkpt lat="45.43380937406453" lon="11.123038316324575"><ele>134.0</ele><time>2026-04-04T14:14:05.999Z</time></trkpt><trkpt lat="45.43369542693532" lon="11.122980348399311"><ele>134.6</ele><time>2026-04-04T14:14:06.999Z</time></trkpt><trkpt lat="45.433571117334495" lon="11.122922436817438"><ele>135.2</ele><time>2026-04-04T14:14:07.999Z</time></trkpt><trkpt lat="45.433459955626866" lon="11.122856980775314"><ele>135.79999999999998</ele><time>2026-04-04T14:14:08.999Z</time></trkpt><trkpt lat="45.43337012159" lon="11.122794908392338"><ele>136.4</ele><time>2026-04-04T14:14:09.999Z</time></trkpt><trkpt lat="45.43329691680749" lon="11.122745098760074"><ele>137.0</ele><time>2026-04-04T14:14:10.999Z</time></trkpt><trkpt lat="45.43319348867788" lon="11.122739047052"><ele>137.0</ele><time>2026-04-04T14:14:12.999Z</time></trkpt><trkpt lat="45.43312521881403" lon="11.122912895128119"><ele>137.0</ele><time>2026-04-04T14:14:14.999Z</time></trkpt><trkpt lat="45.433106135169254" lon="11.123044016836275"><ele>137.0</ele><time>2026-04-04T14:14:15.999Z</time></trkpt><trkpt lat="45.43308465812825" lon="11.123149066450601"><ele>137.0</ele><time>2026-04-04T14:14:16.999Z</time></trkpt><trkpt lat="45.43298065896961" lon="11.123183812454553"><ele>137.0</ele><time>2026-04-04T14:14:18.999Z</time></trkpt><trkpt lat="45.432887938338126" lon="11.123128726363213"><ele>137.5</ele><time>2026-04-04T14:14:19.999Z</time></trkpt><trkpt lat="45.43278611963109" lon="11.123037130349974"><ele>138.0</ele><time>2026-04-04T14:14:20.999Z</time></trkpt><trkpt lat="45.432663341002716" lon="11.122944159529455"><ele>138.5</ele><time>2026-04-04T14:14:21.999Z</time></trkpt><trkpt lat="45.432526696773586" lon="11.122854217866275"><ele>139.0</ele><time>2026-04-04T14:14:22.999Z</time></trkpt><trkpt lat="45.43240573509972" lon="11.122758017744962"><ele>139.0</ele><time>2026-04-04T14:14:23.999Z</time></trkpt><trkpt lat="45.43229891239563" lon="11.122659153097205"><ele>139.0</ele><time>2026-04-04T14:14:25Z</time></trkpt><trkpt lat="45.43218883975097" lon="11.122575823961846"><ele>139.0</ele><time>2026-04-04T14:14:26Z</time></trkpt><trkpt lat="45.432057259458766" lon="11.122503438022479"><ele>139.0</ele><time>2026-04-04T14:14:27Z</time></trkpt><trkpt lat="45.43191560056839" lon="11.122438015608832"><ele>136.5</ele><time>2026-04-04T14:14:28Z</time></trkpt><trkpt lat="45.43177845013891" lon="11.122372531054634"><ele>134.0</ele><time>2026-04-04T14:14:29Z</time></trkpt><trkpt lat="45.43164891779811" lon="11.122294033080507"><ele>131.5</ele><time>2026-04-04T14:14:30Z</time></trkpt><trkpt lat="45.431520862236084" lon="11.122217327718047"><ele>129.0</ele><time>2026-04-04T14:14:31Z</time></trkpt><trkpt lat="45.43140291447927" lon="11.12215430900926"><ele>128.4</ele><time>2026-04-04T14:14:32Z</time></trkpt><trkpt lat="45.4312910008344" lon="11.122132572856508"><ele>127.80000000000001</ele><time>2026-04-04T14:14:33Z</time></trkpt><trkpt lat="45.43116412511022" lon="11.122138674802"><ele>127.19999999999999</ele><time>2026-04-04T14:14:34Z</time></trkpt><trkpt lat="45.43105054124747" lon="11.12213255443201"><ele>126.6</ele><time>2026-04-04T14:14:35Z</time></trkpt><trkpt lat="45.43096821053096" lon="11.122122926618289"><ele>126.0</ele><time>2026-04-04T14:14:36Z</time></trkpt><trkpt lat="45.430889124350976" lon="11.122215625136295"><ele>126.0</ele><time>2026-04-04T14:14:38Z</time></trkpt><trkpt lat="45.43088197224517" lon="11.122321743059675"><ele>126.0</ele><time>2026-04-04T14:14:39Z</time></trkpt><trkpt lat="45.430881445029804" lon="11.122469388308984"><ele>126.0</ele><time>2026-04-04T14:14:40Z</time></trkpt><trkpt lat="45.430866172008415" lon="11.12262300902622"><ele>126.0</ele><time>2026-04-04T14:14:41Z</time></trkpt><trkpt lat="45.43084002973052" lon="11.122759137492958"><ele>126.0</ele><time>2026-04-04T14:14:42Z</time></trkpt><trkpt lat="45.43079979569008" lon="11.122851941000459"><ele>126.83333333333333</ele><time>2026-04-04T14:14:43Z</time></trkpt><trkpt lat="45.43074386729233" lon="11.122901773445404"><ele>127.66666666666666</ele><time>2026-04-04T14:14:44Z</time></trkpt><trkpt lat="45.430675106067945" lon="11.122891100983262"><ele>128.5</ele><time>2026-04-04T14:14:45Z</time></trkpt><trkpt lat="45.430597217837125" lon="11.122841435710068"><ele>129.33333333333331</ele><time>2026-04-04T14:14:46Z</time></trkpt><trkpt lat="45.430515222075385" lon="11.122800133773563"><ele>130.16666666666666</ele><time>2026-04-04T14:14:47Z</time></trkpt><trkpt lat="45.430420085263776" lon="11.12290874055878"><ele>131.0</ele><time>2026-04-04T14:14:49Z</time></trkpt><trkpt lat="45.43040686765561" lon="11.123030135740542"><ele>131.0</ele><time>2026-04-04T14:14:50Z</time></trkpt><trkpt lat="45.430391311185836" lon="11.123179180220152"><ele>131.0</ele><time>2026-04-04T14:14:51.001Z</time></trkpt><trkpt lat="45.4303736697132" lon="11.123321706275549"><ele>131.0</ele><time>2026-04-04T14:14:52.001Z</time></trkpt><trkpt lat="45.430346861535874" lon="11.12343668042572"><ele>131.0</ele><time>2026-04-04T14:14:53.001Z</time></trkpt><trkpt lat="45.43031376182526" lon="11.123528685156682"><ele>131.0</ele><time>2026-04-04T14:14:54.001Z</time></trkpt><trkpt lat="45.43025295833322" lon="11.123590281930168"><ele>131.0</ele><time>2026-04-04T14:14:55.001Z</time></trkpt><trkpt lat="45.430177988190906" lon="11.12361086366585"><ele>131.0</ele><time>2026-04-04T14:14:56.001Z</time></trkpt><trkpt lat="45.43007950302285" lon="11.123576051896844"><ele>131.0</ele><time>2026-04-04T14:14:57.001Z</time></trkpt><trkpt lat="45.42996221316948" lon="11.123510799338927"><ele>131.0</ele><time>2026-04-04T14:14:58.001Z</time></trkpt><trkpt lat="45.429860844411536" lon="11.123456452922788"><ele>131.0</ele><time>2026-04-04T14:14:59.001Z</time></trkpt><trkpt lat="45.429791947563864" lon="11.123412907033368"><ele>131.0</ele><time>2026-04-04T14:15:00.001Z</time></trkpt><trkpt lat="45.42976237112948" lon="11.123241868818255"><ele>131.0</ele><time>2026-04-04T14:15:02.001Z</time></trkpt><trkpt lat="45.42980004266491" lon="11.123139597908624"><ele>131.0</ele><time>2026-04-04T14:15:03.001Z</time></trkpt><trkpt lat="45.42983417755869" lon="11.123057229149104"><ele>131.0</ele><time>2026-04-04T14:19:42.001Z</time></trkpt><trkpt lat="45.42987414091202" lon="11.122981832104971"><ele>131.0</ele><time>2026-04-04T14:19:48.001Z</time></trkpt></trkseg></trk></gpx>